<?xml version="1.0" encoding="UTF-8" standalone="no" ?>
<gpx xmlns="http://www.topografix.com/GPX/1/1" xmlns:xsi="http://www.w3.org/2001/XMLSchema-instance" xsi:schemaLocation="http://www.topografix.com/GPX/1/1 http://www.topografix.com/GPX/1/1/gpx.xsd" version="1.1" creator="VisuGPX - https://www.visugpx.com">
  <metadata>
    <name>Moirans en Montagne-Barrage de Vouglans-Lect</name>
  </metadata>
  <trk>
    <name><![CDATA[Moirans en Montagne-Barrage de Vouglans-Lect_1]]></name>
    <extensions>
      <line xmlns="http://www.topografix.com/GPX/gpx_style/0/2">
        <color>0000FF</color>
        <width>4</width>
      </line>
    </extensions>
    <trkseg>
      <trkpt lat="46.41847" lon="5.69302">
        <ele>576.6</ele>
        <time>2022-06-09T07:32:44Z</time>
      </trkpt>
      <trkpt lat="46.41846" lon="5.69294">
        <ele>576.6</ele>
        <time>2022-06-09T07:32:51Z</time>
      </trkpt>
      <trkpt lat="46.41846" lon="5.69287">
        <ele>576.6</ele>
        <time>2022-06-09T07:32:56Z</time>
      </trkpt>
      <trkpt lat="46.41849" lon="5.69279">
        <ele>576.6</ele>
        <time>2022-06-09T07:33:05Z</time>
      </trkpt>
      <trkpt lat="46.41851" lon="5.69273">
        <ele>576.5</ele>
        <time>2022-06-09T07:33:12Z</time>
      </trkpt>
      <trkpt lat="46.41852" lon="5.69281">
        <ele>576.2</ele>
        <time>2022-06-09T07:33:17Z</time>
      </trkpt>
      <trkpt lat="46.41847" lon="5.69285">
        <ele>575.9</ele>
        <time>2022-06-09T07:33:28Z</time>
      </trkpt>
      <trkpt lat="46.41841" lon="5.69287">
        <ele>576.1</ele>
        <time>2022-06-09T07:33:34Z</time>
      </trkpt>
      <trkpt lat="46.41836" lon="5.69287">
        <ele>576.5</ele>
        <time>2022-06-09T07:33:38Z</time>
      </trkpt>
      <trkpt lat="46.41836" lon="5.69294">
        <ele>580.9</ele>
        <time>2022-06-09T07:34:04Z</time>
      </trkpt>
      <trkpt lat="46.41835" lon="5.69302">
        <ele>585.8</ele>
        <time>2022-06-09T07:34:09Z</time>
      </trkpt>
      <trkpt lat="46.4183" lon="5.69304">
        <ele>591.5</ele>
        <time>2022-06-09T07:34:18Z</time>
      </trkpt>
      <trkpt lat="46.41826" lon="5.69301">
        <ele>596</ele>
        <time>2022-06-09T07:34:31Z</time>
      </trkpt>
      <trkpt lat="46.41822" lon="5.69296">
        <ele>596.8</ele>
        <time>2022-06-09T07:34:39Z</time>
      </trkpt>
      <trkpt lat="46.41818" lon="5.69297">
        <ele>598.8</ele>
        <time>2022-06-09T07:35:15Z</time>
      </trkpt>
      <trkpt lat="46.41817" lon="5.69304">
        <ele>602.7</ele>
        <time>2022-06-09T07:35:27Z</time>
      </trkpt>
      <trkpt lat="46.41818" lon="5.6931">
        <ele>606.5</ele>
        <time>2022-06-09T07:36:02Z</time>
      </trkpt>
      <trkpt lat="46.41817" lon="5.69304">
        <ele>616.4</ele>
        <time>2022-06-09T07:36:39Z</time>
      </trkpt>
      <trkpt lat="46.41814" lon="5.6931">
        <ele>617.7</ele>
        <time>2022-06-09T07:36:55Z</time>
      </trkpt>
      <trkpt lat="46.41818" lon="5.69316">
        <ele>620.2</ele>
        <time>2022-06-09T07:37:03Z</time>
      </trkpt>
      <trkpt lat="46.41817" lon="5.69309">
        <ele>626.6</ele>
        <time>2022-06-09T07:37:31Z</time>
      </trkpt>
      <trkpt lat="46.41815" lon="5.69303">
        <ele>627.1</ele>
        <time>2022-06-09T07:37:36Z</time>
      </trkpt>
      <trkpt lat="46.41815" lon="5.69296">
        <ele>628</ele>
        <time>2022-06-09T07:37:44Z</time>
      </trkpt>
      <trkpt lat="46.41816" lon="5.6929">
        <ele>628</ele>
        <time>2022-06-09T07:37:51Z</time>
      </trkpt>
      <trkpt lat="46.41816" lon="5.69283">
        <ele>626.1</ele>
        <time>2022-06-09T07:37:59Z</time>
      </trkpt>
      <trkpt lat="46.41813" lon="5.69277">
        <ele>624.6</ele>
        <time>2022-06-09T07:38:06Z</time>
      </trkpt>
      <trkpt lat="46.41811" lon="5.69271">
        <ele>625.2</ele>
        <time>2022-06-09T07:38:11Z</time>
      </trkpt>
      <trkpt lat="46.4181" lon="5.69264">
        <ele>626.1</ele>
        <time>2022-06-09T07:38:15Z</time>
      </trkpt>
      <trkpt lat="46.41808" lon="5.69258">
        <ele>626.4</ele>
        <time>2022-06-09T07:38:24Z</time>
      </trkpt>
      <trkpt lat="46.41807" lon="5.69251">
        <ele>624.8</ele>
        <time>2022-06-09T07:38:45Z</time>
      </trkpt>
      <trkpt lat="46.41802" lon="5.69251">
        <ele>624.6</ele>
        <time>2022-06-09T07:40:53Z</time>
      </trkpt>
      <trkpt lat="46.41798" lon="5.69252">
        <ele>624.1</ele>
        <time>2022-06-09T07:40:57Z</time>
      </trkpt>
      <trkpt lat="46.41793" lon="5.69253">
        <ele>623.6</ele>
        <time>2022-06-09T07:41:01Z</time>
      </trkpt>
      <trkpt lat="46.41787" lon="5.69253">
        <ele>623.1</ele>
        <time>2022-06-09T07:41:06Z</time>
      </trkpt>
      <trkpt lat="46.41783" lon="5.6925">
        <ele>623</ele>
        <time>2022-06-09T07:41:12Z</time>
      </trkpt>
      <trkpt lat="46.41779" lon="5.69247">
        <ele>622.9</ele>
        <time>2022-06-09T07:41:17Z</time>
      </trkpt>
      <trkpt lat="46.41774" lon="5.69246">
        <ele>623.3</ele>
        <time>2022-06-09T07:41:25Z</time>
      </trkpt>
      <trkpt lat="46.4177" lon="5.69243">
        <ele>623</ele>
        <time>2022-06-09T07:41:32Z</time>
      </trkpt>
      <trkpt lat="46.41765" lon="5.6924">
        <ele>622.6</ele>
        <time>2022-06-09T07:41:38Z</time>
      </trkpt>
      <trkpt lat="46.41768" lon="5.69234">
        <ele>625.5</ele>
        <time>2022-06-09T07:41:58Z</time>
      </trkpt>
      <trkpt lat="46.4177" lon="5.69228">
        <ele>625.9</ele>
        <time>2022-06-09T07:42:04Z</time>
      </trkpt>
      <trkpt lat="46.41774" lon="5.69222">
        <ele>626.2</ele>
        <time>2022-06-09T07:42:11Z</time>
      </trkpt>
      <trkpt lat="46.41777" lon="5.69216">
        <ele>626.4</ele>
        <time>2022-06-09T07:42:16Z</time>
      </trkpt>
      <trkpt lat="46.41779" lon="5.69209">
        <ele>626.7</ele>
        <time>2022-06-09T07:42:20Z</time>
      </trkpt>
      <trkpt lat="46.41781" lon="5.69202">
        <ele>627.2</ele>
        <time>2022-06-09T07:42:25Z</time>
      </trkpt>
      <trkpt lat="46.41784" lon="5.69196">
        <ele>628.1</ele>
        <time>2022-06-09T07:42:31Z</time>
      </trkpt>
      <trkpt lat="46.41788" lon="5.69192">
        <ele>628.5</ele>
        <time>2022-06-09T07:42:36Z</time>
      </trkpt>
      <trkpt lat="46.41793" lon="5.69189">
        <ele>628.4</ele>
        <time>2022-06-09T07:42:41Z</time>
      </trkpt>
      <trkpt lat="46.41796" lon="5.69183">
        <ele>628.4</ele>
        <time>2022-06-09T07:42:46Z</time>
      </trkpt>
      <trkpt lat="46.41797" lon="5.69176">
        <ele>628.5</ele>
        <time>2022-06-09T07:42:52Z</time>
      </trkpt>
      <trkpt lat="46.41797" lon="5.69169">
        <ele>629.2</ele>
        <time>2022-06-09T07:42:58Z</time>
      </trkpt>
      <trkpt lat="46.418" lon="5.69162">
        <ele>630.3</ele>
        <time>2022-06-09T07:43:02Z</time>
      </trkpt>
      <trkpt lat="46.41803" lon="5.69157">
        <ele>631.2</ele>
        <time>2022-06-09T07:43:06Z</time>
      </trkpt>
      <trkpt lat="46.41804" lon="5.6915">
        <ele>631.9</ele>
        <time>2022-06-09T07:43:11Z</time>
      </trkpt>
      <trkpt lat="46.41809" lon="5.69147">
        <ele>632.5</ele>
        <time>2022-06-09T07:43:15Z</time>
      </trkpt>
      <trkpt lat="46.41812" lon="5.69143">
        <ele>632.8</ele>
        <time>2022-06-09T07:43:20Z</time>
      </trkpt>
      <trkpt lat="46.41817" lon="5.69141">
        <ele>633.1</ele>
        <time>2022-06-09T07:43:25Z</time>
      </trkpt>
      <trkpt lat="46.41822" lon="5.69137">
        <ele>633.5</ele>
        <time>2022-06-09T07:43:29Z</time>
      </trkpt>
      <trkpt lat="46.41826" lon="5.69134">
        <ele>633.8</ele>
        <time>2022-06-09T07:43:33Z</time>
      </trkpt>
      <trkpt lat="46.4183" lon="5.6913">
        <ele>634.4</ele>
        <time>2022-06-09T07:43:40Z</time>
      </trkpt>
      <trkpt lat="46.41834" lon="5.69126">
        <ele>634.9</ele>
        <time>2022-06-09T07:43:45Z</time>
      </trkpt>
      <trkpt lat="46.41836" lon="5.69118">
        <ele>635.3</ele>
        <time>2022-06-09T07:43:54Z</time>
      </trkpt>
      <trkpt lat="46.41841" lon="5.69114">
        <ele>635.6</ele>
        <time>2022-06-09T07:43:58Z</time>
      </trkpt>
      <trkpt lat="46.41845" lon="5.69112">
        <ele>635.9</ele>
        <time>2022-06-09T07:44:03Z</time>
      </trkpt>
      <trkpt lat="46.41849" lon="5.69109">
        <ele>635.5</ele>
        <time>2022-06-09T07:44:13Z</time>
      </trkpt>
      <trkpt lat="46.41854" lon="5.69107">
        <ele>634.5</ele>
        <time>2022-06-09T07:44:19Z</time>
      </trkpt>
      <trkpt lat="46.41859" lon="5.69104">
        <ele>633.8</ele>
        <time>2022-06-09T07:44:24Z</time>
      </trkpt>
      <trkpt lat="46.41863" lon="5.69101">
        <ele>633.9</ele>
        <time>2022-06-09T07:44:28Z</time>
      </trkpt>
      <trkpt lat="46.41867" lon="5.69097">
        <ele>634.4</ele>
        <time>2022-06-09T07:44:32Z</time>
      </trkpt>
      <trkpt lat="46.41871" lon="5.69094">
        <ele>634.8</ele>
        <time>2022-06-09T07:44:36Z</time>
      </trkpt>
      <trkpt lat="46.41876" lon="5.69092">
        <ele>634.8</ele>
        <time>2022-06-09T07:44:41Z</time>
      </trkpt>
      <trkpt lat="46.41881" lon="5.69093">
        <ele>634.4</ele>
        <time>2022-06-09T07:44:47Z</time>
      </trkpt>
      <trkpt lat="46.41886" lon="5.6909">
        <ele>634.1</ele>
        <time>2022-06-09T07:44:52Z</time>
      </trkpt>
      <trkpt lat="46.41889" lon="5.69086">
        <ele>634</ele>
        <time>2022-06-09T07:44:56Z</time>
      </trkpt>
      <trkpt lat="46.41893" lon="5.69081">
        <ele>634.3</ele>
        <time>2022-06-09T07:45:00Z</time>
      </trkpt>
      <trkpt lat="46.41897" lon="5.69077">
        <ele>634.5</ele>
        <time>2022-06-09T07:45:05Z</time>
      </trkpt>
      <trkpt lat="46.419" lon="5.69072">
        <ele>634.8</ele>
        <time>2022-06-09T07:45:10Z</time>
      </trkpt>
      <trkpt lat="46.41902" lon="5.69065">
        <ele>635.8</ele>
        <time>2022-06-09T07:45:15Z</time>
      </trkpt>
      <trkpt lat="46.41904" lon="5.69058">
        <ele>636.5</ele>
        <time>2022-06-09T07:45:20Z</time>
      </trkpt>
      <trkpt lat="46.41906" lon="5.69052">
        <ele>637.1</ele>
        <time>2022-06-09T07:45:24Z</time>
      </trkpt>
      <trkpt lat="46.41909" lon="5.69046">
        <ele>637.4</ele>
        <time>2022-06-09T07:45:28Z</time>
      </trkpt>
      <trkpt lat="46.41913" lon="5.69042">
        <ele>637.9</ele>
        <time>2022-06-09T07:45:33Z</time>
      </trkpt>
      <trkpt lat="46.41917" lon="5.69037">
        <ele>638.5</ele>
        <time>2022-06-09T07:45:39Z</time>
      </trkpt>
      <trkpt lat="46.4192" lon="5.69032">
        <ele>638.6</ele>
        <time>2022-06-09T07:45:45Z</time>
      </trkpt>
      <trkpt lat="46.41923" lon="5.69027">
        <ele>638.7</ele>
        <time>2022-06-09T07:45:50Z</time>
      </trkpt>
      <trkpt lat="46.41927" lon="5.69022">
        <ele>638.3</ele>
        <time>2022-06-09T07:45:57Z</time>
      </trkpt>
      <trkpt lat="46.4193" lon="5.69017">
        <ele>637.8</ele>
        <time>2022-06-09T07:46:04Z</time>
      </trkpt>
      <trkpt lat="46.41932" lon="5.6901">
        <ele>638.1</ele>
        <time>2022-06-09T07:46:09Z</time>
      </trkpt>
      <trkpt lat="46.41932" lon="5.69002">
        <ele>638.3</ele>
        <time>2022-06-09T07:46:15Z</time>
      </trkpt>
      <trkpt lat="46.41935" lon="5.68997">
        <ele>638.2</ele>
        <time>2022-06-09T07:46:21Z</time>
      </trkpt>
      <trkpt lat="46.41938" lon="5.68992">
        <ele>637.9</ele>
        <time>2022-06-09T07:46:27Z</time>
      </trkpt>
      <trkpt lat="46.41942" lon="5.68988">
        <ele>637.6</ele>
        <time>2022-06-09T07:46:32Z</time>
      </trkpt>
      <trkpt lat="46.41947" lon="5.68983">
        <ele>637.8</ele>
        <time>2022-06-09T07:46:35Z</time>
      </trkpt>
      <trkpt lat="46.4195" lon="5.68978">
        <ele>638.2</ele>
        <time>2022-06-09T07:46:39Z</time>
      </trkpt>
      <trkpt lat="46.41953" lon="5.68972">
        <ele>638.9</ele>
        <time>2022-06-09T07:46:47Z</time>
      </trkpt>
      <trkpt lat="46.41957" lon="5.68967">
        <ele>638.9</ele>
        <time>2022-06-09T07:46:52Z</time>
      </trkpt>
      <trkpt lat="46.41961" lon="5.68963">
        <ele>639</ele>
        <time>2022-06-09T07:46:58Z</time>
      </trkpt>
      <trkpt lat="46.41964" lon="5.68958">
        <ele>639</ele>
        <time>2022-06-09T07:47:05Z</time>
      </trkpt>
      <trkpt lat="46.41972" lon="5.68954">
        <ele>638.1</ele>
        <time>2022-06-09T07:47:20Z</time>
      </trkpt>
      <trkpt lat="46.41976" lon="5.6895">
        <ele>637.6</ele>
        <time>2022-06-09T07:47:23Z</time>
      </trkpt>
      <trkpt lat="46.4198" lon="5.68945">
        <ele>636.7</ele>
        <time>2022-06-09T07:47:27Z</time>
      </trkpt>
      <trkpt lat="46.41984" lon="5.68941">
        <ele>636</ele>
        <time>2022-06-09T07:47:31Z</time>
      </trkpt>
      <trkpt lat="46.4199" lon="5.68936">
        <ele>635.8</ele>
        <time>2022-06-09T07:47:34Z</time>
      </trkpt>
      <trkpt lat="46.41994" lon="5.68932">
        <ele>635.4</ele>
        <time>2022-06-09T07:47:37Z</time>
      </trkpt>
      <trkpt lat="46.41999" lon="5.68929">
        <ele>635</ele>
        <time>2022-06-09T07:47:43Z</time>
      </trkpt>
      <trkpt lat="46.42004" lon="5.68927">
        <ele>635.1</ele>
        <time>2022-06-09T07:47:46Z</time>
      </trkpt>
      <trkpt lat="46.42008" lon="5.68923">
        <ele>635.3</ele>
        <time>2022-06-09T07:47:50Z</time>
      </trkpt>
      <trkpt lat="46.42012" lon="5.68921">
        <ele>635.6</ele>
        <time>2022-06-09T07:47:54Z</time>
      </trkpt>
      <trkpt lat="46.42016" lon="5.68918">
        <ele>635.7</ele>
        <time>2022-06-09T07:47:59Z</time>
      </trkpt>
      <trkpt lat="46.42021" lon="5.68914">
        <ele>635.5</ele>
        <time>2022-06-09T07:48:04Z</time>
      </trkpt>
      <trkpt lat="46.42024" lon="5.68909">
        <ele>635.4</ele>
        <time>2022-06-09T07:48:09Z</time>
      </trkpt>
      <trkpt lat="46.42028" lon="5.68903">
        <ele>635.1</ele>
        <time>2022-06-09T07:48:14Z</time>
      </trkpt>
      <trkpt lat="46.42032" lon="5.689">
        <ele>635.1</ele>
        <time>2022-06-09T07:48:17Z</time>
      </trkpt>
      <trkpt lat="46.42037" lon="5.68897">
        <ele>634.9</ele>
        <time>2022-06-09T07:48:21Z</time>
      </trkpt>
      <trkpt lat="46.42041" lon="5.68894">
        <ele>634.1</ele>
        <time>2022-06-09T07:48:27Z</time>
      </trkpt>
      <trkpt lat="46.42046" lon="5.68893">
        <ele>633.7</ele>
        <time>2022-06-09T07:48:33Z</time>
      </trkpt>
      <trkpt lat="46.42051" lon="5.68891">
        <ele>633.5</ele>
        <time>2022-06-09T07:48:40Z</time>
      </trkpt>
      <trkpt lat="46.42054" lon="5.68887">
        <ele>633.6</ele>
        <time>2022-06-09T07:48:45Z</time>
      </trkpt>
      <trkpt lat="46.42058" lon="5.68883">
        <ele>633.7</ele>
        <time>2022-06-09T07:48:51Z</time>
      </trkpt>
      <trkpt lat="46.42062" lon="5.6888">
        <ele>633.9</ele>
        <time>2022-06-09T07:48:57Z</time>
      </trkpt>
      <trkpt lat="46.42067" lon="5.68876">
        <ele>633.8</ele>
        <time>2022-06-09T07:49:05Z</time>
      </trkpt>
      <trkpt lat="46.42071" lon="5.68874">
        <ele>633.5</ele>
        <time>2022-06-09T07:49:11Z</time>
      </trkpt>
      <trkpt lat="46.42076" lon="5.68871">
        <ele>633.6</ele>
        <time>2022-06-09T07:49:15Z</time>
      </trkpt>
      <trkpt lat="46.4208" lon="5.68869">
        <ele>633.4</ele>
        <time>2022-06-09T07:49:20Z</time>
      </trkpt>
      <trkpt lat="46.42084" lon="5.68866">
        <ele>633.5</ele>
        <time>2022-06-09T07:49:24Z</time>
      </trkpt>
      <trkpt lat="46.42088" lon="5.68861">
        <ele>633.9</ele>
        <time>2022-06-09T07:49:29Z</time>
      </trkpt>
      <trkpt lat="46.42093" lon="5.68856">
        <ele>634</ele>
        <time>2022-06-09T07:49:35Z</time>
      </trkpt>
      <trkpt lat="46.42097" lon="5.68851">
        <ele>634.2</ele>
        <time>2022-06-09T07:49:39Z</time>
      </trkpt>
      <trkpt lat="46.42099" lon="5.68846">
        <ele>634.2</ele>
        <time>2022-06-09T07:49:43Z</time>
      </trkpt>
      <trkpt lat="46.42104" lon="5.68842">
        <ele>633.8</ele>
        <time>2022-06-09T07:49:48Z</time>
      </trkpt>
      <trkpt lat="46.42108" lon="5.68838">
        <ele>633.3</ele>
        <time>2022-06-09T07:49:55Z</time>
      </trkpt>
      <trkpt lat="46.4211" lon="5.68832">
        <ele>633.1</ele>
        <time>2022-06-09T07:50:01Z</time>
      </trkpt>
      <trkpt lat="46.42113" lon="5.68827">
        <ele>633.3</ele>
        <time>2022-06-09T07:50:06Z</time>
      </trkpt>
      <trkpt lat="46.42117" lon="5.68821">
        <ele>633.5</ele>
        <time>2022-06-09T07:50:12Z</time>
      </trkpt>
      <trkpt lat="46.4212" lon="5.68816">
        <ele>633.7</ele>
        <time>2022-06-09T07:50:17Z</time>
      </trkpt>
      <trkpt lat="46.42123" lon="5.68812">
        <ele>633.9</ele>
        <time>2022-06-09T07:50:23Z</time>
      </trkpt>
      <trkpt lat="46.42127" lon="5.68806">
        <ele>634.2</ele>
        <time>2022-06-09T07:50:28Z</time>
      </trkpt>
      <trkpt lat="46.42131" lon="5.68801">
        <ele>634.4</ele>
        <time>2022-06-09T07:50:33Z</time>
      </trkpt>
      <trkpt lat="46.42134" lon="5.68796">
        <ele>634.1</ele>
        <time>2022-06-09T07:50:39Z</time>
      </trkpt>
      <trkpt lat="46.42137" lon="5.68791">
        <ele>633.6</ele>
        <time>2022-06-09T07:50:45Z</time>
      </trkpt>
      <trkpt lat="46.42141" lon="5.68786">
        <ele>632.8</ele>
        <time>2022-06-09T07:50:51Z</time>
      </trkpt>
      <trkpt lat="46.42144" lon="5.68781">
        <ele>632</ele>
        <time>2022-06-09T07:50:58Z</time>
      </trkpt>
      <trkpt lat="46.42147" lon="5.68775">
        <ele>631.4</ele>
        <time>2022-06-09T07:51:04Z</time>
      </trkpt>
      <trkpt lat="46.42149" lon="5.68768">
        <ele>630.9</ele>
        <time>2022-06-09T07:51:08Z</time>
      </trkpt>
      <trkpt lat="46.42152" lon="5.68762">
        <ele>630.6</ele>
        <time>2022-06-09T07:51:11Z</time>
      </trkpt>
      <trkpt lat="46.42155" lon="5.68755">
        <ele>630.3</ele>
        <time>2022-06-09T07:51:15Z</time>
      </trkpt>
      <trkpt lat="46.42158" lon="5.68749">
        <ele>630.2</ele>
        <time>2022-06-09T07:51:20Z</time>
      </trkpt>
      <trkpt lat="46.42161" lon="5.68743">
        <ele>630.6</ele>
        <time>2022-06-09T07:51:24Z</time>
      </trkpt>
      <trkpt lat="46.42163" lon="5.68736">
        <ele>630.9</ele>
        <time>2022-06-09T07:51:28Z</time>
      </trkpt>
      <trkpt lat="46.42166" lon="5.68731">
        <ele>631</ele>
        <time>2022-06-09T07:51:33Z</time>
      </trkpt>
      <trkpt lat="46.42169" lon="5.68725">
        <ele>630.8</ele>
        <time>2022-06-09T07:51:40Z</time>
      </trkpt>
      <trkpt lat="46.42169" lon="5.68718">
        <ele>630.9</ele>
        <time>2022-06-09T07:51:46Z</time>
      </trkpt>
      <trkpt lat="46.42168" lon="5.68711">
        <ele>630.2</ele>
        <time>2022-06-09T07:51:53Z</time>
      </trkpt>
      <trkpt lat="46.42169" lon="5.68704">
        <ele>630.2</ele>
        <time>2022-06-09T07:51:57Z</time>
      </trkpt>
      <trkpt lat="46.42172" lon="5.68698">
        <ele>630.4</ele>
        <time>2022-06-09T07:52:03Z</time>
      </trkpt>
      <trkpt lat="46.42173" lon="5.68691">
        <ele>630.5</ele>
        <time>2022-06-09T07:52:08Z</time>
      </trkpt>
      <trkpt lat="46.42177" lon="5.68685">
        <ele>628.6</ele>
        <time>2022-06-09T07:53:16Z</time>
      </trkpt>
      <trkpt lat="46.42172" lon="5.68687">
        <ele>626</ele>
        <time>2022-06-09T07:55:27Z</time>
      </trkpt>
      <trkpt lat="46.42177" lon="5.68689">
        <ele>628.3</ele>
        <time>2022-06-09T07:56:43Z</time>
      </trkpt>
      <trkpt lat="46.42177" lon="5.68683">
        <ele>629.1</ele>
        <time>2022-06-09T07:57:30Z</time>
      </trkpt>
      <trkpt lat="46.42171" lon="5.68683">
        <ele>629.3</ele>
        <time>2022-06-09T07:59:00Z</time>
      </trkpt>
      <trkpt lat="46.42166" lon="5.68682">
        <ele>629</ele>
        <time>2022-06-09T07:59:05Z</time>
      </trkpt>
      <trkpt lat="46.42161" lon="5.68684">
        <ele>628.6</ele>
        <time>2022-06-09T07:59:13Z</time>
      </trkpt>
      <trkpt lat="46.42156" lon="5.68684">
        <ele>628.5</ele>
        <time>2022-06-09T07:59:21Z</time>
      </trkpt>
      <trkpt lat="46.42152" lon="5.68685">
        <ele>628.6</ele>
        <time>2022-06-09T07:59:29Z</time>
      </trkpt>
      <trkpt lat="46.42147" lon="5.68688">
        <ele>628.5</ele>
        <time>2022-06-09T07:59:34Z</time>
      </trkpt>
      <trkpt lat="46.42142" lon="5.68689">
        <ele>628.4</ele>
        <time>2022-06-09T07:59:40Z</time>
      </trkpt>
      <trkpt lat="46.42138" lon="5.68691">
        <ele>628.7</ele>
        <time>2022-06-09T07:59:46Z</time>
      </trkpt>
      <trkpt lat="46.42133" lon="5.68693">
        <ele>628.9</ele>
        <time>2022-06-09T07:59:57Z</time>
      </trkpt>
      <trkpt lat="46.42128" lon="5.68693">
        <ele>629.5</ele>
        <time>2022-06-09T08:00:04Z</time>
      </trkpt>
      <trkpt lat="46.42124" lon="5.68697">
        <ele>631.3</ele>
        <time>2022-06-09T08:00:16Z</time>
      </trkpt>
      <trkpt lat="46.4212" lon="5.68701">
        <ele>632.7</ele>
        <time>2022-06-09T08:00:27Z</time>
      </trkpt>
      <trkpt lat="46.42116" lon="5.68705">
        <ele>632.5</ele>
        <time>2022-06-09T08:00:34Z</time>
      </trkpt>
      <trkpt lat="46.42113" lon="5.6871">
        <ele>632</ele>
        <time>2022-06-09T08:00:40Z</time>
      </trkpt>
      <trkpt lat="46.42108" lon="5.68711">
        <ele>632.5</ele>
        <time>2022-06-09T08:00:51Z</time>
      </trkpt>
      <trkpt lat="46.42106" lon="5.68717">
        <ele>632.7</ele>
        <time>2022-06-09T08:00:56Z</time>
      </trkpt>
      <trkpt lat="46.42103" lon="5.68713">
        <ele>634</ele>
        <time>2022-06-09T08:01:06Z</time>
      </trkpt>
      <trkpt lat="46.42098" lon="5.68713">
        <ele>634.8</ele>
        <time>2022-06-09T08:01:13Z</time>
      </trkpt>
      <trkpt lat="46.42093" lon="5.68711">
        <ele>635.4</ele>
        <time>2022-06-09T08:01:21Z</time>
      </trkpt>
      <trkpt lat="46.42098" lon="5.6871">
        <ele>634.9</ele>
        <time>2022-06-09T08:01:35Z</time>
      </trkpt>
      <trkpt lat="46.42095" lon="5.68715">
        <ele>634</ele>
        <time>2022-06-09T08:01:53Z</time>
      </trkpt>
      <trkpt lat="46.42092" lon="5.6871">
        <ele>633.6</ele>
        <time>2022-06-09T08:02:00Z</time>
      </trkpt>
      <trkpt lat="46.42093" lon="5.68702">
        <ele>633.3</ele>
        <time>2022-06-09T08:02:10Z</time>
      </trkpt>
      <trkpt lat="46.42098" lon="5.68703">
        <ele>632.6</ele>
        <time>2022-06-09T08:02:23Z</time>
      </trkpt>
      <trkpt lat="46.421" lon="5.68696">
        <ele>631</ele>
        <time>2022-06-09T08:02:32Z</time>
      </trkpt>
      <trkpt lat="46.42095" lon="5.68695">
        <ele>629.7</ele>
        <time>2022-06-09T08:02:39Z</time>
      </trkpt>
      <trkpt lat="46.4209" lon="5.68692">
        <ele>629.6</ele>
        <time>2022-06-09T08:02:43Z</time>
      </trkpt>
      <trkpt lat="46.42089" lon="5.68699">
        <ele>628.6</ele>
        <time>2022-06-09T08:03:11Z</time>
      </trkpt>
      <trkpt lat="46.42093" lon="5.68703">
        <ele>628</ele>
        <time>2022-06-09T08:03:25Z</time>
      </trkpt>
      <trkpt lat="46.42091" lon="5.68697">
        <ele>627.6</ele>
        <time>2022-06-09T08:03:33Z</time>
      </trkpt>
      <trkpt lat="46.42091" lon="5.6869">
        <ele>627.6</ele>
        <time>2022-06-09T08:03:41Z</time>
      </trkpt>
      <trkpt lat="46.42086" lon="5.68692">
        <ele>626.2</ele>
        <time>2022-06-09T08:03:55Z</time>
      </trkpt>
      <trkpt lat="46.42089" lon="5.68698">
        <ele>626.6</ele>
        <time>2022-06-09T08:04:29Z</time>
      </trkpt>
      <trkpt lat="46.42088" lon="5.68705">
        <ele>625.8</ele>
        <time>2022-06-09T08:04:37Z</time>
      </trkpt>
      <trkpt lat="46.42084" lon="5.68698">
        <ele>626.7</ele>
        <time>2022-06-09T08:05:07Z</time>
      </trkpt>
      <trkpt lat="46.42084" lon="5.68691">
        <ele>626.6</ele>
        <time>2022-06-09T08:05:10Z</time>
      </trkpt>
      <trkpt lat="46.42084" lon="5.68684">
        <ele>626.2</ele>
        <time>2022-06-09T08:05:34Z</time>
      </trkpt>
      <trkpt lat="46.4208" lon="5.6868">
        <ele>625.4</ele>
        <time>2022-06-09T08:05:51Z</time>
      </trkpt>
      <trkpt lat="46.42075" lon="5.68679">
        <ele>625.1</ele>
        <time>2022-06-09T08:05:57Z</time>
      </trkpt>
      <trkpt lat="46.42071" lon="5.68677">
        <ele>624.9</ele>
        <time>2022-06-09T08:06:01Z</time>
      </trkpt>
      <trkpt lat="46.42068" lon="5.68671">
        <ele>624.9</ele>
        <time>2022-06-09T08:06:08Z</time>
      </trkpt>
      <trkpt lat="46.42063" lon="5.68671">
        <ele>624.7</ele>
        <time>2022-06-09T08:06:15Z</time>
      </trkpt>
      <trkpt lat="46.42058" lon="5.68668">
        <ele>624.6</ele>
        <time>2022-06-09T08:06:19Z</time>
      </trkpt>
      <trkpt lat="46.42054" lon="5.68666">
        <ele>624.3</ele>
        <time>2022-06-09T08:06:23Z</time>
      </trkpt>
      <trkpt lat="46.42049" lon="5.68663">
        <ele>624</ele>
        <time>2022-06-09T08:06:26Z</time>
      </trkpt>
      <trkpt lat="46.42046" lon="5.68658">
        <ele>623.8</ele>
        <time>2022-06-09T08:06:30Z</time>
      </trkpt>
      <trkpt lat="46.42043" lon="5.68653">
        <ele>623.5</ele>
        <time>2022-06-09T08:06:36Z</time>
      </trkpt>
      <trkpt lat="46.42039" lon="5.68647">
        <ele>623.1</ele>
        <time>2022-06-09T08:06:40Z</time>
      </trkpt>
      <trkpt lat="46.42035" lon="5.68642">
        <ele>622.6</ele>
        <time>2022-06-09T08:06:47Z</time>
      </trkpt>
      <trkpt lat="46.4203" lon="5.6864">
        <ele>622.3</ele>
        <time>2022-06-09T08:06:54Z</time>
      </trkpt>
      <trkpt lat="46.42024" lon="5.68641">
        <ele>622.3</ele>
        <time>2022-06-09T08:07:03Z</time>
      </trkpt>
      <trkpt lat="46.4202" lon="5.68645">
        <ele>621.8</ele>
        <time>2022-06-09T08:07:07Z</time>
      </trkpt>
      <trkpt lat="46.42016" lon="5.68648">
        <ele>621</ele>
        <time>2022-06-09T08:07:14Z</time>
      </trkpt>
      <trkpt lat="46.42012" lon="5.68651">
        <ele>620.7</ele>
        <time>2022-06-09T08:07:18Z</time>
      </trkpt>
      <trkpt lat="46.42007" lon="5.68652">
        <ele>621.3</ele>
        <time>2022-06-09T08:07:23Z</time>
      </trkpt>
      <trkpt lat="46.42001" lon="5.68652">
        <ele>622.4</ele>
        <time>2022-06-09T08:07:27Z</time>
      </trkpt>
      <trkpt lat="46.41996" lon="5.68654">
        <ele>623.5</ele>
        <time>2022-06-09T08:07:32Z</time>
      </trkpt>
      <trkpt lat="46.41991" lon="5.68656">
        <ele>625.6</ele>
        <time>2022-06-09T08:07:37Z</time>
      </trkpt>
      <trkpt lat="46.41986" lon="5.68658">
        <ele>627.8</ele>
        <time>2022-06-09T08:07:42Z</time>
      </trkpt>
      <trkpt lat="46.41981" lon="5.68661">
        <ele>629.4</ele>
        <time>2022-06-09T08:07:48Z</time>
      </trkpt>
      <trkpt lat="46.41978" lon="5.68667">
        <ele>631.2</ele>
        <time>2022-06-09T08:07:54Z</time>
      </trkpt>
      <trkpt lat="46.41974" lon="5.68672">
        <ele>632.3</ele>
        <time>2022-06-09T08:08:01Z</time>
      </trkpt>
      <trkpt lat="46.41969" lon="5.68676">
        <ele>633.4</ele>
        <time>2022-06-09T08:08:07Z</time>
      </trkpt>
      <trkpt lat="46.41965" lon="5.68679">
        <ele>634.3</ele>
        <time>2022-06-09T08:08:10Z</time>
      </trkpt>
      <trkpt lat="46.4196" lon="5.6868">
        <ele>635</ele>
        <time>2022-06-09T08:08:13Z</time>
      </trkpt>
      <trkpt lat="46.41955" lon="5.68683">
        <ele>636</ele>
        <time>2022-06-09T08:08:18Z</time>
      </trkpt>
      <trkpt lat="46.41952" lon="5.68688">
        <ele>636.4</ele>
        <time>2022-06-09T08:08:22Z</time>
      </trkpt>
      <trkpt lat="46.41948" lon="5.68693">
        <ele>636.4</ele>
        <time>2022-06-09T08:08:26Z</time>
      </trkpt>
      <trkpt lat="46.41944" lon="5.68695">
        <ele>636.2</ele>
        <time>2022-06-09T08:08:32Z</time>
      </trkpt>
      <trkpt lat="46.4194" lon="5.68699">
        <ele>635.6</ele>
        <time>2022-06-09T08:08:38Z</time>
      </trkpt>
      <trkpt lat="46.41936" lon="5.68702">
        <ele>635.4</ele>
        <time>2022-06-09T08:08:42Z</time>
      </trkpt>
      <trkpt lat="46.41931" lon="5.68706">
        <ele>635.6</ele>
        <time>2022-06-09T08:08:46Z</time>
      </trkpt>
      <trkpt lat="46.41927" lon="5.68708">
        <ele>635.7</ele>
        <time>2022-06-09T08:08:51Z</time>
      </trkpt>
      <trkpt lat="46.41922" lon="5.6871">
        <ele>635.9</ele>
        <time>2022-06-09T08:08:55Z</time>
      </trkpt>
      <trkpt lat="46.41917" lon="5.68709">
        <ele>636.1</ele>
        <time>2022-06-09T08:09:00Z</time>
      </trkpt>
      <trkpt lat="46.41914" lon="5.68705">
        <ele>636.1</ele>
        <time>2022-06-09T08:09:10Z</time>
      </trkpt>
      <trkpt lat="46.41913" lon="5.68698">
        <ele>635.7</ele>
        <time>2022-06-09T08:09:18Z</time>
      </trkpt>
      <trkpt lat="46.4191" lon="5.68692">
        <ele>635.4</ele>
        <time>2022-06-09T08:09:26Z</time>
      </trkpt>
      <trkpt lat="46.41907" lon="5.68687">
        <ele>635.2</ele>
        <time>2022-06-09T08:09:31Z</time>
      </trkpt>
      <trkpt lat="46.41904" lon="5.68682">
        <ele>634.9</ele>
        <time>2022-06-09T08:09:38Z</time>
      </trkpt>
      <trkpt lat="46.41899" lon="5.6868">
        <ele>634.3</ele>
        <time>2022-06-09T08:09:48Z</time>
      </trkpt>
      <trkpt lat="46.41895" lon="5.68677">
        <ele>634</ele>
        <time>2022-06-09T08:09:54Z</time>
      </trkpt>
      <trkpt lat="46.4189" lon="5.68675">
        <ele>634</ele>
        <time>2022-06-09T08:09:59Z</time>
      </trkpt>
      <trkpt lat="46.41885" lon="5.68678">
        <ele>633.7</ele>
        <time>2022-06-09T08:10:06Z</time>
      </trkpt>
      <trkpt lat="46.41881" lon="5.68681">
        <ele>633.4</ele>
        <time>2022-06-09T08:10:12Z</time>
      </trkpt>
      <trkpt lat="46.41876" lon="5.68679">
        <ele>633.6</ele>
        <time>2022-06-09T08:10:24Z</time>
      </trkpt>
      <trkpt lat="46.41869" lon="5.68676">
        <ele>633.9</ele>
        <time>2022-06-09T08:10:27Z</time>
      </trkpt>
      <trkpt lat="46.41865" lon="5.68679">
        <ele>631.4</ele>
        <time>2022-06-09T08:10:41Z</time>
      </trkpt>
      <trkpt lat="46.4186" lon="5.68676">
        <ele>631.7</ele>
        <time>2022-06-09T08:10:54Z</time>
      </trkpt>
      <trkpt lat="46.41857" lon="5.68671">
        <ele>632.2</ele>
        <time>2022-06-09T08:11:05Z</time>
      </trkpt>
      <trkpt lat="46.41852" lon="5.68673">
        <ele>631.7</ele>
        <time>2022-06-09T08:11:19Z</time>
      </trkpt>
      <trkpt lat="46.41847" lon="5.6867">
        <ele>631.7</ele>
        <time>2022-06-09T08:11:24Z</time>
      </trkpt>
      <trkpt lat="46.41842" lon="5.68666">
        <ele>631.6</ele>
        <time>2022-06-09T08:11:30Z</time>
      </trkpt>
      <trkpt lat="46.41838" lon="5.68663">
        <ele>631.5</ele>
        <time>2022-06-09T08:11:33Z</time>
      </trkpt>
      <trkpt lat="46.41833" lon="5.68662">
        <ele>631.4</ele>
        <time>2022-06-09T08:11:36Z</time>
      </trkpt>
      <trkpt lat="46.41828" lon="5.6866">
        <ele>631.4</ele>
        <time>2022-06-09T08:11:40Z</time>
      </trkpt>
      <trkpt lat="46.41824" lon="5.68658">
        <ele>631.9</ele>
        <time>2022-06-09T08:11:44Z</time>
      </trkpt>
      <trkpt lat="46.4182" lon="5.68653">
        <ele>632.3</ele>
        <time>2022-06-09T08:11:49Z</time>
      </trkpt>
      <trkpt lat="46.41818" lon="5.68647">
        <ele>632.3</ele>
        <time>2022-06-09T08:12:04Z</time>
      </trkpt>
      <trkpt lat="46.4182" lon="5.68641">
        <ele>634.4</ele>
        <time>2022-06-09T08:12:21Z</time>
      </trkpt>
      <trkpt lat="46.41822" lon="5.68634">
        <ele>634.1</ele>
        <time>2022-06-09T08:12:26Z</time>
      </trkpt>
      <trkpt lat="46.41822" lon="5.68627">
        <ele>634.2</ele>
        <time>2022-06-09T08:12:32Z</time>
      </trkpt>
      <trkpt lat="46.41822" lon="5.6862">
        <ele>633.9</ele>
        <time>2022-06-09T08:12:38Z</time>
      </trkpt>
      <trkpt lat="46.41821" lon="5.68614">
        <ele>633.6</ele>
        <time>2022-06-09T08:12:43Z</time>
      </trkpt>
      <trkpt lat="46.41822" lon="5.68607">
        <ele>632.9</ele>
        <time>2022-06-09T08:12:56Z</time>
      </trkpt>
      <trkpt lat="46.4182" lon="5.68599">
        <ele>632.7</ele>
        <time>2022-06-09T08:13:01Z</time>
      </trkpt>
      <trkpt lat="46.41817" lon="5.68594">
        <ele>632.6</ele>
        <time>2022-06-09T08:13:05Z</time>
      </trkpt>
      <trkpt lat="46.41814" lon="5.68588">
        <ele>632.6</ele>
        <time>2022-06-09T08:13:10Z</time>
      </trkpt>
      <trkpt lat="46.4181" lon="5.68583">
        <ele>632.4</ele>
        <time>2022-06-09T08:13:15Z</time>
      </trkpt>
      <trkpt lat="46.41807" lon="5.68578">
        <ele>631.7</ele>
        <time>2022-06-09T08:13:19Z</time>
      </trkpt>
      <trkpt lat="46.41803" lon="5.68574">
        <ele>630.9</ele>
        <time>2022-06-09T08:13:23Z</time>
      </trkpt>
      <trkpt lat="46.41801" lon="5.68569">
        <ele>629.3</ele>
        <time>2022-06-09T08:13:36Z</time>
      </trkpt>
      <trkpt lat="46.41803" lon="5.68563">
        <ele>629.5</ele>
        <time>2022-06-09T08:13:50Z</time>
      </trkpt>
      <trkpt lat="46.41802" lon="5.68556">
        <ele>629.7</ele>
        <time>2022-06-09T08:13:59Z</time>
      </trkpt>
      <trkpt lat="46.41798" lon="5.6855">
        <ele>629.4</ele>
        <time>2022-06-09T08:14:06Z</time>
      </trkpt>
      <trkpt lat="46.41795" lon="5.68544">
        <ele>629.3</ele>
        <time>2022-06-09T08:14:11Z</time>
      </trkpt>
      <trkpt lat="46.41791" lon="5.68539">
        <ele>629.3</ele>
        <time>2022-06-09T08:14:15Z</time>
      </trkpt>
      <trkpt lat="46.41788" lon="5.68533">
        <ele>629.2</ele>
        <time>2022-06-09T08:14:20Z</time>
      </trkpt>
      <trkpt lat="46.41785" lon="5.68526">
        <ele>628.9</ele>
        <time>2022-06-09T08:14:25Z</time>
      </trkpt>
      <trkpt lat="46.41781" lon="5.6852">
        <ele>628.6</ele>
        <time>2022-06-09T08:14:28Z</time>
      </trkpt>
      <trkpt lat="46.41778" lon="5.68515">
        <ele>627.8</ele>
        <time>2022-06-09T08:14:33Z</time>
      </trkpt>
      <trkpt lat="46.41774" lon="5.6851">
        <ele>626.9</ele>
        <time>2022-06-09T08:14:38Z</time>
      </trkpt>
      <trkpt lat="46.4177" lon="5.68504">
        <ele>626.1</ele>
        <time>2022-06-09T08:14:43Z</time>
      </trkpt>
      <trkpt lat="46.41767" lon="5.68499">
        <ele>625.2</ele>
        <time>2022-06-09T08:14:48Z</time>
      </trkpt>
      <trkpt lat="46.41765" lon="5.68493">
        <ele>624.5</ele>
        <time>2022-06-09T08:14:56Z</time>
      </trkpt>
      <trkpt lat="46.41765" lon="5.68486">
        <ele>624.5</ele>
        <time>2022-06-09T08:15:03Z</time>
      </trkpt>
      <trkpt lat="46.41767" lon="5.6848">
        <ele>624.8</ele>
        <time>2022-06-09T08:15:10Z</time>
      </trkpt>
      <trkpt lat="46.41769" lon="5.68473">
        <ele>625.1</ele>
        <time>2022-06-09T08:15:15Z</time>
      </trkpt>
      <trkpt lat="46.4177" lon="5.68466">
        <ele>624.5</ele>
        <time>2022-06-09T08:15:21Z</time>
      </trkpt>
      <trkpt lat="46.41774" lon="5.6846">
        <ele>623.1</ele>
        <time>2022-06-09T08:15:30Z</time>
      </trkpt>
      <trkpt lat="46.41775" lon="5.68453">
        <ele>622.7</ele>
        <time>2022-06-09T08:15:35Z</time>
      </trkpt>
      <trkpt lat="46.41773" lon="5.68446">
        <ele>622.3</ele>
        <time>2022-06-09T08:15:39Z</time>
      </trkpt>
      <trkpt lat="46.4177" lon="5.6844">
        <ele>622</ele>
        <time>2022-06-09T08:15:44Z</time>
      </trkpt>
      <trkpt lat="46.41769" lon="5.68433">
        <ele>621.6</ele>
        <time>2022-06-09T08:15:52Z</time>
      </trkpt>
      <trkpt lat="46.41768" lon="5.68426">
        <ele>621.5</ele>
        <time>2022-06-09T08:15:56Z</time>
      </trkpt>
      <trkpt lat="46.41767" lon="5.68419">
        <ele>621.4</ele>
        <time>2022-06-09T08:16:02Z</time>
      </trkpt>
      <trkpt lat="46.41764" lon="5.68414">
        <ele>621.4</ele>
        <time>2022-06-09T08:16:13Z</time>
      </trkpt>
      <trkpt lat="46.4176" lon="5.68408">
        <ele>621.5</ele>
        <time>2022-06-09T08:16:17Z</time>
      </trkpt>
      <trkpt lat="46.41756" lon="5.68404">
        <ele>621.7</ele>
        <time>2022-06-09T08:16:24Z</time>
      </trkpt>
      <trkpt lat="46.41752" lon="5.684">
        <ele>621.9</ele>
        <time>2022-06-09T08:16:33Z</time>
      </trkpt>
      <trkpt lat="46.4175" lon="5.68393">
        <ele>622.3</ele>
        <time>2022-06-09T08:16:40Z</time>
      </trkpt>
      <trkpt lat="46.41749" lon="5.68387">
        <ele>623</ele>
        <time>2022-06-09T08:16:44Z</time>
      </trkpt>
      <trkpt lat="46.41747" lon="5.6838">
        <ele>624</ele>
        <time>2022-06-09T08:16:52Z</time>
      </trkpt>
      <trkpt lat="46.41747" lon="5.68373">
        <ele>626.1</ele>
        <time>2022-06-09T08:17:17Z</time>
      </trkpt>
      <trkpt lat="46.41745" lon="5.68368">
        <ele>626.2</ele>
        <time>2022-06-09T08:17:26Z</time>
      </trkpt>
      <trkpt lat="46.4175" lon="5.68368">
        <ele>626.6</ele>
        <time>2022-06-09T08:18:53Z</time>
      </trkpt>
      <trkpt lat="46.41755" lon="5.68367">
        <ele>626.3</ele>
        <time>2022-06-09T08:19:09Z</time>
      </trkpt>
      <trkpt lat="46.4175" lon="5.68371">
        <ele>630.1</ele>
        <time>2022-06-09T08:19:26Z</time>
      </trkpt>
      <trkpt lat="46.4175" lon="5.68364">
        <ele>631.1</ele>
        <time>2022-06-09T08:19:40Z</time>
      </trkpt>
      <trkpt lat="46.41749" lon="5.68358">
        <ele>630.6</ele>
        <time>2022-06-09T08:19:46Z</time>
      </trkpt>
      <trkpt lat="46.41752" lon="5.68351">
        <ele>628.8</ele>
        <time>2022-06-09T08:19:54Z</time>
      </trkpt>
      <trkpt lat="46.41754" lon="5.68345">
        <ele>628.6</ele>
        <time>2022-06-09T08:19:57Z</time>
      </trkpt>
      <trkpt lat="46.41758" lon="5.6834">
        <ele>628</ele>
        <time>2022-06-09T08:20:02Z</time>
      </trkpt>
      <trkpt lat="46.41759" lon="5.68333">
        <ele>627.2</ele>
        <time>2022-06-09T08:20:08Z</time>
      </trkpt>
      <trkpt lat="46.41759" lon="5.68325">
        <ele>626.3</ele>
        <time>2022-06-09T08:20:16Z</time>
      </trkpt>
      <trkpt lat="46.41759" lon="5.68318">
        <ele>625.6</ele>
        <time>2022-06-09T08:20:21Z</time>
      </trkpt>
      <trkpt lat="46.41761" lon="5.68312">
        <ele>624.5</ele>
        <time>2022-06-09T08:20:32Z</time>
      </trkpt>
      <trkpt lat="46.41765" lon="5.68307">
        <ele>623.9</ele>
        <time>2022-06-09T08:20:39Z</time>
      </trkpt>
      <trkpt lat="46.41767" lon="5.68301">
        <ele>623.7</ele>
        <time>2022-06-09T08:20:44Z</time>
      </trkpt>
      <trkpt lat="46.4177" lon="5.68295">
        <ele>623.7</ele>
        <time>2022-06-09T08:20:54Z</time>
      </trkpt>
      <trkpt lat="46.41767" lon="5.68286">
        <ele>623.4</ele>
        <time>2022-06-09T08:21:08Z</time>
      </trkpt>
      <trkpt lat="46.41765" lon="5.68279">
        <ele>623</ele>
        <time>2022-06-09T08:21:11Z</time>
      </trkpt>
      <trkpt lat="46.41762" lon="5.68272">
        <ele>622.5</ele>
        <time>2022-06-09T08:21:16Z</time>
      </trkpt>
      <trkpt lat="46.41759" lon="5.68267">
        <ele>622.1</ele>
        <time>2022-06-09T08:21:22Z</time>
      </trkpt>
      <trkpt lat="46.41754" lon="5.68265">
        <ele>621.8</ele>
        <time>2022-06-09T08:21:29Z</time>
      </trkpt>
      <trkpt lat="46.41749" lon="5.68263">
        <ele>622</ele>
        <time>2022-06-09T08:21:39Z</time>
      </trkpt>
      <trkpt lat="46.41744" lon="5.68262">
        <ele>622.4</ele>
        <time>2022-06-09T08:21:46Z</time>
      </trkpt>
      <trkpt lat="46.41741" lon="5.68257">
        <ele>622.5</ele>
        <time>2022-06-09T08:21:52Z</time>
      </trkpt>
      <trkpt lat="46.41738" lon="5.68252">
        <ele>623.1</ele>
        <time>2022-06-09T08:22:00Z</time>
      </trkpt>
      <trkpt lat="46.41737" lon="5.68244">
        <ele>623.3</ele>
        <time>2022-06-09T08:22:05Z</time>
      </trkpt>
      <trkpt lat="46.41737" lon="5.68237">
        <ele>623.5</ele>
        <time>2022-06-09T08:22:09Z</time>
      </trkpt>
      <trkpt lat="46.41736" lon="5.6823">
        <ele>623.5</ele>
        <time>2022-06-09T08:22:16Z</time>
      </trkpt>
      <trkpt lat="46.41739" lon="5.68224">
        <ele>623.4</ele>
        <time>2022-06-09T08:22:23Z</time>
      </trkpt>
      <trkpt lat="46.4174" lon="5.68216">
        <ele>623.3</ele>
        <time>2022-06-09T08:22:27Z</time>
      </trkpt>
      <trkpt lat="46.41742" lon="5.68208">
        <ele>623.5</ele>
        <time>2022-06-09T08:22:31Z</time>
      </trkpt>
      <trkpt lat="46.41742" lon="5.68202">
        <ele>623.6</ele>
        <time>2022-06-09T08:22:34Z</time>
      </trkpt>
      <trkpt lat="46.41744" lon="5.68195">
        <ele>622.9</ele>
        <time>2022-06-09T08:22:39Z</time>
      </trkpt>
      <trkpt lat="46.41744" lon="5.68188">
        <ele>621.5</ele>
        <time>2022-06-09T08:22:45Z</time>
      </trkpt>
      <trkpt lat="46.41747" lon="5.68182">
        <ele>619.8</ele>
        <time>2022-06-09T08:22:51Z</time>
      </trkpt>
      <trkpt lat="46.4175" lon="5.68176">
        <ele>618.2</ele>
        <time>2022-06-09T08:22:56Z</time>
      </trkpt>
      <trkpt lat="46.41751" lon="5.68169">
        <ele>616.1</ele>
        <time>2022-06-09T08:23:03Z</time>
      </trkpt>
      <trkpt lat="46.41755" lon="5.68163">
        <ele>612.5</ele>
        <time>2022-06-09T08:23:10Z</time>
      </trkpt>
      <trkpt lat="46.4176" lon="5.6816">
        <ele>609.6</ele>
        <time>2022-06-09T08:23:16Z</time>
      </trkpt>
      <trkpt lat="46.41765" lon="5.68159">
        <ele>607.3</ele>
        <time>2022-06-09T08:23:20Z</time>
      </trkpt>
      <trkpt lat="46.41769" lon="5.68156">
        <ele>604.5</ele>
        <time>2022-06-09T08:23:27Z</time>
      </trkpt>
      <trkpt lat="46.41773" lon="5.68153">
        <ele>603</ele>
        <time>2022-06-09T08:23:34Z</time>
      </trkpt>
      <trkpt lat="46.41777" lon="5.68148">
        <ele>602</ele>
        <time>2022-06-09T08:23:42Z</time>
      </trkpt>
      <trkpt lat="46.4178" lon="5.68142">
        <ele>601.7</ele>
        <time>2022-06-09T08:23:50Z</time>
      </trkpt>
      <trkpt lat="46.41783" lon="5.68136">
        <ele>602.5</ele>
        <time>2022-06-09T08:23:56Z</time>
      </trkpt>
      <trkpt lat="46.41787" lon="5.68132">
        <ele>603</ele>
        <time>2022-06-09T08:24:04Z</time>
      </trkpt>
      <trkpt lat="46.41792" lon="5.68129">
        <ele>603.2</ele>
        <time>2022-06-09T08:24:12Z</time>
      </trkpt>
      <trkpt lat="46.41796" lon="5.68128">
        <ele>603.3</ele>
        <time>2022-06-09T08:24:18Z</time>
      </trkpt>
      <trkpt lat="46.41801" lon="5.68128">
        <ele>603.4</ele>
        <time>2022-06-09T08:24:22Z</time>
      </trkpt>
      <trkpt lat="46.41806" lon="5.68126">
        <ele>603.4</ele>
        <time>2022-06-09T08:24:26Z</time>
      </trkpt>
      <trkpt lat="46.4181" lon="5.68123">
        <ele>603.2</ele>
        <time>2022-06-09T08:24:30Z</time>
      </trkpt>
      <trkpt lat="46.41814" lon="5.68118">
        <ele>603.8</ele>
        <time>2022-06-09T08:24:36Z</time>
      </trkpt>
      <trkpt lat="46.41818" lon="5.68115">
        <ele>605.6</ele>
        <time>2022-06-09T08:24:41Z</time>
      </trkpt>
      <trkpt lat="46.41823" lon="5.68114">
        <ele>606.9</ele>
        <time>2022-06-09T08:24:48Z</time>
      </trkpt>
      <trkpt lat="46.41828" lon="5.68112">
        <ele>607.8</ele>
        <time>2022-06-09T08:24:59Z</time>
      </trkpt>
      <trkpt lat="46.41832" lon="5.68109">
        <ele>608.1</ele>
        <time>2022-06-09T08:25:08Z</time>
      </trkpt>
      <trkpt lat="46.41836" lon="5.68105">
        <ele>608.4</ele>
        <time>2022-06-09T08:25:16Z</time>
      </trkpt>
      <trkpt lat="46.4184" lon="5.68106">
        <ele>608</ele>
        <time>2022-06-09T08:25:23Z</time>
      </trkpt>
      <trkpt lat="46.41845" lon="5.68104">
        <ele>608.2</ele>
        <time>2022-06-09T08:25:28Z</time>
      </trkpt>
      <trkpt lat="46.41851" lon="5.68103">
        <ele>608</ele>
        <time>2022-06-09T08:25:31Z</time>
      </trkpt>
      <trkpt lat="46.41856" lon="5.68103">
        <ele>607.7</ele>
        <time>2022-06-09T08:25:35Z</time>
      </trkpt>
      <trkpt lat="46.4186" lon="5.68103">
        <ele>607</ele>
        <time>2022-06-09T08:25:40Z</time>
      </trkpt>
      <trkpt lat="46.41865" lon="5.68103">
        <ele>606.1</ele>
        <time>2022-06-09T08:25:44Z</time>
      </trkpt>
      <trkpt lat="46.4187" lon="5.68105">
        <ele>605.2</ele>
        <time>2022-06-09T08:25:48Z</time>
      </trkpt>
      <trkpt lat="46.41874" lon="5.68103">
        <ele>603.5</ele>
        <time>2022-06-09T08:25:54Z</time>
      </trkpt>
      <trkpt lat="46.41878" lon="5.68099">
        <ele>601.6</ele>
        <time>2022-06-09T08:26:00Z</time>
      </trkpt>
      <trkpt lat="46.41882" lon="5.68096">
        <ele>600</ele>
        <time>2022-06-09T08:26:07Z</time>
      </trkpt>
      <trkpt lat="46.41886" lon="5.68091">
        <ele>599</ele>
        <time>2022-06-09T08:26:13Z</time>
      </trkpt>
      <trkpt lat="46.4189" lon="5.68088">
        <ele>598.2</ele>
        <time>2022-06-09T08:26:18Z</time>
      </trkpt>
      <trkpt lat="46.41892" lon="5.68082">
        <ele>597.6</ele>
        <time>2022-06-09T08:26:24Z</time>
      </trkpt>
      <trkpt lat="46.41896" lon="5.68075">
        <ele>597.1</ele>
        <time>2022-06-09T08:26:29Z</time>
      </trkpt>
      <trkpt lat="46.419" lon="5.68071">
        <ele>596.7</ele>
        <time>2022-06-09T08:26:35Z</time>
      </trkpt>
      <trkpt lat="46.41904" lon="5.68067">
        <ele>596.6</ele>
        <time>2022-06-09T08:26:42Z</time>
      </trkpt>
      <trkpt lat="46.41909" lon="5.68066">
        <ele>596.8</ele>
        <time>2022-06-09T08:26:52Z</time>
      </trkpt>
      <trkpt lat="46.41913" lon="5.68065">
        <ele>596.2</ele>
        <time>2022-06-09T08:26:56Z</time>
      </trkpt>
      <trkpt lat="46.41918" lon="5.68065">
        <ele>595.7</ele>
        <time>2022-06-09T08:27:00Z</time>
      </trkpt>
      <trkpt lat="46.41922" lon="5.68059">
        <ele>594.8</ele>
        <time>2022-06-09T08:27:06Z</time>
      </trkpt>
      <trkpt lat="46.41927" lon="5.68057">
        <ele>593.7</ele>
        <time>2022-06-09T08:27:11Z</time>
      </trkpt>
      <trkpt lat="46.41931" lon="5.68054">
        <ele>591.4</ele>
        <time>2022-06-09T08:27:19Z</time>
      </trkpt>
      <trkpt lat="46.41934" lon="5.68048">
        <ele>589.3</ele>
        <time>2022-06-09T08:27:30Z</time>
      </trkpt>
      <trkpt lat="46.41932" lon="5.68041">
        <ele>587.6</ele>
        <time>2022-06-09T08:27:50Z</time>
      </trkpt>
      <trkpt lat="46.41928" lon="5.68037">
        <ele>586.7</ele>
        <time>2022-06-09T08:28:00Z</time>
      </trkpt>
      <trkpt lat="46.41924" lon="5.68033">
        <ele>586.4</ele>
        <time>2022-06-09T08:28:12Z</time>
      </trkpt>
      <trkpt lat="46.41919" lon="5.6803">
        <ele>586.5</ele>
        <time>2022-06-09T08:28:16Z</time>
      </trkpt>
      <trkpt lat="46.41915" lon="5.68027">
        <ele>586.1</ele>
        <time>2022-06-09T08:28:25Z</time>
      </trkpt>
      <trkpt lat="46.4191" lon="5.68022">
        <ele>585.5</ele>
        <time>2022-06-09T08:28:36Z</time>
      </trkpt>
      <trkpt lat="46.41902" lon="5.68017">
        <ele>585.1</ele>
        <time>2022-06-09T08:28:39Z</time>
      </trkpt>
      <trkpt lat="46.41897" lon="5.68015">
        <ele>584.7</ele>
        <time>2022-06-09T08:28:42Z</time>
      </trkpt>
      <trkpt lat="46.41892" lon="5.68014">
        <ele>584.4</ele>
        <time>2022-06-09T08:28:48Z</time>
      </trkpt>
      <trkpt lat="46.41887" lon="5.68013">
        <ele>584.7</ele>
        <time>2022-06-09T08:28:54Z</time>
      </trkpt>
      <trkpt lat="46.41882" lon="5.68012">
        <ele>585.7</ele>
        <time>2022-06-09T08:29:00Z</time>
      </trkpt>
      <trkpt lat="46.41876" lon="5.68011">
        <ele>586.8</ele>
        <time>2022-06-09T08:29:08Z</time>
      </trkpt>
      <trkpt lat="46.41872" lon="5.68011">
        <ele>587.2</ele>
        <time>2022-06-09T08:29:13Z</time>
      </trkpt>
      <trkpt lat="46.41867" lon="5.68012">
        <ele>587.2</ele>
        <time>2022-06-09T08:29:20Z</time>
      </trkpt>
      <trkpt lat="46.41862" lon="5.6801">
        <ele>587</ele>
        <time>2022-06-09T08:29:26Z</time>
      </trkpt>
      <trkpt lat="46.41856" lon="5.68009">
        <ele>587</ele>
        <time>2022-06-09T08:29:31Z</time>
      </trkpt>
      <trkpt lat="46.41851" lon="5.68006">
        <ele>587.3</ele>
        <time>2022-06-09T08:29:36Z</time>
      </trkpt>
      <trkpt lat="46.41846" lon="5.68002">
        <ele>587.5</ele>
        <time>2022-06-09T08:29:42Z</time>
      </trkpt>
      <trkpt lat="46.4184" lon="5.67998">
        <ele>587.4</ele>
        <time>2022-06-09T08:29:45Z</time>
      </trkpt>
      <trkpt lat="46.41836" lon="5.67996">
        <ele>587.4</ele>
        <time>2022-06-09T08:29:48Z</time>
      </trkpt>
      <trkpt lat="46.41831" lon="5.67996">
        <ele>588</ele>
        <time>2022-06-09T08:29:52Z</time>
      </trkpt>
      <trkpt lat="46.41827" lon="5.67997">
        <ele>588.5</ele>
        <time>2022-06-09T08:29:55Z</time>
      </trkpt>
      <trkpt lat="46.41822" lon="5.67998">
        <ele>588.9</ele>
        <time>2022-06-09T08:29:58Z</time>
      </trkpt>
      <trkpt lat="46.41817" lon="5.68">
        <ele>589</ele>
        <time>2022-06-09T08:30:01Z</time>
      </trkpt>
      <trkpt lat="46.41812" lon="5.68001">
        <ele>589.2</ele>
        <time>2022-06-09T08:30:04Z</time>
      </trkpt>
      <trkpt lat="46.41806" lon="5.68">
        <ele>589.7</ele>
        <time>2022-06-09T08:30:08Z</time>
      </trkpt>
      <trkpt lat="46.41803" lon="5.67996">
        <ele>591.5</ele>
        <time>2022-06-09T08:30:15Z</time>
      </trkpt>
      <trkpt lat="46.41797" lon="5.67996">
        <ele>592.7</ele>
        <time>2022-06-09T08:30:19Z</time>
      </trkpt>
      <trkpt lat="46.41792" lon="5.67999">
        <ele>594.1</ele>
        <time>2022-06-09T08:30:24Z</time>
      </trkpt>
      <trkpt lat="46.41787" lon="5.68002">
        <ele>594.9</ele>
        <time>2022-06-09T08:30:28Z</time>
      </trkpt>
      <trkpt lat="46.41782" lon="5.68003">
        <ele>595.7</ele>
        <time>2022-06-09T08:30:32Z</time>
      </trkpt>
      <trkpt lat="46.41777" lon="5.68002">
        <ele>596.7</ele>
        <time>2022-06-09T08:30:36Z</time>
      </trkpt>
      <trkpt lat="46.41773" lon="5.68004">
        <ele>598.1</ele>
        <time>2022-06-09T08:30:41Z</time>
      </trkpt>
      <trkpt lat="46.41768" lon="5.68006">
        <ele>599.3</ele>
        <time>2022-06-09T08:30:46Z</time>
      </trkpt>
      <trkpt lat="46.41764" lon="5.68005">
        <ele>598.8</ele>
        <time>2022-06-09T08:30:53Z</time>
      </trkpt>
      <trkpt lat="46.41759" lon="5.68002">
        <ele>599.2</ele>
        <time>2022-06-09T08:30:58Z</time>
      </trkpt>
      <trkpt lat="46.41755" lon="5.67998">
        <ele>598.1</ele>
        <time>2022-06-09T08:31:04Z</time>
      </trkpt>
      <trkpt lat="46.4175" lon="5.68">
        <ele>596.5</ele>
        <time>2022-06-09T08:31:09Z</time>
      </trkpt>
      <trkpt lat="46.41746" lon="5.68003">
        <ele>595.8</ele>
        <time>2022-06-09T08:31:12Z</time>
      </trkpt>
      <trkpt lat="46.41742" lon="5.68008">
        <ele>596</ele>
        <time>2022-06-09T08:31:15Z</time>
      </trkpt>
      <trkpt lat="46.41736" lon="5.68013">
        <ele>595.7</ele>
        <time>2022-06-09T08:31:20Z</time>
      </trkpt>
      <trkpt lat="46.41732" lon="5.68018">
        <ele>596.3</ele>
        <time>2022-06-09T08:31:23Z</time>
      </trkpt>
      <trkpt lat="46.41728" lon="5.68022">
        <ele>596.4</ele>
        <time>2022-06-09T08:31:27Z</time>
      </trkpt>
      <trkpt lat="46.41723" lon="5.68023">
        <ele>596.4</ele>
        <time>2022-06-09T08:31:32Z</time>
      </trkpt>
      <trkpt lat="46.41718" lon="5.68025">
        <ele>596.6</ele>
        <time>2022-06-09T08:31:38Z</time>
      </trkpt>
      <trkpt lat="46.41713" lon="5.68027">
        <ele>596.9</ele>
        <time>2022-06-09T08:31:43Z</time>
      </trkpt>
      <trkpt lat="46.41708" lon="5.68029">
        <ele>596.8</ele>
        <time>2022-06-09T08:31:48Z</time>
      </trkpt>
      <trkpt lat="46.41704" lon="5.68032">
        <ele>593.9</ele>
        <time>2022-06-09T08:31:56Z</time>
      </trkpt>
      <trkpt lat="46.41699" lon="5.68033">
        <ele>592.3</ele>
        <time>2022-06-09T08:32:00Z</time>
      </trkpt>
      <trkpt lat="46.41694" lon="5.68033">
        <ele>590.7</ele>
        <time>2022-06-09T08:32:04Z</time>
      </trkpt>
      <trkpt lat="46.41689" lon="5.68032">
        <ele>588.9</ele>
        <time>2022-06-09T08:32:10Z</time>
      </trkpt>
      <trkpt lat="46.41684" lon="5.68034">
        <ele>588.3</ele>
        <time>2022-06-09T08:32:14Z</time>
      </trkpt>
      <trkpt lat="46.4168" lon="5.68036">
        <ele>588.1</ele>
        <time>2022-06-09T08:32:18Z</time>
      </trkpt>
      <trkpt lat="46.41675" lon="5.68038">
        <ele>587.8</ele>
        <time>2022-06-09T08:32:26Z</time>
      </trkpt>
      <trkpt lat="46.41671" lon="5.68038">
        <ele>587.6</ele>
        <time>2022-06-09T08:32:31Z</time>
      </trkpt>
      <trkpt lat="46.41666" lon="5.68035">
        <ele>587.5</ele>
        <time>2022-06-09T08:32:37Z</time>
      </trkpt>
      <trkpt lat="46.41662" lon="5.68031">
        <ele>587.3</ele>
        <time>2022-06-09T08:32:42Z</time>
      </trkpt>
      <trkpt lat="46.41657" lon="5.68032">
        <ele>586.4</ele>
        <time>2022-06-09T08:32:52Z</time>
      </trkpt>
      <trkpt lat="46.41653" lon="5.68032">
        <ele>586.2</ele>
        <time>2022-06-09T08:33:08Z</time>
      </trkpt>
      <trkpt lat="46.41653" lon="5.68039">
        <ele>580.7</ele>
        <time>2022-06-09T08:34:01Z</time>
      </trkpt>
      <trkpt lat="46.41651" lon="5.68032">
        <ele>581</ele>
        <time>2022-06-09T08:34:10Z</time>
      </trkpt>
      <trkpt lat="46.4165" lon="5.68026">
        <ele>580.7</ele>
        <time>2022-06-09T08:34:27Z</time>
      </trkpt>
      <trkpt lat="46.41655" lon="5.68027">
        <ele>582.5</ele>
        <time>2022-06-09T08:35:59Z</time>
      </trkpt>
      <trkpt lat="46.41651" lon="5.68031">
        <ele>590.7</ele>
        <time>2022-06-09T08:36:44Z</time>
      </trkpt>
      <trkpt lat="46.41654" lon="5.68035">
        <ele>591.9</ele>
        <time>2022-06-09T08:37:36Z</time>
      </trkpt>
      <trkpt lat="46.41651" lon="5.68031">
        <ele>591</ele>
        <time>2022-06-09T08:37:45Z</time>
      </trkpt>
      <trkpt lat="46.41646" lon="5.68032">
        <ele>590.4</ele>
        <time>2022-06-09T08:38:28Z</time>
      </trkpt>
      <trkpt lat="46.41646" lon="5.6804">
        <ele>589.7</ele>
        <time>2022-06-09T08:39:01Z</time>
      </trkpt>
      <trkpt lat="46.41648" lon="5.68047">
        <ele>589.1</ele>
        <time>2022-06-09T08:39:07Z</time>
      </trkpt>
      <trkpt lat="46.41648" lon="5.68053">
        <ele>588.6</ele>
        <time>2022-06-09T08:39:12Z</time>
      </trkpt>
      <trkpt lat="46.41648" lon="5.68061">
        <ele>587.9</ele>
        <time>2022-06-09T08:39:18Z</time>
      </trkpt>
      <trkpt lat="46.41646" lon="5.68067">
        <ele>587.8</ele>
        <time>2022-06-09T08:39:24Z</time>
      </trkpt>
      <trkpt lat="46.41642" lon="5.68071">
        <ele>587.3</ele>
        <time>2022-06-09T08:39:33Z</time>
      </trkpt>
      <trkpt lat="46.41638" lon="5.68076">
        <ele>587</ele>
        <time>2022-06-09T08:39:40Z</time>
      </trkpt>
      <trkpt lat="46.41634" lon="5.68081">
        <ele>587.2</ele>
        <time>2022-06-09T08:39:45Z</time>
      </trkpt>
      <trkpt lat="46.4163" lon="5.68083">
        <ele>588.3</ele>
        <time>2022-06-09T08:39:51Z</time>
      </trkpt>
      <trkpt lat="46.41625" lon="5.68083">
        <ele>589.6</ele>
        <time>2022-06-09T08:39:55Z</time>
      </trkpt>
      <trkpt lat="46.4162" lon="5.68086">
        <ele>591.3</ele>
        <time>2022-06-09T08:40:00Z</time>
      </trkpt>
      <trkpt lat="46.41616" lon="5.68091">
        <ele>593.5</ele>
        <time>2022-06-09T08:40:07Z</time>
      </trkpt>
      <trkpt lat="46.41613" lon="5.68095">
        <ele>598.4</ele>
        <time>2022-06-09T08:40:23Z</time>
      </trkpt>
      <trkpt lat="46.4161" lon="5.68099">
        <ele>600.1</ele>
        <time>2022-06-09T08:40:34Z</time>
      </trkpt>
      <trkpt lat="46.41605" lon="5.68102">
        <ele>600.2</ele>
        <time>2022-06-09T08:40:43Z</time>
      </trkpt>
      <trkpt lat="46.416" lon="5.68102">
        <ele>600.4</ele>
        <time>2022-06-09T08:40:47Z</time>
      </trkpt>
      <trkpt lat="46.41598" lon="5.68108">
        <ele>601.1</ele>
        <time>2022-06-09T08:40:53Z</time>
      </trkpt>
      <trkpt lat="46.41594" lon="5.68113">
        <ele>602</ele>
        <time>2022-06-09T08:40:58Z</time>
      </trkpt>
      <trkpt lat="46.4159" lon="5.68116">
        <ele>602.2</ele>
        <time>2022-06-09T08:41:08Z</time>
      </trkpt>
      <trkpt lat="46.41588" lon="5.68123">
        <ele>602</ele>
        <time>2022-06-09T08:41:18Z</time>
      </trkpt>
      <trkpt lat="46.41585" lon="5.68128">
        <ele>602</ele>
        <time>2022-06-09T08:41:24Z</time>
      </trkpt>
      <trkpt lat="46.41581" lon="5.68133">
        <ele>602.4</ele>
        <time>2022-06-09T08:41:30Z</time>
      </trkpt>
      <trkpt lat="46.41579" lon="5.68139">
        <ele>602.7</ele>
        <time>2022-06-09T08:41:37Z</time>
      </trkpt>
      <trkpt lat="46.41574" lon="5.68142">
        <ele>602.8</ele>
        <time>2022-06-09T08:41:44Z</time>
      </trkpt>
      <trkpt lat="46.41569" lon="5.68144">
        <ele>603.2</ele>
        <time>2022-06-09T08:41:48Z</time>
      </trkpt>
      <trkpt lat="46.41565" lon="5.68149">
        <ele>604</ele>
        <time>2022-06-09T08:41:54Z</time>
      </trkpt>
      <trkpt lat="46.41565" lon="5.68156">
        <ele>604.8</ele>
        <time>2022-06-09T08:41:59Z</time>
      </trkpt>
      <trkpt lat="46.41564" lon="5.68163">
        <ele>604.8</ele>
        <time>2022-06-09T08:42:06Z</time>
      </trkpt>
      <trkpt lat="46.4156" lon="5.68169">
        <ele>604.6</ele>
        <time>2022-06-09T08:42:10Z</time>
      </trkpt>
      <trkpt lat="46.41556" lon="5.68172">
        <ele>604.6</ele>
        <time>2022-06-09T08:42:14Z</time>
      </trkpt>
      <trkpt lat="46.41552" lon="5.68177">
        <ele>604.4</ele>
        <time>2022-06-09T08:42:20Z</time>
      </trkpt>
      <trkpt lat="46.41549" lon="5.68182">
        <ele>604.3</ele>
        <time>2022-06-09T08:42:28Z</time>
      </trkpt>
      <trkpt lat="46.41545" lon="5.68186">
        <ele>605</ele>
        <time>2022-06-09T08:42:34Z</time>
      </trkpt>
      <trkpt lat="46.41541" lon="5.68192">
        <ele>605.3</ele>
        <time>2022-06-09T08:42:39Z</time>
      </trkpt>
      <trkpt lat="46.41542" lon="5.68199">
        <ele>605.5</ele>
        <time>2022-06-09T08:42:46Z</time>
      </trkpt>
      <trkpt lat="46.41543" lon="5.68208">
        <ele>606.5</ele>
        <time>2022-06-09T08:42:53Z</time>
      </trkpt>
      <trkpt lat="46.41543" lon="5.68215">
        <ele>607.6</ele>
        <time>2022-06-09T08:42:57Z</time>
      </trkpt>
      <trkpt lat="46.4154" lon="5.68221">
        <ele>609.1</ele>
        <time>2022-06-09T08:43:04Z</time>
      </trkpt>
      <trkpt lat="46.4154" lon="5.68228">
        <ele>609.6</ele>
        <time>2022-06-09T08:43:11Z</time>
      </trkpt>
      <trkpt lat="46.41542" lon="5.68235">
        <ele>610</ele>
        <time>2022-06-09T08:43:16Z</time>
      </trkpt>
      <trkpt lat="46.41544" lon="5.6824">
        <ele>609.9</ele>
        <time>2022-06-09T08:43:20Z</time>
      </trkpt>
      <trkpt lat="46.41549" lon="5.68244">
        <ele>609.6</ele>
        <time>2022-06-09T08:43:28Z</time>
      </trkpt>
      <trkpt lat="46.41554" lon="5.68245">
        <ele>609.2</ele>
        <time>2022-06-09T08:43:31Z</time>
      </trkpt>
      <trkpt lat="46.41558" lon="5.68243">
        <ele>608.6</ele>
        <time>2022-06-09T08:43:35Z</time>
      </trkpt>
      <trkpt lat="46.41561" lon="5.68238">
        <ele>607.6</ele>
        <time>2022-06-09T08:43:40Z</time>
      </trkpt>
      <trkpt lat="46.41562" lon="5.68231">
        <ele>606.3</ele>
        <time>2022-06-09T08:43:50Z</time>
      </trkpt>
      <trkpt lat="46.41565" lon="5.68226">
        <ele>606.1</ele>
        <time>2022-06-09T08:43:56Z</time>
      </trkpt>
      <trkpt lat="46.41571" lon="5.68224">
        <ele>605.7</ele>
        <time>2022-06-09T08:44:00Z</time>
      </trkpt>
      <trkpt lat="46.41576" lon="5.68221">
        <ele>606</ele>
        <time>2022-06-09T08:44:04Z</time>
      </trkpt>
      <trkpt lat="46.4158" lon="5.68217">
        <ele>607.4</ele>
        <time>2022-06-09T08:44:10Z</time>
      </trkpt>
      <trkpt lat="46.41584" lon="5.68214">
        <ele>608.7</ele>
        <time>2022-06-09T08:44:17Z</time>
      </trkpt>
      <trkpt lat="46.41589" lon="5.68214">
        <ele>609.5</ele>
        <time>2022-06-09T08:44:30Z</time>
      </trkpt>
      <trkpt lat="46.41594" lon="5.68216">
        <ele>609.8</ele>
        <time>2022-06-09T08:44:34Z</time>
      </trkpt>
      <trkpt lat="46.41593" lon="5.68223">
        <ele>611.1</ele>
        <time>2022-06-09T08:44:43Z</time>
      </trkpt>
      <trkpt lat="46.4159" lon="5.68228">
        <ele>612.6</ele>
        <time>2022-06-09T08:44:50Z</time>
      </trkpt>
      <trkpt lat="46.41586" lon="5.68232">
        <ele>613.4</ele>
        <time>2022-06-09T08:44:55Z</time>
      </trkpt>
      <trkpt lat="46.41583" lon="5.68237">
        <ele>613.9</ele>
        <time>2022-06-09T08:44:59Z</time>
      </trkpt>
      <trkpt lat="46.41578" lon="5.6824">
        <ele>614.7</ele>
        <time>2022-06-09T08:45:04Z</time>
      </trkpt>
      <trkpt lat="46.41573" lon="5.68243">
        <ele>614.9</ele>
        <time>2022-06-09T08:45:09Z</time>
      </trkpt>
      <trkpt lat="46.4157" lon="5.68248">
        <ele>614.7</ele>
        <time>2022-06-09T08:45:15Z</time>
      </trkpt>
      <trkpt lat="46.41568" lon="5.68255">
        <ele>614.5</ele>
        <time>2022-06-09T08:45:21Z</time>
      </trkpt>
      <trkpt lat="46.41564" lon="5.6826">
        <ele>614.4</ele>
        <time>2022-06-09T08:45:26Z</time>
      </trkpt>
      <trkpt lat="46.41561" lon="5.68265">
        <ele>615</ele>
        <time>2022-06-09T08:45:32Z</time>
      </trkpt>
      <trkpt lat="46.41557" lon="5.68267">
        <ele>615.7</ele>
        <time>2022-06-09T08:45:38Z</time>
      </trkpt>
      <trkpt lat="46.41552" lon="5.68271">
        <ele>615.8</ele>
        <time>2022-06-09T08:45:44Z</time>
      </trkpt>
      <trkpt lat="46.41548" lon="5.68275">
        <ele>616.1</ele>
        <time>2022-06-09T08:45:49Z</time>
      </trkpt>
      <trkpt lat="46.41543" lon="5.6828">
        <ele>616.5</ele>
        <time>2022-06-09T08:45:54Z</time>
      </trkpt>
      <trkpt lat="46.41538" lon="5.68282">
        <ele>616.9</ele>
        <time>2022-06-09T08:45:59Z</time>
      </trkpt>
      <trkpt lat="46.41534" lon="5.68288">
        <ele>616.8</ele>
        <time>2022-06-09T08:46:04Z</time>
      </trkpt>
      <trkpt lat="46.4153" lon="5.6829">
        <ele>616.9</ele>
        <time>2022-06-09T08:46:07Z</time>
      </trkpt>
      <trkpt lat="46.41524" lon="5.68289">
        <ele>616.9</ele>
        <time>2022-06-09T08:46:10Z</time>
      </trkpt>
      <trkpt lat="46.4152" lon="5.68288">
        <ele>616.7</ele>
        <time>2022-06-09T08:46:14Z</time>
      </trkpt>
      <trkpt lat="46.41514" lon="5.68289">
        <ele>616.1</ele>
        <time>2022-06-09T08:46:20Z</time>
      </trkpt>
      <trkpt lat="46.41509" lon="5.68289">
        <ele>615.1</ele>
        <time>2022-06-09T08:46:29Z</time>
      </trkpt>
      <trkpt lat="46.41504" lon="5.6829">
        <ele>614.8</ele>
        <time>2022-06-09T08:46:34Z</time>
      </trkpt>
      <trkpt lat="46.415" lon="5.68292">
        <ele>614.9</ele>
        <time>2022-06-09T08:46:39Z</time>
      </trkpt>
      <trkpt lat="46.41495" lon="5.68292">
        <ele>615.5</ele>
        <time>2022-06-09T08:46:47Z</time>
      </trkpt>
      <trkpt lat="46.4149" lon="5.68295">
        <ele>616.2</ele>
        <time>2022-06-09T08:46:52Z</time>
      </trkpt>
      <trkpt lat="46.41486" lon="5.68297">
        <ele>616.8</ele>
        <time>2022-06-09T08:46:56Z</time>
      </trkpt>
      <trkpt lat="46.41482" lon="5.683">
        <ele>617.3</ele>
        <time>2022-06-09T08:46:59Z</time>
      </trkpt>
      <trkpt lat="46.41477" lon="5.68305">
        <ele>617.9</ele>
        <time>2022-06-09T08:47:02Z</time>
      </trkpt>
      <trkpt lat="46.41473" lon="5.68307">
        <ele>618.8</ele>
        <time>2022-06-09T08:47:06Z</time>
      </trkpt>
      <trkpt lat="46.41467" lon="5.68305">
        <ele>620.5</ele>
        <time>2022-06-09T08:47:11Z</time>
      </trkpt>
      <trkpt lat="46.41463" lon="5.68303">
        <ele>622.4</ele>
        <time>2022-06-09T08:47:16Z</time>
      </trkpt>
      <trkpt lat="46.41459" lon="5.68304">
        <ele>624</ele>
        <time>2022-06-09T08:47:23Z</time>
      </trkpt>
      <trkpt lat="46.41455" lon="5.68307">
        <ele>623</ele>
        <time>2022-06-09T08:47:29Z</time>
      </trkpt>
      <trkpt lat="46.4145" lon="5.68308">
        <ele>622.3</ele>
        <time>2022-06-09T08:47:33Z</time>
      </trkpt>
      <trkpt lat="46.41445" lon="5.68311">
        <ele>621.6</ele>
        <time>2022-06-09T08:47:38Z</time>
      </trkpt>
      <trkpt lat="46.41441" lon="5.68315">
        <ele>621.2</ele>
        <time>2022-06-09T08:47:43Z</time>
      </trkpt>
      <trkpt lat="46.41435" lon="5.68316">
        <ele>621.1</ele>
        <time>2022-06-09T08:47:49Z</time>
      </trkpt>
      <trkpt lat="46.41432" lon="5.6832">
        <ele>620.8</ele>
        <time>2022-06-09T08:47:54Z</time>
      </trkpt>
      <trkpt lat="46.41427" lon="5.68321">
        <ele>620.7</ele>
        <time>2022-06-09T08:47:59Z</time>
      </trkpt>
      <trkpt lat="46.41423" lon="5.68325">
        <ele>619.3</ele>
        <time>2022-06-09T08:48:05Z</time>
      </trkpt>
      <trkpt lat="46.41419" lon="5.68328">
        <ele>618.3</ele>
        <time>2022-06-09T08:48:09Z</time>
      </trkpt>
      <trkpt lat="46.41414" lon="5.6833">
        <ele>617.8</ele>
        <time>2022-06-09T08:48:15Z</time>
      </trkpt>
      <trkpt lat="46.41409" lon="5.68333">
        <ele>618.6</ele>
        <time>2022-06-09T08:48:20Z</time>
      </trkpt>
      <trkpt lat="46.41405" lon="5.68337">
        <ele>619.4</ele>
        <time>2022-06-09T08:48:25Z</time>
      </trkpt>
      <trkpt lat="46.41403" lon="5.68342">
        <ele>620</ele>
        <time>2022-06-09T08:48:29Z</time>
      </trkpt>
      <trkpt lat="46.41399" lon="5.68347">
        <ele>620.2</ele>
        <time>2022-06-09T08:48:36Z</time>
      </trkpt>
      <trkpt lat="46.41394" lon="5.68351">
        <ele>620.1</ele>
        <time>2022-06-09T08:48:40Z</time>
      </trkpt>
      <trkpt lat="46.4139" lon="5.68356">
        <ele>619.5</ele>
        <time>2022-06-09T08:48:44Z</time>
      </trkpt>
      <trkpt lat="46.41387" lon="5.68361">
        <ele>619.2</ele>
        <time>2022-06-09T08:48:48Z</time>
      </trkpt>
      <trkpt lat="46.41384" lon="5.68367">
        <ele>619</ele>
        <time>2022-06-09T08:48:56Z</time>
      </trkpt>
      <trkpt lat="46.4138" lon="5.68368">
        <ele>619.2</ele>
        <time>2022-06-09T08:49:02Z</time>
      </trkpt>
      <trkpt lat="46.41375" lon="5.68369">
        <ele>620.5</ele>
        <time>2022-06-09T08:49:09Z</time>
      </trkpt>
      <trkpt lat="46.41369" lon="5.68369">
        <ele>621.3</ele>
        <time>2022-06-09T08:49:15Z</time>
      </trkpt>
      <trkpt lat="46.41364" lon="5.68369">
        <ele>622</ele>
        <time>2022-06-09T08:49:19Z</time>
      </trkpt>
      <trkpt lat="46.41359" lon="5.68368">
        <ele>622.7</ele>
        <time>2022-06-09T08:49:23Z</time>
      </trkpt>
      <trkpt lat="46.41355" lon="5.68372">
        <ele>623.2</ele>
        <time>2022-06-09T08:49:27Z</time>
      </trkpt>
      <trkpt lat="46.41351" lon="5.68375">
        <ele>623.8</ele>
        <time>2022-06-09T08:49:31Z</time>
      </trkpt>
      <trkpt lat="46.41346" lon="5.68376">
        <ele>624.3</ele>
        <time>2022-06-09T08:49:36Z</time>
      </trkpt>
      <trkpt lat="46.41343" lon="5.68382">
        <ele>625.1</ele>
        <time>2022-06-09T08:49:43Z</time>
      </trkpt>
      <trkpt lat="46.4134" lon="5.68388">
        <ele>625.2</ele>
        <time>2022-06-09T08:49:48Z</time>
      </trkpt>
      <trkpt lat="46.41336" lon="5.68393">
        <ele>625.3</ele>
        <time>2022-06-09T08:49:55Z</time>
      </trkpt>
      <trkpt lat="46.41331" lon="5.68395">
        <ele>625</ele>
        <time>2022-06-09T08:50:01Z</time>
      </trkpt>
      <trkpt lat="46.41327" lon="5.68399">
        <ele>624.4</ele>
        <time>2022-06-09T08:50:05Z</time>
      </trkpt>
      <trkpt lat="46.41324" lon="5.68404">
        <ele>623.3</ele>
        <time>2022-06-09T08:50:12Z</time>
      </trkpt>
      <trkpt lat="46.41319" lon="5.68408">
        <ele>622.1</ele>
        <time>2022-06-09T08:50:18Z</time>
      </trkpt>
      <trkpt lat="46.41315" lon="5.68413">
        <ele>621.7</ele>
        <time>2022-06-09T08:50:22Z</time>
      </trkpt>
      <trkpt lat="46.4131" lon="5.68416">
        <ele>621.6</ele>
        <time>2022-06-09T08:50:26Z</time>
      </trkpt>
      <trkpt lat="46.41306" lon="5.68417">
        <ele>621.8</ele>
        <time>2022-06-09T08:50:30Z</time>
      </trkpt>
      <trkpt lat="46.41301" lon="5.6842">
        <ele>621.8</ele>
        <time>2022-06-09T08:50:36Z</time>
      </trkpt>
      <trkpt lat="46.41298" lon="5.68425">
        <ele>622.1</ele>
        <time>2022-06-09T08:50:40Z</time>
      </trkpt>
      <trkpt lat="46.41295" lon="5.6843">
        <ele>622.5</ele>
        <time>2022-06-09T08:50:44Z</time>
      </trkpt>
      <trkpt lat="46.41294" lon="5.68437">
        <ele>622.2</ele>
        <time>2022-06-09T08:50:49Z</time>
      </trkpt>
      <trkpt lat="46.41289" lon="5.68439">
        <ele>621.5</ele>
        <time>2022-06-09T08:50:55Z</time>
      </trkpt>
      <trkpt lat="46.41284" lon="5.68439">
        <ele>619.9</ele>
        <time>2022-06-09T08:51:01Z</time>
      </trkpt>
      <trkpt lat="46.41279" lon="5.68439">
        <ele>618.5</ele>
        <time>2022-06-09T08:51:06Z</time>
      </trkpt>
      <trkpt lat="46.41274" lon="5.68437">
        <ele>617.1</ele>
        <time>2022-06-09T08:51:11Z</time>
      </trkpt>
      <trkpt lat="46.41268" lon="5.68437">
        <ele>615.9</ele>
        <time>2022-06-09T08:51:16Z</time>
      </trkpt>
      <trkpt lat="46.41264" lon="5.68438">
        <ele>615.2</ele>
        <time>2022-06-09T08:51:20Z</time>
      </trkpt>
      <trkpt lat="46.4126" lon="5.68442">
        <ele>614.3</ele>
        <time>2022-06-09T08:51:24Z</time>
      </trkpt>
      <trkpt lat="46.41255" lon="5.68445">
        <ele>613.1</ele>
        <time>2022-06-09T08:51:30Z</time>
      </trkpt>
      <trkpt lat="46.41251" lon="5.68442">
        <ele>612.3</ele>
        <time>2022-06-09T08:51:35Z</time>
      </trkpt>
      <trkpt lat="46.41245" lon="5.68447">
        <ele>610.2</ele>
        <time>2022-06-09T08:51:46Z</time>
      </trkpt>
      <trkpt lat="46.41241" lon="5.68451">
        <ele>609.4</ele>
        <time>2022-06-09T08:51:50Z</time>
      </trkpt>
      <trkpt lat="46.41235" lon="5.68455">
        <ele>608.6</ele>
        <time>2022-06-09T08:51:54Z</time>
      </trkpt>
      <trkpt lat="46.41231" lon="5.6846">
        <ele>607.9</ele>
        <time>2022-06-09T08:51:58Z</time>
      </trkpt>
      <trkpt lat="46.41226" lon="5.68463">
        <ele>607.8</ele>
        <time>2022-06-09T08:52:03Z</time>
      </trkpt>
      <trkpt lat="46.4122" lon="5.68464">
        <ele>607.6</ele>
        <time>2022-06-09T08:52:07Z</time>
      </trkpt>
      <trkpt lat="46.41215" lon="5.68465">
        <ele>607.2</ele>
        <time>2022-06-09T08:52:10Z</time>
      </trkpt>
      <trkpt lat="46.41211" lon="5.68465">
        <ele>606.9</ele>
        <time>2022-06-09T08:52:14Z</time>
      </trkpt>
      <trkpt lat="46.41206" lon="5.68466">
        <ele>606.9</ele>
        <time>2022-06-09T08:52:18Z</time>
      </trkpt>
      <trkpt lat="46.41201" lon="5.68468">
        <ele>607.5</ele>
        <time>2022-06-09T08:52:24Z</time>
      </trkpt>
      <trkpt lat="46.41198" lon="5.68473">
        <ele>608.1</ele>
        <time>2022-06-09T08:52:29Z</time>
      </trkpt>
      <trkpt lat="46.41193" lon="5.68474">
        <ele>609.1</ele>
        <time>2022-06-09T08:52:34Z</time>
      </trkpt>
      <trkpt lat="46.41189" lon="5.68477">
        <ele>609.8</ele>
        <time>2022-06-09T08:52:38Z</time>
      </trkpt>
      <trkpt lat="46.41185" lon="5.6848">
        <ele>610.2</ele>
        <time>2022-06-09T08:52:42Z</time>
      </trkpt>
      <trkpt lat="46.4118" lon="5.68482">
        <ele>610.8</ele>
        <time>2022-06-09T08:52:47Z</time>
      </trkpt>
      <trkpt lat="46.41175" lon="5.68485">
        <ele>612.2</ele>
        <time>2022-06-09T08:52:54Z</time>
      </trkpt>
      <trkpt lat="46.41172" lon="5.68491">
        <ele>614.4</ele>
        <time>2022-06-09T08:53:03Z</time>
      </trkpt>
      <trkpt lat="46.41169" lon="5.68495">
        <ele>615.7</ele>
        <time>2022-06-09T08:53:10Z</time>
      </trkpt>
      <trkpt lat="46.41165" lon="5.685">
        <ele>617</ele>
        <time>2022-06-09T08:53:14Z</time>
      </trkpt>
      <trkpt lat="46.4116" lon="5.68502">
        <ele>618.5</ele>
        <time>2022-06-09T08:53:17Z</time>
      </trkpt>
      <trkpt lat="46.41155" lon="5.68505">
        <ele>620.5</ele>
        <time>2022-06-09T08:53:21Z</time>
      </trkpt>
      <trkpt lat="46.41149" lon="5.68505">
        <ele>622.6</ele>
        <time>2022-06-09T08:53:26Z</time>
      </trkpt>
      <trkpt lat="46.41145" lon="5.68504">
        <ele>624.1</ele>
        <time>2022-06-09T08:53:30Z</time>
      </trkpt>
      <trkpt lat="46.4114" lon="5.68506">
        <ele>625.6</ele>
        <time>2022-06-09T08:53:36Z</time>
      </trkpt>
      <trkpt lat="46.41137" lon="5.68512">
        <ele>624.8</ele>
        <time>2022-06-09T08:53:43Z</time>
      </trkpt>
      <trkpt lat="46.41133" lon="5.68517">
        <ele>624.3</ele>
        <time>2022-06-09T08:53:48Z</time>
      </trkpt>
      <trkpt lat="46.41128" lon="5.6852">
        <ele>623.8</ele>
        <time>2022-06-09T08:53:52Z</time>
      </trkpt>
      <trkpt lat="46.41123" lon="5.68522">
        <ele>623.4</ele>
        <time>2022-06-09T08:53:56Z</time>
      </trkpt>
      <trkpt lat="46.41119" lon="5.68523">
        <ele>623.2</ele>
        <time>2022-06-09T08:54:01Z</time>
      </trkpt>
      <trkpt lat="46.41114" lon="5.68525">
        <ele>622.9</ele>
        <time>2022-06-09T08:54:05Z</time>
      </trkpt>
      <trkpt lat="46.41109" lon="5.68528">
        <ele>622.5</ele>
        <time>2022-06-09T08:54:09Z</time>
      </trkpt>
      <trkpt lat="46.41104" lon="5.6853">
        <ele>621.5</ele>
        <time>2022-06-09T08:54:14Z</time>
      </trkpt>
      <trkpt lat="46.41099" lon="5.68531">
        <ele>620.2</ele>
        <time>2022-06-09T08:54:20Z</time>
      </trkpt>
      <trkpt lat="46.41094" lon="5.6853">
        <ele>619.6</ele>
        <time>2022-06-09T08:54:24Z</time>
      </trkpt>
      <trkpt lat="46.41088" lon="5.6853">
        <ele>619.4</ele>
        <time>2022-06-09T08:54:27Z</time>
      </trkpt>
      <trkpt lat="46.41084" lon="5.6853">
        <ele>619.3</ele>
        <time>2022-06-09T08:54:30Z</time>
      </trkpt>
      <trkpt lat="46.41079" lon="5.68533">
        <ele>619.9</ele>
        <time>2022-06-09T08:54:34Z</time>
      </trkpt>
      <trkpt lat="46.41075" lon="5.68537">
        <ele>620.6</ele>
        <time>2022-06-09T08:54:38Z</time>
      </trkpt>
      <trkpt lat="46.4107" lon="5.68541">
        <ele>621.9</ele>
        <time>2022-06-09T08:54:42Z</time>
      </trkpt>
      <trkpt lat="46.41066" lon="5.68543">
        <ele>623.7</ele>
        <time>2022-06-09T08:54:47Z</time>
      </trkpt>
      <trkpt lat="46.41066" lon="5.6855">
        <ele>626.2</ele>
        <time>2022-06-09T08:54:57Z</time>
      </trkpt>
      <trkpt lat="46.41065" lon="5.68558">
        <ele>626.6</ele>
        <time>2022-06-09T08:55:23Z</time>
      </trkpt>
      <trkpt lat="46.41062" lon="5.68562">
        <ele>625.1</ele>
        <time>2022-06-09T08:55:41Z</time>
      </trkpt>
      <trkpt lat="46.41057" lon="5.68559">
        <ele>624.4</ele>
        <time>2022-06-09T08:55:48Z</time>
      </trkpt>
      <trkpt lat="46.41056" lon="5.68551">
        <ele>623.2</ele>
        <time>2022-06-09T08:55:53Z</time>
      </trkpt>
      <trkpt lat="46.41054" lon="5.68544">
        <ele>622.5</ele>
        <time>2022-06-09T08:55:59Z</time>
      </trkpt>
      <trkpt lat="46.4105" lon="5.68539">
        <ele>622.4</ele>
        <time>2022-06-09T08:56:02Z</time>
      </trkpt>
      <trkpt lat="46.41046" lon="5.68536">
        <ele>621.7</ele>
        <time>2022-06-09T08:56:10Z</time>
      </trkpt>
      <trkpt lat="46.41047" lon="5.68543">
        <ele>619.9</ele>
        <time>2022-06-09T08:56:14Z</time>
      </trkpt>
      <trkpt lat="46.41051" lon="5.68549">
        <ele>619.5</ele>
        <time>2022-06-09T08:56:17Z</time>
      </trkpt>
      <trkpt lat="46.41054" lon="5.68554">
        <ele>619.6</ele>
        <time>2022-06-09T08:56:24Z</time>
      </trkpt>
      <trkpt lat="46.41054" lon="5.6856">
        <ele>620.2</ele>
        <time>2022-06-09T08:56:33Z</time>
      </trkpt>
      <trkpt lat="46.41051" lon="5.68556">
        <ele>620.4</ele>
        <time>2022-06-09T08:56:56Z</time>
      </trkpt>
      <trkpt lat="46.41054" lon="5.68563">
        <ele>619.3</ele>
        <time>2022-06-09T08:57:19Z</time>
      </trkpt>
      <trkpt lat="46.41054" lon="5.68555">
        <ele>620.7</ele>
        <time>2022-06-09T08:57:27Z</time>
      </trkpt>
      <trkpt lat="46.41051" lon="5.6855">
        <ele>621.5</ele>
        <time>2022-06-09T08:57:30Z</time>
      </trkpt>
      <trkpt lat="46.41047" lon="5.68546">
        <ele>622.1</ele>
        <time>2022-06-09T08:57:33Z</time>
      </trkpt>
      <trkpt lat="46.41044" lon="5.68551">
        <ele>624.1</ele>
        <time>2022-06-09T08:57:42Z</time>
      </trkpt>
      <trkpt lat="46.4104" lon="5.68557">
        <ele>627.1</ele>
        <time>2022-06-09T08:57:49Z</time>
      </trkpt>
      <trkpt lat="46.41036" lon="5.68558">
        <ele>629</ele>
        <time>2022-06-09T08:57:53Z</time>
      </trkpt>
      <trkpt lat="46.41032" lon="5.68561">
        <ele>631</ele>
        <time>2022-06-09T08:58:00Z</time>
      </trkpt>
      <trkpt lat="46.41028" lon="5.68563">
        <ele>632.4</ele>
        <time>2022-06-09T08:58:15Z</time>
      </trkpt>
      <trkpt lat="46.41023" lon="5.68564">
        <ele>632.7</ele>
        <time>2022-06-09T08:58:20Z</time>
      </trkpt>
      <trkpt lat="46.41018" lon="5.68567">
        <ele>632.8</ele>
        <time>2022-06-09T08:58:25Z</time>
      </trkpt>
      <trkpt lat="46.41013" lon="5.68569">
        <ele>632.3</ele>
        <time>2022-06-09T08:58:30Z</time>
      </trkpt>
      <trkpt lat="46.41008" lon="5.6857">
        <ele>631</ele>
        <time>2022-06-09T08:58:35Z</time>
      </trkpt>
      <trkpt lat="46.41005" lon="5.68575">
        <ele>629.5</ele>
        <time>2022-06-09T08:58:40Z</time>
      </trkpt>
      <trkpt lat="46.41" lon="5.68577">
        <ele>628</ele>
        <time>2022-06-09T08:58:44Z</time>
      </trkpt>
      <trkpt lat="46.40995" lon="5.68579">
        <ele>626.6</ele>
        <time>2022-06-09T08:58:49Z</time>
      </trkpt>
      <trkpt lat="46.40992" lon="5.68585">
        <ele>625.9</ele>
        <time>2022-06-09T08:58:54Z</time>
      </trkpt>
      <trkpt lat="46.40989" lon="5.68589">
        <ele>625.8</ele>
        <time>2022-06-09T08:58:57Z</time>
      </trkpt>
      <trkpt lat="46.40986" lon="5.68595">
        <ele>626</ele>
        <time>2022-06-09T08:59:01Z</time>
      </trkpt>
      <trkpt lat="46.40982" lon="5.686">
        <ele>626.4</ele>
        <time>2022-06-09T08:59:06Z</time>
      </trkpt>
      <trkpt lat="46.40977" lon="5.68601">
        <ele>626.7</ele>
        <time>2022-06-09T08:59:12Z</time>
      </trkpt>
      <trkpt lat="46.40973" lon="5.68605">
        <ele>627.2</ele>
        <time>2022-06-09T08:59:19Z</time>
      </trkpt>
      <trkpt lat="46.40971" lon="5.68612">
        <ele>627.1</ele>
        <time>2022-06-09T08:59:24Z</time>
      </trkpt>
      <trkpt lat="46.4097" lon="5.68619">
        <ele>627.1</ele>
        <time>2022-06-09T08:59:28Z</time>
      </trkpt>
      <trkpt lat="46.40967" lon="5.68624">
        <ele>627.1</ele>
        <time>2022-06-09T08:59:32Z</time>
      </trkpt>
      <trkpt lat="46.40963" lon="5.6863">
        <ele>627.2</ele>
        <time>2022-06-09T08:59:36Z</time>
      </trkpt>
      <trkpt lat="46.40959" lon="5.68635">
        <ele>627.3</ele>
        <time>2022-06-09T08:59:40Z</time>
      </trkpt>
      <trkpt lat="46.40954" lon="5.68639">
        <ele>627.9</ele>
        <time>2022-06-09T08:59:44Z</time>
      </trkpt>
      <trkpt lat="46.40949" lon="5.68641">
        <ele>629.7</ele>
        <time>2022-06-09T08:59:50Z</time>
      </trkpt>
      <trkpt lat="46.40945" lon="5.68641">
        <ele>630.4</ele>
        <time>2022-06-09T08:59:54Z</time>
      </trkpt>
      <trkpt lat="46.4094" lon="5.68643">
        <ele>628.9</ele>
        <time>2022-06-09T09:00:28Z</time>
      </trkpt>
      <trkpt lat="46.40935" lon="5.68643">
        <ele>624.6</ele>
        <time>2022-06-09T09:00:35Z</time>
      </trkpt>
      <trkpt lat="46.40934" lon="5.68637">
        <ele>619.7</ele>
        <time>2022-06-09T09:00:45Z</time>
      </trkpt>
      <trkpt lat="46.40929" lon="5.68635">
        <ele>618.1</ele>
        <time>2022-06-09T09:00:51Z</time>
      </trkpt>
      <trkpt lat="46.40927" lon="5.68629">
        <ele>616.8</ele>
        <time>2022-06-09T09:00:58Z</time>
      </trkpt>
      <trkpt lat="46.40925" lon="5.68623">
        <ele>616.2</ele>
        <time>2022-06-09T09:01:02Z</time>
      </trkpt>
      <trkpt lat="46.40921" lon="5.68619">
        <ele>615.4</ele>
        <time>2022-06-09T09:01:10Z</time>
      </trkpt>
      <trkpt lat="46.40918" lon="5.68613">
        <ele>615.4</ele>
        <time>2022-06-09T09:01:16Z</time>
      </trkpt>
      <trkpt lat="46.40917" lon="5.68605">
        <ele>615</ele>
        <time>2022-06-09T09:01:21Z</time>
      </trkpt>
      <trkpt lat="46.40916" lon="5.68598">
        <ele>614.6</ele>
        <time>2022-06-09T09:01:25Z</time>
      </trkpt>
      <trkpt lat="46.40915" lon="5.68591">
        <ele>614.1</ele>
        <time>2022-06-09T09:01:28Z</time>
      </trkpt>
      <trkpt lat="46.40916" lon="5.68583">
        <ele>613.8</ele>
        <time>2022-06-09T09:01:32Z</time>
      </trkpt>
      <trkpt lat="46.40914" lon="5.68577">
        <ele>614.3</ele>
        <time>2022-06-09T09:01:37Z</time>
      </trkpt>
      <trkpt lat="46.4091" lon="5.68573">
        <ele>614.5</ele>
        <time>2022-06-09T09:01:47Z</time>
      </trkpt>
      <trkpt lat="46.4091" lon="5.68566">
        <ele>614.1</ele>
        <time>2022-06-09T09:01:53Z</time>
      </trkpt>
      <trkpt lat="46.40913" lon="5.6856">
        <ele>615</ele>
        <time>2022-06-09T09:02:06Z</time>
      </trkpt>
      <trkpt lat="46.40915" lon="5.68555">
        <ele>615.9</ele>
        <time>2022-06-09T09:02:28Z</time>
      </trkpt>
      <trkpt lat="46.40915" lon="5.68561">
        <ele>618.6</ele>
        <time>2022-06-09T09:02:58Z</time>
      </trkpt>
      <trkpt lat="46.40911" lon="5.68556">
        <ele>620</ele>
        <time>2022-06-09T09:03:05Z</time>
      </trkpt>
      <trkpt lat="46.40908" lon="5.68551">
        <ele>621.1</ele>
        <time>2022-06-09T09:03:11Z</time>
      </trkpt>
      <trkpt lat="46.40908" lon="5.68543">
        <ele>622</ele>
        <time>2022-06-09T09:03:17Z</time>
      </trkpt>
      <trkpt lat="46.40908" lon="5.68536">
        <ele>622.3</ele>
        <time>2022-06-09T09:03:20Z</time>
      </trkpt>
      <trkpt lat="46.40909" lon="5.68528">
        <ele>622.5</ele>
        <time>2022-06-09T09:03:24Z</time>
      </trkpt>
      <trkpt lat="46.40908" lon="5.68522">
        <ele>622.4</ele>
        <time>2022-06-09T09:03:28Z</time>
      </trkpt>
      <trkpt lat="46.40908" lon="5.68514">
        <ele>622.1</ele>
        <time>2022-06-09T09:03:35Z</time>
      </trkpt>
      <trkpt lat="46.40905" lon="5.68507">
        <ele>622.6</ele>
        <time>2022-06-09T09:03:40Z</time>
      </trkpt>
      <trkpt lat="46.40904" lon="5.685">
        <ele>623.6</ele>
        <time>2022-06-09T09:03:45Z</time>
      </trkpt>
      <trkpt lat="46.40899" lon="5.68499">
        <ele>624.9</ele>
        <time>2022-06-09T09:03:51Z</time>
      </trkpt>
      <trkpt lat="46.40895" lon="5.68497">
        <ele>626.1</ele>
        <time>2022-06-09T09:03:56Z</time>
      </trkpt>
      <trkpt lat="46.4089" lon="5.68494">
        <ele>627.2</ele>
        <time>2022-06-09T09:04:01Z</time>
      </trkpt>
      <trkpt lat="46.40886" lon="5.6849">
        <ele>627.7</ele>
        <time>2022-06-09T09:04:06Z</time>
      </trkpt>
      <trkpt lat="46.40881" lon="5.68486">
        <ele>627.4</ele>
        <time>2022-06-09T09:04:12Z</time>
      </trkpt>
      <trkpt lat="46.40877" lon="5.68483">
        <ele>626.9</ele>
        <time>2022-06-09T09:04:17Z</time>
      </trkpt>
      <trkpt lat="46.40873" lon="5.68478">
        <ele>626.1</ele>
        <time>2022-06-09T09:04:22Z</time>
      </trkpt>
      <trkpt lat="46.40869" lon="5.68475">
        <ele>625.7</ele>
        <time>2022-06-09T09:04:26Z</time>
      </trkpt>
      <trkpt lat="46.40864" lon="5.68473">
        <ele>625.2</ele>
        <time>2022-06-09T09:04:31Z</time>
      </trkpt>
      <trkpt lat="46.40859" lon="5.68472">
        <ele>625</ele>
        <time>2022-06-09T09:04:38Z</time>
      </trkpt>
      <trkpt lat="46.40854" lon="5.6847">
        <ele>624.1</ele>
        <time>2022-06-09T09:04:45Z</time>
      </trkpt>
      <trkpt lat="46.4085" lon="5.68466">
        <ele>623.8</ele>
        <time>2022-06-09T09:04:50Z</time>
      </trkpt>
      <trkpt lat="46.40847" lon="5.68461">
        <ele>623.5</ele>
        <time>2022-06-09T09:04:55Z</time>
      </trkpt>
      <trkpt lat="46.40842" lon="5.68458">
        <ele>623.1</ele>
        <time>2022-06-09T09:05:02Z</time>
      </trkpt>
      <trkpt lat="46.40837" lon="5.68455">
        <ele>622.4</ele>
        <time>2022-06-09T09:05:07Z</time>
      </trkpt>
      <trkpt lat="46.40833" lon="5.68454">
        <ele>621.9</ele>
        <time>2022-06-09T09:05:13Z</time>
      </trkpt>
      <trkpt lat="46.40828" lon="5.68451">
        <ele>621.6</ele>
        <time>2022-06-09T09:05:18Z</time>
      </trkpt>
      <trkpt lat="46.40822" lon="5.68449">
        <ele>621.4</ele>
        <time>2022-06-09T09:05:23Z</time>
      </trkpt>
      <trkpt lat="46.40818" lon="5.68446">
        <ele>621.2</ele>
        <time>2022-06-09T09:05:29Z</time>
      </trkpt>
      <trkpt lat="46.40813" lon="5.68445">
        <ele>621.1</ele>
        <time>2022-06-09T09:05:36Z</time>
      </trkpt>
      <trkpt lat="46.40809" lon="5.68447">
        <ele>621.3</ele>
        <time>2022-06-09T09:05:41Z</time>
      </trkpt>
      <trkpt lat="46.40804" lon="5.68448">
        <ele>621.9</ele>
        <time>2022-06-09T09:05:47Z</time>
      </trkpt>
      <trkpt lat="46.40799" lon="5.68447">
        <ele>620.8</ele>
        <time>2022-06-09T09:05:57Z</time>
      </trkpt>
      <trkpt lat="46.40795" lon="5.68443">
        <ele>620</ele>
        <time>2022-06-09T09:06:02Z</time>
      </trkpt>
      <trkpt lat="46.40788" lon="5.68444">
        <ele>620.2</ele>
        <time>2022-06-09T09:06:16Z</time>
      </trkpt>
      <trkpt lat="46.40784" lon="5.68448">
        <ele>620.6</ele>
        <time>2022-06-09T09:06:19Z</time>
      </trkpt>
      <trkpt lat="46.4078" lon="5.6845">
        <ele>620.7</ele>
        <time>2022-06-09T09:06:23Z</time>
      </trkpt>
      <trkpt lat="46.40775" lon="5.68448">
        <ele>620.7</ele>
        <time>2022-06-09T09:06:28Z</time>
      </trkpt>
      <trkpt lat="46.4077" lon="5.68445">
        <ele>620.6</ele>
        <time>2022-06-09T09:06:33Z</time>
      </trkpt>
      <trkpt lat="46.40766" lon="5.68443">
        <ele>620.5</ele>
        <time>2022-06-09T09:06:38Z</time>
      </trkpt>
      <trkpt lat="46.40761" lon="5.68441">
        <ele>619.8</ele>
        <time>2022-06-09T09:06:43Z</time>
      </trkpt>
      <trkpt lat="46.40756" lon="5.68441">
        <ele>618.4</ele>
        <time>2022-06-09T09:06:50Z</time>
      </trkpt>
      <trkpt lat="46.40751" lon="5.68443">
        <ele>617.2</ele>
        <time>2022-06-09T09:06:58Z</time>
      </trkpt>
      <trkpt lat="46.40746" lon="5.68442">
        <ele>615.6</ele>
        <time>2022-06-09T09:07:05Z</time>
      </trkpt>
      <trkpt lat="46.40741" lon="5.68439">
        <ele>613.2</ele>
        <time>2022-06-09T09:07:16Z</time>
      </trkpt>
      <trkpt lat="46.40737" lon="5.68436">
        <ele>611.7</ele>
        <time>2022-06-09T09:07:22Z</time>
      </trkpt>
      <trkpt lat="46.40733" lon="5.68433">
        <ele>610.5</ele>
        <time>2022-06-09T09:07:26Z</time>
      </trkpt>
      <trkpt lat="46.40728" lon="5.68433">
        <ele>607.8</ele>
        <time>2022-06-09T09:07:35Z</time>
      </trkpt>
      <trkpt lat="46.40723" lon="5.68435">
        <ele>606.6</ele>
        <time>2022-06-09T09:07:40Z</time>
      </trkpt>
      <trkpt lat="46.40719" lon="5.6844">
        <ele>605.8</ele>
        <time>2022-06-09T09:07:45Z</time>
      </trkpt>
      <trkpt lat="46.40714" lon="5.68442">
        <ele>605</ele>
        <time>2022-06-09T09:07:54Z</time>
      </trkpt>
      <trkpt lat="46.4071" lon="5.68444">
        <ele>604.5</ele>
        <time>2022-06-09T09:08:06Z</time>
      </trkpt>
      <trkpt lat="46.40706" lon="5.68447">
        <ele>604.5</ele>
        <time>2022-06-09T09:08:12Z</time>
      </trkpt>
      <trkpt lat="46.40701" lon="5.68448">
        <ele>604.4</ele>
        <time>2022-06-09T09:08:18Z</time>
      </trkpt>
      <trkpt lat="46.40695" lon="5.68451">
        <ele>603.5</ele>
        <time>2022-06-09T09:08:25Z</time>
      </trkpt>
      <trkpt lat="46.40689" lon="5.68452">
        <ele>602.8</ele>
        <time>2022-06-09T09:08:28Z</time>
      </trkpt>
      <trkpt lat="46.40684" lon="5.68453">
        <ele>602.2</ele>
        <time>2022-06-09T09:08:31Z</time>
      </trkpt>
      <trkpt lat="46.40679" lon="5.68454">
        <ele>601.8</ele>
        <time>2022-06-09T09:08:35Z</time>
      </trkpt>
      <trkpt lat="46.40674" lon="5.68452">
        <ele>600.6</ele>
        <time>2022-06-09T09:08:41Z</time>
      </trkpt>
      <trkpt lat="46.4067" lon="5.6845">
        <ele>599.7</ele>
        <time>2022-06-09T09:08:45Z</time>
      </trkpt>
      <trkpt lat="46.40665" lon="5.68446">
        <ele>598.8</ele>
        <time>2022-06-09T09:08:49Z</time>
      </trkpt>
      <trkpt lat="46.40662" lon="5.68441">
        <ele>597.9</ele>
        <time>2022-06-09T09:08:54Z</time>
      </trkpt>
      <trkpt lat="46.40657" lon="5.68441">
        <ele>598.4</ele>
        <time>2022-06-09T09:09:06Z</time>
      </trkpt>
      <trkpt lat="46.40653" lon="5.68437">
        <ele>599.5</ele>
        <time>2022-06-09T09:09:11Z</time>
      </trkpt>
      <trkpt lat="46.40648" lon="5.68437">
        <ele>599.7</ele>
        <time>2022-06-09T09:09:15Z</time>
      </trkpt>
      <trkpt lat="46.40644" lon="5.68433">
        <ele>599.5</ele>
        <time>2022-06-09T09:09:22Z</time>
      </trkpt>
      <trkpt lat="46.4064" lon="5.68429">
        <ele>598.9</ele>
        <time>2022-06-09T09:09:36Z</time>
      </trkpt>
      <trkpt lat="46.40638" lon="5.68421">
        <ele>598.1</ele>
        <time>2022-06-09T09:09:41Z</time>
      </trkpt>
      <trkpt lat="46.40635" lon="5.68415">
        <ele>597.9</ele>
        <time>2022-06-09T09:09:44Z</time>
      </trkpt>
      <trkpt lat="46.40632" lon="5.6841">
        <ele>597.7</ele>
        <time>2022-06-09T09:09:49Z</time>
      </trkpt>
      <trkpt lat="46.4063" lon="5.68404">
        <ele>597.1</ele>
        <time>2022-06-09T09:09:56Z</time>
      </trkpt>
      <trkpt lat="46.40628" lon="5.68398">
        <ele>595.5</ele>
        <time>2022-06-09T09:10:06Z</time>
      </trkpt>
      <trkpt lat="46.40623" lon="5.68398">
        <ele>595.2</ele>
        <time>2022-06-09T09:10:14Z</time>
      </trkpt>
      <trkpt lat="46.40621" lon="5.68391">
        <ele>594.2</ele>
        <time>2022-06-09T09:10:21Z</time>
      </trkpt>
      <trkpt lat="46.40616" lon="5.68387">
        <ele>592.7</ele>
        <time>2022-06-09T09:10:34Z</time>
      </trkpt>
      <trkpt lat="46.4061" lon="5.68385">
        <ele>592.3</ele>
        <time>2022-06-09T09:10:38Z</time>
      </trkpt>
      <trkpt lat="46.40606" lon="5.68385">
        <ele>592.2</ele>
        <time>2022-06-09T09:10:41Z</time>
      </trkpt>
      <trkpt lat="46.40601" lon="5.68384">
        <ele>592.6</ele>
        <time>2022-06-09T09:10:46Z</time>
      </trkpt>
      <trkpt lat="46.40597" lon="5.68381">
        <ele>593.7</ele>
        <time>2022-06-09T09:10:56Z</time>
      </trkpt>
      <trkpt lat="46.40592" lon="5.6838">
        <ele>594.1</ele>
        <time>2022-06-09T09:11:07Z</time>
      </trkpt>
      <trkpt lat="46.40587" lon="5.68379">
        <ele>593.9</ele>
        <time>2022-06-09T09:11:10Z</time>
      </trkpt>
      <trkpt lat="46.40583" lon="5.68377">
        <ele>593.3</ele>
        <time>2022-06-09T09:11:16Z</time>
      </trkpt>
      <trkpt lat="46.40579" lon="5.68371">
        <ele>593.3</ele>
        <time>2022-06-09T09:11:23Z</time>
      </trkpt>
      <trkpt lat="46.40575" lon="5.68366">
        <ele>593.1</ele>
        <time>2022-06-09T09:11:28Z</time>
      </trkpt>
      <trkpt lat="46.4057" lon="5.68365">
        <ele>592.3</ele>
        <time>2022-06-09T09:11:33Z</time>
      </trkpt>
      <trkpt lat="46.40566" lon="5.68363">
        <ele>591</ele>
        <time>2022-06-09T09:11:38Z</time>
      </trkpt>
      <trkpt lat="46.40562" lon="5.68361">
        <ele>589.8</ele>
        <time>2022-06-09T09:11:43Z</time>
      </trkpt>
      <trkpt lat="46.40557" lon="5.68358">
        <ele>588.8</ele>
        <time>2022-06-09T09:11:47Z</time>
      </trkpt>
      <trkpt lat="46.40553" lon="5.68355">
        <ele>588</ele>
        <time>2022-06-09T09:11:52Z</time>
      </trkpt>
      <trkpt lat="46.40549" lon="5.68351">
        <ele>587.4</ele>
        <time>2022-06-09T09:11:57Z</time>
      </trkpt>
      <trkpt lat="46.40546" lon="5.68346">
        <ele>586.9</ele>
        <time>2022-06-09T09:12:04Z</time>
      </trkpt>
      <trkpt lat="46.40542" lon="5.68342">
        <ele>586.7</ele>
        <time>2022-06-09T09:12:08Z</time>
      </trkpt>
      <trkpt lat="46.40538" lon="5.68336">
        <ele>586.8</ele>
        <time>2022-06-09T09:12:14Z</time>
      </trkpt>
      <trkpt lat="46.40535" lon="5.68331">
        <ele>586.8</ele>
        <time>2022-06-09T09:12:19Z</time>
      </trkpt>
      <trkpt lat="46.40531" lon="5.68333">
        <ele>585.5</ele>
        <time>2022-06-09T09:12:29Z</time>
      </trkpt>
      <trkpt lat="46.40526" lon="5.68334">
        <ele>585.1</ele>
        <time>2022-06-09T09:12:35Z</time>
      </trkpt>
      <trkpt lat="46.40522" lon="5.68332">
        <ele>584.5</ele>
        <time>2022-06-09T09:12:42Z</time>
      </trkpt>
      <trkpt lat="46.40517" lon="5.6833">
        <ele>583.2</ele>
        <time>2022-06-09T09:12:50Z</time>
      </trkpt>
      <trkpt lat="46.40512" lon="5.68329">
        <ele>582.3</ele>
        <time>2022-06-09T09:12:56Z</time>
      </trkpt>
      <trkpt lat="46.40507" lon="5.68329">
        <ele>582.4</ele>
        <time>2022-06-09T09:13:00Z</time>
      </trkpt>
      <trkpt lat="46.40502" lon="5.68332">
        <ele>583</ele>
        <time>2022-06-09T09:13:05Z</time>
      </trkpt>
      <trkpt lat="46.40507" lon="5.68336">
        <ele>584.4</ele>
        <time>2022-06-09T09:13:22Z</time>
      </trkpt>
      <trkpt lat="46.40511" lon="5.6834">
        <ele>584</ele>
        <time>2022-06-09T09:13:28Z</time>
      </trkpt>
      <trkpt lat="46.40507" lon="5.68336">
        <ele>583.2</ele>
        <time>2022-06-09T09:13:44Z</time>
      </trkpt>
      <trkpt lat="46.40512" lon="5.68332">
        <ele>582</ele>
        <time>2022-06-09T09:14:18Z</time>
      </trkpt>
      <trkpt lat="46.40508" lon="5.68329">
        <ele>578.5</ele>
        <time>2022-06-09T09:14:54Z</time>
      </trkpt>
      <trkpt lat="46.40502" lon="5.68328">
        <ele>578.2</ele>
        <time>2022-06-09T09:15:11Z</time>
      </trkpt>
      <trkpt lat="46.40497" lon="5.68333">
        <ele>578.5</ele>
        <time>2022-06-09T09:15:14Z</time>
      </trkpt>
      <trkpt lat="46.40493" lon="5.68338">
        <ele>578.7</ele>
        <time>2022-06-09T09:15:18Z</time>
      </trkpt>
      <trkpt lat="46.40491" lon="5.68343">
        <ele>578.3</ele>
        <time>2022-06-09T09:15:26Z</time>
      </trkpt>
      <trkpt lat="46.40486" lon="5.68346">
        <ele>578.2</ele>
        <time>2022-06-09T09:15:33Z</time>
      </trkpt>
      <trkpt lat="46.40481" lon="5.68346">
        <ele>577.8</ele>
        <time>2022-06-09T09:15:36Z</time>
      </trkpt>
      <trkpt lat="46.40476" lon="5.68347">
        <ele>577.3</ele>
        <time>2022-06-09T09:15:42Z</time>
      </trkpt>
      <trkpt lat="46.40471" lon="5.68343">
        <ele>576.9</ele>
        <time>2022-06-09T09:15:46Z</time>
      </trkpt>
      <trkpt lat="46.40466" lon="5.68342">
        <ele>576.8</ele>
        <time>2022-06-09T09:15:51Z</time>
      </trkpt>
      <trkpt lat="46.40462" lon="5.68344">
        <ele>576.2</ele>
        <time>2022-06-09T09:15:56Z</time>
      </trkpt>
      <trkpt lat="46.40457" lon="5.68345">
        <ele>575.5</ele>
        <time>2022-06-09T09:16:01Z</time>
      </trkpt>
      <trkpt lat="46.40452" lon="5.68347">
        <ele>574.8</ele>
        <time>2022-06-09T09:16:05Z</time>
      </trkpt>
      <trkpt lat="46.40447" lon="5.68349">
        <ele>573.9</ele>
        <time>2022-06-09T09:16:09Z</time>
      </trkpt>
      <trkpt lat="46.40443" lon="5.68355">
        <ele>573.1</ele>
        <time>2022-06-09T09:16:15Z</time>
      </trkpt>
      <trkpt lat="46.40439" lon="5.68356">
        <ele>572.8</ele>
        <time>2022-06-09T09:16:22Z</time>
      </trkpt>
      <trkpt lat="46.40435" lon="5.6836">
        <ele>573.4</ele>
        <time>2022-06-09T09:16:25Z</time>
      </trkpt>
      <trkpt lat="46.4043" lon="5.68358">
        <ele>574.3</ele>
        <time>2022-06-09T09:16:29Z</time>
      </trkpt>
      <trkpt lat="46.40425" lon="5.68357">
        <ele>575.3</ele>
        <time>2022-06-09T09:16:34Z</time>
      </trkpt>
      <trkpt lat="46.40419" lon="5.68361">
        <ele>575.4</ele>
        <time>2022-06-09T09:16:48Z</time>
      </trkpt>
      <trkpt lat="46.40414" lon="5.6836">
        <ele>575.3</ele>
        <time>2022-06-09T09:16:52Z</time>
      </trkpt>
      <trkpt lat="46.40408" lon="5.68359">
        <ele>575.2</ele>
        <time>2022-06-09T09:16:57Z</time>
      </trkpt>
      <trkpt lat="46.40407" lon="5.68365">
        <ele>575.4</ele>
        <time>2022-06-09T09:17:08Z</time>
      </trkpt>
      <trkpt lat="46.40412" lon="5.68364">
        <ele>575.5</ele>
        <time>2022-06-09T09:17:17Z</time>
      </trkpt>
      <trkpt lat="46.40416" lon="5.68359">
        <ele>572.4</ele>
        <time>2022-06-09T09:17:27Z</time>
      </trkpt>
      <trkpt lat="46.4042" lon="5.68355">
        <ele>570.4</ele>
        <time>2022-06-09T09:17:36Z</time>
      </trkpt>
      <trkpt lat="46.4042" lon="5.68347">
        <ele>567.9</ele>
        <time>2022-06-09T09:17:46Z</time>
      </trkpt>
      <trkpt lat="46.40423" lon="5.68341">
        <ele>566.7</ele>
        <time>2022-06-09T09:17:52Z</time>
      </trkpt>
      <trkpt lat="46.40428" lon="5.68337">
        <ele>566.8</ele>
        <time>2022-06-09T09:17:56Z</time>
      </trkpt>
      <trkpt lat="46.40432" lon="5.68331">
        <ele>567.2</ele>
        <time>2022-06-09T09:18:00Z</time>
      </trkpt>
      <trkpt lat="46.40436" lon="5.68326">
        <ele>567</ele>
        <time>2022-06-09T09:18:04Z</time>
      </trkpt>
      <trkpt lat="46.4044" lon="5.68322">
        <ele>566.6</ele>
        <time>2022-06-09T09:18:08Z</time>
      </trkpt>
      <trkpt lat="46.40444" lon="5.68319">
        <ele>566.7</ele>
        <time>2022-06-09T09:18:14Z</time>
      </trkpt>
      <trkpt lat="46.40446" lon="5.68312">
        <ele>567.7</ele>
        <time>2022-06-09T09:18:23Z</time>
      </trkpt>
      <trkpt lat="46.40449" lon="5.68306">
        <ele>568.1</ele>
        <time>2022-06-09T09:18:28Z</time>
      </trkpt>
      <trkpt lat="46.40452" lon="5.683">
        <ele>567.7</ele>
        <time>2022-06-09T09:18:32Z</time>
      </trkpt>
      <trkpt lat="46.40453" lon="5.68293">
        <ele>567.5</ele>
        <time>2022-06-09T09:18:37Z</time>
      </trkpt>
      <trkpt lat="46.40453" lon="5.68286">
        <ele>567</ele>
        <time>2022-06-09T09:18:44Z</time>
      </trkpt>
      <trkpt lat="46.40455" lon="5.68279">
        <ele>566.5</ele>
        <time>2022-06-09T09:18:52Z</time>
      </trkpt>
      <trkpt lat="46.4046" lon="5.68277">
        <ele>565.7</ele>
        <time>2022-06-09T09:18:56Z</time>
      </trkpt>
      <trkpt lat="46.40464" lon="5.68275">
        <ele>564.8</ele>
        <time>2022-06-09T09:19:01Z</time>
      </trkpt>
      <trkpt lat="46.40466" lon="5.68268">
        <ele>563.9</ele>
        <time>2022-06-09T09:19:08Z</time>
      </trkpt>
      <trkpt lat="46.40468" lon="5.68262">
        <ele>563.7</ele>
        <time>2022-06-09T09:19:13Z</time>
      </trkpt>
      <trkpt lat="46.40472" lon="5.68257">
        <ele>563.7</ele>
        <time>2022-06-09T09:19:19Z</time>
      </trkpt>
      <trkpt lat="46.40476" lon="5.68254">
        <ele>563.9</ele>
        <time>2022-06-09T09:19:25Z</time>
      </trkpt>
      <trkpt lat="46.40481" lon="5.6825">
        <ele>563.9</ele>
        <time>2022-06-09T09:19:32Z</time>
      </trkpt>
      <trkpt lat="46.40486" lon="5.68249">
        <ele>563.7</ele>
        <time>2022-06-09T09:19:37Z</time>
      </trkpt>
      <trkpt lat="46.40489" lon="5.68244">
        <ele>563.1</ele>
        <time>2022-06-09T09:19:42Z</time>
      </trkpt>
      <trkpt lat="46.40493" lon="5.6824">
        <ele>562.6</ele>
        <time>2022-06-09T09:19:47Z</time>
      </trkpt>
      <trkpt lat="46.40497" lon="5.68237">
        <ele>562.6</ele>
        <time>2022-06-09T09:19:52Z</time>
      </trkpt>
      <trkpt lat="46.40501" lon="5.68234">
        <ele>562.9</ele>
        <time>2022-06-09T09:19:57Z</time>
      </trkpt>
      <trkpt lat="46.40503" lon="5.68227">
        <ele>563.1</ele>
        <time>2022-06-09T09:20:05Z</time>
      </trkpt>
      <trkpt lat="46.40505" lon="5.68221">
        <ele>563.1</ele>
        <time>2022-06-09T09:20:12Z</time>
      </trkpt>
      <trkpt lat="46.40508" lon="5.68215">
        <ele>563.1</ele>
        <time>2022-06-09T09:20:16Z</time>
      </trkpt>
      <trkpt lat="46.40512" lon="5.6821">
        <ele>562.9</ele>
        <time>2022-06-09T09:20:21Z</time>
      </trkpt>
      <trkpt lat="46.40514" lon="5.68204">
        <ele>562.7</ele>
        <time>2022-06-09T09:20:26Z</time>
      </trkpt>
      <trkpt lat="46.40517" lon="5.68198">
        <ele>561.6</ele>
        <time>2022-06-09T09:20:34Z</time>
      </trkpt>
      <trkpt lat="46.40516" lon="5.68192">
        <ele>560.1</ele>
        <time>2022-06-09T09:20:45Z</time>
      </trkpt>
      <trkpt lat="46.40513" lon="5.68186">
        <ele>559.6</ele>
        <time>2022-06-09T09:20:50Z</time>
      </trkpt>
      <trkpt lat="46.4051" lon="5.6818">
        <ele>558.6</ele>
        <time>2022-06-09T09:20:55Z</time>
      </trkpt>
      <trkpt lat="46.40506" lon="5.68176">
        <ele>551.2</ele>
        <time>2022-06-09T09:21:19Z</time>
      </trkpt>
      <trkpt lat="46.40501" lon="5.68175">
        <ele>549.7</ele>
        <time>2022-06-09T09:21:23Z</time>
      </trkpt>
      <trkpt lat="46.40497" lon="5.68177">
        <ele>548.2</ele>
        <time>2022-06-09T09:21:27Z</time>
      </trkpt>
      <trkpt lat="46.40493" lon="5.68181">
        <ele>546.3</ele>
        <time>2022-06-09T09:21:33Z</time>
      </trkpt>
      <trkpt lat="46.40489" lon="5.68182">
        <ele>544.9</ele>
        <time>2022-06-09T09:21:39Z</time>
      </trkpt>
      <trkpt lat="46.40484" lon="5.68183">
        <ele>544.3</ele>
        <time>2022-06-09T09:21:45Z</time>
      </trkpt>
      <trkpt lat="46.40478" lon="5.68182">
        <ele>544.2</ele>
        <time>2022-06-09T09:21:50Z</time>
      </trkpt>
      <trkpt lat="46.40473" lon="5.68182">
        <ele>544.9</ele>
        <time>2022-06-09T09:21:57Z</time>
      </trkpt>
      <trkpt lat="46.40468" lon="5.68183">
        <ele>546.6</ele>
        <time>2022-06-09T09:22:02Z</time>
      </trkpt>
      <trkpt lat="46.40472" lon="5.68179">
        <ele>548.1</ele>
        <time>2022-06-09T09:22:13Z</time>
      </trkpt>
      <trkpt lat="46.40475" lon="5.68174">
        <ele>548.5</ele>
        <time>2022-06-09T09:22:21Z</time>
      </trkpt>
      <trkpt lat="46.40478" lon="5.68168">
        <ele>548.4</ele>
        <time>2022-06-09T09:22:29Z</time>
      </trkpt>
      <trkpt lat="46.40481" lon="5.68164">
        <ele>549.2</ele>
        <time>2022-06-09T09:22:39Z</time>
      </trkpt>
      <trkpt lat="46.40484" lon="5.68157">
        <ele>549.2</ele>
        <time>2022-06-09T09:22:47Z</time>
      </trkpt>
      <trkpt lat="46.40489" lon="5.68152">
        <ele>548.7</ele>
        <time>2022-06-09T09:22:52Z</time>
      </trkpt>
      <trkpt lat="46.40492" lon="5.68145">
        <ele>548.6</ele>
        <time>2022-06-09T09:22:57Z</time>
      </trkpt>
      <trkpt lat="46.40494" lon="5.6814">
        <ele>548.6</ele>
        <time>2022-06-09T09:23:03Z</time>
      </trkpt>
      <trkpt lat="46.40498" lon="5.68136">
        <ele>548.7</ele>
        <time>2022-06-09T09:23:09Z</time>
      </trkpt>
      <trkpt lat="46.40498" lon="5.68128">
        <ele>547.9</ele>
        <time>2022-06-09T09:23:17Z</time>
      </trkpt>
      <trkpt lat="46.40499" lon="5.68122">
        <ele>546.8</ele>
        <time>2022-06-09T09:23:24Z</time>
      </trkpt>
      <trkpt lat="46.40503" lon="5.68118">
        <ele>546.4</ele>
        <time>2022-06-09T09:23:30Z</time>
      </trkpt>
      <trkpt lat="46.40505" lon="5.68111">
        <ele>546.5</ele>
        <time>2022-06-09T09:23:35Z</time>
      </trkpt>
      <trkpt lat="46.40502" lon="5.68106">
        <ele>545.5</ele>
        <time>2022-06-09T09:23:45Z</time>
      </trkpt>
      <trkpt lat="46.40498" lon="5.68102">
        <ele>543.4</ele>
        <time>2022-06-09T09:23:55Z</time>
      </trkpt>
      <trkpt lat="46.40498" lon="5.68094">
        <ele>542.8</ele>
        <time>2022-06-09T09:24:04Z</time>
      </trkpt>
      <trkpt lat="46.40502" lon="5.6809">
        <ele>543.7</ele>
        <time>2022-06-09T09:24:24Z</time>
      </trkpt>
      <trkpt lat="46.40501" lon="5.68083">
        <ele>542</ele>
        <time>2022-06-09T09:24:46Z</time>
      </trkpt>
      <trkpt lat="46.40504" lon="5.68078">
        <ele>541.9</ele>
        <time>2022-06-09T09:24:50Z</time>
      </trkpt>
      <trkpt lat="46.40506" lon="5.68086">
        <ele>541.7</ele>
        <time>2022-06-09T09:24:53Z</time>
      </trkpt>
      <trkpt lat="46.40505" lon="5.68093">
        <ele>541.9</ele>
        <time>2022-06-09T09:24:57Z</time>
      </trkpt>
      <trkpt lat="46.405" lon="5.6809">
        <ele>542.3</ele>
        <time>2022-06-09T09:25:01Z</time>
      </trkpt>
      <trkpt lat="46.40495" lon="5.68088">
        <ele>542.7</ele>
        <time>2022-06-09T09:25:04Z</time>
      </trkpt>
      <trkpt lat="46.4049" lon="5.68082">
        <ele>543.3</ele>
        <time>2022-06-09T09:25:08Z</time>
      </trkpt>
      <trkpt lat="46.40487" lon="5.68076">
        <ele>543.8</ele>
        <time>2022-06-09T09:25:11Z</time>
      </trkpt>
      <trkpt lat="46.40484" lon="5.6807">
        <ele>544.6</ele>
        <time>2022-06-09T09:25:17Z</time>
      </trkpt>
      <trkpt lat="46.40481" lon="5.68065">
        <ele>544.3</ele>
        <time>2022-06-09T09:25:26Z</time>
      </trkpt>
      <trkpt lat="46.40478" lon="5.68058">
        <ele>544.1</ele>
        <time>2022-06-09T09:25:32Z</time>
      </trkpt>
      <trkpt lat="46.40473" lon="5.68056">
        <ele>541.8</ele>
        <time>2022-06-09T09:25:46Z</time>
      </trkpt>
      <trkpt lat="46.40469" lon="5.68056">
        <ele>541.3</ele>
        <time>2022-06-09T09:25:52Z</time>
      </trkpt>
      <trkpt lat="46.40464" lon="5.68055">
        <ele>540.3</ele>
        <time>2022-06-09T09:25:59Z</time>
      </trkpt>
      <trkpt lat="46.4046" lon="5.6805">
        <ele>539.6</ele>
        <time>2022-06-09T09:26:07Z</time>
      </trkpt>
      <trkpt lat="46.40455" lon="5.68049">
        <ele>539.3</ele>
        <time>2022-06-09T09:26:15Z</time>
      </trkpt>
      <trkpt lat="46.40451" lon="5.68049">
        <ele>539.3</ele>
        <time>2022-06-09T09:26:19Z</time>
      </trkpt>
      <trkpt lat="46.4045" lon="5.6804">
        <ele>538.2</ele>
        <time>2022-06-09T09:26:25Z</time>
      </trkpt>
      <trkpt lat="46.40451" lon="5.68033">
        <ele>537.7</ele>
        <time>2022-06-09T09:26:28Z</time>
      </trkpt>
      <trkpt lat="46.40451" lon="5.68025">
        <ele>537.7</ele>
        <time>2022-06-09T09:26:31Z</time>
      </trkpt>
      <trkpt lat="46.40447" lon="5.68019">
        <ele>537.8</ele>
        <time>2022-06-09T09:26:39Z</time>
      </trkpt>
      <trkpt lat="46.40443" lon="5.68017">
        <ele>537.5</ele>
        <time>2022-06-09T09:26:45Z</time>
      </trkpt>
      <trkpt lat="46.40444" lon="5.6801">
        <ele>537.7</ele>
        <time>2022-06-09T09:26:54Z</time>
      </trkpt>
      <trkpt lat="46.40448" lon="5.68006">
        <ele>535.8</ele>
        <time>2022-06-09T09:27:11Z</time>
      </trkpt>
      <trkpt lat="46.40453" lon="5.68005">
        <ele>533</ele>
        <time>2022-06-09T09:27:26Z</time>
      </trkpt>
      <trkpt lat="46.40457" lon="5.68">
        <ele>531.7</ele>
        <time>2022-06-09T09:27:34Z</time>
      </trkpt>
      <trkpt lat="46.40459" lon="5.67994">
        <ele>530.8</ele>
        <time>2022-06-09T09:27:40Z</time>
      </trkpt>
      <trkpt lat="46.40461" lon="5.67988">
        <ele>529.1</ele>
        <time>2022-06-09T09:27:46Z</time>
      </trkpt>
      <trkpt lat="46.40464" lon="5.67983">
        <ele>527.1</ele>
        <time>2022-06-09T09:27:56Z</time>
      </trkpt>
      <trkpt lat="46.40466" lon="5.67976">
        <ele>526.6</ele>
        <time>2022-06-09T09:28:03Z</time>
      </trkpt>
      <trkpt lat="46.40465" lon="5.67969">
        <ele>526.6</ele>
        <time>2022-06-09T09:28:12Z</time>
      </trkpt>
      <trkpt lat="46.40468" lon="5.67962">
        <ele>527.1</ele>
        <time>2022-06-09T09:28:19Z</time>
      </trkpt>
      <trkpt lat="46.40468" lon="5.67956">
        <ele>527.6</ele>
        <time>2022-06-09T09:28:27Z</time>
      </trkpt>
      <trkpt lat="46.40471" lon="5.6795">
        <ele>526.4</ele>
        <time>2022-06-09T09:28:34Z</time>
      </trkpt>
      <trkpt lat="46.40469" lon="5.67942">
        <ele>523</ele>
        <time>2022-06-09T09:29:04Z</time>
      </trkpt>
      <trkpt lat="46.4047" lon="5.67936">
        <ele>522.9</ele>
        <time>2022-06-09T09:29:12Z</time>
      </trkpt>
      <trkpt lat="46.40468" lon="5.6793">
        <ele>522.3</ele>
        <time>2022-06-09T09:29:20Z</time>
      </trkpt>
      <trkpt lat="46.4047" lon="5.67924">
        <ele>521.7</ele>
        <time>2022-06-09T09:29:26Z</time>
      </trkpt>
      <trkpt lat="46.40471" lon="5.67917">
        <ele>521.4</ele>
        <time>2022-06-09T09:29:31Z</time>
      </trkpt>
      <trkpt lat="46.40476" lon="5.67917">
        <ele>521</ele>
        <time>2022-06-09T09:29:38Z</time>
      </trkpt>
      <trkpt lat="46.40474" lon="5.67911">
        <ele>518.6</ele>
        <time>2022-06-09T09:29:59Z</time>
      </trkpt>
      <trkpt lat="46.4047" lon="5.67913">
        <ele>517.7</ele>
        <time>2022-06-09T09:30:04Z</time>
      </trkpt>
      <trkpt lat="46.40465" lon="5.67912">
        <ele>516.9</ele>
        <time>2022-06-09T09:30:10Z</time>
      </trkpt>
      <trkpt lat="46.40464" lon="5.67905">
        <ele>515.8</ele>
        <time>2022-06-09T09:30:25Z</time>
      </trkpt>
      <trkpt lat="46.40463" lon="5.67898">
        <ele>514.4</ele>
        <time>2022-06-09T09:30:31Z</time>
      </trkpt>
      <trkpt lat="46.40463" lon="5.67891">
        <ele>513.4</ele>
        <time>2022-06-09T09:30:37Z</time>
      </trkpt>
      <trkpt lat="46.40462" lon="5.67883">
        <ele>513.4</ele>
        <time>2022-06-09T09:30:41Z</time>
      </trkpt>
      <trkpt lat="46.40461" lon="5.67876">
        <ele>513.7</ele>
        <time>2022-06-09T09:30:44Z</time>
      </trkpt>
      <trkpt lat="46.4046" lon="5.6787">
        <ele>514.6</ele>
        <time>2022-06-09T09:30:48Z</time>
      </trkpt>
      <trkpt lat="46.40457" lon="5.67863">
        <ele>515.3</ele>
        <time>2022-06-09T09:30:54Z</time>
      </trkpt>
      <trkpt lat="46.40456" lon="5.67857">
        <ele>515.9</ele>
        <time>2022-06-09T09:30:59Z</time>
      </trkpt>
      <trkpt lat="46.40455" lon="5.6785">
        <ele>517.4</ele>
        <time>2022-06-09T09:31:05Z</time>
      </trkpt>
      <trkpt lat="46.40457" lon="5.67844">
        <ele>518.9</ele>
        <time>2022-06-09T09:31:16Z</time>
      </trkpt>
      <trkpt lat="46.40459" lon="5.67837">
        <ele>518.8</ele>
        <time>2022-06-09T09:31:21Z</time>
      </trkpt>
      <trkpt lat="46.40458" lon="5.6783">
        <ele>518.3</ele>
        <time>2022-06-09T09:31:27Z</time>
      </trkpt>
      <trkpt lat="46.40457" lon="5.67823">
        <ele>516.9</ele>
        <time>2022-06-09T09:31:34Z</time>
      </trkpt>
      <trkpt lat="46.40454" lon="5.67819">
        <ele>515.5</ele>
        <time>2022-06-09T09:31:39Z</time>
      </trkpt>
      <trkpt lat="46.40449" lon="5.67814">
        <ele>514</ele>
        <time>2022-06-09T09:31:45Z</time>
      </trkpt>
      <trkpt lat="46.40445" lon="5.67811">
        <ele>512.2</ele>
        <time>2022-06-09T09:31:50Z</time>
      </trkpt>
      <trkpt lat="46.4044" lon="5.67811">
        <ele>509.7</ele>
        <time>2022-06-09T09:31:58Z</time>
      </trkpt>
      <trkpt lat="46.40435" lon="5.67808">
        <ele>508.4</ele>
        <time>2022-06-09T09:32:04Z</time>
      </trkpt>
      <trkpt lat="46.40431" lon="5.67804">
        <ele>508</ele>
        <time>2022-06-09T09:32:08Z</time>
      </trkpt>
      <trkpt lat="46.40426" lon="5.67805">
        <ele>507</ele>
        <time>2022-06-09T09:32:16Z</time>
      </trkpt>
      <trkpt lat="46.40421" lon="5.67803">
        <ele>506.6</ele>
        <time>2022-06-09T09:32:21Z</time>
      </trkpt>
      <trkpt lat="46.40418" lon="5.67796">
        <ele>506.4</ele>
        <time>2022-06-09T09:32:25Z</time>
      </trkpt>
      <trkpt lat="46.40416" lon="5.67789">
        <ele>506.3</ele>
        <time>2022-06-09T09:32:30Z</time>
      </trkpt>
      <trkpt lat="46.40411" lon="5.67789">
        <ele>505.3</ele>
        <time>2022-06-09T09:32:37Z</time>
      </trkpt>
      <trkpt lat="46.40408" lon="5.67793">
        <ele>504</ele>
        <time>2022-06-09T09:32:42Z</time>
      </trkpt>
      <trkpt lat="46.40403" lon="5.6779">
        <ele>502.4</ele>
        <time>2022-06-09T09:32:48Z</time>
      </trkpt>
      <trkpt lat="46.40398" lon="5.67788">
        <ele>501.4</ele>
        <time>2022-06-09T09:32:53Z</time>
      </trkpt>
      <trkpt lat="46.40393" lon="5.67785">
        <ele>501</ele>
        <time>2022-06-09T09:32:58Z</time>
      </trkpt>
      <trkpt lat="46.40389" lon="5.67786">
        <ele>500.9</ele>
        <time>2022-06-09T09:33:03Z</time>
      </trkpt>
      <trkpt lat="46.40383" lon="5.67783">
        <ele>501.7</ele>
        <time>2022-06-09T09:33:12Z</time>
      </trkpt>
      <trkpt lat="46.40382" lon="5.67776">
        <ele>501.7</ele>
        <time>2022-06-09T09:33:21Z</time>
      </trkpt>
      <trkpt lat="46.40385" lon="5.6777">
        <ele>501.9</ele>
        <time>2022-06-09T09:33:25Z</time>
      </trkpt>
      <trkpt lat="46.40387" lon="5.67762">
        <ele>501.7</ele>
        <time>2022-06-09T09:33:30Z</time>
      </trkpt>
      <trkpt lat="46.40388" lon="5.67755">
        <ele>501.3</ele>
        <time>2022-06-09T09:33:34Z</time>
      </trkpt>
      <trkpt lat="46.40389" lon="5.67748">
        <ele>500</ele>
        <time>2022-06-09T09:33:41Z</time>
      </trkpt>
      <trkpt lat="46.40386" lon="5.67742">
        <ele>499.1</ele>
        <time>2022-06-09T09:33:48Z</time>
      </trkpt>
      <trkpt lat="46.40384" lon="5.67736">
        <ele>498.3</ele>
        <time>2022-06-09T09:33:56Z</time>
      </trkpt>
      <trkpt lat="46.40385" lon="5.67729">
        <ele>496.5</ele>
        <time>2022-06-09T09:34:05Z</time>
      </trkpt>
      <trkpt lat="46.40384" lon="5.67722">
        <ele>493.2</ele>
        <time>2022-06-09T09:34:14Z</time>
      </trkpt>
      <trkpt lat="46.40388" lon="5.67727">
        <ele>489.6</ele>
        <time>2022-06-09T09:34:25Z</time>
      </trkpt>
      <trkpt lat="46.40392" lon="5.67727">
        <ele>486.9</ele>
        <time>2022-06-09T09:34:46Z</time>
      </trkpt>
      <trkpt lat="46.40397" lon="5.67728">
        <ele>486</ele>
        <time>2022-06-09T09:34:53Z</time>
      </trkpt>
      <trkpt lat="46.40403" lon="5.67726">
        <ele>485.6</ele>
        <time>2022-06-09T09:35:04Z</time>
      </trkpt>
      <trkpt lat="46.40412" lon="5.67719">
        <ele>486.3</ele>
        <time>2022-06-09T09:35:15Z</time>
      </trkpt>
      <trkpt lat="46.40408" lon="5.67723">
        <ele>485.5</ele>
        <time>2022-06-09T09:35:24Z</time>
      </trkpt>
      <trkpt lat="46.40404" lon="5.67727">
        <ele>484.2</ele>
        <time>2022-06-09T09:35:38Z</time>
      </trkpt>
      <trkpt lat="46.40399" lon="5.67727">
        <ele>483.4</ele>
        <time>2022-06-09T09:35:49Z</time>
      </trkpt>
      <trkpt lat="46.40395" lon="5.67723">
        <ele>481.8</ele>
        <time>2022-06-09T09:36:00Z</time>
      </trkpt>
      <trkpt lat="46.40391" lon="5.67724">
        <ele>482.1</ele>
        <time>2022-06-09T09:36:04Z</time>
      </trkpt>
      <trkpt lat="46.40385" lon="5.67724">
        <ele>482.7</ele>
        <time>2022-06-09T09:36:09Z</time>
      </trkpt>
      <trkpt lat="46.4038" lon="5.67724">
        <ele>483.3</ele>
        <time>2022-06-09T09:36:13Z</time>
      </trkpt>
      <trkpt lat="46.40375" lon="5.67726">
        <ele>486</ele>
        <time>2022-06-09T09:36:20Z</time>
      </trkpt>
      <trkpt lat="46.4037" lon="5.67727">
        <ele>491.5</ele>
        <time>2022-06-09T09:36:35Z</time>
      </trkpt>
      <trkpt lat="46.40366" lon="5.67723">
        <ele>492.1</ele>
        <time>2022-06-09T09:36:40Z</time>
      </trkpt>
      <trkpt lat="46.40365" lon="5.67716">
        <ele>491.8</ele>
        <time>2022-06-09T09:36:46Z</time>
      </trkpt>
      <trkpt lat="46.40362" lon="5.6771">
        <ele>491.4</ele>
        <time>2022-06-09T09:36:52Z</time>
      </trkpt>
      <trkpt lat="46.40357" lon="5.67708">
        <ele>491</ele>
        <time>2022-06-09T09:36:57Z</time>
      </trkpt>
      <trkpt lat="46.40352" lon="5.67706">
        <ele>490.3</ele>
        <time>2022-06-09T09:37:02Z</time>
      </trkpt>
      <trkpt lat="46.40348" lon="5.67702">
        <ele>489.5</ele>
        <time>2022-06-09T09:37:07Z</time>
      </trkpt>
      <trkpt lat="46.40342" lon="5.67699">
        <ele>488.9</ele>
        <time>2022-06-09T09:37:13Z</time>
      </trkpt>
      <trkpt lat="46.40337" lon="5.67698">
        <ele>488.6</ele>
        <time>2022-06-09T09:37:18Z</time>
      </trkpt>
      <trkpt lat="46.40332" lon="5.67698">
        <ele>487.8</ele>
        <time>2022-06-09T09:37:22Z</time>
      </trkpt>
      <trkpt lat="46.40327" lon="5.67699">
        <ele>486.7</ele>
        <time>2022-06-09T09:37:27Z</time>
      </trkpt>
      <trkpt lat="46.40323" lon="5.67697">
        <ele>485.7</ele>
        <time>2022-06-09T09:37:32Z</time>
      </trkpt>
      <trkpt lat="46.40318" lon="5.67695">
        <ele>485.2</ele>
        <time>2022-06-09T09:37:36Z</time>
      </trkpt>
      <trkpt lat="46.40314" lon="5.67691">
        <ele>485</ele>
        <time>2022-06-09T09:37:41Z</time>
      </trkpt>
      <trkpt lat="46.40309" lon="5.6769">
        <ele>484.6</ele>
        <time>2022-06-09T09:37:46Z</time>
      </trkpt>
      <trkpt lat="46.40304" lon="5.6769">
        <ele>484.4</ele>
        <time>2022-06-09T09:37:51Z</time>
      </trkpt>
      <trkpt lat="46.40299" lon="5.67688">
        <ele>482</ele>
        <time>2022-06-09T09:38:00Z</time>
      </trkpt>
      <trkpt lat="46.40294" lon="5.67684">
        <ele>481.4</ele>
        <time>2022-06-09T09:38:04Z</time>
      </trkpt>
      <trkpt lat="46.40289" lon="5.6768">
        <ele>481.1</ele>
        <time>2022-06-09T09:38:08Z</time>
      </trkpt>
      <trkpt lat="46.40284" lon="5.6768">
        <ele>480.5</ele>
        <time>2022-06-09T09:38:13Z</time>
      </trkpt>
      <trkpt lat="46.40278" lon="5.6768">
        <ele>479.8</ele>
        <time>2022-06-09T09:38:18Z</time>
      </trkpt>
      <trkpt lat="46.40273" lon="5.67678">
        <ele>479.5</ele>
        <time>2022-06-09T09:38:22Z</time>
      </trkpt>
      <trkpt lat="46.40268" lon="5.67674">
        <ele>478.9</ele>
        <time>2022-06-09T09:38:27Z</time>
      </trkpt>
      <trkpt lat="46.40263" lon="5.67673">
        <ele>478.2</ele>
        <time>2022-06-09T09:38:31Z</time>
      </trkpt>
      <trkpt lat="46.40258" lon="5.67673">
        <ele>477.3</ele>
        <time>2022-06-09T09:38:36Z</time>
      </trkpt>
      <trkpt lat="46.40253" lon="5.67673">
        <ele>476.4</ele>
        <time>2022-06-09T09:38:42Z</time>
      </trkpt>
      <trkpt lat="46.40249" lon="5.6767">
        <ele>475.2</ele>
        <time>2022-06-09T09:38:47Z</time>
      </trkpt>
      <trkpt lat="46.40244" lon="5.67668">
        <ele>474.8</ele>
        <time>2022-06-09T09:38:51Z</time>
      </trkpt>
      <trkpt lat="46.40239" lon="5.67665">
        <ele>474.2</ele>
        <time>2022-06-09T09:38:55Z</time>
      </trkpt>
      <trkpt lat="46.40234" lon="5.67663">
        <ele>473.7</ele>
        <time>2022-06-09T09:38:59Z</time>
      </trkpt>
      <trkpt lat="46.4023" lon="5.67662">
        <ele>473.3</ele>
        <time>2022-06-09T09:39:04Z</time>
      </trkpt>
      <trkpt lat="46.40225" lon="5.67659">
        <ele>473.2</ele>
        <time>2022-06-09T09:39:09Z</time>
      </trkpt>
      <trkpt lat="46.4022" lon="5.67657">
        <ele>473.2</ele>
        <time>2022-06-09T09:39:14Z</time>
      </trkpt>
      <trkpt lat="46.40215" lon="5.67656">
        <ele>473</ele>
        <time>2022-06-09T09:39:20Z</time>
      </trkpt>
      <trkpt lat="46.40211" lon="5.67658">
        <ele>472.6</ele>
        <time>2022-06-09T09:39:26Z</time>
      </trkpt>
      <trkpt lat="46.40205" lon="5.67656">
        <ele>472.1</ele>
        <time>2022-06-09T09:39:31Z</time>
      </trkpt>
      <trkpt lat="46.402" lon="5.67655">
        <ele>471.7</ele>
        <time>2022-06-09T09:39:35Z</time>
      </trkpt>
      <trkpt lat="46.40196" lon="5.67651">
        <ele>471.6</ele>
        <time>2022-06-09T09:39:38Z</time>
      </trkpt>
      <trkpt lat="46.40191" lon="5.67648">
        <ele>471.9</ele>
        <time>2022-06-09T09:39:42Z</time>
      </trkpt>
      <trkpt lat="46.40187" lon="5.67646">
        <ele>472.9</ele>
        <time>2022-06-09T09:39:46Z</time>
      </trkpt>
      <trkpt lat="46.40182" lon="5.67643">
        <ele>473.9</ele>
        <time>2022-06-09T09:39:50Z</time>
      </trkpt>
      <trkpt lat="46.40178" lon="5.67638">
        <ele>474.7</ele>
        <time>2022-06-09T09:39:55Z</time>
      </trkpt>
      <trkpt lat="46.40173" lon="5.67638">
        <ele>474.7</ele>
        <time>2022-06-09T09:39:59Z</time>
      </trkpt>
      <trkpt lat="46.40168" lon="5.67638">
        <ele>474.9</ele>
        <time>2022-06-09T09:40:05Z</time>
      </trkpt>
      <trkpt lat="46.40163" lon="5.67638">
        <ele>474.9</ele>
        <time>2022-06-09T09:40:09Z</time>
      </trkpt>
      <trkpt lat="46.40157" lon="5.67638">
        <ele>474.9</ele>
        <time>2022-06-09T09:40:13Z</time>
      </trkpt>
      <trkpt lat="46.40152" lon="5.67637">
        <ele>475.2</ele>
        <time>2022-06-09T09:40:17Z</time>
      </trkpt>
      <trkpt lat="46.40147" lon="5.67633">
        <ele>475.5</ele>
        <time>2022-06-09T09:40:21Z</time>
      </trkpt>
      <trkpt lat="46.40143" lon="5.6763">
        <ele>475.8</ele>
        <time>2022-06-09T09:40:25Z</time>
      </trkpt>
      <trkpt lat="46.40138" lon="5.67626">
        <ele>476.2</ele>
        <time>2022-06-09T09:40:29Z</time>
      </trkpt>
      <trkpt lat="46.40134" lon="5.67624">
        <ele>476.6</ele>
        <time>2022-06-09T09:40:33Z</time>
      </trkpt>
      <trkpt lat="46.4013" lon="5.67621">
        <ele>476.4</ele>
        <time>2022-06-09T09:40:38Z</time>
      </trkpt>
      <trkpt lat="46.40125" lon="5.67617">
        <ele>476.7</ele>
        <time>2022-06-09T09:40:42Z</time>
      </trkpt>
      <trkpt lat="46.40121" lon="5.67614">
        <ele>477.1</ele>
        <time>2022-06-09T09:40:45Z</time>
      </trkpt>
      <trkpt lat="46.40117" lon="5.6761">
        <ele>478.2</ele>
        <time>2022-06-09T09:40:50Z</time>
      </trkpt>
      <trkpt lat="46.40112" lon="5.67608">
        <ele>478.8</ele>
        <time>2022-06-09T09:40:55Z</time>
      </trkpt>
      <trkpt lat="46.40107" lon="5.67605">
        <ele>479</ele>
        <time>2022-06-09T09:40:59Z</time>
      </trkpt>
      <trkpt lat="46.40103" lon="5.67604">
        <ele>478.8</ele>
        <time>2022-06-09T09:41:04Z</time>
      </trkpt>
      <trkpt lat="46.40099" lon="5.67598">
        <ele>478.9</ele>
        <time>2022-06-09T09:41:09Z</time>
      </trkpt>
      <trkpt lat="46.40094" lon="5.67597">
        <ele>477.5</ele>
        <time>2022-06-09T09:41:16Z</time>
      </trkpt>
      <trkpt lat="46.40089" lon="5.67598">
        <ele>475.7</ele>
        <time>2022-06-09T09:41:21Z</time>
      </trkpt>
      <trkpt lat="46.40084" lon="5.67594">
        <ele>473.8</ele>
        <time>2022-06-09T09:41:26Z</time>
      </trkpt>
      <trkpt lat="46.40079" lon="5.67591">
        <ele>471.3</ele>
        <time>2022-06-09T09:41:32Z</time>
      </trkpt>
      <trkpt lat="46.40076" lon="5.67587">
        <ele>470.5</ele>
        <time>2022-06-09T09:41:36Z</time>
      </trkpt>
      <trkpt lat="46.40071" lon="5.67584">
        <ele>468.8</ele>
        <time>2022-06-09T09:41:41Z</time>
      </trkpt>
      <trkpt lat="46.40066" lon="5.67584">
        <ele>467.4</ele>
        <time>2022-06-09T09:41:47Z</time>
      </trkpt>
      <trkpt lat="46.40062" lon="5.67581">
        <ele>466.6</ele>
        <time>2022-06-09T09:41:51Z</time>
      </trkpt>
      <trkpt lat="46.40058" lon="5.67576">
        <ele>465.9</ele>
        <time>2022-06-09T09:41:55Z</time>
      </trkpt>
      <trkpt lat="46.40055" lon="5.67571">
        <ele>465.6</ele>
        <time>2022-06-09T09:41:58Z</time>
      </trkpt>
      <trkpt lat="46.40052" lon="5.67565">
        <ele>465.3</ele>
        <time>2022-06-09T09:42:02Z</time>
      </trkpt>
      <trkpt lat="46.40051" lon="5.67558">
        <ele>464.7</ele>
        <time>2022-06-09T09:42:09Z</time>
      </trkpt>
      <trkpt lat="46.40046" lon="5.67558">
        <ele>464.5</ele>
        <time>2022-06-09T09:42:16Z</time>
      </trkpt>
      <trkpt lat="46.40042" lon="5.67553">
        <ele>462.9</ele>
        <time>2022-06-09T09:42:22Z</time>
      </trkpt>
      <trkpt lat="46.40039" lon="5.67548">
        <ele>461.6</ele>
        <time>2022-06-09T09:42:28Z</time>
      </trkpt>
      <trkpt lat="46.40035" lon="5.67544">
        <ele>460.8</ele>
        <time>2022-06-09T09:42:34Z</time>
      </trkpt>
      <trkpt lat="46.40031" lon="5.6754">
        <ele>459.8</ele>
        <time>2022-06-09T09:42:40Z</time>
      </trkpt>
      <trkpt lat="46.40029" lon="5.67534">
        <ele>459.4</ele>
        <time>2022-06-09T09:42:44Z</time>
      </trkpt>
      <trkpt lat="46.40024" lon="5.67531">
        <ele>458.5</ele>
        <time>2022-06-09T09:42:50Z</time>
      </trkpt>
      <trkpt lat="46.40019" lon="5.67531">
        <ele>458.2</ele>
        <time>2022-06-09T09:42:55Z</time>
      </trkpt>
      <trkpt lat="46.40014" lon="5.67529">
        <ele>457.4</ele>
        <time>2022-06-09T09:43:21Z</time>
      </trkpt>
      <trkpt lat="46.40018" lon="5.67527">
        <ele>455.3</ele>
        <time>2022-06-09T09:43:50Z</time>
      </trkpt>
      <trkpt lat="46.4002" lon="5.67533">
        <ele>460.2</ele>
        <time>2022-06-09T09:44:12Z</time>
      </trkpt>
      <trkpt lat="46.40025" lon="5.67531">
        <ele>464</ele>
        <time>2022-06-09T09:44:28Z</time>
      </trkpt>
      <trkpt lat="46.4002" lon="5.67529">
        <ele>469.1</ele>
        <time>2022-06-09T09:44:48Z</time>
      </trkpt>
      <trkpt lat="46.40015" lon="5.6753">
        <ele>468.4</ele>
        <time>2022-06-09T09:44:52Z</time>
      </trkpt>
      <trkpt lat="46.40009" lon="5.67532">
        <ele>467.5</ele>
        <time>2022-06-09T09:44:56Z</time>
      </trkpt>
      <trkpt lat="46.40005" lon="5.67529">
        <ele>466.2</ele>
        <time>2022-06-09T09:45:03Z</time>
      </trkpt>
      <trkpt lat="46.40002" lon="5.67534">
        <ele>466.4</ele>
        <time>2022-06-09T09:45:11Z</time>
      </trkpt>
      <trkpt lat="46.39998" lon="5.67539">
        <ele>466.7</ele>
        <time>2022-06-09T09:45:16Z</time>
      </trkpt>
      <trkpt lat="46.39999" lon="5.67532">
        <ele>463.9</ele>
        <time>2022-06-09T09:45:39Z</time>
      </trkpt>
      <trkpt lat="46.40001" lon="5.67524">
        <ele>463.6</ele>
        <time>2022-06-09T09:45:43Z</time>
      </trkpt>
      <trkpt lat="46.40001" lon="5.67517">
        <ele>463.5</ele>
        <time>2022-06-09T09:45:48Z</time>
      </trkpt>
      <trkpt lat="46.39997" lon="5.67512">
        <ele>463.3</ele>
        <time>2022-06-09T09:45:54Z</time>
      </trkpt>
      <trkpt lat="46.39992" lon="5.67507">
        <ele>463.7</ele>
        <time>2022-06-09T09:45:58Z</time>
      </trkpt>
      <trkpt lat="46.39988" lon="5.67502">
        <ele>463.7</ele>
        <time>2022-06-09T09:46:02Z</time>
      </trkpt>
      <trkpt lat="46.39984" lon="5.67498">
        <ele>463.8</ele>
        <time>2022-06-09T09:46:06Z</time>
      </trkpt>
      <trkpt lat="46.39978" lon="5.67496">
        <ele>463.7</ele>
        <time>2022-06-09T09:46:10Z</time>
      </trkpt>
      <trkpt lat="46.39974" lon="5.67494">
        <ele>463.3</ele>
        <time>2022-06-09T09:46:14Z</time>
      </trkpt>
      <trkpt lat="46.39969" lon="5.67493">
        <ele>462.7</ele>
        <time>2022-06-09T09:46:18Z</time>
      </trkpt>
      <trkpt lat="46.39965" lon="5.67494">
        <ele>461.6</ele>
        <time>2022-06-09T09:46:23Z</time>
      </trkpt>
      <trkpt lat="46.3996" lon="5.6749">
        <ele>460</ele>
        <time>2022-06-09T09:46:29Z</time>
      </trkpt>
      <trkpt lat="46.39956" lon="5.67487">
        <ele>458.4</ele>
        <time>2022-06-09T09:46:34Z</time>
      </trkpt>
      <trkpt lat="46.39951" lon="5.67484">
        <ele>457</ele>
        <time>2022-06-09T09:46:39Z</time>
      </trkpt>
      <trkpt lat="46.39946" lon="5.67482">
        <ele>455.3</ele>
        <time>2022-06-09T09:46:46Z</time>
      </trkpt>
      <trkpt lat="46.39941" lon="5.6748">
        <ele>454.2</ele>
        <time>2022-06-09T09:46:51Z</time>
      </trkpt>
      <trkpt lat="46.39936" lon="5.67479">
        <ele>453.7</ele>
        <time>2022-06-09T09:46:55Z</time>
      </trkpt>
      <trkpt lat="46.39931" lon="5.67474">
        <ele>453</ele>
        <time>2022-06-09T09:47:00Z</time>
      </trkpt>
      <trkpt lat="46.39927" lon="5.6747">
        <ele>451.5</ele>
        <time>2022-06-09T09:47:07Z</time>
      </trkpt>
      <trkpt lat="46.39925" lon="5.67464">
        <ele>450.8</ele>
        <time>2022-06-09T09:47:11Z</time>
      </trkpt>
      <trkpt lat="46.39921" lon="5.6746">
        <ele>450.3</ele>
        <time>2022-06-09T09:47:14Z</time>
      </trkpt>
      <trkpt lat="46.39918" lon="5.67455">
        <ele>449.8</ele>
        <time>2022-06-09T09:47:18Z</time>
      </trkpt>
      <trkpt lat="46.39914" lon="5.6745">
        <ele>449.5</ele>
        <time>2022-06-09T09:47:23Z</time>
      </trkpt>
      <trkpt lat="46.39911" lon="5.67444">
        <ele>450.1</ele>
        <time>2022-06-09T09:47:27Z</time>
      </trkpt>
      <trkpt lat="46.39905" lon="5.67441">
        <ele>451.1</ele>
        <time>2022-06-09T09:47:31Z</time>
      </trkpt>
      <trkpt lat="46.39901" lon="5.67437">
        <ele>452.1</ele>
        <time>2022-06-09T09:47:35Z</time>
      </trkpt>
      <trkpt lat="46.39897" lon="5.67433">
        <ele>452.9</ele>
        <time>2022-06-09T09:47:40Z</time>
      </trkpt>
      <trkpt lat="46.39893" lon="5.67428">
        <ele>453.7</ele>
        <time>2022-06-09T09:47:44Z</time>
      </trkpt>
      <trkpt lat="46.3989" lon="5.67423">
        <ele>455.3</ele>
        <time>2022-06-09T09:47:48Z</time>
      </trkpt>
      <trkpt lat="46.39886" lon="5.67421">
        <ele>456.5</ele>
        <time>2022-06-09T09:47:52Z</time>
      </trkpt>
      <trkpt lat="46.39881" lon="5.67418">
        <ele>457.4</ele>
        <time>2022-06-09T09:47:56Z</time>
      </trkpt>
      <trkpt lat="46.39877" lon="5.67415">
        <ele>458</ele>
        <time>2022-06-09T09:48:00Z</time>
      </trkpt>
      <trkpt lat="46.39873" lon="5.67409">
        <ele>458.6</ele>
        <time>2022-06-09T09:48:06Z</time>
      </trkpt>
      <trkpt lat="46.39869" lon="5.67403">
        <ele>459.1</ele>
        <time>2022-06-09T09:48:11Z</time>
      </trkpt>
      <trkpt lat="46.39865" lon="5.67396">
        <ele>459.8</ele>
        <time>2022-06-09T09:48:15Z</time>
      </trkpt>
      <trkpt lat="46.39863" lon="5.67389">
        <ele>460.7</ele>
        <time>2022-06-09T09:48:20Z</time>
      </trkpt>
      <trkpt lat="46.3986" lon="5.67383">
        <ele>461.8</ele>
        <time>2022-06-09T09:48:24Z</time>
      </trkpt>
      <trkpt lat="46.39858" lon="5.67377">
        <ele>463.3</ele>
        <time>2022-06-09T09:48:29Z</time>
      </trkpt>
      <trkpt lat="46.39855" lon="5.67371">
        <ele>464.3</ele>
        <time>2022-06-09T09:48:33Z</time>
      </trkpt>
      <trkpt lat="46.39852" lon="5.67365">
        <ele>465</ele>
        <time>2022-06-09T09:48:37Z</time>
      </trkpt>
      <trkpt lat="46.39849" lon="5.6736">
        <ele>465.7</ele>
        <time>2022-06-09T09:48:42Z</time>
      </trkpt>
      <trkpt lat="46.39848" lon="5.67353">
        <ele>466.5</ele>
        <time>2022-06-09T09:48:47Z</time>
      </trkpt>
      <trkpt lat="46.39844" lon="5.67346">
        <ele>466.5</ele>
        <time>2022-06-09T09:48:51Z</time>
      </trkpt>
      <trkpt lat="46.39843" lon="5.67339">
        <ele>466.3</ele>
        <time>2022-06-09T09:48:57Z</time>
      </trkpt>
      <trkpt lat="46.3984" lon="5.67334">
        <ele>466.5</ele>
        <time>2022-06-09T09:49:03Z</time>
      </trkpt>
      <trkpt lat="46.39839" lon="5.67327">
        <ele>466.5</ele>
        <time>2022-06-09T09:49:08Z</time>
      </trkpt>
      <trkpt lat="46.39837" lon="5.6732">
        <ele>466.1</ele>
        <time>2022-06-09T09:49:13Z</time>
      </trkpt>
      <trkpt lat="46.39835" lon="5.67314">
        <ele>466</ele>
        <time>2022-06-09T09:49:18Z</time>
      </trkpt>
      <trkpt lat="46.39833" lon="5.67307">
        <ele>465.6</ele>
        <time>2022-06-09T09:49:22Z</time>
      </trkpt>
      <trkpt lat="46.3983" lon="5.67301">
        <ele>465.1</ele>
        <time>2022-06-09T09:49:27Z</time>
      </trkpt>
      <trkpt lat="46.39831" lon="5.67294">
        <ele>465</ele>
        <time>2022-06-09T09:49:31Z</time>
      </trkpt>
      <trkpt lat="46.3983" lon="5.67287">
        <ele>465.1</ele>
        <time>2022-06-09T09:49:40Z</time>
      </trkpt>
      <trkpt lat="46.39825" lon="5.67286">
        <ele>464.6</ele>
        <time>2022-06-09T09:49:46Z</time>
      </trkpt>
      <trkpt lat="46.39823" lon="5.67279">
        <ele>463.2</ele>
        <time>2022-06-09T09:49:52Z</time>
      </trkpt>
      <trkpt lat="46.39822" lon="5.67273">
        <ele>461.3</ele>
        <time>2022-06-09T09:49:58Z</time>
      </trkpt>
      <trkpt lat="46.39821" lon="5.67266">
        <ele>459.8</ele>
        <time>2022-06-09T09:50:03Z</time>
      </trkpt>
      <trkpt lat="46.39819" lon="5.6726">
        <ele>458.8</ele>
        <time>2022-06-09T09:50:06Z</time>
      </trkpt>
      <trkpt lat="46.39816" lon="5.67254">
        <ele>457.4</ele>
        <time>2022-06-09T09:50:10Z</time>
      </trkpt>
      <trkpt lat="46.39814" lon="5.67246">
        <ele>456.4</ele>
        <time>2022-06-09T09:50:14Z</time>
      </trkpt>
      <trkpt lat="46.39813" lon="5.6724">
        <ele>456</ele>
        <time>2022-06-09T09:50:18Z</time>
      </trkpt>
      <trkpt lat="46.3981" lon="5.67233">
        <ele>456</ele>
        <time>2022-06-09T09:50:23Z</time>
      </trkpt>
      <trkpt lat="46.39807" lon="5.67227">
        <ele>455</ele>
        <time>2022-06-09T09:50:27Z</time>
      </trkpt>
      <trkpt lat="46.39804" lon="5.67222">
        <ele>453.5</ele>
        <time>2022-06-09T09:50:33Z</time>
      </trkpt>
      <trkpt lat="46.39804" lon="5.67214">
        <ele>453.2</ele>
        <time>2022-06-09T09:50:39Z</time>
      </trkpt>
      <trkpt lat="46.39802" lon="5.67209">
        <ele>453.4</ele>
        <time>2022-06-09T09:50:43Z</time>
      </trkpt>
      <trkpt lat="46.398" lon="5.67203">
        <ele>453.6</ele>
        <time>2022-06-09T09:50:48Z</time>
      </trkpt>
      <trkpt lat="46.39799" lon="5.67196">
        <ele>453.9</ele>
        <time>2022-06-09T09:50:51Z</time>
      </trkpt>
      <trkpt lat="46.39795" lon="5.67191">
        <ele>454.6</ele>
        <time>2022-06-09T09:50:54Z</time>
      </trkpt>
      <trkpt lat="46.39791" lon="5.67185">
        <ele>454.8</ele>
        <time>2022-06-09T09:50:57Z</time>
      </trkpt>
      <trkpt lat="46.39788" lon="5.6718">
        <ele>455.3</ele>
        <time>2022-06-09T09:51:00Z</time>
      </trkpt>
      <trkpt lat="46.39788" lon="5.67173">
        <ele>455.7</ele>
        <time>2022-06-09T09:51:04Z</time>
      </trkpt>
      <trkpt lat="46.39786" lon="5.67166">
        <ele>456.2</ele>
        <time>2022-06-09T09:51:10Z</time>
      </trkpt>
      <trkpt lat="46.39782" lon="5.67162">
        <ele>457.1</ele>
        <time>2022-06-09T09:51:15Z</time>
      </trkpt>
      <trkpt lat="46.39777" lon="5.67157">
        <ele>457.5</ele>
        <time>2022-06-09T09:51:19Z</time>
      </trkpt>
      <trkpt lat="46.39773" lon="5.67151">
        <ele>457.3</ele>
        <time>2022-06-09T09:51:23Z</time>
      </trkpt>
      <trkpt lat="46.39771" lon="5.67143">
        <ele>457.2</ele>
        <time>2022-06-09T09:51:26Z</time>
      </trkpt>
      <trkpt lat="46.3977" lon="5.67136">
        <ele>457.3</ele>
        <time>2022-06-09T09:51:29Z</time>
      </trkpt>
      <trkpt lat="46.39769" lon="5.67129">
        <ele>457.3</ele>
        <time>2022-06-09T09:51:33Z</time>
      </trkpt>
      <trkpt lat="46.39766" lon="5.67124">
        <ele>457</ele>
        <time>2022-06-09T09:51:37Z</time>
      </trkpt>
      <trkpt lat="46.39762" lon="5.6712">
        <ele>456.8</ele>
        <time>2022-06-09T09:51:41Z</time>
      </trkpt>
      <trkpt lat="46.39758" lon="5.67116">
        <ele>456.4</ele>
        <time>2022-06-09T09:51:48Z</time>
      </trkpt>
      <trkpt lat="46.39755" lon="5.67109">
        <ele>455.8</ele>
        <time>2022-06-09T09:51:53Z</time>
      </trkpt>
      <trkpt lat="46.39753" lon="5.67102">
        <ele>455.7</ele>
        <time>2022-06-09T09:51:56Z</time>
      </trkpt>
      <trkpt lat="46.39752" lon="5.67095">
        <ele>455.3</ele>
        <time>2022-06-09T09:52:00Z</time>
      </trkpt>
      <trkpt lat="46.39751" lon="5.67088">
        <ele>454.9</ele>
        <time>2022-06-09T09:52:08Z</time>
      </trkpt>
      <trkpt lat="46.39747" lon="5.67083">
        <ele>454.5</ele>
        <time>2022-06-09T09:52:13Z</time>
      </trkpt>
      <trkpt lat="46.39742" lon="5.67082">
        <ele>454.1</ele>
        <time>2022-06-09T09:52:20Z</time>
      </trkpt>
      <trkpt lat="46.39739" lon="5.67078">
        <ele>458.4</ele>
        <time>2022-06-09T09:53:03Z</time>
      </trkpt>
      <trkpt lat="46.39736" lon="5.67071">
        <ele>460.6</ele>
        <time>2022-06-09T09:53:06Z</time>
      </trkpt>
      <trkpt lat="46.39734" lon="5.67065">
        <ele>462.2</ele>
        <time>2022-06-09T09:53:10Z</time>
      </trkpt>
      <trkpt lat="46.39732" lon="5.67058">
        <ele>462.5</ele>
        <time>2022-06-09T09:53:15Z</time>
      </trkpt>
      <trkpt lat="46.3973" lon="5.67051">
        <ele>462.2</ele>
        <time>2022-06-09T09:53:19Z</time>
      </trkpt>
      <trkpt lat="46.39727" lon="5.67044">
        <ele>462</ele>
        <time>2022-06-09T09:53:23Z</time>
      </trkpt>
      <trkpt lat="46.39724" lon="5.67039">
        <ele>462</ele>
        <time>2022-06-09T09:53:27Z</time>
      </trkpt>
      <trkpt lat="46.39721" lon="5.67033">
        <ele>462.2</ele>
        <time>2022-06-09T09:53:33Z</time>
      </trkpt>
      <trkpt lat="46.39719" lon="5.67026">
        <ele>462.3</ele>
        <time>2022-06-09T09:53:38Z</time>
      </trkpt>
      <trkpt lat="46.39717" lon="5.6702">
        <ele>462.4</ele>
        <time>2022-06-09T09:53:42Z</time>
      </trkpt>
      <trkpt lat="46.39716" lon="5.67014">
        <ele>462.6</ele>
        <time>2022-06-09T09:53:46Z</time>
      </trkpt>
      <trkpt lat="46.39712" lon="5.67008">
        <ele>462.1</ele>
        <time>2022-06-09T09:53:51Z</time>
      </trkpt>
      <trkpt lat="46.3971" lon="5.67002">
        <ele>461.2</ele>
        <time>2022-06-09T09:53:55Z</time>
      </trkpt>
      <trkpt lat="46.39707" lon="5.66997">
        <ele>460.1</ele>
        <time>2022-06-09T09:54:02Z</time>
      </trkpt>
      <trkpt lat="46.39705" lon="5.66992">
        <ele>459.4</ele>
        <time>2022-06-09T09:54:08Z</time>
      </trkpt>
      <trkpt lat="46.39702" lon="5.66986">
        <ele>458.9</ele>
        <time>2022-06-09T09:54:11Z</time>
      </trkpt>
      <trkpt lat="46.39699" lon="5.66981">
        <ele>458</ele>
        <time>2022-06-09T09:54:15Z</time>
      </trkpt>
      <trkpt lat="46.39696" lon="5.66975">
        <ele>457.2</ele>
        <time>2022-06-09T09:54:19Z</time>
      </trkpt>
      <trkpt lat="46.39693" lon="5.66969">
        <ele>456.1</ele>
        <time>2022-06-09T09:54:24Z</time>
      </trkpt>
      <trkpt lat="46.39693" lon="5.66961">
        <ele>455.2</ele>
        <time>2022-06-09T09:54:29Z</time>
      </trkpt>
      <trkpt lat="46.39694" lon="5.66954">
        <ele>454.6</ele>
        <time>2022-06-09T09:54:36Z</time>
      </trkpt>
      <trkpt lat="46.39696" lon="5.66948">
        <ele>452.8</ele>
        <time>2022-06-09T09:54:47Z</time>
      </trkpt>
      <trkpt lat="46.39691" lon="5.66942">
        <ele>451.6</ele>
        <time>2022-06-09T09:55:14Z</time>
      </trkpt>
      <trkpt lat="46.39685" lon="5.66937">
        <ele>451.8</ele>
        <time>2022-06-09T09:55:17Z</time>
      </trkpt>
      <trkpt lat="46.39681" lon="5.66934">
        <ele>452</ele>
        <time>2022-06-09T09:55:20Z</time>
      </trkpt>
      <trkpt lat="46.39677" lon="5.66929">
        <ele>452.5</ele>
        <time>2022-06-09T09:55:23Z</time>
      </trkpt>
      <trkpt lat="46.39674" lon="5.66923">
        <ele>453</ele>
        <time>2022-06-09T09:55:27Z</time>
      </trkpt>
      <trkpt lat="46.39671" lon="5.66917">
        <ele>453.4</ele>
        <time>2022-06-09T09:55:32Z</time>
      </trkpt>
      <trkpt lat="46.39668" lon="5.66911">
        <ele>453.5</ele>
        <time>2022-06-09T09:55:36Z</time>
      </trkpt>
      <trkpt lat="46.39665" lon="5.66905">
        <ele>453.7</ele>
        <time>2022-06-09T09:55:41Z</time>
      </trkpt>
      <trkpt lat="46.39663" lon="5.66899">
        <ele>453.9</ele>
        <time>2022-06-09T09:55:45Z</time>
      </trkpt>
      <trkpt lat="46.39662" lon="5.66892">
        <ele>453.9</ele>
        <time>2022-06-09T09:55:48Z</time>
      </trkpt>
      <trkpt lat="46.39661" lon="5.66885">
        <ele>453.6</ele>
        <time>2022-06-09T09:55:51Z</time>
      </trkpt>
      <trkpt lat="46.39658" lon="5.66878">
        <ele>453</ele>
        <time>2022-06-09T09:55:55Z</time>
      </trkpt>
      <trkpt lat="46.39656" lon="5.66871">
        <ele>452.7</ele>
        <time>2022-06-09T09:55:59Z</time>
      </trkpt>
      <trkpt lat="46.39654" lon="5.66864">
        <ele>452</ele>
        <time>2022-06-09T09:56:05Z</time>
      </trkpt>
      <trkpt lat="46.39652" lon="5.66857">
        <ele>451.5</ele>
        <time>2022-06-09T09:56:11Z</time>
      </trkpt>
      <trkpt lat="46.39649" lon="5.6685">
        <ele>450.8</ele>
        <time>2022-06-09T09:56:16Z</time>
      </trkpt>
      <trkpt lat="46.39646" lon="5.66845">
        <ele>450.3</ele>
        <time>2022-06-09T09:56:19Z</time>
      </trkpt>
      <trkpt lat="46.39642" lon="5.66839">
        <ele>449.6</ele>
        <time>2022-06-09T09:56:22Z</time>
      </trkpt>
      <trkpt lat="46.3964" lon="5.66831">
        <ele>448.5</ele>
        <time>2022-06-09T09:56:26Z</time>
      </trkpt>
      <trkpt lat="46.39638" lon="5.66824">
        <ele>447.5</ele>
        <time>2022-06-09T09:56:30Z</time>
      </trkpt>
      <trkpt lat="46.39635" lon="5.66817">
        <ele>447.2</ele>
        <time>2022-06-09T09:56:33Z</time>
      </trkpt>
      <trkpt lat="46.39632" lon="5.6681">
        <ele>447</ele>
        <time>2022-06-09T09:56:37Z</time>
      </trkpt>
      <trkpt lat="46.39628" lon="5.66806">
        <ele>446.9</ele>
        <time>2022-06-09T09:56:41Z</time>
      </trkpt>
      <trkpt lat="46.39624" lon="5.66802">
        <ele>447.1</ele>
        <time>2022-06-09T09:56:45Z</time>
      </trkpt>
      <trkpt lat="46.39621" lon="5.66797">
        <ele>446.2</ele>
        <time>2022-06-09T09:56:52Z</time>
      </trkpt>
      <trkpt lat="46.39617" lon="5.66793">
        <ele>445</ele>
        <time>2022-06-09T09:56:59Z</time>
      </trkpt>
      <trkpt lat="46.39612" lon="5.66791">
        <ele>443.5</ele>
        <time>2022-06-09T09:57:20Z</time>
      </trkpt>
      <trkpt lat="46.39607" lon="5.66795">
        <ele>443.7</ele>
        <time>2022-06-09T09:57:24Z</time>
      </trkpt>
      <trkpt lat="46.39603" lon="5.66799">
        <ele>443.7</ele>
        <time>2022-06-09T09:57:28Z</time>
      </trkpt>
      <trkpt lat="46.396" lon="5.66804">
        <ele>444.1</ele>
        <time>2022-06-09T09:57:31Z</time>
      </trkpt>
      <trkpt lat="46.39596" lon="5.66808">
        <ele>444.8</ele>
        <time>2022-06-09T09:57:34Z</time>
      </trkpt>
      <trkpt lat="46.39593" lon="5.66814">
        <ele>445.5</ele>
        <time>2022-06-09T09:57:37Z</time>
      </trkpt>
      <trkpt lat="46.39589" lon="5.6682">
        <ele>446.1</ele>
        <time>2022-06-09T09:57:40Z</time>
      </trkpt>
      <trkpt lat="46.39593" lon="5.66813">
        <ele>447.8</ele>
        <time>2022-06-09T09:57:45Z</time>
      </trkpt>
      <trkpt lat="46.39599" lon="5.66806">
        <ele>448.4</ele>
        <time>2022-06-09T09:57:48Z</time>
      </trkpt>
      <trkpt lat="46.39603" lon="5.66801">
        <ele>449</ele>
        <time>2022-06-09T09:57:51Z</time>
      </trkpt>
      <trkpt lat="46.39605" lon="5.66795">
        <ele>449.9</ele>
        <time>2022-06-09T09:57:56Z</time>
      </trkpt>
      <trkpt lat="46.39607" lon="5.66788">
        <ele>450.3</ele>
        <time>2022-06-09T09:58:01Z</time>
      </trkpt>
      <trkpt lat="46.39607" lon="5.6678">
        <ele>450.6</ele>
        <time>2022-06-09T09:58:05Z</time>
      </trkpt>
      <trkpt lat="46.39604" lon="5.66773">
        <ele>450.1</ele>
        <time>2022-06-09T09:58:14Z</time>
      </trkpt>
      <trkpt lat="46.396" lon="5.66769">
        <ele>449.2</ele>
        <time>2022-06-09T09:58:19Z</time>
      </trkpt>
      <trkpt lat="46.39596" lon="5.66766">
        <ele>447.9</ele>
        <time>2022-06-09T09:58:24Z</time>
      </trkpt>
      <trkpt lat="46.39591" lon="5.66764">
        <ele>446.2</ele>
        <time>2022-06-09T09:58:29Z</time>
      </trkpt>
      <trkpt lat="46.39588" lon="5.66759">
        <ele>444.2</ele>
        <time>2022-06-09T09:58:34Z</time>
      </trkpt>
      <trkpt lat="46.39585" lon="5.66753">
        <ele>443.1</ele>
        <time>2022-06-09T09:58:38Z</time>
      </trkpt>
      <trkpt lat="46.39582" lon="5.66747">
        <ele>442.7</ele>
        <time>2022-06-09T09:58:42Z</time>
      </trkpt>
      <trkpt lat="46.39577" lon="5.66743">
        <ele>442.2</ele>
        <time>2022-06-09T09:58:47Z</time>
      </trkpt>
      <trkpt lat="46.39573" lon="5.66741">
        <ele>441.8</ele>
        <time>2022-06-09T09:58:51Z</time>
      </trkpt>
      <trkpt lat="46.3957" lon="5.66735">
        <ele>441.7</ele>
        <time>2022-06-09T09:58:56Z</time>
      </trkpt>
      <trkpt lat="46.39567" lon="5.66728">
        <ele>441.7</ele>
        <time>2022-06-09T09:59:01Z</time>
      </trkpt>
      <trkpt lat="46.39564" lon="5.66723">
        <ele>441.7</ele>
        <time>2022-06-09T09:59:05Z</time>
      </trkpt>
      <trkpt lat="46.39558" lon="5.6672">
        <ele>441.9</ele>
        <time>2022-06-09T09:59:09Z</time>
      </trkpt>
      <trkpt lat="46.39554" lon="5.66717">
        <ele>442.3</ele>
        <time>2022-06-09T09:59:14Z</time>
      </trkpt>
      <trkpt lat="46.39549" lon="5.66714">
        <ele>443</ele>
        <time>2022-06-09T09:59:19Z</time>
      </trkpt>
      <trkpt lat="46.39546" lon="5.66708">
        <ele>443.6</ele>
        <time>2022-06-09T09:59:23Z</time>
      </trkpt>
      <trkpt lat="46.39543" lon="5.66703">
        <ele>443.9</ele>
        <time>2022-06-09T09:59:27Z</time>
      </trkpt>
      <trkpt lat="46.3954" lon="5.66696">
        <ele>444.3</ele>
        <time>2022-06-09T09:59:32Z</time>
      </trkpt>
      <trkpt lat="46.39537" lon="5.6669">
        <ele>444.4</ele>
        <time>2022-06-09T09:59:37Z</time>
      </trkpt>
      <trkpt lat="46.39533" lon="5.66686">
        <ele>444.7</ele>
        <time>2022-06-09T09:59:42Z</time>
      </trkpt>
      <trkpt lat="46.39529" lon="5.66683">
        <ele>444.6</ele>
        <time>2022-06-09T09:59:46Z</time>
      </trkpt>
      <trkpt lat="46.39524" lon="5.66679">
        <ele>444.7</ele>
        <time>2022-06-09T09:59:51Z</time>
      </trkpt>
      <trkpt lat="46.3952" lon="5.66675">
        <ele>445.1</ele>
        <time>2022-06-09T09:59:58Z</time>
      </trkpt>
      <trkpt lat="46.39518" lon="5.66668">
        <ele>446.5</ele>
        <time>2022-06-09T10:00:12Z</time>
      </trkpt>
      <trkpt lat="46.39515" lon="5.66663">
        <ele>446.6</ele>
        <time>2022-06-09T10:00:17Z</time>
      </trkpt>
      <trkpt lat="46.39511" lon="5.66659">
        <ele>446.3</ele>
        <time>2022-06-09T10:00:24Z</time>
      </trkpt>
      <trkpt lat="46.39506" lon="5.66654">
        <ele>446.3</ele>
        <time>2022-06-09T10:00:29Z</time>
      </trkpt>
      <trkpt lat="46.39502" lon="5.6665">
        <ele>446.4</ele>
        <time>2022-06-09T10:00:33Z</time>
      </trkpt>
      <trkpt lat="46.39498" lon="5.66645">
        <ele>446.6</ele>
        <time>2022-06-09T10:00:39Z</time>
      </trkpt>
      <trkpt lat="46.39494" lon="5.66641">
        <ele>446.7</ele>
        <time>2022-06-09T10:00:44Z</time>
      </trkpt>
      <trkpt lat="46.39491" lon="5.66637">
        <ele>446.4</ele>
        <time>2022-06-09T10:00:49Z</time>
      </trkpt>
      <trkpt lat="46.39488" lon="5.6663">
        <ele>445.8</ele>
        <time>2022-06-09T10:00:55Z</time>
      </trkpt>
      <trkpt lat="46.39485" lon="5.66625">
        <ele>445.1</ele>
        <time>2022-06-09T10:01:01Z</time>
      </trkpt>
      <trkpt lat="46.39481" lon="5.6662">
        <ele>444.6</ele>
        <time>2022-06-09T10:01:08Z</time>
      </trkpt>
      <trkpt lat="46.39478" lon="5.66616">
        <ele>444.1</ele>
        <time>2022-06-09T10:01:12Z</time>
      </trkpt>
      <trkpt lat="46.39474" lon="5.66609">
        <ele>443.2</ele>
        <time>2022-06-09T10:01:17Z</time>
      </trkpt>
      <trkpt lat="46.39471" lon="5.66603">
        <ele>442.3</ele>
        <time>2022-06-09T10:01:22Z</time>
      </trkpt>
      <trkpt lat="46.39469" lon="5.66597">
        <ele>441.6</ele>
        <time>2022-06-09T10:01:27Z</time>
      </trkpt>
      <trkpt lat="46.39465" lon="5.66591">
        <ele>441.2</ele>
        <time>2022-06-09T10:01:33Z</time>
      </trkpt>
      <trkpt lat="46.39463" lon="5.66586">
        <ele>441.1</ele>
        <time>2022-06-09T10:01:39Z</time>
      </trkpt>
      <trkpt lat="46.39461" lon="5.66579">
        <ele>441.3</ele>
        <time>2022-06-09T10:01:46Z</time>
      </trkpt>
      <trkpt lat="46.39457" lon="5.66575">
        <ele>441.3</ele>
        <time>2022-06-09T10:01:52Z</time>
      </trkpt>
      <trkpt lat="46.39454" lon="5.6657">
        <ele>440.6</ele>
        <time>2022-06-09T10:01:58Z</time>
      </trkpt>
      <trkpt lat="46.39449" lon="5.66566">
        <ele>439.7</ele>
        <time>2022-06-09T10:02:03Z</time>
      </trkpt>
      <trkpt lat="46.39447" lon="5.66559">
        <ele>438.6</ele>
        <time>2022-06-09T10:02:08Z</time>
      </trkpt>
      <trkpt lat="46.39444" lon="5.66551">
        <ele>437.7</ele>
        <time>2022-06-09T10:02:12Z</time>
      </trkpt>
      <trkpt lat="46.3944" lon="5.66546">
        <ele>437</ele>
        <time>2022-06-09T10:02:15Z</time>
      </trkpt>
      <trkpt lat="46.39436" lon="5.66541">
        <ele>436.4</ele>
        <time>2022-06-09T10:02:19Z</time>
      </trkpt>
      <trkpt lat="46.39432" lon="5.66538">
        <ele>435.5</ele>
        <time>2022-06-09T10:02:24Z</time>
      </trkpt>
      <trkpt lat="46.39428" lon="5.66534">
        <ele>434.8</ele>
        <time>2022-06-09T10:02:28Z</time>
      </trkpt>
      <trkpt lat="46.39425" lon="5.66528">
        <ele>434.4</ele>
        <time>2022-06-09T10:02:32Z</time>
      </trkpt>
      <trkpt lat="46.39423" lon="5.66522">
        <ele>434.2</ele>
        <time>2022-06-09T10:02:36Z</time>
      </trkpt>
      <trkpt lat="46.39419" lon="5.66517">
        <ele>433.2</ele>
        <time>2022-06-09T10:02:42Z</time>
      </trkpt>
      <trkpt lat="46.39416" lon="5.66513">
        <ele>432.2</ele>
        <time>2022-06-09T10:02:47Z</time>
      </trkpt>
      <trkpt lat="46.39413" lon="5.66507">
        <ele>431.5</ele>
        <time>2022-06-09T10:02:53Z</time>
      </trkpt>
      <trkpt lat="46.39409" lon="5.66505">
        <ele>430.8</ele>
        <time>2022-06-09T10:02:58Z</time>
      </trkpt>
      <trkpt lat="46.39403" lon="5.66503">
        <ele>430</ele>
        <time>2022-06-09T10:03:03Z</time>
      </trkpt>
      <trkpt lat="46.39399" lon="5.66501">
        <ele>429.5</ele>
        <time>2022-06-09T10:03:07Z</time>
      </trkpt>
      <trkpt lat="46.39394" lon="5.66498">
        <ele>428.7</ele>
        <time>2022-06-09T10:03:13Z</time>
      </trkpt>
      <trkpt lat="46.39389" lon="5.66498">
        <ele>427.3</ele>
        <time>2022-06-09T10:03:20Z</time>
      </trkpt>
      <trkpt lat="46.39385" lon="5.66495">
        <ele>426.3</ele>
        <time>2022-06-09T10:03:26Z</time>
      </trkpt>
      <trkpt lat="46.3938" lon="5.66492">
        <ele>426</ele>
        <time>2022-06-09T10:03:30Z</time>
      </trkpt>
      <trkpt lat="46.39375" lon="5.66487">
        <ele>425.8</ele>
        <time>2022-06-09T10:03:34Z</time>
      </trkpt>
      <trkpt lat="46.39371" lon="5.66482">
        <ele>425.8</ele>
        <time>2022-06-09T10:03:37Z</time>
      </trkpt>
      <trkpt lat="46.39366" lon="5.66478">
        <ele>425.3</ele>
        <time>2022-06-09T10:03:42Z</time>
      </trkpt>
      <trkpt lat="46.39362" lon="5.66475">
        <ele>423.7</ele>
        <time>2022-06-09T10:03:49Z</time>
      </trkpt>
      <trkpt lat="46.39359" lon="5.6647">
        <ele>422.8</ele>
        <time>2022-06-09T10:03:54Z</time>
      </trkpt>
      <trkpt lat="46.39355" lon="5.66465">
        <ele>422.1</ele>
        <time>2022-06-09T10:03:58Z</time>
      </trkpt>
      <trkpt lat="46.39351" lon="5.66461">
        <ele>421.5</ele>
        <time>2022-06-09T10:04:02Z</time>
      </trkpt>
      <trkpt lat="46.39347" lon="5.66456">
        <ele>421.2</ele>
        <time>2022-06-09T10:04:06Z</time>
      </trkpt>
      <trkpt lat="46.39343" lon="5.66451">
        <ele>421.1</ele>
        <time>2022-06-09T10:04:10Z</time>
      </trkpt>
      <trkpt lat="46.39339" lon="5.66447">
        <ele>421.3</ele>
        <time>2022-06-09T10:04:15Z</time>
      </trkpt>
      <trkpt lat="46.39334" lon="5.66443">
        <ele>421.6</ele>
        <time>2022-06-09T10:04:20Z</time>
      </trkpt>
      <trkpt lat="46.39329" lon="5.66439">
        <ele>421.7</ele>
        <time>2022-06-09T10:04:25Z</time>
      </trkpt>
      <trkpt lat="46.39325" lon="5.66437">
        <ele>421.5</ele>
        <time>2022-06-09T10:04:29Z</time>
      </trkpt>
      <trkpt lat="46.39321" lon="5.66433">
        <ele>421.2</ele>
        <time>2022-06-09T10:04:35Z</time>
      </trkpt>
      <trkpt lat="46.39318" lon="5.66427">
        <ele>420.8</ele>
        <time>2022-06-09T10:04:40Z</time>
      </trkpt>
      <trkpt lat="46.39315" lon="5.66422">
        <ele>420.6</ele>
        <time>2022-06-09T10:04:45Z</time>
      </trkpt>
      <trkpt lat="46.39312" lon="5.66418">
        <ele>419.8</ele>
        <time>2022-06-09T10:04:50Z</time>
      </trkpt>
      <trkpt lat="46.39307" lon="5.66413">
        <ele>418.9</ele>
        <time>2022-06-09T10:04:55Z</time>
      </trkpt>
      <trkpt lat="46.39303" lon="5.66409">
        <ele>417.7</ele>
        <time>2022-06-09T10:05:00Z</time>
      </trkpt>
      <trkpt lat="46.39298" lon="5.6641">
        <ele>415.1</ele>
        <time>2022-06-09T10:05:06Z</time>
      </trkpt>
      <trkpt lat="46.39294" lon="5.66406">
        <ele>411</ele>
        <time>2022-06-09T10:05:15Z</time>
      </trkpt>
      <trkpt lat="46.39289" lon="5.66404">
        <ele>408.8</ele>
        <time>2022-06-09T10:05:21Z</time>
      </trkpt>
      <trkpt lat="46.39285" lon="5.66399">
        <ele>407.4</ele>
        <time>2022-06-09T10:05:25Z</time>
      </trkpt>
      <trkpt lat="46.39281" lon="5.66393">
        <ele>406.7</ele>
        <time>2022-06-09T10:05:28Z</time>
      </trkpt>
      <trkpt lat="46.39277" lon="5.66388">
        <ele>406.1</ele>
        <time>2022-06-09T10:05:31Z</time>
      </trkpt>
      <trkpt lat="46.39274" lon="5.66383">
        <ele>405.5</ele>
        <time>2022-06-09T10:05:34Z</time>
      </trkpt>
      <trkpt lat="46.39269" lon="5.66379">
        <ele>405.1</ele>
        <time>2022-06-09T10:05:38Z</time>
      </trkpt>
      <trkpt lat="46.39264" lon="5.66377">
        <ele>405.2</ele>
        <time>2022-06-09T10:05:42Z</time>
      </trkpt>
      <trkpt lat="46.39258" lon="5.66376">
        <ele>405.3</ele>
        <time>2022-06-09T10:05:46Z</time>
      </trkpt>
      <trkpt lat="46.39254" lon="5.66376">
        <ele>405.6</ele>
        <time>2022-06-09T10:05:50Z</time>
      </trkpt>
      <trkpt lat="46.39249" lon="5.66376">
        <ele>406</ele>
        <time>2022-06-09T10:05:54Z</time>
      </trkpt>
      <trkpt lat="46.39244" lon="5.66373">
        <ele>405.9</ele>
        <time>2022-06-09T10:05:58Z</time>
      </trkpt>
      <trkpt lat="46.39239" lon="5.66372">
        <ele>405.9</ele>
        <time>2022-06-09T10:06:03Z</time>
      </trkpt>
      <trkpt lat="46.39235" lon="5.66374">
        <ele>405.3</ele>
        <time>2022-06-09T10:06:07Z</time>
      </trkpt>
      <trkpt lat="46.39229" lon="5.66377">
        <ele>404.5</ele>
        <time>2022-06-09T10:06:11Z</time>
      </trkpt>
      <trkpt lat="46.39224" lon="5.66376">
        <ele>403.7</ele>
        <time>2022-06-09T10:06:16Z</time>
      </trkpt>
      <trkpt lat="46.39219" lon="5.66373">
        <ele>403.5</ele>
        <time>2022-06-09T10:06:20Z</time>
      </trkpt>
      <trkpt lat="46.39215" lon="5.6637">
        <ele>403.4</ele>
        <time>2022-06-09T10:06:24Z</time>
      </trkpt>
      <trkpt lat="46.39209" lon="5.66369">
        <ele>403.5</ele>
        <time>2022-06-09T10:06:29Z</time>
      </trkpt>
      <trkpt lat="46.39204" lon="5.66367">
        <ele>404.1</ele>
        <time>2022-06-09T10:06:33Z</time>
      </trkpt>
      <trkpt lat="46.392" lon="5.66363">
        <ele>404.8</ele>
        <time>2022-06-09T10:06:37Z</time>
      </trkpt>
      <trkpt lat="46.392" lon="5.66355">
        <ele>405.3</ele>
        <time>2022-06-09T10:06:46Z</time>
      </trkpt>
      <trkpt lat="46.39197" lon="5.6635">
        <ele>406.3</ele>
        <time>2022-06-09T10:06:55Z</time>
      </trkpt>
      <trkpt lat="46.39192" lon="5.66353">
        <ele>407.6</ele>
        <time>2022-06-09T10:07:02Z</time>
      </trkpt>
      <trkpt lat="46.39187" lon="5.66356">
        <ele>407.9</ele>
        <time>2022-06-09T10:07:11Z</time>
      </trkpt>
      <trkpt lat="46.39183" lon="5.6636">
        <ele>407.6</ele>
        <time>2022-06-09T10:07:15Z</time>
      </trkpt>
      <trkpt lat="46.3918" lon="5.66365">
        <ele>406.4</ele>
        <time>2022-06-09T10:07:20Z</time>
      </trkpt>
      <trkpt lat="46.39176" lon="5.6636">
        <ele>405.7</ele>
        <time>2022-06-09T10:07:26Z</time>
      </trkpt>
      <trkpt lat="46.39172" lon="5.66358">
        <ele>405.8</ele>
        <time>2022-06-09T10:07:31Z</time>
      </trkpt>
      <trkpt lat="46.39167" lon="5.66359">
        <ele>406.9</ele>
        <time>2022-06-09T10:07:37Z</time>
      </trkpt>
      <trkpt lat="46.39162" lon="5.6636">
        <ele>408.2</ele>
        <time>2022-06-09T10:07:45Z</time>
      </trkpt>
      <trkpt lat="46.39157" lon="5.66361">
        <ele>410.6</ele>
        <time>2022-06-09T10:08:10Z</time>
      </trkpt>
      <trkpt lat="46.39152" lon="5.66361">
        <ele>410.8</ele>
        <time>2022-06-09T10:08:15Z</time>
      </trkpt>
      <trkpt lat="46.39148" lon="5.66363">
        <ele>411</ele>
        <time>2022-06-09T10:08:22Z</time>
      </trkpt>
      <trkpt lat="46.39143" lon="5.66363">
        <ele>410.9</ele>
        <time>2022-06-09T10:08:28Z</time>
      </trkpt>
      <trkpt lat="46.39137" lon="5.66363">
        <ele>410.6</ele>
        <time>2022-06-09T10:08:33Z</time>
      </trkpt>
      <trkpt lat="46.39132" lon="5.66364">
        <ele>410.1</ele>
        <time>2022-06-09T10:08:38Z</time>
      </trkpt>
      <trkpt lat="46.39128" lon="5.66362">
        <ele>409.5</ele>
        <time>2022-06-09T10:08:43Z</time>
      </trkpt>
      <trkpt lat="46.39124" lon="5.66357">
        <ele>408.8</ele>
        <time>2022-06-09T10:08:47Z</time>
      </trkpt>
      <trkpt lat="46.39119" lon="5.66356">
        <ele>408.1</ele>
        <time>2022-06-09T10:08:51Z</time>
      </trkpt>
      <trkpt lat="46.39113" lon="5.66357">
        <ele>407.5</ele>
        <time>2022-06-09T10:08:56Z</time>
      </trkpt>
      <trkpt lat="46.39108" lon="5.66358">
        <ele>406.7</ele>
        <time>2022-06-09T10:09:02Z</time>
      </trkpt>
      <trkpt lat="46.39103" lon="5.6636">
        <ele>406</ele>
        <time>2022-06-09T10:09:08Z</time>
      </trkpt>
      <trkpt lat="46.39098" lon="5.6636">
        <ele>405.6</ele>
        <time>2022-06-09T10:09:14Z</time>
      </trkpt>
      <trkpt lat="46.39092" lon="5.6636">
        <ele>405.3</ele>
        <time>2022-06-09T10:09:19Z</time>
      </trkpt>
      <trkpt lat="46.39087" lon="5.66361">
        <ele>405.2</ele>
        <time>2022-06-09T10:09:24Z</time>
      </trkpt>
      <trkpt lat="46.39082" lon="5.66363">
        <ele>404.9</ele>
        <time>2022-06-09T10:09:29Z</time>
      </trkpt>
      <trkpt lat="46.39078" lon="5.66365">
        <ele>404.7</ele>
        <time>2022-06-09T10:09:33Z</time>
      </trkpt>
      <trkpt lat="46.39073" lon="5.66365">
        <ele>404.6</ele>
        <time>2022-06-09T10:09:38Z</time>
      </trkpt>
      <trkpt lat="46.39069" lon="5.66363">
        <ele>404.8</ele>
        <time>2022-06-09T10:09:42Z</time>
      </trkpt>
      <trkpt lat="46.39063" lon="5.66363">
        <ele>404.9</ele>
        <time>2022-06-09T10:09:48Z</time>
      </trkpt>
      <trkpt lat="46.39059" lon="5.66366">
        <ele>404.7</ele>
        <time>2022-06-09T10:09:52Z</time>
      </trkpt>
      <trkpt lat="46.39054" lon="5.66367">
        <ele>404.3</ele>
        <time>2022-06-09T10:09:56Z</time>
      </trkpt>
      <trkpt lat="46.39049" lon="5.66368">
        <ele>403.9</ele>
        <time>2022-06-09T10:10:00Z</time>
      </trkpt>
      <trkpt lat="46.39044" lon="5.66368">
        <ele>403.6</ele>
        <time>2022-06-09T10:10:05Z</time>
      </trkpt>
      <trkpt lat="46.39039" lon="5.66368">
        <ele>402.9</ele>
        <time>2022-06-09T10:10:11Z</time>
      </trkpt>
      <trkpt lat="46.39037" lon="5.66361">
        <ele>403.1</ele>
        <time>2022-06-09T10:11:45Z</time>
      </trkpt>
      <trkpt lat="46.39033" lon="5.66358">
        <ele>401.1</ele>
        <time>2022-06-09T10:12:07Z</time>
      </trkpt>
      <trkpt lat="46.39032" lon="5.66364">
        <ele>400.5</ele>
        <time>2022-06-09T10:12:23Z</time>
      </trkpt>
      <trkpt lat="46.39029" lon="5.66359">
        <ele>400.3</ele>
        <time>2022-06-09T10:12:59Z</time>
      </trkpt>
      <trkpt lat="46.39031" lon="5.66352">
        <ele>400.8</ele>
        <time>2022-06-09T10:13:10Z</time>
      </trkpt>
      <trkpt lat="46.39034" lon="5.66356">
        <ele>399.8</ele>
        <time>2022-06-09T10:13:21Z</time>
      </trkpt>
      <trkpt lat="46.39036" lon="5.66362">
        <ele>399.7</ele>
        <time>2022-06-09T10:13:28Z</time>
      </trkpt>
      <trkpt lat="46.39032" lon="5.66364">
        <ele>400</ele>
        <time>2022-06-09T10:14:05Z</time>
      </trkpt>
      <trkpt lat="46.39027" lon="5.66362">
        <ele>399.9</ele>
        <time>2022-06-09T10:14:11Z</time>
      </trkpt>
      <trkpt lat="46.39022" lon="5.66363">
        <ele>399.8</ele>
        <time>2022-06-09T10:14:16Z</time>
      </trkpt>
      <trkpt lat="46.39017" lon="5.66362">
        <ele>399.6</ele>
        <time>2022-06-09T10:14:21Z</time>
      </trkpt>
      <trkpt lat="46.39012" lon="5.66359">
        <ele>399.4</ele>
        <time>2022-06-09T10:14:26Z</time>
      </trkpt>
      <trkpt lat="46.39008" lon="5.66358">
        <ele>399.3</ele>
        <time>2022-06-09T10:14:32Z</time>
      </trkpt>
      <trkpt lat="46.39003" lon="5.66358">
        <ele>399.1</ele>
        <time>2022-06-09T10:14:38Z</time>
      </trkpt>
      <trkpt lat="46.38998" lon="5.66358">
        <ele>398.8</ele>
        <time>2022-06-09T10:14:44Z</time>
      </trkpt>
      <trkpt lat="46.38993" lon="5.66354">
        <ele>398.6</ele>
        <time>2022-06-09T10:14:48Z</time>
      </trkpt>
      <trkpt lat="46.38989" lon="5.6635">
        <ele>398.4</ele>
        <time>2022-06-09T10:14:51Z</time>
      </trkpt>
      <trkpt lat="46.38984" lon="5.66348">
        <ele>398.1</ele>
        <time>2022-06-09T10:14:55Z</time>
      </trkpt>
      <trkpt lat="46.3898" lon="5.66345">
        <ele>397.8</ele>
        <time>2022-06-09T10:14:59Z</time>
      </trkpt>
      <trkpt lat="46.38975" lon="5.66342">
        <ele>397.2</ele>
        <time>2022-06-09T10:15:04Z</time>
      </trkpt>
      <trkpt lat="46.38971" lon="5.66341">
        <ele>396.6</ele>
        <time>2022-06-09T10:15:09Z</time>
      </trkpt>
      <trkpt lat="46.38966" lon="5.66341">
        <ele>395.9</ele>
        <time>2022-06-09T10:15:13Z</time>
      </trkpt>
      <trkpt lat="46.3896" lon="5.66342">
        <ele>395.4</ele>
        <time>2022-06-09T10:15:17Z</time>
      </trkpt>
      <trkpt lat="46.38955" lon="5.66342">
        <ele>394.8</ele>
        <time>2022-06-09T10:15:22Z</time>
      </trkpt>
      <trkpt lat="46.3895" lon="5.66343">
        <ele>393.9</ele>
        <time>2022-06-09T10:15:33Z</time>
      </trkpt>
      <trkpt lat="46.38945" lon="5.66343">
        <ele>393.5</ele>
        <time>2022-06-09T10:15:39Z</time>
      </trkpt>
      <trkpt lat="46.3894" lon="5.66344">
        <ele>393</ele>
        <time>2022-06-09T10:15:44Z</time>
      </trkpt>
      <trkpt lat="46.38935" lon="5.66343">
        <ele>392.4</ele>
        <time>2022-06-09T10:15:48Z</time>
      </trkpt>
      <trkpt lat="46.3893" lon="5.66346">
        <ele>391.9</ele>
        <time>2022-06-09T10:15:51Z</time>
      </trkpt>
      <trkpt lat="46.38926" lon="5.66351">
        <ele>391.2</ele>
        <time>2022-06-09T10:15:55Z</time>
      </trkpt>
      <trkpt lat="46.38922" lon="5.66356">
        <ele>390.9</ele>
        <time>2022-06-09T10:15:58Z</time>
      </trkpt>
      <trkpt lat="46.38918" lon="5.66361">
        <ele>390.9</ele>
        <time>2022-06-09T10:16:01Z</time>
      </trkpt>
      <trkpt lat="46.38914" lon="5.66366">
        <ele>391.1</ele>
        <time>2022-06-09T10:16:05Z</time>
      </trkpt>
      <trkpt lat="46.3891" lon="5.6637">
        <ele>391.4</ele>
        <time>2022-06-09T10:16:09Z</time>
      </trkpt>
      <trkpt lat="46.38906" lon="5.66374">
        <ele>391.8</ele>
        <time>2022-06-09T10:16:14Z</time>
      </trkpt>
      <trkpt lat="46.38901" lon="5.66377">
        <ele>392.3</ele>
        <time>2022-06-09T10:16:21Z</time>
      </trkpt>
      <trkpt lat="46.38896" lon="5.66381">
        <ele>392.4</ele>
        <time>2022-06-09T10:16:26Z</time>
      </trkpt>
      <trkpt lat="46.38891" lon="5.66386">
        <ele>392.1</ele>
        <time>2022-06-09T10:16:29Z</time>
      </trkpt>
      <trkpt lat="46.38887" lon="5.6639">
        <ele>391.8</ele>
        <time>2022-06-09T10:16:32Z</time>
      </trkpt>
      <trkpt lat="46.38883" lon="5.66393">
        <ele>391.4</ele>
        <time>2022-06-09T10:16:35Z</time>
      </trkpt>
      <trkpt lat="46.38879" lon="5.66397">
        <ele>390.9</ele>
        <time>2022-06-09T10:16:39Z</time>
      </trkpt>
      <trkpt lat="46.38874" lon="5.66399">
        <ele>390.6</ele>
        <time>2022-06-09T10:16:43Z</time>
      </trkpt>
      <trkpt lat="46.38869" lon="5.66402">
        <ele>390.2</ele>
        <time>2022-06-09T10:16:47Z</time>
      </trkpt>
      <trkpt lat="46.38864" lon="5.66404">
        <ele>390.2</ele>
        <time>2022-06-09T10:16:52Z</time>
      </trkpt>
      <trkpt lat="46.38859" lon="5.66406">
        <ele>390.5</ele>
        <time>2022-06-09T10:16:57Z</time>
      </trkpt>
      <trkpt lat="46.38855" lon="5.6641">
        <ele>390.6</ele>
        <time>2022-06-09T10:17:04Z</time>
      </trkpt>
      <trkpt lat="46.38854" lon="5.66416">
        <ele>389.8</ele>
        <time>2022-06-09T10:17:13Z</time>
      </trkpt>
      <trkpt lat="46.38857" lon="5.66422">
        <ele>388.9</ele>
        <time>2022-06-09T10:17:22Z</time>
      </trkpt>
      <trkpt lat="46.38859" lon="5.66428">
        <ele>388.7</ele>
        <time>2022-06-09T10:17:31Z</time>
      </trkpt>
      <trkpt lat="46.38864" lon="5.66431">
        <ele>388.8</ele>
        <time>2022-06-09T10:17:39Z</time>
      </trkpt>
      <trkpt lat="46.38867" lon="5.66436">
        <ele>389.1</ele>
        <time>2022-06-09T10:17:45Z</time>
      </trkpt>
      <trkpt lat="46.38867" lon="5.66443">
        <ele>389.6</ele>
        <time>2022-06-09T10:17:54Z</time>
      </trkpt>
      <trkpt lat="46.38873" lon="5.66444">
        <ele>389.8</ele>
        <time>2022-06-09T10:17:59Z</time>
      </trkpt>
      <trkpt lat="46.38876" lon="5.6645">
        <ele>390</ele>
        <time>2022-06-09T10:18:05Z</time>
      </trkpt>
      <trkpt lat="46.38877" lon="5.66456">
        <ele>390.7</ele>
        <time>2022-06-09T10:18:16Z</time>
      </trkpt>
      <trkpt lat="46.38882" lon="5.66456">
        <ele>391.1</ele>
        <time>2022-06-09T10:18:27Z</time>
      </trkpt>
      <trkpt lat="46.38885" lon="5.66461">
        <ele>391.4</ele>
        <time>2022-06-09T10:18:35Z</time>
      </trkpt>
      <trkpt lat="46.3889" lon="5.66463">
        <ele>391.1</ele>
        <time>2022-06-09T10:18:50Z</time>
      </trkpt>
      <trkpt lat="46.38894" lon="5.66463">
        <ele>391.1</ele>
        <time>2022-06-09T10:18:55Z</time>
      </trkpt>
      <trkpt lat="46.38901" lon="5.66465">
        <ele>390.1</ele>
        <time>2022-06-09T10:18:58Z</time>
      </trkpt>
      <trkpt lat="46.38906" lon="5.66465">
        <ele>389.5</ele>
        <time>2022-06-09T10:19:01Z</time>
      </trkpt>
      <trkpt lat="46.3891" lon="5.66464">
        <ele>390.4</ele>
        <time>2022-06-09T10:19:04Z</time>
      </trkpt>
      <trkpt lat="46.38913" lon="5.66458">
        <ele>393.2</ele>
        <time>2022-06-09T10:19:13Z</time>
      </trkpt>
      <trkpt lat="46.38914" lon="5.66452">
        <ele>395.7</ele>
        <time>2022-06-09T10:19:22Z</time>
      </trkpt>
      <trkpt lat="46.38919" lon="5.66451">
        <ele>399.2</ele>
        <time>2022-06-09T10:19:35Z</time>
      </trkpt>
      <trkpt lat="46.38921" lon="5.66458">
        <ele>402.2</ele>
        <time>2022-06-09T10:19:45Z</time>
      </trkpt>
      <trkpt lat="46.38925" lon="5.66463">
        <ele>403</ele>
        <time>2022-06-09T10:19:52Z</time>
      </trkpt>
      <trkpt lat="46.3893" lon="5.66461">
        <ele>404.2</ele>
        <time>2022-06-09T10:19:57Z</time>
      </trkpt>
      <trkpt lat="46.38934" lon="5.66458">
        <ele>404.9</ele>
        <time>2022-06-09T10:20:04Z</time>
      </trkpt>
      <trkpt lat="46.38939" lon="5.66457">
        <ele>405</ele>
        <time>2022-06-09T10:20:11Z</time>
      </trkpt>
      <trkpt lat="46.38944" lon="5.66457">
        <ele>405.1</ele>
        <time>2022-06-09T10:20:17Z</time>
      </trkpt>
      <trkpt lat="46.38949" lon="5.66457">
        <ele>406</ele>
        <time>2022-06-09T10:20:24Z</time>
      </trkpt>
      <trkpt lat="46.38954" lon="5.66458">
        <ele>407</ele>
        <time>2022-06-09T10:20:29Z</time>
      </trkpt>
      <trkpt lat="46.38959" lon="5.66459">
        <ele>408.5</ele>
        <time>2022-06-09T10:20:35Z</time>
      </trkpt>
      <trkpt lat="46.38961" lon="5.66465">
        <ele>410.1</ele>
        <time>2022-06-09T10:20:48Z</time>
      </trkpt>
      <trkpt lat="46.38966" lon="5.66464">
        <ele>410.7</ele>
        <time>2022-06-09T10:20:54Z</time>
      </trkpt>
      <trkpt lat="46.38971" lon="5.66463">
        <ele>412.1</ele>
        <time>2022-06-09T10:21:01Z</time>
      </trkpt>
      <trkpt lat="46.38975" lon="5.66468">
        <ele>414.5</ele>
        <time>2022-06-09T10:21:12Z</time>
      </trkpt>
      <trkpt lat="46.38979" lon="5.66473">
        <ele>414.8</ele>
        <time>2022-06-09T10:21:15Z</time>
      </trkpt>
      <trkpt lat="46.38984" lon="5.66472">
        <ele>416.3</ele>
        <time>2022-06-09T10:21:24Z</time>
      </trkpt>
      <trkpt lat="46.38988" lon="5.66475">
        <ele>417.8</ele>
        <time>2022-06-09T10:21:35Z</time>
      </trkpt>
      <trkpt lat="46.38993" lon="5.66477">
        <ele>418.7</ele>
        <time>2022-06-09T10:21:45Z</time>
      </trkpt>
      <trkpt lat="46.38998" lon="5.66477">
        <ele>420</ele>
        <time>2022-06-09T10:21:55Z</time>
      </trkpt>
      <trkpt lat="46.39003" lon="5.66476">
        <ele>420.6</ele>
        <time>2022-06-09T10:22:02Z</time>
      </trkpt>
      <trkpt lat="46.39007" lon="5.66473">
        <ele>421.8</ele>
        <time>2022-06-09T10:22:12Z</time>
      </trkpt>
      <trkpt lat="46.39012" lon="5.66477">
        <ele>423.1</ele>
        <time>2022-06-09T10:22:22Z</time>
      </trkpt>
      <trkpt lat="46.39016" lon="5.66481">
        <ele>423.9</ele>
        <time>2022-06-09T10:22:32Z</time>
      </trkpt>
      <trkpt lat="46.39012" lon="5.66486">
        <ele>425</ele>
        <time>2022-06-09T10:22:56Z</time>
      </trkpt>
      <trkpt lat="46.39014" lon="5.66492">
        <ele>425.7</ele>
        <time>2022-06-09T10:23:22Z</time>
      </trkpt>
      <trkpt lat="46.3902" lon="5.66494">
        <ele>428</ele>
        <time>2022-06-09T10:23:58Z</time>
      </trkpt>
      <trkpt lat="46.39024" lon="5.66495">
        <ele>429.4</ele>
        <time>2022-06-09T10:24:03Z</time>
      </trkpt>
      <trkpt lat="46.3903" lon="5.66493">
        <ele>432.8</ele>
        <time>2022-06-09T10:24:09Z</time>
      </trkpt>
      <trkpt lat="46.39035" lon="5.66491">
        <ele>437</ele>
        <time>2022-06-09T10:24:23Z</time>
      </trkpt>
      <trkpt lat="46.39039" lon="5.66488">
        <ele>438.7</ele>
        <time>2022-06-09T10:24:27Z</time>
      </trkpt>
      <trkpt lat="46.39043" lon="5.66486">
        <ele>441</ele>
        <time>2022-06-09T10:24:34Z</time>
      </trkpt>
      <trkpt lat="46.39047" lon="5.6649">
        <ele>442.2</ele>
        <time>2022-06-09T10:24:43Z</time>
      </trkpt>
      <trkpt lat="46.39052" lon="5.66489">
        <ele>443.6</ele>
        <time>2022-06-09T10:24:54Z</time>
      </trkpt>
      <trkpt lat="46.39057" lon="5.66487">
        <ele>445.1</ele>
        <time>2022-06-09T10:24:57Z</time>
      </trkpt>
      <trkpt lat="46.39062" lon="5.66486">
        <ele>447.7</ele>
        <time>2022-06-09T10:25:03Z</time>
      </trkpt>
      <trkpt lat="46.39068" lon="5.66487">
        <ele>450.1</ele>
        <time>2022-06-09T10:25:10Z</time>
      </trkpt>
      <trkpt lat="46.39073" lon="5.66486">
        <ele>450.5</ele>
        <time>2022-06-09T10:25:13Z</time>
      </trkpt>
      <trkpt lat="46.39078" lon="5.66487">
        <ele>450.5</ele>
        <time>2022-06-09T10:25:17Z</time>
      </trkpt>
      <trkpt lat="46.39082" lon="5.6649">
        <ele>450.9</ele>
        <time>2022-06-09T10:25:24Z</time>
      </trkpt>
      <trkpt lat="46.39087" lon="5.66492">
        <ele>451.5</ele>
        <time>2022-06-09T10:25:29Z</time>
      </trkpt>
      <trkpt lat="46.39091" lon="5.6649">
        <ele>451.9</ele>
        <time>2022-06-09T10:25:35Z</time>
      </trkpt>
      <trkpt lat="46.39096" lon="5.66492">
        <ele>451.9</ele>
        <time>2022-06-09T10:25:45Z</time>
      </trkpt>
      <trkpt lat="46.391" lon="5.66495">
        <ele>452.5</ele>
        <time>2022-06-09T10:25:51Z</time>
      </trkpt>
      <trkpt lat="46.39103" lon="5.665">
        <ele>456.2</ele>
        <time>2022-06-09T10:26:05Z</time>
      </trkpt>
      <trkpt lat="46.39108" lon="5.66501">
        <ele>457</ele>
        <time>2022-06-09T10:26:08Z</time>
      </trkpt>
      <trkpt lat="46.39113" lon="5.66499">
        <ele>458.1</ele>
        <time>2022-06-09T10:26:12Z</time>
      </trkpt>
      <trkpt lat="46.39117" lon="5.66499">
        <ele>459.1</ele>
        <time>2022-06-09T10:26:18Z</time>
      </trkpt>
      <trkpt lat="46.39122" lon="5.665">
        <ele>458.3</ele>
        <time>2022-06-09T10:26:33Z</time>
      </trkpt>
      <trkpt lat="46.39126" lon="5.66498">
        <ele>458</ele>
        <time>2022-06-09T10:26:41Z</time>
      </trkpt>
      <trkpt lat="46.3913" lon="5.66503">
        <ele>458.6</ele>
        <time>2022-06-09T10:26:50Z</time>
      </trkpt>
      <trkpt lat="46.39134" lon="5.6651">
        <ele>459.1</ele>
        <time>2022-06-09T10:27:35Z</time>
      </trkpt>
      <trkpt lat="46.39139" lon="5.66508">
        <ele>459.9</ele>
        <time>2022-06-09T10:27:41Z</time>
      </trkpt>
      <trkpt lat="46.39143" lon="5.66507">
        <ele>460.9</ele>
        <time>2022-06-09T10:27:50Z</time>
      </trkpt>
      <trkpt lat="46.39148" lon="5.6651">
        <ele>464.2</ele>
        <time>2022-06-09T10:28:05Z</time>
      </trkpt>
      <trkpt lat="46.39145" lon="5.66515">
        <ele>467.6</ele>
        <time>2022-06-09T10:28:23Z</time>
      </trkpt>
      <trkpt lat="46.39141" lon="5.66518">
        <ele>468</ele>
        <time>2022-06-09T10:28:35Z</time>
      </trkpt>
      <trkpt lat="46.39136" lon="5.6652">
        <ele>468.4</ele>
        <time>2022-06-09T10:28:41Z</time>
      </trkpt>
      <trkpt lat="46.3914" lon="5.66525">
        <ele>468.7</ele>
        <time>2022-06-09T10:28:45Z</time>
      </trkpt>
      <trkpt lat="46.39137" lon="5.66526">
        <ele>469.7</ele>
        <time>2022-06-09T10:29:46Z</time>
      </trkpt>
      <trkpt lat="46.39133" lon="5.66526">
        <ele>473.3</ele>
        <time>2022-06-09T10:29:53Z</time>
      </trkpt>
      <trkpt lat="46.39137" lon="5.66522">
        <ele>479.7</ele>
        <time>2022-06-09T10:30:04Z</time>
      </trkpt>
      <trkpt lat="46.39141" lon="5.66526">
        <ele>483.6</ele>
        <time>2022-06-09T10:30:15Z</time>
      </trkpt>
      <trkpt lat="46.39136" lon="5.66526">
        <ele>482.6</ele>
        <time>2022-06-09T10:30:23Z</time>
      </trkpt>
      <trkpt lat="46.39131" lon="5.66527">
        <ele>482.2</ele>
        <time>2022-06-09T10:30:27Z</time>
      </trkpt>
      <trkpt lat="46.39127" lon="5.66526">
        <ele>484.9</ele>
        <time>2022-06-09T10:31:10Z</time>
      </trkpt>
      <trkpt lat="46.39131" lon="5.66531">
        <ele>490</ele>
        <time>2022-06-09T10:31:48Z</time>
      </trkpt>
      <trkpt lat="46.39135" lon="5.66536">
        <ele>491.1</ele>
        <time>2022-06-09T10:31:52Z</time>
      </trkpt>
      <trkpt lat="46.39136" lon="5.66542">
        <ele>492.7</ele>
        <time>2022-06-09T10:32:00Z</time>
      </trkpt>
      <trkpt lat="46.39141" lon="5.66544">
        <ele>493.5</ele>
        <time>2022-06-09T10:32:09Z</time>
      </trkpt>
      <trkpt lat="46.39146" lon="5.66543">
        <ele>493.5</ele>
        <time>2022-06-09T10:32:15Z</time>
      </trkpt>
      <trkpt lat="46.39151" lon="5.66542">
        <ele>493.4</ele>
        <time>2022-06-09T10:32:20Z</time>
      </trkpt>
      <trkpt lat="46.39155" lon="5.66541">
        <ele>492.5</ele>
        <time>2022-06-09T10:32:25Z</time>
      </trkpt>
      <trkpt lat="46.3916" lon="5.66543">
        <ele>491</ele>
        <time>2022-06-09T10:32:33Z</time>
      </trkpt>
      <trkpt lat="46.39165" lon="5.66543">
        <ele>489.2</ele>
        <time>2022-06-09T10:32:41Z</time>
      </trkpt>
      <trkpt lat="46.3917" lon="5.66543">
        <ele>488</ele>
        <time>2022-06-09T10:32:46Z</time>
      </trkpt>
      <trkpt lat="46.39174" lon="5.66546">
        <ele>486.9</ele>
        <time>2022-06-09T10:32:49Z</time>
      </trkpt>
      <trkpt lat="46.39179" lon="5.66547">
        <ele>485.7</ele>
        <time>2022-06-09T10:32:54Z</time>
      </trkpt>
      <trkpt lat="46.39184" lon="5.66548">
        <ele>485.3</ele>
        <time>2022-06-09T10:32:59Z</time>
      </trkpt>
      <trkpt lat="46.39189" lon="5.66549">
        <ele>485.3</ele>
        <time>2022-06-09T10:33:03Z</time>
      </trkpt>
      <trkpt lat="46.39194" lon="5.66549">
        <ele>486.1</ele>
        <time>2022-06-09T10:33:08Z</time>
      </trkpt>
      <trkpt lat="46.39198" lon="5.66547">
        <ele>486.6</ele>
        <time>2022-06-09T10:33:13Z</time>
      </trkpt>
      <trkpt lat="46.39203" lon="5.66549">
        <ele>487</ele>
        <time>2022-06-09T10:33:22Z</time>
      </trkpt>
      <trkpt lat="46.39208" lon="5.66552">
        <ele>487.1</ele>
        <time>2022-06-09T10:33:30Z</time>
      </trkpt>
      <trkpt lat="46.39213" lon="5.66556">
        <ele>487.5</ele>
        <time>2022-06-09T10:33:36Z</time>
      </trkpt>
      <trkpt lat="46.39218" lon="5.66558">
        <ele>487.9</ele>
        <time>2022-06-09T10:33:40Z</time>
      </trkpt>
      <trkpt lat="46.39223" lon="5.6656">
        <ele>488.5</ele>
        <time>2022-06-09T10:33:44Z</time>
      </trkpt>
      <trkpt lat="46.39228" lon="5.66562">
        <ele>489.2</ele>
        <time>2022-06-09T10:33:52Z</time>
      </trkpt>
      <trkpt lat="46.39232" lon="5.66566">
        <ele>489.6</ele>
        <time>2022-06-09T10:33:56Z</time>
      </trkpt>
      <trkpt lat="46.39237" lon="5.66568">
        <ele>490.1</ele>
        <time>2022-06-09T10:33:59Z</time>
      </trkpt>
      <trkpt lat="46.39242" lon="5.66572">
        <ele>490.9</ele>
        <time>2022-06-09T10:34:03Z</time>
      </trkpt>
      <trkpt lat="46.39248" lon="5.66573">
        <ele>491.7</ele>
        <time>2022-06-09T10:34:08Z</time>
      </trkpt>
      <trkpt lat="46.39253" lon="5.66576">
        <ele>492.8</ele>
        <time>2022-06-09T10:34:13Z</time>
      </trkpt>
      <trkpt lat="46.39258" lon="5.66579">
        <ele>494.1</ele>
        <time>2022-06-09T10:34:18Z</time>
      </trkpt>
      <trkpt lat="46.39262" lon="5.66583">
        <ele>495.1</ele>
        <time>2022-06-09T10:34:24Z</time>
      </trkpt>
      <trkpt lat="46.39266" lon="5.66587">
        <ele>495.3</ele>
        <time>2022-06-09T10:34:31Z</time>
      </trkpt>
      <trkpt lat="46.39271" lon="5.66589">
        <ele>495.3</ele>
        <time>2022-06-09T10:34:36Z</time>
      </trkpt>
      <trkpt lat="46.39276" lon="5.66593">
        <ele>495.2</ele>
        <time>2022-06-09T10:34:41Z</time>
      </trkpt>
      <trkpt lat="46.3928" lon="5.66597">
        <ele>494.9</ele>
        <time>2022-06-09T10:34:45Z</time>
      </trkpt>
      <trkpt lat="46.39283" lon="5.66602">
        <ele>494.8</ele>
        <time>2022-06-09T10:34:49Z</time>
      </trkpt>
      <trkpt lat="46.39286" lon="5.66608">
        <ele>495.1</ele>
        <time>2022-06-09T10:34:53Z</time>
      </trkpt>
      <trkpt lat="46.39288" lon="5.66614">
        <ele>495.4</ele>
        <time>2022-06-09T10:34:57Z</time>
      </trkpt>
      <trkpt lat="46.39291" lon="5.6662">
        <ele>495.3</ele>
        <time>2022-06-09T10:35:03Z</time>
      </trkpt>
      <trkpt lat="46.39296" lon="5.66624">
        <ele>495.9</ele>
        <time>2022-06-09T10:35:08Z</time>
      </trkpt>
      <trkpt lat="46.393" lon="5.66628">
        <ele>497</ele>
        <time>2022-06-09T10:35:13Z</time>
      </trkpt>
      <trkpt lat="46.39305" lon="5.66631">
        <ele>498</ele>
        <time>2022-06-09T10:35:18Z</time>
      </trkpt>
      <trkpt lat="46.39309" lon="5.66634">
        <ele>499</ele>
        <time>2022-06-09T10:35:23Z</time>
      </trkpt>
      <trkpt lat="46.39313" lon="5.66638">
        <ele>499.1</ele>
        <time>2022-06-09T10:35:29Z</time>
      </trkpt>
      <trkpt lat="46.39318" lon="5.66641">
        <ele>499.3</ele>
        <time>2022-06-09T10:35:35Z</time>
      </trkpt>
      <trkpt lat="46.39322" lon="5.66644">
        <ele>499.7</ele>
        <time>2022-06-09T10:35:39Z</time>
      </trkpt>
      <trkpt lat="46.39326" lon="5.66649">
        <ele>499.9</ele>
        <time>2022-06-09T10:35:44Z</time>
      </trkpt>
      <trkpt lat="46.39327" lon="5.66656">
        <ele>499.9</ele>
        <time>2022-06-09T10:35:49Z</time>
      </trkpt>
      <trkpt lat="46.39331" lon="5.66659">
        <ele>499.3</ele>
        <time>2022-06-09T10:35:54Z</time>
      </trkpt>
      <trkpt lat="46.39336" lon="5.66662">
        <ele>499.1</ele>
        <time>2022-06-09T10:35:59Z</time>
      </trkpt>
      <trkpt lat="46.3934" lon="5.66665">
        <ele>498.8</ele>
        <time>2022-06-09T10:36:04Z</time>
      </trkpt>
      <trkpt lat="46.39344" lon="5.6667">
        <ele>498.6</ele>
        <time>2022-06-09T10:36:09Z</time>
      </trkpt>
      <trkpt lat="46.39346" lon="5.66676">
        <ele>498.7</ele>
        <time>2022-06-09T10:36:13Z</time>
      </trkpt>
      <trkpt lat="46.3935" lon="5.6668">
        <ele>498.7</ele>
        <time>2022-06-09T10:36:18Z</time>
      </trkpt>
      <trkpt lat="46.39355" lon="5.6668">
        <ele>498.9</ele>
        <time>2022-06-09T10:36:23Z</time>
      </trkpt>
      <trkpt lat="46.39359" lon="5.66681">
        <ele>499.2</ele>
        <time>2022-06-09T10:36:28Z</time>
      </trkpt>
      <trkpt lat="46.39364" lon="5.66682">
        <ele>499.2</ele>
        <time>2022-06-09T10:36:33Z</time>
      </trkpt>
      <trkpt lat="46.39369" lon="5.66684">
        <ele>499.9</ele>
        <time>2022-06-09T10:36:38Z</time>
      </trkpt>
      <trkpt lat="46.39373" lon="5.66686">
        <ele>500.4</ele>
        <time>2022-06-09T10:36:42Z</time>
      </trkpt>
      <trkpt lat="46.39377" lon="5.66689">
        <ele>500.2</ele>
        <time>2022-06-09T10:36:50Z</time>
      </trkpt>
      <trkpt lat="46.39382" lon="5.66691">
        <ele>499.7</ele>
        <time>2022-06-09T10:37:00Z</time>
      </trkpt>
      <trkpt lat="46.39386" lon="5.66691">
        <ele>499.2</ele>
        <time>2022-06-09T10:37:11Z</time>
      </trkpt>
      <trkpt lat="46.39382" lon="5.66699">
        <ele>499</ele>
        <time>2022-06-09T10:37:16Z</time>
      </trkpt>
      <trkpt lat="46.39378" lon="5.66702">
        <ele>498.9</ele>
        <time>2022-06-09T10:37:19Z</time>
      </trkpt>
      <trkpt lat="46.3938" lon="5.66694">
        <ele>498.8</ele>
        <time>2022-06-09T10:37:23Z</time>
      </trkpt>
      <trkpt lat="46.39377" lon="5.6669">
        <ele>498.7</ele>
        <time>2022-06-09T10:37:44Z</time>
      </trkpt>
      <trkpt lat="46.39384" lon="5.66691">
        <ele>498.8</ele>
        <time>2022-06-09T10:37:47Z</time>
      </trkpt>
      <trkpt lat="46.39388" lon="5.66696">
        <ele>498.9</ele>
        <time>2022-06-09T10:37:51Z</time>
      </trkpt>
      <trkpt lat="46.39393" lon="5.66697">
        <ele>498.5</ele>
        <time>2022-06-09T10:38:04Z</time>
      </trkpt>
      <trkpt lat="46.39395" lon="5.66703">
        <ele>499.1</ele>
        <time>2022-06-09T10:38:17Z</time>
      </trkpt>
      <trkpt lat="46.3939" lon="5.66698">
        <ele>500.2</ele>
        <time>2022-06-09T10:38:28Z</time>
      </trkpt>
      <trkpt lat="46.39395" lon="5.66698">
        <ele>501.6</ele>
        <time>2022-06-09T10:38:46Z</time>
      </trkpt>
      <trkpt lat="46.39392" lon="5.66705">
        <ele>500.6</ele>
        <time>2022-06-09T10:38:51Z</time>
      </trkpt>
      <trkpt lat="46.3939" lon="5.66711">
        <ele>500.2</ele>
        <time>2022-06-09T10:38:54Z</time>
      </trkpt>
      <trkpt lat="46.39385" lon="5.66715">
        <ele>499.5</ele>
        <time>2022-06-09T10:38:59Z</time>
      </trkpt>
      <trkpt lat="46.39381" lon="5.66715">
        <ele>499.3</ele>
        <time>2022-06-09T10:39:06Z</time>
      </trkpt>
      <trkpt lat="46.39376" lon="5.66717">
        <ele>499.1</ele>
        <time>2022-06-09T10:39:12Z</time>
      </trkpt>
      <trkpt lat="46.39372" lon="5.66713">
        <ele>498.8</ele>
        <time>2022-06-09T10:39:16Z</time>
      </trkpt>
      <trkpt lat="46.39368" lon="5.6671">
        <ele>498.6</ele>
        <time>2022-06-09T10:39:23Z</time>
      </trkpt>
      <trkpt lat="46.39373" lon="5.66709">
        <ele>499.3</ele>
        <time>2022-06-09T10:39:33Z</time>
      </trkpt>
      <trkpt lat="46.39376" lon="5.66704">
        <ele>501.1</ele>
        <time>2022-06-09T10:39:53Z</time>
      </trkpt>
      <trkpt lat="46.39365" lon="5.66695">
        <ele>514.3</ele>
        <time>2022-06-09T11:39:22Z</time>
      </trkpt>
      <trkpt lat="46.3937" lon="5.66698">
        <ele>517.3</ele>
        <time>2022-06-09T11:39:33Z</time>
      </trkpt>
      <trkpt lat="46.39365" lon="5.66698">
        <ele>510.6</ele>
        <time>2022-06-09T11:39:44Z</time>
      </trkpt>
      <trkpt lat="46.39367" lon="5.66704">
        <ele>504.1</ele>
        <time>2022-06-09T11:39:54Z</time>
      </trkpt>
      <trkpt lat="46.39371" lon="5.66702">
        <ele>500.9</ele>
        <time>2022-06-09T11:40:17Z</time>
      </trkpt>
      <trkpt lat="46.39372" lon="5.66708">
        <ele>499.6</ele>
        <time>2022-06-09T11:44:15Z</time>
      </trkpt>
      <trkpt lat="46.39376" lon="5.66704">
        <ele>499.9</ele>
        <time>2022-06-09T11:45:52Z</time>
      </trkpt>
      <trkpt lat="46.3938" lon="5.66701">
        <ele>500.2</ele>
        <time>2022-06-09T11:45:59Z</time>
      </trkpt>
      <trkpt lat="46.39379" lon="5.66693">
        <ele>500.9</ele>
        <time>2022-06-09T11:46:20Z</time>
      </trkpt>
      <trkpt lat="46.39375" lon="5.66689">
        <ele>500.8</ele>
        <time>2022-06-09T11:46:25Z</time>
      </trkpt>
      <trkpt lat="46.39371" lon="5.66686">
        <ele>500.7</ele>
        <time>2022-06-09T11:46:30Z</time>
      </trkpt>
      <trkpt lat="46.39367" lon="5.66683">
        <ele>500.3</ele>
        <time>2022-06-09T11:46:37Z</time>
      </trkpt>
      <trkpt lat="46.39362" lon="5.66681">
        <ele>499.7</ele>
        <time>2022-06-09T11:46:43Z</time>
      </trkpt>
      <trkpt lat="46.39357" lon="5.66679">
        <ele>499.1</ele>
        <time>2022-06-09T11:46:50Z</time>
      </trkpt>
      <trkpt lat="46.39352" lon="5.66675">
        <ele>498.6</ele>
        <time>2022-06-09T11:46:56Z</time>
      </trkpt>
      <trkpt lat="46.39348" lon="5.6667">
        <ele>498.2</ele>
        <time>2022-06-09T11:47:01Z</time>
      </trkpt>
      <trkpt lat="46.39344" lon="5.66666">
        <ele>497.5</ele>
        <time>2022-06-09T11:47:07Z</time>
      </trkpt>
      <trkpt lat="46.3934" lon="5.66662">
        <ele>496.5</ele>
        <time>2022-06-09T11:47:14Z</time>
      </trkpt>
      <trkpt lat="46.39335" lon="5.66662">
        <ele>495.9</ele>
        <time>2022-06-09T11:47:19Z</time>
      </trkpt>
      <trkpt lat="46.3933" lon="5.6666">
        <ele>495.4</ele>
        <time>2022-06-09T11:47:24Z</time>
      </trkpt>
      <trkpt lat="46.39325" lon="5.66656">
        <ele>494.6</ele>
        <time>2022-06-09T11:47:30Z</time>
      </trkpt>
      <trkpt lat="46.39321" lon="5.66652">
        <ele>494.2</ele>
        <time>2022-06-09T11:47:34Z</time>
      </trkpt>
      <trkpt lat="46.39316" lon="5.66648">
        <ele>493.9</ele>
        <time>2022-06-09T11:47:38Z</time>
      </trkpt>
      <trkpt lat="46.39312" lon="5.66644">
        <ele>493.7</ele>
        <time>2022-06-09T11:47:42Z</time>
      </trkpt>
      <trkpt lat="46.39308" lon="5.6664">
        <ele>493.5</ele>
        <time>2022-06-09T11:47:47Z</time>
      </trkpt>
      <trkpt lat="46.39304" lon="5.66636">
        <ele>493.5</ele>
        <time>2022-06-09T11:47:52Z</time>
      </trkpt>
      <trkpt lat="46.393" lon="5.66633">
        <ele>493.4</ele>
        <time>2022-06-09T11:47:58Z</time>
      </trkpt>
      <trkpt lat="46.39296" lon="5.66629">
        <ele>493.3</ele>
        <time>2022-06-09T11:48:03Z</time>
      </trkpt>
      <trkpt lat="46.39292" lon="5.66625">
        <ele>493.1</ele>
        <time>2022-06-09T11:48:07Z</time>
      </trkpt>
      <trkpt lat="46.39288" lon="5.6662">
        <ele>493.1</ele>
        <time>2022-06-09T11:48:12Z</time>
      </trkpt>
      <trkpt lat="46.39284" lon="5.66615">
        <ele>493</ele>
        <time>2022-06-09T11:48:17Z</time>
      </trkpt>
      <trkpt lat="46.3928" lon="5.6661">
        <ele>492.8</ele>
        <time>2022-06-09T11:48:22Z</time>
      </trkpt>
      <trkpt lat="46.39277" lon="5.66606">
        <ele>492.4</ele>
        <time>2022-06-09T11:48:27Z</time>
      </trkpt>
      <trkpt lat="46.39273" lon="5.66602">
        <ele>491.7</ele>
        <time>2022-06-09T11:48:32Z</time>
      </trkpt>
      <trkpt lat="46.39268" lon="5.66599">
        <ele>490.8</ele>
        <time>2022-06-09T11:48:38Z</time>
      </trkpt>
      <trkpt lat="46.39265" lon="5.66594">
        <ele>490.1</ele>
        <time>2022-06-09T11:48:43Z</time>
      </trkpt>
      <trkpt lat="46.39261" lon="5.6659">
        <ele>489.4</ele>
        <time>2022-06-09T11:48:48Z</time>
      </trkpt>
      <trkpt lat="46.39257" lon="5.66584">
        <ele>488.9</ele>
        <time>2022-06-09T11:48:53Z</time>
      </trkpt>
      <trkpt lat="46.39253" lon="5.66581">
        <ele>488.4</ele>
        <time>2022-06-09T11:48:57Z</time>
      </trkpt>
      <trkpt lat="46.39248" lon="5.66577">
        <ele>488</ele>
        <time>2022-06-09T11:49:02Z</time>
      </trkpt>
      <trkpt lat="46.39245" lon="5.66573">
        <ele>487.8</ele>
        <time>2022-06-09T11:49:07Z</time>
      </trkpt>
      <trkpt lat="46.3924" lon="5.6657">
        <ele>487.7</ele>
        <time>2022-06-09T11:49:13Z</time>
      </trkpt>
      <trkpt lat="46.39235" lon="5.66568">
        <ele>487.7</ele>
        <time>2022-06-09T11:49:18Z</time>
      </trkpt>
      <trkpt lat="46.3923" lon="5.66563">
        <ele>487.9</ele>
        <time>2022-06-09T11:49:23Z</time>
      </trkpt>
      <trkpt lat="46.39227" lon="5.66558">
        <ele>488.2</ele>
        <time>2022-06-09T11:49:28Z</time>
      </trkpt>
      <trkpt lat="46.39222" lon="5.66555">
        <ele>488.8</ele>
        <time>2022-06-09T11:49:33Z</time>
      </trkpt>
      <trkpt lat="46.39219" lon="5.66552">
        <ele>489</ele>
        <time>2022-06-09T11:49:38Z</time>
      </trkpt>
      <trkpt lat="46.39214" lon="5.6655">
        <ele>489</ele>
        <time>2022-06-09T11:49:43Z</time>
      </trkpt>
      <trkpt lat="46.39209" lon="5.66549">
        <ele>489.1</ele>
        <time>2022-06-09T11:49:48Z</time>
      </trkpt>
      <trkpt lat="46.39204" lon="5.66549">
        <ele>489</ele>
        <time>2022-06-09T11:49:53Z</time>
      </trkpt>
      <trkpt lat="46.39199" lon="5.66548">
        <ele>488.8</ele>
        <time>2022-06-09T11:49:59Z</time>
      </trkpt>
      <trkpt lat="46.39194" lon="5.66546">
        <ele>488.3</ele>
        <time>2022-06-09T11:50:04Z</time>
      </trkpt>
      <trkpt lat="46.39189" lon="5.66545">
        <ele>488.4</ele>
        <time>2022-06-09T11:50:08Z</time>
      </trkpt>
      <trkpt lat="46.39184" lon="5.66543">
        <ele>488.5</ele>
        <time>2022-06-09T11:50:12Z</time>
      </trkpt>
      <trkpt lat="46.39179" lon="5.66542">
        <ele>488.6</ele>
        <time>2022-06-09T11:50:16Z</time>
      </trkpt>
      <trkpt lat="46.39174" lon="5.66541">
        <ele>488.7</ele>
        <time>2022-06-09T11:50:20Z</time>
      </trkpt>
      <trkpt lat="46.39169" lon="5.66539">
        <ele>488.8</ele>
        <time>2022-06-09T11:50:25Z</time>
      </trkpt>
      <trkpt lat="46.39164" lon="5.66537">
        <ele>488.7</ele>
        <time>2022-06-09T11:50:32Z</time>
      </trkpt>
      <trkpt lat="46.39159" lon="5.66535">
        <ele>489</ele>
        <time>2022-06-09T11:50:37Z</time>
      </trkpt>
      <trkpt lat="46.39155" lon="5.66535">
        <ele>489.2</ele>
        <time>2022-06-09T11:50:41Z</time>
      </trkpt>
      <trkpt lat="46.3915" lon="5.66536">
        <ele>489.3</ele>
        <time>2022-06-09T11:50:45Z</time>
      </trkpt>
      <trkpt lat="46.39145" lon="5.66535">
        <ele>489.5</ele>
        <time>2022-06-09T11:50:49Z</time>
      </trkpt>
      <trkpt lat="46.3914" lon="5.66536">
        <ele>489.5</ele>
        <time>2022-06-09T11:50:53Z</time>
      </trkpt>
      <trkpt lat="46.39135" lon="5.66537">
        <ele>489.4</ele>
        <time>2022-06-09T11:50:57Z</time>
      </trkpt>
      <trkpt lat="46.3913" lon="5.66537">
        <ele>488.9</ele>
        <time>2022-06-09T11:51:01Z</time>
      </trkpt>
      <trkpt lat="46.39125" lon="5.66537">
        <ele>488.3</ele>
        <time>2022-06-09T11:51:06Z</time>
      </trkpt>
      <trkpt lat="46.3912" lon="5.66538">
        <ele>487.8</ele>
        <time>2022-06-09T11:51:11Z</time>
      </trkpt>
      <trkpt lat="46.39115" lon="5.66538">
        <ele>487</ele>
        <time>2022-06-09T11:51:16Z</time>
      </trkpt>
      <trkpt lat="46.39109" lon="5.66537">
        <ele>485.7</ele>
        <time>2022-06-09T11:51:22Z</time>
      </trkpt>
      <trkpt lat="46.39104" lon="5.66539">
        <ele>485</ele>
        <time>2022-06-09T11:51:27Z</time>
      </trkpt>
      <trkpt lat="46.39099" lon="5.66539">
        <ele>484.7</ele>
        <time>2022-06-09T11:51:31Z</time>
      </trkpt>
      <trkpt lat="46.39095" lon="5.6654">
        <ele>484.6</ele>
        <time>2022-06-09T11:51:35Z</time>
      </trkpt>
      <trkpt lat="46.3909" lon="5.66544">
        <ele>484.5</ele>
        <time>2022-06-09T11:51:41Z</time>
      </trkpt>
      <trkpt lat="46.39088" lon="5.6655">
        <ele>485.5</ele>
        <time>2022-06-09T11:52:19Z</time>
      </trkpt>
      <trkpt lat="46.39084" lon="5.66553">
        <ele>487.2</ele>
        <time>2022-06-09T11:52:43Z</time>
      </trkpt>
      <trkpt lat="46.39079" lon="5.66555">
        <ele>487.7</ele>
        <time>2022-06-09T11:52:49Z</time>
      </trkpt>
      <trkpt lat="46.39074" lon="5.66554">
        <ele>488.1</ele>
        <time>2022-06-09T11:52:53Z</time>
      </trkpt>
      <trkpt lat="46.39069" lon="5.66554">
        <ele>488.4</ele>
        <time>2022-06-09T11:52:57Z</time>
      </trkpt>
      <trkpt lat="46.39064" lon="5.66554">
        <ele>488.7</ele>
        <time>2022-06-09T11:53:02Z</time>
      </trkpt>
      <trkpt lat="46.39059" lon="5.66555">
        <ele>489</ele>
        <time>2022-06-09T11:53:07Z</time>
      </trkpt>
      <trkpt lat="46.39054" lon="5.66557">
        <ele>489.4</ele>
        <time>2022-06-09T11:53:14Z</time>
      </trkpt>
      <trkpt lat="46.39049" lon="5.66558">
        <ele>489.9</ele>
        <time>2022-06-09T11:53:19Z</time>
      </trkpt>
      <trkpt lat="46.39044" lon="5.66559">
        <ele>491.2</ele>
        <time>2022-06-09T11:53:27Z</time>
      </trkpt>
      <trkpt lat="46.39038" lon="5.66559">
        <ele>492.3</ele>
        <time>2022-06-09T11:53:33Z</time>
      </trkpt>
      <trkpt lat="46.39035" lon="5.66565">
        <ele>493</ele>
        <time>2022-06-09T11:53:39Z</time>
      </trkpt>
      <trkpt lat="46.39034" lon="5.66571">
        <ele>493.3</ele>
        <time>2022-06-09T11:53:43Z</time>
      </trkpt>
      <trkpt lat="46.39033" lon="5.66578">
        <ele>493.5</ele>
        <time>2022-06-09T11:53:47Z</time>
      </trkpt>
      <trkpt lat="46.39033" lon="5.66586">
        <ele>493.2</ele>
        <time>2022-06-09T11:53:52Z</time>
      </trkpt>
      <trkpt lat="46.39033" lon="5.66594">
        <ele>492.8</ele>
        <time>2022-06-09T11:53:57Z</time>
      </trkpt>
      <trkpt lat="46.39034" lon="5.666">
        <ele>492.5</ele>
        <time>2022-06-09T11:54:03Z</time>
      </trkpt>
      <trkpt lat="46.39036" lon="5.66607">
        <ele>493.1</ele>
        <time>2022-06-09T11:54:08Z</time>
      </trkpt>
      <trkpt lat="46.39038" lon="5.66613">
        <ele>493.9</ele>
        <time>2022-06-09T11:54:12Z</time>
      </trkpt>
      <trkpt lat="46.39042" lon="5.66619">
        <ele>494.7</ele>
        <time>2022-06-09T11:54:17Z</time>
      </trkpt>
      <trkpt lat="46.39043" lon="5.66626">
        <ele>495.2</ele>
        <time>2022-06-09T11:54:23Z</time>
      </trkpt>
      <trkpt lat="46.39044" lon="5.66632">
        <ele>495.4</ele>
        <time>2022-06-09T11:54:28Z</time>
      </trkpt>
      <trkpt lat="46.39044" lon="5.66639">
        <ele>495.9</ele>
        <time>2022-06-09T11:54:34Z</time>
      </trkpt>
      <trkpt lat="46.39042" lon="5.66646">
        <ele>496.6</ele>
        <time>2022-06-09T11:54:39Z</time>
      </trkpt>
      <trkpt lat="46.39041" lon="5.66653">
        <ele>497.5</ele>
        <time>2022-06-09T11:54:44Z</time>
      </trkpt>
      <trkpt lat="46.39039" lon="5.66661">
        <ele>498.1</ele>
        <time>2022-06-09T11:54:49Z</time>
      </trkpt>
      <trkpt lat="46.39037" lon="5.66667">
        <ele>498.6</ele>
        <time>2022-06-09T11:54:54Z</time>
      </trkpt>
      <trkpt lat="46.39036" lon="5.66673">
        <ele>499</ele>
        <time>2022-06-09T11:54:59Z</time>
      </trkpt>
      <trkpt lat="46.39033" lon="5.6668">
        <ele>499.5</ele>
        <time>2022-06-09T11:55:05Z</time>
      </trkpt>
      <trkpt lat="46.39031" lon="5.66686">
        <ele>499.7</ele>
        <time>2022-06-09T11:55:10Z</time>
      </trkpt>
      <trkpt lat="46.39027" lon="5.66691">
        <ele>500.1</ele>
        <time>2022-06-09T11:55:15Z</time>
      </trkpt>
      <trkpt lat="46.39024" lon="5.66696">
        <ele>500.6</ele>
        <time>2022-06-09T11:55:20Z</time>
      </trkpt>
      <trkpt lat="46.39022" lon="5.66702">
        <ele>501</ele>
        <time>2022-06-09T11:55:26Z</time>
      </trkpt>
      <trkpt lat="46.39021" lon="5.66709">
        <ele>500.8</ele>
        <time>2022-06-09T11:55:31Z</time>
      </trkpt>
      <trkpt lat="46.39018" lon="5.66715">
        <ele>500.8</ele>
        <time>2022-06-09T11:55:37Z</time>
      </trkpt>
      <trkpt lat="46.39017" lon="5.66723">
        <ele>501.2</ele>
        <time>2022-06-09T11:55:45Z</time>
      </trkpt>
      <trkpt lat="46.39013" lon="5.66728">
        <ele>501.1</ele>
        <time>2022-06-09T11:55:51Z</time>
      </trkpt>
      <trkpt lat="46.3901" lon="5.66734">
        <ele>501.9</ele>
        <time>2022-06-09T11:55:58Z</time>
      </trkpt>
      <trkpt lat="46.39007" lon="5.6674">
        <ele>503</ele>
        <time>2022-06-09T11:56:04Z</time>
      </trkpt>
      <trkpt lat="46.39005" lon="5.66747">
        <ele>503.3</ele>
        <time>2022-06-09T11:56:08Z</time>
      </trkpt>
      <trkpt lat="46.39003" lon="5.66755">
        <ele>503.3</ele>
        <time>2022-06-09T11:56:12Z</time>
      </trkpt>
      <trkpt lat="46.39" lon="5.66761">
        <ele>503.2</ele>
        <time>2022-06-09T11:56:16Z</time>
      </trkpt>
      <trkpt lat="46.38997" lon="5.66767">
        <ele>503.3</ele>
        <time>2022-06-09T11:56:20Z</time>
      </trkpt>
      <trkpt lat="46.38994" lon="5.66773">
        <ele>503.3</ele>
        <time>2022-06-09T11:56:25Z</time>
      </trkpt>
      <trkpt lat="46.38993" lon="5.6678">
        <ele>503.6</ele>
        <time>2022-06-09T11:56:30Z</time>
      </trkpt>
      <trkpt lat="46.38992" lon="5.66787">
        <ele>503.3</ele>
        <time>2022-06-09T11:56:35Z</time>
      </trkpt>
      <trkpt lat="46.38989" lon="5.66793">
        <ele>502.9</ele>
        <time>2022-06-09T11:56:42Z</time>
      </trkpt>
      <trkpt lat="46.38987" lon="5.668">
        <ele>502.6</ele>
        <time>2022-06-09T11:56:48Z</time>
      </trkpt>
      <trkpt lat="46.38984" lon="5.66805">
        <ele>503</ele>
        <time>2022-06-09T11:56:52Z</time>
      </trkpt>
      <trkpt lat="46.38981" lon="5.66812">
        <ele>503.4</ele>
        <time>2022-06-09T11:56:57Z</time>
      </trkpt>
      <trkpt lat="46.3898" lon="5.66818">
        <ele>503.9</ele>
        <time>2022-06-09T11:57:01Z</time>
      </trkpt>
      <trkpt lat="46.38979" lon="5.66825">
        <ele>504.3</ele>
        <time>2022-06-09T11:57:06Z</time>
      </trkpt>
      <trkpt lat="46.38977" lon="5.66832">
        <ele>503.8</ele>
        <time>2022-06-09T11:57:12Z</time>
      </trkpt>
      <trkpt lat="46.38974" lon="5.66839">
        <ele>503.2</ele>
        <time>2022-06-09T11:57:17Z</time>
      </trkpt>
      <trkpt lat="46.38971" lon="5.66845">
        <ele>503.3</ele>
        <time>2022-06-09T11:57:23Z</time>
      </trkpt>
      <trkpt lat="46.3897" lon="5.66853">
        <ele>503.6</ele>
        <time>2022-06-09T11:57:29Z</time>
      </trkpt>
      <trkpt lat="46.38968" lon="5.66859">
        <ele>503.9</ele>
        <time>2022-06-09T11:57:34Z</time>
      </trkpt>
      <trkpt lat="46.38967" lon="5.66866">
        <ele>503.6</ele>
        <time>2022-06-09T11:57:39Z</time>
      </trkpt>
      <trkpt lat="46.38965" lon="5.66873">
        <ele>503.5</ele>
        <time>2022-06-09T11:57:43Z</time>
      </trkpt>
      <trkpt lat="46.38962" lon="5.66879">
        <ele>503.4</ele>
        <time>2022-06-09T11:57:48Z</time>
      </trkpt>
      <trkpt lat="46.3896" lon="5.66885">
        <ele>503.1</ele>
        <time>2022-06-09T11:57:54Z</time>
      </trkpt>
      <trkpt lat="46.38957" lon="5.66891">
        <ele>502.4</ele>
        <time>2022-06-09T11:58:00Z</time>
      </trkpt>
      <trkpt lat="46.38955" lon="5.66898">
        <ele>501.4</ele>
        <time>2022-06-09T11:58:06Z</time>
      </trkpt>
      <trkpt lat="46.38953" lon="5.66904">
        <ele>500.6</ele>
        <time>2022-06-09T11:58:10Z</time>
      </trkpt>
      <trkpt lat="46.38948" lon="5.66906">
        <ele>499.9</ele>
        <time>2022-06-09T11:58:22Z</time>
      </trkpt>
      <trkpt lat="46.38947" lon="5.66913">
        <ele>499</ele>
        <time>2022-06-09T11:59:19Z</time>
      </trkpt>
      <trkpt lat="46.38947" lon="5.66921">
        <ele>499.5</ele>
        <time>2022-06-09T11:59:23Z</time>
      </trkpt>
      <trkpt lat="46.38945" lon="5.66928">
        <ele>500.4</ele>
        <time>2022-06-09T11:59:26Z</time>
      </trkpt>
      <trkpt lat="46.38944" lon="5.66935">
        <ele>501.8</ele>
        <time>2022-06-09T11:59:30Z</time>
      </trkpt>
      <trkpt lat="46.38943" lon="5.66941">
        <ele>502.9</ele>
        <time>2022-06-09T11:59:34Z</time>
      </trkpt>
      <trkpt lat="46.3894" lon="5.66949">
        <ele>503.6</ele>
        <time>2022-06-09T11:59:39Z</time>
      </trkpt>
      <trkpt lat="46.38939" lon="5.66956">
        <ele>503.7</ele>
        <time>2022-06-09T11:59:43Z</time>
      </trkpt>
      <trkpt lat="46.38937" lon="5.66963">
        <ele>503.8</ele>
        <time>2022-06-09T11:59:46Z</time>
      </trkpt>
      <trkpt lat="46.38936" lon="5.6697">
        <ele>504</ele>
        <time>2022-06-09T11:59:49Z</time>
      </trkpt>
      <trkpt lat="46.38935" lon="5.66978">
        <ele>504.2</ele>
        <time>2022-06-09T11:59:53Z</time>
      </trkpt>
      <trkpt lat="46.38933" lon="5.66984">
        <ele>504.6</ele>
        <time>2022-06-09T11:59:57Z</time>
      </trkpt>
      <trkpt lat="46.38931" lon="5.66991">
        <ele>505.3</ele>
        <time>2022-06-09T12:00:02Z</time>
      </trkpt>
      <trkpt lat="46.3893" lon="5.66997">
        <ele>505.9</ele>
        <time>2022-06-09T12:00:06Z</time>
      </trkpt>
      <trkpt lat="46.38929" lon="5.67006">
        <ele>506.4</ele>
        <time>2022-06-09T12:00:10Z</time>
      </trkpt>
      <trkpt lat="46.38928" lon="5.67014">
        <ele>506.6</ele>
        <time>2022-06-09T12:00:14Z</time>
      </trkpt>
      <trkpt lat="46.38926" lon="5.67021">
        <ele>506.5</ele>
        <time>2022-06-09T12:00:18Z</time>
      </trkpt>
      <trkpt lat="46.38925" lon="5.67029">
        <ele>506.5</ele>
        <time>2022-06-09T12:00:22Z</time>
      </trkpt>
      <trkpt lat="46.38923" lon="5.67036">
        <ele>506.8</ele>
        <time>2022-06-09T12:00:26Z</time>
      </trkpt>
      <trkpt lat="46.38921" lon="5.67042">
        <ele>507</ele>
        <time>2022-06-09T12:00:30Z</time>
      </trkpt>
      <trkpt lat="46.3892" lon="5.6705">
        <ele>507.1</ele>
        <time>2022-06-09T12:00:34Z</time>
      </trkpt>
      <trkpt lat="46.38919" lon="5.67056">
        <ele>507.5</ele>
        <time>2022-06-09T12:00:38Z</time>
      </trkpt>
      <trkpt lat="46.38917" lon="5.67063">
        <ele>507.9</ele>
        <time>2022-06-09T12:00:42Z</time>
      </trkpt>
      <trkpt lat="46.38915" lon="5.6707">
        <ele>508.5</ele>
        <time>2022-06-09T12:00:46Z</time>
      </trkpt>
      <trkpt lat="46.38914" lon="5.67077">
        <ele>509.3</ele>
        <time>2022-06-09T12:00:51Z</time>
      </trkpt>
      <trkpt lat="46.38913" lon="5.67085">
        <ele>509.7</ele>
        <time>2022-06-09T12:00:56Z</time>
      </trkpt>
      <trkpt lat="46.38913" lon="5.67092">
        <ele>510.7</ele>
        <time>2022-06-09T12:01:01Z</time>
      </trkpt>
      <trkpt lat="46.38912" lon="5.67099">
        <ele>511.6</ele>
        <time>2022-06-09T12:01:05Z</time>
      </trkpt>
      <trkpt lat="46.38911" lon="5.67107">
        <ele>513</ele>
        <time>2022-06-09T12:01:10Z</time>
      </trkpt>
      <trkpt lat="46.38909" lon="5.67114">
        <ele>514</ele>
        <time>2022-06-09T12:01:15Z</time>
      </trkpt>
      <trkpt lat="46.38907" lon="5.67121">
        <ele>514.7</ele>
        <time>2022-06-09T12:01:20Z</time>
      </trkpt>
      <trkpt lat="46.38906" lon="5.67127">
        <ele>515.1</ele>
        <time>2022-06-09T12:01:25Z</time>
      </trkpt>
      <trkpt lat="46.38902" lon="5.67134">
        <ele>515.1</ele>
        <time>2022-06-09T12:01:30Z</time>
      </trkpt>
      <trkpt lat="46.38899" lon="5.67139">
        <ele>514.5</ele>
        <time>2022-06-09T12:01:34Z</time>
      </trkpt>
      <trkpt lat="46.38895" lon="5.67146">
        <ele>513.6</ele>
        <time>2022-06-09T12:01:38Z</time>
      </trkpt>
      <trkpt lat="46.38892" lon="5.67151">
        <ele>512.9</ele>
        <time>2022-06-09T12:01:41Z</time>
      </trkpt>
      <trkpt lat="46.38889" lon="5.67156">
        <ele>512.5</ele>
        <time>2022-06-09T12:01:45Z</time>
      </trkpt>
      <trkpt lat="46.38885" lon="5.67162">
        <ele>512.1</ele>
        <time>2022-06-09T12:01:50Z</time>
      </trkpt>
      <trkpt lat="46.38882" lon="5.67169">
        <ele>512.2</ele>
        <time>2022-06-09T12:01:56Z</time>
      </trkpt>
      <trkpt lat="46.3888" lon="5.67175">
        <ele>512.4</ele>
        <time>2022-06-09T12:02:01Z</time>
      </trkpt>
      <trkpt lat="46.38877" lon="5.67182">
        <ele>512.3</ele>
        <time>2022-06-09T12:02:05Z</time>
      </trkpt>
      <trkpt lat="46.38875" lon="5.67187">
        <ele>512.3</ele>
        <time>2022-06-09T12:02:08Z</time>
      </trkpt>
      <trkpt lat="46.38872" lon="5.67193">
        <ele>512.2</ele>
        <time>2022-06-09T12:02:12Z</time>
      </trkpt>
      <trkpt lat="46.3887" lon="5.67199">
        <ele>512.2</ele>
        <time>2022-06-09T12:02:16Z</time>
      </trkpt>
      <trkpt lat="46.38868" lon="5.67206">
        <ele>512.4</ele>
        <time>2022-06-09T12:02:20Z</time>
      </trkpt>
      <trkpt lat="46.38866" lon="5.67213">
        <ele>512.6</ele>
        <time>2022-06-09T12:02:24Z</time>
      </trkpt>
      <trkpt lat="46.38865" lon="5.6722">
        <ele>512.6</ele>
        <time>2022-06-09T12:02:28Z</time>
      </trkpt>
      <trkpt lat="46.38863" lon="5.67227">
        <ele>513</ele>
        <time>2022-06-09T12:02:32Z</time>
      </trkpt>
      <trkpt lat="46.38862" lon="5.67234">
        <ele>512.9</ele>
        <time>2022-06-09T12:02:36Z</time>
      </trkpt>
      <trkpt lat="46.3886" lon="5.67241">
        <ele>512.5</ele>
        <time>2022-06-09T12:02:40Z</time>
      </trkpt>
      <trkpt lat="46.38859" lon="5.67248">
        <ele>512.4</ele>
        <time>2022-06-09T12:02:43Z</time>
      </trkpt>
      <trkpt lat="46.38858" lon="5.67256">
        <ele>512.3</ele>
        <time>2022-06-09T12:02:47Z</time>
      </trkpt>
      <trkpt lat="46.38857" lon="5.67263">
        <ele>512.1</ele>
        <time>2022-06-09T12:02:51Z</time>
      </trkpt>
      <trkpt lat="46.38856" lon="5.6727">
        <ele>512.2</ele>
        <time>2022-06-09T12:02:55Z</time>
      </trkpt>
      <trkpt lat="46.38857" lon="5.67277">
        <ele>512.2</ele>
        <time>2022-06-09T12:02:59Z</time>
      </trkpt>
      <trkpt lat="46.38856" lon="5.67284">
        <ele>511.4</ele>
        <time>2022-06-09T12:03:03Z</time>
      </trkpt>
      <trkpt lat="46.38855" lon="5.67292">
        <ele>510.7</ele>
        <time>2022-06-09T12:03:07Z</time>
      </trkpt>
      <trkpt lat="46.38854" lon="5.67298">
        <ele>510.3</ele>
        <time>2022-06-09T12:03:11Z</time>
      </trkpt>
      <trkpt lat="46.38853" lon="5.67306">
        <ele>510.1</ele>
        <time>2022-06-09T12:03:16Z</time>
      </trkpt>
      <trkpt lat="46.38852" lon="5.67312">
        <ele>510</ele>
        <time>2022-06-09T12:03:20Z</time>
      </trkpt>
      <trkpt lat="46.38851" lon="5.67319">
        <ele>509.9</ele>
        <time>2022-06-09T12:03:24Z</time>
      </trkpt>
      <trkpt lat="46.3885" lon="5.67326">
        <ele>510</ele>
        <time>2022-06-09T12:03:28Z</time>
      </trkpt>
      <trkpt lat="46.38849" lon="5.67332">
        <ele>509.9</ele>
        <time>2022-06-09T12:03:32Z</time>
      </trkpt>
      <trkpt lat="46.38849" lon="5.6734">
        <ele>509.6</ele>
        <time>2022-06-09T12:03:36Z</time>
      </trkpt>
      <trkpt lat="46.38849" lon="5.67346">
        <ele>509</ele>
        <time>2022-06-09T12:03:40Z</time>
      </trkpt>
      <trkpt lat="46.38847" lon="5.67354">
        <ele>508.2</ele>
        <time>2022-06-09T12:03:45Z</time>
      </trkpt>
      <trkpt lat="46.38846" lon="5.6736">
        <ele>507.7</ele>
        <time>2022-06-09T12:03:49Z</time>
      </trkpt>
      <trkpt lat="46.38845" lon="5.67368">
        <ele>507.3</ele>
        <time>2022-06-09T12:03:54Z</time>
      </trkpt>
      <trkpt lat="46.38845" lon="5.67375">
        <ele>507.6</ele>
        <time>2022-06-09T12:03:59Z</time>
      </trkpt>
      <trkpt lat="46.38847" lon="5.67383">
        <ele>508.6</ele>
        <time>2022-06-09T12:04:04Z</time>
      </trkpt>
      <trkpt lat="46.38847" lon="5.67391">
        <ele>509.6</ele>
        <time>2022-06-09T12:04:09Z</time>
      </trkpt>
      <trkpt lat="46.38846" lon="5.67398">
        <ele>511</ele>
        <time>2022-06-09T12:04:15Z</time>
      </trkpt>
      <trkpt lat="46.38845" lon="5.67405">
        <ele>511.1</ele>
        <time>2022-06-09T12:04:20Z</time>
      </trkpt>
      <trkpt lat="46.38844" lon="5.67412">
        <ele>511</ele>
        <time>2022-06-09T12:04:25Z</time>
      </trkpt>
      <trkpt lat="46.38843" lon="5.6742">
        <ele>511.2</ele>
        <time>2022-06-09T12:04:30Z</time>
      </trkpt>
      <trkpt lat="46.38842" lon="5.67426">
        <ele>511.2</ele>
        <time>2022-06-09T12:04:34Z</time>
      </trkpt>
      <trkpt lat="46.38841" lon="5.67433">
        <ele>510.9</ele>
        <time>2022-06-09T12:04:39Z</time>
      </trkpt>
      <trkpt lat="46.38841" lon="5.6744">
        <ele>510.1</ele>
        <time>2022-06-09T12:04:45Z</time>
      </trkpt>
      <trkpt lat="46.38839" lon="5.67446">
        <ele>509.3</ele>
        <time>2022-06-09T12:04:51Z</time>
      </trkpt>
      <trkpt lat="46.3884" lon="5.67453">
        <ele>509.3</ele>
        <time>2022-06-09T12:04:57Z</time>
      </trkpt>
      <trkpt lat="46.38842" lon="5.6746">
        <ele>510.2</ele>
        <time>2022-06-09T12:05:02Z</time>
      </trkpt>
      <trkpt lat="46.38843" lon="5.67468">
        <ele>510.8</ele>
        <time>2022-06-09T12:05:08Z</time>
      </trkpt>
      <trkpt lat="46.38842" lon="5.67475">
        <ele>511.1</ele>
        <time>2022-06-09T12:05:14Z</time>
      </trkpt>
      <trkpt lat="46.38842" lon="5.67482">
        <ele>511.2</ele>
        <time>2022-06-09T12:05:21Z</time>
      </trkpt>
      <trkpt lat="46.38842" lon="5.67488">
        <ele>511.5</ele>
        <time>2022-06-09T12:05:27Z</time>
      </trkpt>
      <trkpt lat="46.38839" lon="5.67495">
        <ele>511.8</ele>
        <time>2022-06-09T12:05:33Z</time>
      </trkpt>
      <trkpt lat="46.38836" lon="5.67501">
        <ele>511.9</ele>
        <time>2022-06-09T12:05:39Z</time>
      </trkpt>
      <trkpt lat="46.38833" lon="5.67507">
        <ele>512.2</ele>
        <time>2022-06-09T12:05:47Z</time>
      </trkpt>
      <trkpt lat="46.38831" lon="5.67514">
        <ele>512.5</ele>
        <time>2022-06-09T12:05:52Z</time>
      </trkpt>
      <trkpt lat="46.3883" lon="5.67521">
        <ele>513</ele>
        <time>2022-06-09T12:06:00Z</time>
      </trkpt>
      <trkpt lat="46.38826" lon="5.67524">
        <ele>513</ele>
        <time>2022-06-09T12:06:10Z</time>
      </trkpt>
      <trkpt lat="46.38822" lon="5.67528">
        <ele>513.3</ele>
        <time>2022-06-09T12:06:17Z</time>
      </trkpt>
      <trkpt lat="46.38818" lon="5.67532">
        <ele>513.9</ele>
        <time>2022-06-09T12:06:23Z</time>
      </trkpt>
      <trkpt lat="46.38813" lon="5.67536">
        <ele>514</ele>
        <time>2022-06-09T12:06:29Z</time>
      </trkpt>
      <trkpt lat="46.3881" lon="5.6754">
        <ele>513.8</ele>
        <time>2022-06-09T12:06:34Z</time>
      </trkpt>
      <trkpt lat="46.38807" lon="5.67546">
        <ele>513.2</ele>
        <time>2022-06-09T12:06:42Z</time>
      </trkpt>
      <trkpt lat="46.38806" lon="5.67553">
        <ele>512.6</ele>
        <time>2022-06-09T12:06:49Z</time>
      </trkpt>
      <trkpt lat="46.38802" lon="5.67555">
        <ele>511.9</ele>
        <time>2022-06-09T12:06:55Z</time>
      </trkpt>
      <trkpt lat="46.38797" lon="5.67553">
        <ele>511</ele>
        <time>2022-06-09T12:07:03Z</time>
      </trkpt>
      <trkpt lat="46.38792" lon="5.67549">
        <ele>510.1</ele>
        <time>2022-06-09T12:07:09Z</time>
      </trkpt>
      <trkpt lat="46.38787" lon="5.67549">
        <ele>508.9</ele>
        <time>2022-06-09T12:07:14Z</time>
      </trkpt>
      <trkpt lat="46.38782" lon="5.67549">
        <ele>507.5</ele>
        <time>2022-06-09T12:07:19Z</time>
      </trkpt>
      <trkpt lat="46.38777" lon="5.67552">
        <ele>505.9</ele>
        <time>2022-06-09T12:07:25Z</time>
      </trkpt>
      <trkpt lat="46.38773" lon="5.67555">
        <ele>504.4</ele>
        <time>2022-06-09T12:07:31Z</time>
      </trkpt>
      <trkpt lat="46.38769" lon="5.67559">
        <ele>503.7</ele>
        <time>2022-06-09T12:07:38Z</time>
      </trkpt>
      <trkpt lat="46.38765" lon="5.67563">
        <ele>503.6</ele>
        <time>2022-06-09T12:07:46Z</time>
      </trkpt>
      <trkpt lat="46.3877" lon="5.67565">
        <ele>505.7</ele>
        <time>2022-06-09T12:08:52Z</time>
      </trkpt>
      <trkpt lat="46.38775" lon="5.67565">
        <ele>510.8</ele>
        <time>2022-06-09T12:09:40Z</time>
      </trkpt>
      <trkpt lat="46.3878" lon="5.67568">
        <ele>509.7</ele>
        <time>2022-06-09T12:09:48Z</time>
      </trkpt>
      <trkpt lat="46.38784" lon="5.67572">
        <ele>508.7</ele>
        <time>2022-06-09T12:09:55Z</time>
      </trkpt>
      <trkpt lat="46.38789" lon="5.67575">
        <ele>508.6</ele>
        <time>2022-06-09T12:09:58Z</time>
      </trkpt>
      <trkpt lat="46.38794" lon="5.67579">
        <ele>508.6</ele>
        <time>2022-06-09T12:10:02Z</time>
      </trkpt>
      <trkpt lat="46.38799" lon="5.67583">
        <ele>509</ele>
        <time>2022-06-09T12:10:06Z</time>
      </trkpt>
      <trkpt lat="46.38803" lon="5.67586">
        <ele>509.4</ele>
        <time>2022-06-09T12:10:11Z</time>
      </trkpt>
      <trkpt lat="46.38808" lon="5.67588">
        <ele>509.7</ele>
        <time>2022-06-09T12:10:15Z</time>
      </trkpt>
      <trkpt lat="46.38813" lon="5.67592">
        <ele>510.4</ele>
        <time>2022-06-09T12:10:20Z</time>
      </trkpt>
      <trkpt lat="46.38817" lon="5.67596">
        <ele>510.9</ele>
        <time>2022-06-09T12:10:26Z</time>
      </trkpt>
      <trkpt lat="46.38821" lon="5.676">
        <ele>510.7</ele>
        <time>2022-06-09T12:10:33Z</time>
      </trkpt>
      <trkpt lat="46.38826" lon="5.67604">
        <ele>509.6</ele>
        <time>2022-06-09T12:11:03Z</time>
      </trkpt>
      <trkpt lat="46.38831" lon="5.676">
        <ele>509.8</ele>
        <time>2022-06-09T12:11:08Z</time>
      </trkpt>
      <trkpt lat="46.38835" lon="5.67597">
        <ele>509.9</ele>
        <time>2022-06-09T12:11:13Z</time>
      </trkpt>
      <trkpt lat="46.38836" lon="5.6759">
        <ele>510</ele>
        <time>2022-06-09T12:11:21Z</time>
      </trkpt>
      <trkpt lat="46.38838" lon="5.67584">
        <ele>510.3</ele>
        <time>2022-06-09T12:11:26Z</time>
      </trkpt>
      <trkpt lat="46.38842" lon="5.67581">
        <ele>510.7</ele>
        <time>2022-06-09T12:11:31Z</time>
      </trkpt>
      <trkpt lat="46.38847" lon="5.67583">
        <ele>511.1</ele>
        <time>2022-06-09T12:11:35Z</time>
      </trkpt>
      <trkpt lat="46.38852" lon="5.67582">
        <ele>511.6</ele>
        <time>2022-06-09T12:11:39Z</time>
      </trkpt>
      <trkpt lat="46.38856" lon="5.67579">
        <ele>512.4</ele>
        <time>2022-06-09T12:11:44Z</time>
      </trkpt>
      <trkpt lat="46.3886" lon="5.67575">
        <ele>513.5</ele>
        <time>2022-06-09T12:11:50Z</time>
      </trkpt>
      <trkpt lat="46.38865" lon="5.67572">
        <ele>514.6</ele>
        <time>2022-06-09T12:11:55Z</time>
      </trkpt>
      <trkpt lat="46.38869" lon="5.67568">
        <ele>515.5</ele>
        <time>2022-06-09T12:12:02Z</time>
      </trkpt>
      <trkpt lat="46.38873" lon="5.67563">
        <ele>515.9</ele>
        <time>2022-06-09T12:12:08Z</time>
      </trkpt>
      <trkpt lat="46.38877" lon="5.6756">
        <ele>516.9</ele>
        <time>2022-06-09T12:12:14Z</time>
      </trkpt>
      <trkpt lat="46.38881" lon="5.67555">
        <ele>518</ele>
        <time>2022-06-09T12:12:20Z</time>
      </trkpt>
      <trkpt lat="46.38885" lon="5.67552">
        <ele>518.4</ele>
        <time>2022-06-09T12:12:27Z</time>
      </trkpt>
      <trkpt lat="46.38889" lon="5.67549">
        <ele>517.9</ele>
        <time>2022-06-09T12:12:34Z</time>
      </trkpt>
      <trkpt lat="46.38894" lon="5.6755">
        <ele>517.4</ele>
        <time>2022-06-09T12:12:41Z</time>
      </trkpt>
      <trkpt lat="46.38899" lon="5.67552">
        <ele>517.1</ele>
        <time>2022-06-09T12:12:47Z</time>
      </trkpt>
      <trkpt lat="46.38904" lon="5.67554">
        <ele>517.4</ele>
        <time>2022-06-09T12:12:53Z</time>
      </trkpt>
      <trkpt lat="46.38909" lon="5.67557">
        <ele>517.9</ele>
        <time>2022-06-09T12:12:58Z</time>
      </trkpt>
      <trkpt lat="46.38914" lon="5.6756">
        <ele>519</ele>
        <time>2022-06-09T12:13:03Z</time>
      </trkpt>
      <trkpt lat="46.38917" lon="5.67564">
        <ele>519.7</ele>
        <time>2022-06-09T12:13:08Z</time>
      </trkpt>
      <trkpt lat="46.38919" lon="5.6757">
        <ele>520.2</ele>
        <time>2022-06-09T12:13:16Z</time>
      </trkpt>
      <trkpt lat="46.38924" lon="5.67575">
        <ele>520.2</ele>
        <time>2022-06-09T12:13:22Z</time>
      </trkpt>
      <trkpt lat="46.38928" lon="5.6758">
        <ele>519.9</ele>
        <time>2022-06-09T12:13:28Z</time>
      </trkpt>
      <trkpt lat="46.38932" lon="5.67583">
        <ele>519.9</ele>
        <time>2022-06-09T12:13:33Z</time>
      </trkpt>
      <trkpt lat="46.38935" lon="5.6759">
        <ele>519.9</ele>
        <time>2022-06-09T12:13:38Z</time>
      </trkpt>
      <trkpt lat="46.38937" lon="5.67596">
        <ele>520.5</ele>
        <time>2022-06-09T12:13:43Z</time>
      </trkpt>
      <trkpt lat="46.38941" lon="5.67601">
        <ele>521.4</ele>
        <time>2022-06-09T12:13:48Z</time>
      </trkpt>
      <trkpt lat="46.38944" lon="5.67606">
        <ele>522.4</ele>
        <time>2022-06-09T12:13:53Z</time>
      </trkpt>
      <trkpt lat="46.38948" lon="5.6761">
        <ele>524</ele>
        <time>2022-06-09T12:14:00Z</time>
      </trkpt>
      <trkpt lat="46.38952" lon="5.67613">
        <ele>524.4</ele>
        <time>2022-06-09T12:14:06Z</time>
      </trkpt>
      <trkpt lat="46.38956" lon="5.67618">
        <ele>524.8</ele>
        <time>2022-06-09T12:14:12Z</time>
      </trkpt>
      <trkpt lat="46.38957" lon="5.67626">
        <ele>525.7</ele>
        <time>2022-06-09T12:14:17Z</time>
      </trkpt>
      <trkpt lat="46.38957" lon="5.67633">
        <ele>526.8</ele>
        <time>2022-06-09T12:14:23Z</time>
      </trkpt>
      <trkpt lat="46.38961" lon="5.67637">
        <ele>528.1</ele>
        <time>2022-06-09T12:14:40Z</time>
      </trkpt>
      <trkpt lat="46.38966" lon="5.67641">
        <ele>527.7</ele>
        <time>2022-06-09T12:14:48Z</time>
      </trkpt>
      <trkpt lat="46.3897" lon="5.67644">
        <ele>527.2</ele>
        <time>2022-06-09T12:14:55Z</time>
      </trkpt>
      <trkpt lat="46.38973" lon="5.67649">
        <ele>527.4</ele>
        <time>2022-06-09T12:15:01Z</time>
      </trkpt>
      <trkpt lat="46.38978" lon="5.67651">
        <ele>527.8</ele>
        <time>2022-06-09T12:15:06Z</time>
      </trkpt>
      <trkpt lat="46.38982" lon="5.67654">
        <ele>528.1</ele>
        <time>2022-06-09T12:15:10Z</time>
      </trkpt>
      <trkpt lat="46.38987" lon="5.67656">
        <ele>528.1</ele>
        <time>2022-06-09T12:15:16Z</time>
      </trkpt>
      <trkpt lat="46.38991" lon="5.6766">
        <ele>527.5</ele>
        <time>2022-06-09T12:15:23Z</time>
      </trkpt>
      <trkpt lat="46.38995" lon="5.67663">
        <ele>526.5</ele>
        <time>2022-06-09T12:15:28Z</time>
      </trkpt>
      <trkpt lat="46.39" lon="5.67666">
        <ele>526.1</ele>
        <time>2022-06-09T12:15:33Z</time>
      </trkpt>
      <trkpt lat="46.39004" lon="5.67668">
        <ele>525.8</ele>
        <time>2022-06-09T12:15:38Z</time>
      </trkpt>
      <trkpt lat="46.39009" lon="5.67671">
        <ele>526</ele>
        <time>2022-06-09T12:15:44Z</time>
      </trkpt>
      <trkpt lat="46.39014" lon="5.67672">
        <ele>526.7</ele>
        <time>2022-06-09T12:15:49Z</time>
      </trkpt>
      <trkpt lat="46.39019" lon="5.67675">
        <ele>527.3</ele>
        <time>2022-06-09T12:15:54Z</time>
      </trkpt>
      <trkpt lat="46.39024" lon="5.67677">
        <ele>527.7</ele>
        <time>2022-06-09T12:15:58Z</time>
      </trkpt>
      <trkpt lat="46.39027" lon="5.67683">
        <ele>528.2</ele>
        <time>2022-06-09T12:16:05Z</time>
      </trkpt>
      <trkpt lat="46.39031" lon="5.6768">
        <ele>530.4</ele>
        <time>2022-06-09T12:16:21Z</time>
      </trkpt>
      <trkpt lat="46.39034" lon="5.67674">
        <ele>531</ele>
        <time>2022-06-09T12:16:27Z</time>
      </trkpt>
      <trkpt lat="46.39037" lon="5.67671">
        <ele>530.9</ele>
        <time>2022-06-09T12:16:34Z</time>
      </trkpt>
      <trkpt lat="46.39042" lon="5.67669">
        <ele>530.9</ele>
        <time>2022-06-09T12:16:39Z</time>
      </trkpt>
      <trkpt lat="46.39046" lon="5.67664">
        <ele>530.8</ele>
        <time>2022-06-09T12:16:47Z</time>
      </trkpt>
      <trkpt lat="46.39051" lon="5.67661">
        <ele>530.9</ele>
        <time>2022-06-09T12:16:52Z</time>
      </trkpt>
      <trkpt lat="46.39056" lon="5.6766">
        <ele>530.9</ele>
        <time>2022-06-09T12:16:55Z</time>
      </trkpt>
      <trkpt lat="46.3906" lon="5.67657">
        <ele>531.6</ele>
        <time>2022-06-09T12:17:00Z</time>
      </trkpt>
      <trkpt lat="46.39064" lon="5.67651">
        <ele>532.4</ele>
        <time>2022-06-09T12:17:05Z</time>
      </trkpt>
      <trkpt lat="46.39067" lon="5.67645">
        <ele>533.1</ele>
        <time>2022-06-09T12:17:09Z</time>
      </trkpt>
      <trkpt lat="46.39072" lon="5.67641">
        <ele>533.9</ele>
        <time>2022-06-09T12:17:14Z</time>
      </trkpt>
      <trkpt lat="46.39076" lon="5.67637">
        <ele>534.5</ele>
        <time>2022-06-09T12:17:19Z</time>
      </trkpt>
      <trkpt lat="46.3908" lon="5.67634">
        <ele>534.9</ele>
        <time>2022-06-09T12:17:24Z</time>
      </trkpt>
      <trkpt lat="46.39084" lon="5.6763">
        <ele>535.2</ele>
        <time>2022-06-09T12:17:30Z</time>
      </trkpt>
      <trkpt lat="46.39087" lon="5.67624">
        <ele>535.2</ele>
        <time>2022-06-09T12:17:40Z</time>
      </trkpt>
      <trkpt lat="46.3909" lon="5.6762">
        <ele>535.3</ele>
        <time>2022-06-09T12:17:49Z</time>
      </trkpt>
      <trkpt lat="46.39094" lon="5.67615">
        <ele>535.2</ele>
        <time>2022-06-09T12:17:55Z</time>
      </trkpt>
      <trkpt lat="46.39098" lon="5.67611">
        <ele>534.9</ele>
        <time>2022-06-09T12:18:01Z</time>
      </trkpt>
      <trkpt lat="46.39103" lon="5.67609">
        <ele>534.4</ele>
        <time>2022-06-09T12:18:06Z</time>
      </trkpt>
      <trkpt lat="46.39106" lon="5.67604">
        <ele>533.8</ele>
        <time>2022-06-09T12:18:13Z</time>
      </trkpt>
      <trkpt lat="46.39109" lon="5.67598">
        <ele>532.9</ele>
        <time>2022-06-09T12:18:19Z</time>
      </trkpt>
      <trkpt lat="46.39113" lon="5.67592">
        <ele>532.3</ele>
        <time>2022-06-09T12:18:25Z</time>
      </trkpt>
      <trkpt lat="46.39117" lon="5.6759">
        <ele>532</ele>
        <time>2022-06-09T12:18:30Z</time>
      </trkpt>
      <trkpt lat="46.39119" lon="5.67584">
        <ele>531.7</ele>
        <time>2022-06-09T12:18:35Z</time>
      </trkpt>
      <trkpt lat="46.39123" lon="5.67579">
        <ele>531.4</ele>
        <time>2022-06-09T12:18:40Z</time>
      </trkpt>
      <trkpt lat="46.39128" lon="5.67576">
        <ele>531.2</ele>
        <time>2022-06-09T12:18:44Z</time>
      </trkpt>
      <trkpt lat="46.39132" lon="5.67572">
        <ele>530.8</ele>
        <time>2022-06-09T12:18:48Z</time>
      </trkpt>
      <trkpt lat="46.39136" lon="5.67569">
        <ele>530.1</ele>
        <time>2022-06-09T12:18:52Z</time>
      </trkpt>
      <trkpt lat="46.39141" lon="5.67567">
        <ele>529.4</ele>
        <time>2022-06-09T12:18:57Z</time>
      </trkpt>
      <trkpt lat="46.39145" lon="5.67566">
        <ele>529.4</ele>
        <time>2022-06-09T12:19:01Z</time>
      </trkpt>
      <trkpt lat="46.3915" lon="5.67565">
        <ele>529.8</ele>
        <time>2022-06-09T12:19:06Z</time>
      </trkpt>
      <trkpt lat="46.39156" lon="5.67565">
        <ele>530.4</ele>
        <time>2022-06-09T12:19:12Z</time>
      </trkpt>
      <trkpt lat="46.39161" lon="5.67565">
        <ele>531</ele>
        <time>2022-06-09T12:19:17Z</time>
      </trkpt>
      <trkpt lat="46.39166" lon="5.67565">
        <ele>531.8</ele>
        <time>2022-06-09T12:19:21Z</time>
      </trkpt>
      <trkpt lat="46.39171" lon="5.67565">
        <ele>532.5</ele>
        <time>2022-06-09T12:19:26Z</time>
      </trkpt>
      <trkpt lat="46.39176" lon="5.67565">
        <ele>533.6</ele>
        <time>2022-06-09T12:19:33Z</time>
      </trkpt>
      <trkpt lat="46.39181" lon="5.67564">
        <ele>534.8</ele>
        <time>2022-06-09T12:19:41Z</time>
      </trkpt>
      <trkpt lat="46.39185" lon="5.67566">
        <ele>535.1</ele>
        <time>2022-06-09T12:19:46Z</time>
      </trkpt>
      <trkpt lat="46.39191" lon="5.67565">
        <ele>535.2</ele>
        <time>2022-06-09T12:19:51Z</time>
      </trkpt>
      <trkpt lat="46.39196" lon="5.67566">
        <ele>535.5</ele>
        <time>2022-06-09T12:19:56Z</time>
      </trkpt>
      <trkpt lat="46.39201" lon="5.67567">
        <ele>535.9</ele>
        <time>2022-06-09T12:20:02Z</time>
      </trkpt>
      <trkpt lat="46.39206" lon="5.67568">
        <ele>536.2</ele>
        <time>2022-06-09T12:20:07Z</time>
      </trkpt>
      <trkpt lat="46.39211" lon="5.67569">
        <ele>536.3</ele>
        <time>2022-06-09T12:20:11Z</time>
      </trkpt>
      <trkpt lat="46.39216" lon="5.67571">
        <ele>536.4</ele>
        <time>2022-06-09T12:20:16Z</time>
      </trkpt>
      <trkpt lat="46.39221" lon="5.6757">
        <ele>536.8</ele>
        <time>2022-06-09T12:20:21Z</time>
      </trkpt>
      <trkpt lat="46.39226" lon="5.67569">
        <ele>537.3</ele>
        <time>2022-06-09T12:20:27Z</time>
      </trkpt>
      <trkpt lat="46.39231" lon="5.67568">
        <ele>537.4</ele>
        <time>2022-06-09T12:20:32Z</time>
      </trkpt>
      <trkpt lat="46.39236" lon="5.67566">
        <ele>537.2</ele>
        <time>2022-06-09T12:20:38Z</time>
      </trkpt>
      <trkpt lat="46.39241" lon="5.67564">
        <ele>537</ele>
        <time>2022-06-09T12:20:43Z</time>
      </trkpt>
      <trkpt lat="46.39245" lon="5.67562">
        <ele>537</ele>
        <time>2022-06-09T12:20:49Z</time>
      </trkpt>
      <trkpt lat="46.3925" lon="5.6756">
        <ele>537.1</ele>
        <time>2022-06-09T12:20:54Z</time>
      </trkpt>
      <trkpt lat="46.39255" lon="5.67557">
        <ele>537.2</ele>
        <time>2022-06-09T12:20:59Z</time>
      </trkpt>
      <trkpt lat="46.39259" lon="5.67555">
        <ele>537.4</ele>
        <time>2022-06-09T12:21:04Z</time>
      </trkpt>
      <trkpt lat="46.39264" lon="5.67554">
        <ele>537.5</ele>
        <time>2022-06-09T12:21:10Z</time>
      </trkpt>
      <trkpt lat="46.39269" lon="5.67552">
        <ele>537.5</ele>
        <time>2022-06-09T12:21:15Z</time>
      </trkpt>
      <trkpt lat="46.39274" lon="5.67551">
        <ele>537.7</ele>
        <time>2022-06-09T12:21:20Z</time>
      </trkpt>
      <trkpt lat="46.39279" lon="5.6755">
        <ele>537.9</ele>
        <time>2022-06-09T12:21:24Z</time>
      </trkpt>
      <trkpt lat="46.39285" lon="5.6755">
        <ele>538.1</ele>
        <time>2022-06-09T12:21:28Z</time>
      </trkpt>
      <trkpt lat="46.39289" lon="5.67549">
        <ele>538.2</ele>
        <time>2022-06-09T12:21:32Z</time>
      </trkpt>
      <trkpt lat="46.39294" lon="5.67547">
        <ele>538.4</ele>
        <time>2022-06-09T12:21:37Z</time>
      </trkpt>
      <trkpt lat="46.39299" lon="5.67545">
        <ele>538.4</ele>
        <time>2022-06-09T12:21:43Z</time>
      </trkpt>
      <trkpt lat="46.39304" lon="5.67544">
        <ele>538.4</ele>
        <time>2022-06-09T12:21:48Z</time>
      </trkpt>
      <trkpt lat="46.39309" lon="5.67545">
        <ele>538.4</ele>
        <time>2022-06-09T12:21:53Z</time>
      </trkpt>
      <trkpt lat="46.39314" lon="5.67544">
        <ele>538.2</ele>
        <time>2022-06-09T12:21:57Z</time>
      </trkpt>
      <trkpt lat="46.39319" lon="5.67544">
        <ele>538.1</ele>
        <time>2022-06-09T12:22:01Z</time>
      </trkpt>
      <trkpt lat="46.39324" lon="5.67544">
        <ele>538.2</ele>
        <time>2022-06-09T12:22:05Z</time>
      </trkpt>
      <trkpt lat="46.39329" lon="5.67544">
        <ele>538.2</ele>
        <time>2022-06-09T12:22:09Z</time>
      </trkpt>
      <trkpt lat="46.39334" lon="5.67543">
        <ele>538.5</ele>
        <time>2022-06-09T12:22:14Z</time>
      </trkpt>
      <trkpt lat="46.39338" lon="5.67543">
        <ele>539</ele>
        <time>2022-06-09T12:22:20Z</time>
      </trkpt>
      <trkpt lat="46.39343" lon="5.67543">
        <ele>538.7</ele>
        <time>2022-06-09T12:22:25Z</time>
      </trkpt>
      <trkpt lat="46.39348" lon="5.67544">
        <ele>538.2</ele>
        <time>2022-06-09T12:22:31Z</time>
      </trkpt>
      <trkpt lat="46.39354" lon="5.67545">
        <ele>537.9</ele>
        <time>2022-06-09T12:22:36Z</time>
      </trkpt>
      <trkpt lat="46.39358" lon="5.67545">
        <ele>537.7</ele>
        <time>2022-06-09T12:22:40Z</time>
      </trkpt>
      <trkpt lat="46.39364" lon="5.67545">
        <ele>537.4</ele>
        <time>2022-06-09T12:22:45Z</time>
      </trkpt>
      <trkpt lat="46.39368" lon="5.67545">
        <ele>537.3</ele>
        <time>2022-06-09T12:22:52Z</time>
      </trkpt>
      <trkpt lat="46.39373" lon="5.67545">
        <ele>537.5</ele>
        <time>2022-06-09T12:22:58Z</time>
      </trkpt>
      <trkpt lat="46.39378" lon="5.67546">
        <ele>538.1</ele>
        <time>2022-06-09T12:23:02Z</time>
      </trkpt>
      <trkpt lat="46.39383" lon="5.67548">
        <ele>538.8</ele>
        <time>2022-06-09T12:23:07Z</time>
      </trkpt>
      <trkpt lat="46.39387" lon="5.67549">
        <ele>539.4</ele>
        <time>2022-06-09T12:23:11Z</time>
      </trkpt>
      <trkpt lat="46.39392" lon="5.67552">
        <ele>540</ele>
        <time>2022-06-09T12:23:15Z</time>
      </trkpt>
      <trkpt lat="46.39397" lon="5.67554">
        <ele>540.8</ele>
        <time>2022-06-09T12:23:19Z</time>
      </trkpt>
      <trkpt lat="46.39402" lon="5.67556">
        <ele>542.1</ele>
        <time>2022-06-09T12:23:24Z</time>
      </trkpt>
      <trkpt lat="46.39407" lon="5.67558">
        <ele>543.8</ele>
        <time>2022-06-09T12:23:30Z</time>
      </trkpt>
      <trkpt lat="46.39411" lon="5.67561">
        <ele>545.4</ele>
        <time>2022-06-09T12:23:37Z</time>
      </trkpt>
      <trkpt lat="46.39416" lon="5.67564">
        <ele>546.6</ele>
        <time>2022-06-09T12:23:42Z</time>
      </trkpt>
      <trkpt lat="46.3942" lon="5.67567">
        <ele>547.3</ele>
        <time>2022-06-09T12:23:46Z</time>
      </trkpt>
      <trkpt lat="46.39424" lon="5.67572">
        <ele>547.9</ele>
        <time>2022-06-09T12:23:51Z</time>
      </trkpt>
      <trkpt lat="46.39429" lon="5.67575">
        <ele>548.1</ele>
        <time>2022-06-09T12:23:55Z</time>
      </trkpt>
      <trkpt lat="46.39432" lon="5.6758">
        <ele>548.3</ele>
        <time>2022-06-09T12:24:01Z</time>
      </trkpt>
      <trkpt lat="46.39437" lon="5.67581">
        <ele>547.8</ele>
        <time>2022-06-09T12:24:14Z</time>
      </trkpt>
      <trkpt lat="46.39442" lon="5.67583">
        <ele>548.4</ele>
        <time>2022-06-09T12:24:21Z</time>
      </trkpt>
      <trkpt lat="46.39446" lon="5.67585">
        <ele>548.9</ele>
        <time>2022-06-09T12:24:27Z</time>
      </trkpt>
      <trkpt lat="46.3945" lon="5.67588">
        <ele>549.1</ele>
        <time>2022-06-09T12:24:31Z</time>
      </trkpt>
      <trkpt lat="46.39455" lon="5.67591">
        <ele>549.2</ele>
        <time>2022-06-09T12:24:35Z</time>
      </trkpt>
      <trkpt lat="46.3946" lon="5.67594">
        <ele>549.3</ele>
        <time>2022-06-09T12:24:41Z</time>
      </trkpt>
      <trkpt lat="46.39464" lon="5.67597">
        <ele>549.6</ele>
        <time>2022-06-09T12:24:45Z</time>
      </trkpt>
      <trkpt lat="46.39469" lon="5.67598">
        <ele>550.1</ele>
        <time>2022-06-09T12:24:48Z</time>
      </trkpt>
      <trkpt lat="46.39473" lon="5.67598">
        <ele>550.9</ele>
        <time>2022-06-09T12:24:51Z</time>
      </trkpt>
      <trkpt lat="46.39478" lon="5.676">
        <ele>552.3</ele>
        <time>2022-06-09T12:24:56Z</time>
      </trkpt>
      <trkpt lat="46.39483" lon="5.67602">
        <ele>553.3</ele>
        <time>2022-06-09T12:25:00Z</time>
      </trkpt>
      <trkpt lat="46.39488" lon="5.67605">
        <ele>554.2</ele>
        <time>2022-06-09T12:25:04Z</time>
      </trkpt>
      <trkpt lat="46.39492" lon="5.67608">
        <ele>554.6</ele>
        <time>2022-06-09T12:25:08Z</time>
      </trkpt>
      <trkpt lat="46.39495" lon="5.67613">
        <ele>555</ele>
        <time>2022-06-09T12:25:13Z</time>
      </trkpt>
      <trkpt lat="46.395" lon="5.67617">
        <ele>555.3</ele>
        <time>2022-06-09T12:25:19Z</time>
      </trkpt>
      <trkpt lat="46.39504" lon="5.67619">
        <ele>555.4</ele>
        <time>2022-06-09T12:25:24Z</time>
      </trkpt>
      <trkpt lat="46.39509" lon="5.67623">
        <ele>555</ele>
        <time>2022-06-09T12:25:29Z</time>
      </trkpt>
      <trkpt lat="46.39513" lon="5.67627">
        <ele>554.4</ele>
        <time>2022-06-09T12:25:34Z</time>
      </trkpt>
      <trkpt lat="46.39517" lon="5.67631">
        <ele>553.3</ele>
        <time>2022-06-09T12:25:40Z</time>
      </trkpt>
      <trkpt lat="46.39522" lon="5.67634">
        <ele>552.5</ele>
        <time>2022-06-09T12:25:45Z</time>
      </trkpt>
      <trkpt lat="46.39526" lon="5.67638">
        <ele>552</ele>
        <time>2022-06-09T12:25:49Z</time>
      </trkpt>
      <trkpt lat="46.39529" lon="5.67644">
        <ele>552.2</ele>
        <time>2022-06-09T12:25:54Z</time>
      </trkpt>
      <trkpt lat="46.39531" lon="5.6765">
        <ele>552.5</ele>
        <time>2022-06-09T12:25:58Z</time>
      </trkpt>
      <trkpt lat="46.39532" lon="5.67657">
        <ele>552.8</ele>
        <time>2022-06-09T12:26:02Z</time>
      </trkpt>
      <trkpt lat="46.39534" lon="5.67663">
        <ele>553</ele>
        <time>2022-06-09T12:26:07Z</time>
      </trkpt>
      <trkpt lat="46.39537" lon="5.67669">
        <ele>552.4</ele>
        <time>2022-06-09T12:26:17Z</time>
      </trkpt>
      <trkpt lat="46.39538" lon="5.67675">
        <ele>551.7</ele>
        <time>2022-06-09T12:26:23Z</time>
      </trkpt>
      <trkpt lat="46.39541" lon="5.67681">
        <ele>551.4</ele>
        <time>2022-06-09T12:26:29Z</time>
      </trkpt>
      <trkpt lat="46.39544" lon="5.67687">
        <ele>551.5</ele>
        <time>2022-06-09T12:26:32Z</time>
      </trkpt>
      <trkpt lat="46.39545" lon="5.67695">
        <ele>551.7</ele>
        <time>2022-06-09T12:26:35Z</time>
      </trkpt>
      <trkpt lat="46.39547" lon="5.67703">
        <ele>551.9</ele>
        <time>2022-06-09T12:26:38Z</time>
      </trkpt>
      <trkpt lat="46.39549" lon="5.67709">
        <ele>551.9</ele>
        <time>2022-06-09T12:26:41Z</time>
      </trkpt>
      <trkpt lat="46.39552" lon="5.67715">
        <ele>552.2</ele>
        <time>2022-06-09T12:26:45Z</time>
      </trkpt>
      <trkpt lat="46.39555" lon="5.6772">
        <ele>552.8</ele>
        <time>2022-06-09T12:26:53Z</time>
      </trkpt>
      <trkpt lat="46.39558" lon="5.67725">
        <ele>553</ele>
        <time>2022-06-09T12:27:00Z</time>
      </trkpt>
      <trkpt lat="46.39563" lon="5.67728">
        <ele>553.1</ele>
        <time>2022-06-09T12:27:05Z</time>
      </trkpt>
      <trkpt lat="46.39568" lon="5.67731">
        <ele>553.4</ele>
        <time>2022-06-09T12:27:10Z</time>
      </trkpt>
      <trkpt lat="46.39573" lon="5.67732">
        <ele>553.4</ele>
        <time>2022-06-09T12:27:14Z</time>
      </trkpt>
      <trkpt lat="46.39577" lon="5.67736">
        <ele>553.1</ele>
        <time>2022-06-09T12:27:20Z</time>
      </trkpt>
      <trkpt lat="46.39581" lon="5.67739">
        <ele>552.2</ele>
        <time>2022-06-09T12:27:27Z</time>
      </trkpt>
      <trkpt lat="46.39585" lon="5.67742">
        <ele>551.9</ele>
        <time>2022-06-09T12:27:33Z</time>
      </trkpt>
      <trkpt lat="46.39589" lon="5.67746">
        <ele>551.6</ele>
        <time>2022-06-09T12:27:38Z</time>
      </trkpt>
      <trkpt lat="46.39594" lon="5.67749">
        <ele>551.7</ele>
        <time>2022-06-09T12:27:42Z</time>
      </trkpt>
      <trkpt lat="46.39599" lon="5.67751">
        <ele>551.4</ele>
        <time>2022-06-09T12:27:47Z</time>
      </trkpt>
      <trkpt lat="46.39603" lon="5.67755">
        <ele>550.7</ele>
        <time>2022-06-09T12:27:54Z</time>
      </trkpt>
      <trkpt lat="46.39607" lon="5.67759">
        <ele>550.4</ele>
        <time>2022-06-09T12:28:00Z</time>
      </trkpt>
      <trkpt lat="46.39612" lon="5.67763">
        <ele>550.2</ele>
        <time>2022-06-09T12:28:05Z</time>
      </trkpt>
      <trkpt lat="46.39616" lon="5.67766">
        <ele>550.1</ele>
        <time>2022-06-09T12:28:10Z</time>
      </trkpt>
      <trkpt lat="46.39621" lon="5.67768">
        <ele>550.2</ele>
        <time>2022-06-09T12:29:04Z</time>
      </trkpt>
      <trkpt lat="46.39626" lon="5.6777">
        <ele>550.2</ele>
        <time>2022-06-09T12:29:10Z</time>
      </trkpt>
      <trkpt lat="46.3963" lon="5.67772">
        <ele>550.1</ele>
        <time>2022-06-09T12:29:16Z</time>
      </trkpt>
      <trkpt lat="46.39634" lon="5.67775">
        <ele>550.7</ele>
        <time>2022-06-09T12:29:19Z</time>
      </trkpt>
      <trkpt lat="46.39639" lon="5.67777">
        <ele>551.5</ele>
        <time>2022-06-09T12:29:23Z</time>
      </trkpt>
      <trkpt lat="46.39644" lon="5.67778">
        <ele>552.3</ele>
        <time>2022-06-09T12:29:29Z</time>
      </trkpt>
      <trkpt lat="46.39649" lon="5.67779">
        <ele>552.5</ele>
        <time>2022-06-09T12:29:34Z</time>
      </trkpt>
      <trkpt lat="46.39653" lon="5.67781">
        <ele>552.4</ele>
        <time>2022-06-09T12:29:39Z</time>
      </trkpt>
      <trkpt lat="46.39657" lon="5.67783">
        <ele>552.3</ele>
        <time>2022-06-09T12:29:44Z</time>
      </trkpt>
      <trkpt lat="46.39662" lon="5.67784">
        <ele>552.9</ele>
        <time>2022-06-09T12:29:49Z</time>
      </trkpt>
      <trkpt lat="46.39667" lon="5.67786">
        <ele>553.6</ele>
        <time>2022-06-09T12:29:53Z</time>
      </trkpt>
      <trkpt lat="46.39671" lon="5.67789">
        <ele>554.4</ele>
        <time>2022-06-09T12:29:58Z</time>
      </trkpt>
      <trkpt lat="46.39675" lon="5.67793">
        <ele>554.7</ele>
        <time>2022-06-09T12:30:06Z</time>
      </trkpt>
      <trkpt lat="46.39679" lon="5.67797">
        <ele>555.4</ele>
        <time>2022-06-09T12:30:11Z</time>
      </trkpt>
      <trkpt lat="46.39684" lon="5.67801">
        <ele>555.8</ele>
        <time>2022-06-09T12:30:16Z</time>
      </trkpt>
      <trkpt lat="46.39688" lon="5.67804">
        <ele>556.1</ele>
        <time>2022-06-09T12:30:20Z</time>
      </trkpt>
      <trkpt lat="46.39692" lon="5.67809">
        <ele>556.4</ele>
        <time>2022-06-09T12:30:25Z</time>
      </trkpt>
      <trkpt lat="46.39697" lon="5.67813">
        <ele>556.9</ele>
        <time>2022-06-09T12:30:29Z</time>
      </trkpt>
      <trkpt lat="46.39702" lon="5.67816">
        <ele>557</ele>
        <time>2022-06-09T12:30:33Z</time>
      </trkpt>
      <trkpt lat="46.39707" lon="5.67818">
        <ele>557.3</ele>
        <time>2022-06-09T12:30:38Z</time>
      </trkpt>
      <trkpt lat="46.39711" lon="5.67821">
        <ele>557.7</ele>
        <time>2022-06-09T12:30:45Z</time>
      </trkpt>
      <trkpt lat="46.39715" lon="5.67825">
        <ele>557.9</ele>
        <time>2022-06-09T12:30:51Z</time>
      </trkpt>
      <trkpt lat="46.39719" lon="5.6783">
        <ele>557.6</ele>
        <time>2022-06-09T12:30:57Z</time>
      </trkpt>
      <trkpt lat="46.39724" lon="5.67835">
        <ele>557.2</ele>
        <time>2022-06-09T12:31:03Z</time>
      </trkpt>
      <trkpt lat="46.39728" lon="5.67839">
        <ele>557</ele>
        <time>2022-06-09T12:31:07Z</time>
      </trkpt>
      <trkpt lat="46.39731" lon="5.67843">
        <ele>557.5</ele>
        <time>2022-06-09T12:31:11Z</time>
      </trkpt>
      <trkpt lat="46.39736" lon="5.67845">
        <ele>558.8</ele>
        <time>2022-06-09T12:31:16Z</time>
      </trkpt>
      <trkpt lat="46.39741" lon="5.67848">
        <ele>559.8</ele>
        <time>2022-06-09T12:31:20Z</time>
      </trkpt>
      <trkpt lat="46.39745" lon="5.67851">
        <ele>561.1</ele>
        <time>2022-06-09T12:31:25Z</time>
      </trkpt>
      <trkpt lat="46.3975" lon="5.67853">
        <ele>561.7</ele>
        <time>2022-06-09T12:31:31Z</time>
      </trkpt>
      <trkpt lat="46.39755" lon="5.67856">
        <ele>561.6</ele>
        <time>2022-06-09T12:31:37Z</time>
      </trkpt>
      <trkpt lat="46.3976" lon="5.67858">
        <ele>561.8</ele>
        <time>2022-06-09T12:31:41Z</time>
      </trkpt>
      <trkpt lat="46.39765" lon="5.67861">
        <ele>561.8</ele>
        <time>2022-06-09T12:31:46Z</time>
      </trkpt>
      <trkpt lat="46.39769" lon="5.67864">
        <ele>561.6</ele>
        <time>2022-06-09T12:31:52Z</time>
      </trkpt>
      <trkpt lat="46.39773" lon="5.67868">
        <ele>561.5</ele>
        <time>2022-06-09T12:31:58Z</time>
      </trkpt>
      <trkpt lat="46.39777" lon="5.67872">
        <ele>561.2</ele>
        <time>2022-06-09T12:32:03Z</time>
      </trkpt>
      <trkpt lat="46.39782" lon="5.67876">
        <ele>561</ele>
        <time>2022-06-09T12:32:08Z</time>
      </trkpt>
      <trkpt lat="46.39786" lon="5.67879">
        <ele>560.3</ele>
        <time>2022-06-09T12:32:13Z</time>
      </trkpt>
      <trkpt lat="46.3979" lon="5.67882">
        <ele>559.5</ele>
        <time>2022-06-09T12:32:19Z</time>
      </trkpt>
      <trkpt lat="46.39794" lon="5.67886">
        <ele>559.2</ele>
        <time>2022-06-09T12:32:25Z</time>
      </trkpt>
      <trkpt lat="46.39799" lon="5.67888">
        <ele>558.9</ele>
        <time>2022-06-09T12:32:29Z</time>
      </trkpt>
      <trkpt lat="46.39804" lon="5.67891">
        <ele>559</ele>
        <time>2022-06-09T12:32:33Z</time>
      </trkpt>
      <trkpt lat="46.39808" lon="5.67893">
        <ele>559.1</ele>
        <time>2022-06-09T12:32:37Z</time>
      </trkpt>
      <trkpt lat="46.39812" lon="5.67895">
        <ele>558.8</ele>
        <time>2022-06-09T12:32:43Z</time>
      </trkpt>
      <trkpt lat="46.39817" lon="5.67898">
        <ele>558.7</ele>
        <time>2022-06-09T12:32:48Z</time>
      </trkpt>
      <trkpt lat="46.39822" lon="5.679">
        <ele>558.3</ele>
        <time>2022-06-09T12:32:53Z</time>
      </trkpt>
      <trkpt lat="46.39826" lon="5.67903">
        <ele>557.5</ele>
        <time>2022-06-09T12:32:58Z</time>
      </trkpt>
      <trkpt lat="46.3983" lon="5.67906">
        <ele>556.9</ele>
        <time>2022-06-09T12:33:03Z</time>
      </trkpt>
      <trkpt lat="46.39835" lon="5.67909">
        <ele>556.5</ele>
        <time>2022-06-09T12:33:07Z</time>
      </trkpt>
      <trkpt lat="46.39839" lon="5.67912">
        <ele>555.7</ele>
        <time>2022-06-09T12:33:13Z</time>
      </trkpt>
      <trkpt lat="46.39844" lon="5.67915">
        <ele>555.1</ele>
        <time>2022-06-09T12:33:19Z</time>
      </trkpt>
      <trkpt lat="46.3985" lon="5.67917">
        <ele>554.7</ele>
        <time>2022-06-09T12:33:24Z</time>
      </trkpt>
      <trkpt lat="46.39854" lon="5.67917">
        <ele>554.1</ele>
        <time>2022-06-09T12:33:30Z</time>
      </trkpt>
      <trkpt lat="46.39859" lon="5.67916">
        <ele>552.1</ele>
        <time>2022-06-09T12:33:39Z</time>
      </trkpt>
      <trkpt lat="46.39863" lon="5.67916">
        <ele>550.1</ele>
        <time>2022-06-09T12:33:48Z</time>
      </trkpt>
      <trkpt lat="46.39868" lon="5.67917">
        <ele>549.9</ele>
        <time>2022-06-09T12:33:52Z</time>
      </trkpt>
      <trkpt lat="46.39874" lon="5.67919">
        <ele>550.2</ele>
        <time>2022-06-09T12:33:56Z</time>
      </trkpt>
      <trkpt lat="46.39879" lon="5.67921">
        <ele>551</ele>
        <time>2022-06-09T12:34:00Z</time>
      </trkpt>
      <trkpt lat="46.39885" lon="5.67922">
        <ele>552.2</ele>
        <time>2022-06-09T12:34:04Z</time>
      </trkpt>
      <trkpt lat="46.39889" lon="5.67923">
        <ele>553.1</ele>
        <time>2022-06-09T12:34:08Z</time>
      </trkpt>
      <trkpt lat="46.39894" lon="5.67923">
        <ele>554.6</ele>
        <time>2022-06-09T12:34:14Z</time>
      </trkpt>
      <trkpt lat="46.39899" lon="5.67922">
        <ele>557.2</ele>
        <time>2022-06-09T12:34:21Z</time>
      </trkpt>
      <trkpt lat="46.39904" lon="5.67922">
        <ele>558.8</ele>
        <time>2022-06-09T12:34:26Z</time>
      </trkpt>
      <trkpt lat="46.39908" lon="5.67921">
        <ele>559.9</ele>
        <time>2022-06-09T12:34:30Z</time>
      </trkpt>
      <trkpt lat="46.39914" lon="5.67921">
        <ele>560.6</ele>
        <time>2022-06-09T12:34:35Z</time>
      </trkpt>
      <trkpt lat="46.39918" lon="5.67923">
        <ele>560.6</ele>
        <time>2022-06-09T12:34:40Z</time>
      </trkpt>
      <trkpt lat="46.39923" lon="5.67925">
        <ele>560.9</ele>
        <time>2022-06-09T12:34:46Z</time>
      </trkpt>
      <trkpt lat="46.39927" lon="5.67925">
        <ele>560.6</ele>
        <time>2022-06-09T12:34:51Z</time>
      </trkpt>
      <trkpt lat="46.39932" lon="5.67926">
        <ele>560.9</ele>
        <time>2022-06-09T12:34:58Z</time>
      </trkpt>
      <trkpt lat="46.39937" lon="5.67926">
        <ele>561.1</ele>
        <time>2022-06-09T12:35:03Z</time>
      </trkpt>
      <trkpt lat="46.39942" lon="5.67927">
        <ele>562</ele>
        <time>2022-06-09T12:35:08Z</time>
      </trkpt>
      <trkpt lat="46.39948" lon="5.67929">
        <ele>563</ele>
        <time>2022-06-09T12:35:13Z</time>
      </trkpt>
      <trkpt lat="46.39953" lon="5.67929">
        <ele>563.5</ele>
        <time>2022-06-09T12:35:18Z</time>
      </trkpt>
      <trkpt lat="46.39958" lon="5.6793">
        <ele>564.3</ele>
        <time>2022-06-09T12:35:24Z</time>
      </trkpt>
      <trkpt lat="46.39963" lon="5.6793">
        <ele>564.6</ele>
        <time>2022-06-09T12:35:30Z</time>
      </trkpt>
      <trkpt lat="46.39968" lon="5.6793">
        <ele>565.2</ele>
        <time>2022-06-09T12:35:35Z</time>
      </trkpt>
      <trkpt lat="46.39973" lon="5.67929">
        <ele>566</ele>
        <time>2022-06-09T12:35:40Z</time>
      </trkpt>
      <trkpt lat="46.39978" lon="5.67929">
        <ele>566.9</ele>
        <time>2022-06-09T12:35:44Z</time>
      </trkpt>
      <trkpt lat="46.39983" lon="5.67929">
        <ele>567.8</ele>
        <time>2022-06-09T12:35:48Z</time>
      </trkpt>
      <trkpt lat="46.39989" lon="5.6793">
        <ele>568.6</ele>
        <time>2022-06-09T12:35:54Z</time>
      </trkpt>
      <trkpt lat="46.39993" lon="5.6793">
        <ele>569.3</ele>
        <time>2022-06-09T12:36:00Z</time>
      </trkpt>
      <trkpt lat="46.39999" lon="5.67932">
        <ele>570.6</ele>
        <time>2022-06-09T12:36:07Z</time>
      </trkpt>
      <trkpt lat="46.40004" lon="5.67934">
        <ele>571.1</ele>
        <time>2022-06-09T12:36:12Z</time>
      </trkpt>
      <trkpt lat="46.40009" lon="5.67936">
        <ele>571.2</ele>
        <time>2022-06-09T12:36:16Z</time>
      </trkpt>
      <trkpt lat="46.40014" lon="5.67938">
        <ele>571.7</ele>
        <time>2022-06-09T12:36:19Z</time>
      </trkpt>
      <trkpt lat="46.40018" lon="5.6794">
        <ele>572.3</ele>
        <time>2022-06-09T12:36:24Z</time>
      </trkpt>
      <trkpt lat="46.40022" lon="5.67945">
        <ele>572.9</ele>
        <time>2022-06-09T12:36:30Z</time>
      </trkpt>
      <trkpt lat="46.40027" lon="5.67949">
        <ele>573.5</ele>
        <time>2022-06-09T12:36:35Z</time>
      </trkpt>
      <trkpt lat="46.40031" lon="5.67953">
        <ele>573.4</ele>
        <time>2022-06-09T12:36:40Z</time>
      </trkpt>
      <trkpt lat="46.40035" lon="5.67957">
        <ele>573.1</ele>
        <time>2022-06-09T12:36:45Z</time>
      </trkpt>
      <trkpt lat="46.40039" lon="5.67961">
        <ele>572.5</ele>
        <time>2022-06-09T12:36:50Z</time>
      </trkpt>
      <trkpt lat="46.40044" lon="5.67964">
        <ele>572.2</ele>
        <time>2022-06-09T12:36:54Z</time>
      </trkpt>
      <trkpt lat="46.40048" lon="5.67967">
        <ele>571.5</ele>
        <time>2022-06-09T12:36:58Z</time>
      </trkpt>
      <trkpt lat="46.40052" lon="5.67972">
        <ele>570.7</ele>
        <time>2022-06-09T12:37:03Z</time>
      </trkpt>
      <trkpt lat="46.40056" lon="5.67976">
        <ele>569.9</ele>
        <time>2022-06-09T12:37:09Z</time>
      </trkpt>
      <trkpt lat="46.4006" lon="5.6798">
        <ele>569.1</ele>
        <time>2022-06-09T12:37:14Z</time>
      </trkpt>
      <trkpt lat="46.40063" lon="5.67985">
        <ele>568.8</ele>
        <time>2022-06-09T12:37:19Z</time>
      </trkpt>
      <trkpt lat="46.40068" lon="5.6799">
        <ele>568.6</ele>
        <time>2022-06-09T12:37:25Z</time>
      </trkpt>
      <trkpt lat="46.40072" lon="5.67993">
        <ele>568.6</ele>
        <time>2022-06-09T12:37:29Z</time>
      </trkpt>
      <trkpt lat="46.40076" lon="5.67996">
        <ele>568.3</ele>
        <time>2022-06-09T12:37:33Z</time>
      </trkpt>
      <trkpt lat="46.40081" lon="5.67999">
        <ele>567.5</ele>
        <time>2022-06-09T12:37:38Z</time>
      </trkpt>
      <trkpt lat="46.40085" lon="5.68003">
        <ele>567.3</ele>
        <time>2022-06-09T12:37:43Z</time>
      </trkpt>
      <trkpt lat="46.40089" lon="5.68007">
        <ele>567.8</ele>
        <time>2022-06-09T12:37:49Z</time>
      </trkpt>
      <trkpt lat="46.40094" lon="5.6801">
        <ele>567.8</ele>
        <time>2022-06-09T12:37:54Z</time>
      </trkpt>
      <trkpt lat="46.40098" lon="5.68013">
        <ele>567.8</ele>
        <time>2022-06-09T12:37:59Z</time>
      </trkpt>
      <trkpt lat="46.40103" lon="5.68016">
        <ele>567.7</ele>
        <time>2022-06-09T12:38:05Z</time>
      </trkpt>
      <trkpt lat="46.40107" lon="5.68017">
        <ele>567.9</ele>
        <time>2022-06-09T12:38:11Z</time>
      </trkpt>
      <trkpt lat="46.40112" lon="5.68018">
        <ele>568.4</ele>
        <time>2022-06-09T12:38:21Z</time>
      </trkpt>
      <trkpt lat="46.40117" lon="5.68021">
        <ele>568.6</ele>
        <time>2022-06-09T12:38:27Z</time>
      </trkpt>
      <trkpt lat="46.40121" lon="5.68022">
        <ele>569.4</ele>
        <time>2022-06-09T12:38:35Z</time>
      </trkpt>
      <trkpt lat="46.40126" lon="5.68026">
        <ele>571.7</ele>
        <time>2022-06-09T12:38:58Z</time>
      </trkpt>
      <trkpt lat="46.4013" lon="5.6803">
        <ele>571.4</ele>
        <time>2022-06-09T12:39:14Z</time>
      </trkpt>
      <trkpt lat="46.40135" lon="5.68031">
        <ele>571.6</ele>
        <time>2022-06-09T12:39:17Z</time>
      </trkpt>
      <trkpt lat="46.40133" lon="5.68026">
        <ele>571.7</ele>
        <time>2022-06-09T12:39:29Z</time>
      </trkpt>
      <trkpt lat="46.40128" lon="5.68027">
        <ele>570.4</ele>
        <time>2022-06-09T12:39:35Z</time>
      </trkpt>
      <trkpt lat="46.40124" lon="5.68031">
        <ele>569.1</ele>
        <time>2022-06-09T12:39:41Z</time>
      </trkpt>
      <trkpt lat="46.40119" lon="5.68029">
        <ele>568.3</ele>
        <time>2022-06-09T12:39:59Z</time>
      </trkpt>
      <trkpt lat="46.40123" lon="5.68032">
        <ele>565.6</ele>
        <time>2022-06-09T12:40:16Z</time>
      </trkpt>
      <trkpt lat="46.40129" lon="5.68034">
        <ele>565.8</ele>
        <time>2022-06-09T12:40:23Z</time>
      </trkpt>
      <trkpt lat="46.40133" lon="5.68035">
        <ele>566.2</ele>
        <time>2022-06-09T12:40:26Z</time>
      </trkpt>
      <trkpt lat="46.40138" lon="5.68033">
        <ele>566.5</ele>
        <time>2022-06-09T12:40:30Z</time>
      </trkpt>
      <trkpt lat="46.40143" lon="5.68033">
        <ele>567</ele>
        <time>2022-06-09T12:40:35Z</time>
      </trkpt>
      <trkpt lat="46.40148" lon="5.68034">
        <ele>567.3</ele>
        <time>2022-06-09T12:40:41Z</time>
      </trkpt>
      <trkpt lat="46.40153" lon="5.68036">
        <ele>567.2</ele>
        <time>2022-06-09T12:40:45Z</time>
      </trkpt>
      <trkpt lat="46.40157" lon="5.68038">
        <ele>567.4</ele>
        <time>2022-06-09T12:40:49Z</time>
      </trkpt>
      <trkpt lat="46.40162" lon="5.6804">
        <ele>567.7</ele>
        <time>2022-06-09T12:40:54Z</time>
      </trkpt>
      <trkpt lat="46.40167" lon="5.68041">
        <ele>567.7</ele>
        <time>2022-06-09T12:40:59Z</time>
      </trkpt>
      <trkpt lat="46.40171" lon="5.68039">
        <ele>567.3</ele>
        <time>2022-06-09T12:41:04Z</time>
      </trkpt>
      <trkpt lat="46.40176" lon="5.68037">
        <ele>567</ele>
        <time>2022-06-09T12:41:08Z</time>
      </trkpt>
      <trkpt lat="46.4018" lon="5.68035">
        <ele>566.7</ele>
        <time>2022-06-09T12:41:12Z</time>
      </trkpt>
      <trkpt lat="46.40184" lon="5.68031">
        <ele>566.8</ele>
        <time>2022-06-09T12:41:17Z</time>
      </trkpt>
      <trkpt lat="46.40189" lon="5.68029">
        <ele>566.7</ele>
        <time>2022-06-09T12:41:22Z</time>
      </trkpt>
      <trkpt lat="46.40193" lon="5.68026">
        <ele>566.3</ele>
        <time>2022-06-09T12:41:29Z</time>
      </trkpt>
      <trkpt lat="46.40198" lon="5.68024">
        <ele>566.7</ele>
        <time>2022-06-09T12:41:33Z</time>
      </trkpt>
      <trkpt lat="46.40202" lon="5.68022">
        <ele>568.1</ele>
        <time>2022-06-09T12:41:40Z</time>
      </trkpt>
      <trkpt lat="46.40207" lon="5.6802">
        <ele>568.8</ele>
        <time>2022-06-09T12:41:48Z</time>
      </trkpt>
      <trkpt lat="46.40209" lon="5.68015">
        <ele>567.8</ele>
        <time>2022-06-09T12:41:55Z</time>
      </trkpt>
      <trkpt lat="46.40214" lon="5.68011">
        <ele>566.3</ele>
        <time>2022-06-09T12:42:00Z</time>
      </trkpt>
      <trkpt lat="46.40218" lon="5.68007">
        <ele>564.9</ele>
        <time>2022-06-09T12:42:06Z</time>
      </trkpt>
      <trkpt lat="46.40222" lon="5.68003">
        <ele>564.4</ele>
        <time>2022-06-09T12:42:10Z</time>
      </trkpt>
      <trkpt lat="46.40227" lon="5.68">
        <ele>564.6</ele>
        <time>2022-06-09T12:42:17Z</time>
      </trkpt>
      <trkpt lat="46.40232" lon="5.68003">
        <ele>565.7</ele>
        <time>2022-06-09T12:42:26Z</time>
      </trkpt>
      <trkpt lat="46.40237" lon="5.68009">
        <ele>567.3</ele>
        <time>2022-06-09T12:42:34Z</time>
      </trkpt>
      <trkpt lat="46.40242" lon="5.68012">
        <ele>567.7</ele>
        <time>2022-06-09T12:42:37Z</time>
      </trkpt>
      <trkpt lat="46.40246" lon="5.68017">
        <ele>568.2</ele>
        <time>2022-06-09T12:42:42Z</time>
      </trkpt>
      <trkpt lat="46.40249" lon="5.68023">
        <ele>567.7</ele>
        <time>2022-06-09T12:42:46Z</time>
      </trkpt>
      <trkpt lat="46.40254" lon="5.68026">
        <ele>567</ele>
        <time>2022-06-09T12:42:50Z</time>
      </trkpt>
      <trkpt lat="46.40259" lon="5.68029">
        <ele>565.9</ele>
        <time>2022-06-09T12:42:54Z</time>
      </trkpt>
      <trkpt lat="46.40263" lon="5.68033">
        <ele>565.1</ele>
        <time>2022-06-09T12:42:58Z</time>
      </trkpt>
      <trkpt lat="46.40267" lon="5.68036">
        <ele>564.7</ele>
        <time>2022-06-09T12:43:01Z</time>
      </trkpt>
      <trkpt lat="46.40269" lon="5.68042">
        <ele>564.5</ele>
        <time>2022-06-09T12:43:06Z</time>
      </trkpt>
      <trkpt lat="46.4027" lon="5.68049">
        <ele>563.2</ele>
        <time>2022-06-09T12:43:12Z</time>
      </trkpt>
      <trkpt lat="46.40271" lon="5.68055">
        <ele>562.5</ele>
        <time>2022-06-09T12:43:18Z</time>
      </trkpt>
      <trkpt lat="46.40272" lon="5.68062">
        <ele>561.7</ele>
        <time>2022-06-09T12:43:23Z</time>
      </trkpt>
      <trkpt lat="46.40272" lon="5.68069">
        <ele>560.8</ele>
        <time>2022-06-09T12:43:28Z</time>
      </trkpt>
      <trkpt lat="46.40273" lon="5.68076">
        <ele>560.7</ele>
        <time>2022-06-09T12:43:32Z</time>
      </trkpt>
      <trkpt lat="46.40276" lon="5.68081">
        <ele>560.5</ele>
        <time>2022-06-09T12:43:38Z</time>
      </trkpt>
      <trkpt lat="46.40281" lon="5.68084">
        <ele>560</ele>
        <time>2022-06-09T12:43:44Z</time>
      </trkpt>
      <trkpt lat="46.40284" lon="5.68088">
        <ele>559.7</ele>
        <time>2022-06-09T12:43:49Z</time>
      </trkpt>
      <trkpt lat="46.40284" lon="5.68095">
        <ele>560.1</ele>
        <time>2022-06-09T12:43:54Z</time>
      </trkpt>
      <trkpt lat="46.40281" lon="5.681">
        <ele>560.3</ele>
        <time>2022-06-09T12:43:59Z</time>
      </trkpt>
      <trkpt lat="46.40283" lon="5.68107">
        <ele>559.8</ele>
        <time>2022-06-09T12:44:07Z</time>
      </trkpt>
      <trkpt lat="46.40287" lon="5.6811">
        <ele>559.1</ele>
        <time>2022-06-09T12:44:10Z</time>
      </trkpt>
      <trkpt lat="46.40291" lon="5.68114">
        <ele>558.2</ele>
        <time>2022-06-09T12:44:13Z</time>
      </trkpt>
      <trkpt lat="46.40296" lon="5.68117">
        <ele>557.2</ele>
        <time>2022-06-09T12:44:16Z</time>
      </trkpt>
      <trkpt lat="46.403" lon="5.68121">
        <ele>556.2</ele>
        <time>2022-06-09T12:44:20Z</time>
      </trkpt>
      <trkpt lat="46.40304" lon="5.68126">
        <ele>555.8</ele>
        <time>2022-06-09T12:44:24Z</time>
      </trkpt>
      <trkpt lat="46.40308" lon="5.68129">
        <ele>555.6</ele>
        <time>2022-06-09T12:44:29Z</time>
      </trkpt>
      <trkpt lat="46.40312" lon="5.68133">
        <ele>555</ele>
        <time>2022-06-09T12:44:40Z</time>
      </trkpt>
      <trkpt lat="46.40316" lon="5.68137">
        <ele>554.7</ele>
        <time>2022-06-09T12:44:46Z</time>
      </trkpt>
      <trkpt lat="46.4032" lon="5.68141">
        <ele>554.4</ele>
        <time>2022-06-09T12:44:50Z</time>
      </trkpt>
      <trkpt lat="46.40325" lon="5.6814">
        <ele>553.2</ele>
        <time>2022-06-09T12:45:01Z</time>
      </trkpt>
      <trkpt lat="46.4033" lon="5.68142">
        <ele>550.8</ele>
        <time>2022-06-09T12:45:08Z</time>
      </trkpt>
      <trkpt lat="46.40334" lon="5.68142">
        <ele>548</ele>
        <time>2022-06-09T12:45:14Z</time>
      </trkpt>
      <trkpt lat="46.40338" lon="5.68137">
        <ele>546.7</ele>
        <time>2022-06-09T12:45:19Z</time>
      </trkpt>
      <trkpt lat="46.4034" lon="5.68131">
        <ele>546.2</ele>
        <time>2022-06-09T12:45:22Z</time>
      </trkpt>
      <trkpt lat="46.40343" lon="5.68125">
        <ele>545.5</ele>
        <time>2022-06-09T12:45:26Z</time>
      </trkpt>
      <trkpt lat="46.40347" lon="5.68119">
        <ele>544.2</ele>
        <time>2022-06-09T12:45:30Z</time>
      </trkpt>
      <trkpt lat="46.40352" lon="5.68114">
        <ele>543.2</ele>
        <time>2022-06-09T12:45:34Z</time>
      </trkpt>
      <trkpt lat="46.40356" lon="5.68112">
        <ele>542.6</ele>
        <time>2022-06-09T12:45:38Z</time>
      </trkpt>
      <trkpt lat="46.40361" lon="5.6811">
        <ele>542.2</ele>
        <time>2022-06-09T12:45:44Z</time>
      </trkpt>
      <trkpt lat="46.40367" lon="5.6811">
        <ele>542.2</ele>
        <time>2022-06-09T12:45:48Z</time>
      </trkpt>
      <trkpt lat="46.40372" lon="5.68106">
        <ele>542.5</ele>
        <time>2022-06-09T12:45:53Z</time>
      </trkpt>
      <trkpt lat="46.40376" lon="5.68107">
        <ele>542.3</ele>
        <time>2022-06-09T12:46:01Z</time>
      </trkpt>
      <trkpt lat="46.40379" lon="5.68113">
        <ele>542.3</ele>
        <time>2022-06-09T12:46:09Z</time>
      </trkpt>
      <trkpt lat="46.40382" lon="5.68119">
        <ele>541.9</ele>
        <time>2022-06-09T12:46:15Z</time>
      </trkpt>
      <trkpt lat="46.40386" lon="5.68124">
        <ele>541.8</ele>
        <time>2022-06-09T12:46:18Z</time>
      </trkpt>
      <trkpt lat="46.40389" lon="5.6813">
        <ele>541.7</ele>
        <time>2022-06-09T12:46:22Z</time>
      </trkpt>
      <trkpt lat="46.40393" lon="5.68136">
        <ele>541.8</ele>
        <time>2022-06-09T12:46:27Z</time>
      </trkpt>
      <trkpt lat="46.40396" lon="5.68142">
        <ele>542.2</ele>
        <time>2022-06-09T12:46:31Z</time>
      </trkpt>
      <trkpt lat="46.40397" lon="5.68149">
        <ele>542.9</ele>
        <time>2022-06-09T12:46:37Z</time>
      </trkpt>
      <trkpt lat="46.40399" lon="5.68155">
        <ele>543.7</ele>
        <time>2022-06-09T12:46:43Z</time>
      </trkpt>
      <trkpt lat="46.40402" lon="5.6816">
        <ele>545</ele>
        <time>2022-06-09T12:46:50Z</time>
      </trkpt>
      <trkpt lat="46.40405" lon="5.68165">
        <ele>546.1</ele>
        <time>2022-06-09T12:46:56Z</time>
      </trkpt>
      <trkpt lat="46.40407" lon="5.68172">
        <ele>546.8</ele>
        <time>2022-06-09T12:47:00Z</time>
      </trkpt>
      <trkpt lat="46.40408" lon="5.68179">
        <ele>547.6</ele>
        <time>2022-06-09T12:47:04Z</time>
      </trkpt>
      <trkpt lat="46.40409" lon="5.68186">
        <ele>548.6</ele>
        <time>2022-06-09T12:47:09Z</time>
      </trkpt>
      <trkpt lat="46.40412" lon="5.68191">
        <ele>549.5</ele>
        <time>2022-06-09T12:47:14Z</time>
      </trkpt>
      <trkpt lat="46.40414" lon="5.68199">
        <ele>550.4</ele>
        <time>2022-06-09T12:47:19Z</time>
      </trkpt>
      <trkpt lat="46.40413" lon="5.68206">
        <ele>551.1</ele>
        <time>2022-06-09T12:47:22Z</time>
      </trkpt>
      <trkpt lat="46.40412" lon="5.68214">
        <ele>552.4</ele>
        <time>2022-06-09T12:47:26Z</time>
      </trkpt>
      <trkpt lat="46.40413" lon="5.68221">
        <ele>555.6</ele>
        <time>2022-06-09T12:47:32Z</time>
      </trkpt>
      <trkpt lat="46.40416" lon="5.68227">
        <ele>558.7</ele>
        <time>2022-06-09T12:47:37Z</time>
      </trkpt>
      <trkpt lat="46.40415" lon="5.68235">
        <ele>561.6</ele>
        <time>2022-06-09T12:47:42Z</time>
      </trkpt>
      <trkpt lat="46.40414" lon="5.68242">
        <ele>564</ele>
        <time>2022-06-09T12:47:47Z</time>
      </trkpt>
      <trkpt lat="46.40417" lon="5.68247">
        <ele>565.8</ele>
        <time>2022-06-09T12:47:55Z</time>
      </trkpt>
      <trkpt lat="46.40422" lon="5.68251">
        <ele>566.2</ele>
        <time>2022-06-09T12:48:01Z</time>
      </trkpt>
      <trkpt lat="46.40426" lon="5.68253">
        <ele>567.3</ele>
        <time>2022-06-09T12:48:08Z</time>
      </trkpt>
      <trkpt lat="46.40431" lon="5.68252">
        <ele>567.2</ele>
        <time>2022-06-09T12:48:11Z</time>
      </trkpt>
      <trkpt lat="46.40436" lon="5.68253">
        <ele>566.9</ele>
        <time>2022-06-09T12:48:14Z</time>
      </trkpt>
      <trkpt lat="46.40441" lon="5.68251">
        <ele>565.9</ele>
        <time>2022-06-09T12:48:18Z</time>
      </trkpt>
      <trkpt lat="46.40442" lon="5.68245">
        <ele>564</ele>
        <time>2022-06-09T12:48:24Z</time>
      </trkpt>
      <trkpt lat="46.40443" lon="5.68239">
        <ele>563</ele>
        <time>2022-06-09T12:48:29Z</time>
      </trkpt>
      <trkpt lat="46.40446" lon="5.68233">
        <ele>561.7</ele>
        <time>2022-06-09T12:48:39Z</time>
      </trkpt>
      <trkpt lat="46.4045" lon="5.68229">
        <ele>561.8</ele>
        <time>2022-06-09T12:48:45Z</time>
      </trkpt>
      <trkpt lat="46.40454" lon="5.68225">
        <ele>562.2</ele>
        <time>2022-06-09T12:48:49Z</time>
      </trkpt>
      <trkpt lat="46.40459" lon="5.6822">
        <ele>562.9</ele>
        <time>2022-06-09T12:48:53Z</time>
      </trkpt>
      <trkpt lat="46.40462" lon="5.68213">
        <ele>563.4</ele>
        <time>2022-06-09T12:48:58Z</time>
      </trkpt>
      <trkpt lat="46.40463" lon="5.68207">
        <ele>564.1</ele>
        <time>2022-06-09T12:49:03Z</time>
      </trkpt>
      <trkpt lat="46.40464" lon="5.682">
        <ele>564.5</ele>
        <time>2022-06-09T12:49:08Z</time>
      </trkpt>
      <trkpt lat="46.40469" lon="5.68196">
        <ele>565.3</ele>
        <time>2022-06-09T12:49:15Z</time>
      </trkpt>
      <trkpt lat="46.40473" lon="5.68193">
        <ele>566</ele>
        <time>2022-06-09T12:49:19Z</time>
      </trkpt>
      <trkpt lat="46.40477" lon="5.68188">
        <ele>567.1</ele>
        <time>2022-06-09T12:49:25Z</time>
      </trkpt>
      <trkpt lat="46.40478" lon="5.68181">
        <ele>566.4</ele>
        <time>2022-06-09T12:49:46Z</time>
      </trkpt>
      <trkpt lat="46.4048" lon="5.68173">
        <ele>565.7</ele>
        <time>2022-06-09T12:49:50Z</time>
      </trkpt>
      <trkpt lat="46.40483" lon="5.68168">
        <ele>565</ele>
        <time>2022-06-09T12:49:55Z</time>
      </trkpt>
      <trkpt lat="46.40488" lon="5.6817">
        <ele>564.8</ele>
        <time>2022-06-09T12:49:58Z</time>
      </trkpt>
      <trkpt lat="46.40496" lon="5.68171">
        <ele>564.5</ele>
        <time>2022-06-09T12:50:01Z</time>
      </trkpt>
      <trkpt lat="46.40501" lon="5.68173">
        <ele>564.3</ele>
        <time>2022-06-09T12:50:04Z</time>
      </trkpt>
      <trkpt lat="46.40506" lon="5.68174">
        <ele>564</ele>
        <time>2022-06-09T12:50:07Z</time>
      </trkpt>
      <trkpt lat="46.40509" lon="5.68179">
        <ele>561.4</ele>
        <time>2022-06-09T12:50:16Z</time>
      </trkpt>
      <trkpt lat="46.40512" lon="5.68185">
        <ele>560.5</ele>
        <time>2022-06-09T12:50:19Z</time>
      </trkpt>
      <trkpt lat="46.40517" lon="5.68187">
        <ele>558.4</ele>
        <time>2022-06-09T12:50:24Z</time>
      </trkpt>
      <trkpt lat="46.40521" lon="5.68192">
        <ele>556.6</ele>
        <time>2022-06-09T12:50:30Z</time>
      </trkpt>
      <trkpt lat="46.40524" lon="5.68198">
        <ele>555.5</ele>
        <time>2022-06-09T12:50:35Z</time>
      </trkpt>
      <trkpt lat="46.40522" lon="5.68204">
        <ele>554.2</ele>
        <time>2022-06-09T12:50:41Z</time>
      </trkpt>
      <trkpt lat="46.40521" lon="5.68211">
        <ele>553.8</ele>
        <time>2022-06-09T12:50:48Z</time>
      </trkpt>
      <trkpt lat="46.40517" lon="5.68215">
        <ele>553.8</ele>
        <time>2022-06-09T12:50:54Z</time>
      </trkpt>
      <trkpt lat="46.40512" lon="5.68216">
        <ele>553.9</ele>
        <time>2022-06-09T12:50:58Z</time>
      </trkpt>
      <trkpt lat="46.40509" lon="5.68221">
        <ele>554.5</ele>
        <time>2022-06-09T12:51:03Z</time>
      </trkpt>
      <trkpt lat="46.40504" lon="5.68223">
        <ele>555.5</ele>
        <time>2022-06-09T12:51:09Z</time>
      </trkpt>
      <trkpt lat="46.405" lon="5.68227">
        <ele>556.5</ele>
        <time>2022-06-09T12:51:16Z</time>
      </trkpt>
      <trkpt lat="46.40497" lon="5.68234">
        <ele>556.9</ele>
        <time>2022-06-09T12:51:22Z</time>
      </trkpt>
      <trkpt lat="46.40497" lon="5.6824">
        <ele>558.5</ele>
        <time>2022-06-09T12:51:31Z</time>
      </trkpt>
      <trkpt lat="46.40491" lon="5.68242">
        <ele>559.8</ele>
        <time>2022-06-09T12:51:34Z</time>
      </trkpt>
      <trkpt lat="46.40488" lon="5.68247">
        <ele>561.3</ele>
        <time>2022-06-09T12:51:40Z</time>
      </trkpt>
      <trkpt lat="46.40485" lon="5.68252">
        <ele>562</ele>
        <time>2022-06-09T12:51:46Z</time>
      </trkpt>
      <trkpt lat="46.40483" lon="5.68258">
        <ele>562</ele>
        <time>2022-06-09T12:51:53Z</time>
      </trkpt>
      <trkpt lat="46.40479" lon="5.68261">
        <ele>561.7</ele>
        <time>2022-06-09T12:51:58Z</time>
      </trkpt>
      <trkpt lat="46.40474" lon="5.68263">
        <ele>561.5</ele>
        <time>2022-06-09T12:52:02Z</time>
      </trkpt>
      <trkpt lat="46.4047" lon="5.68267">
        <ele>561.6</ele>
        <time>2022-06-09T12:52:08Z</time>
      </trkpt>
      <trkpt lat="46.40467" lon="5.68272">
        <ele>561.8</ele>
        <time>2022-06-09T12:52:14Z</time>
      </trkpt>
      <trkpt lat="46.40466" lon="5.68279">
        <ele>561.5</ele>
        <time>2022-06-09T12:52:20Z</time>
      </trkpt>
      <trkpt lat="46.40464" lon="5.68285">
        <ele>562.5</ele>
        <time>2022-06-09T12:52:25Z</time>
      </trkpt>
      <trkpt lat="46.40461" lon="5.68289">
        <ele>566.1</ele>
        <time>2022-06-09T12:52:35Z</time>
      </trkpt>
      <trkpt lat="46.40459" lon="5.68296">
        <ele>568.3</ele>
        <time>2022-06-09T12:52:41Z</time>
      </trkpt>
      <trkpt lat="46.40455" lon="5.683">
        <ele>568.4</ele>
        <time>2022-06-09T12:52:46Z</time>
      </trkpt>
      <trkpt lat="46.40458" lon="5.68307">
        <ele>568</ele>
        <time>2022-06-09T12:52:51Z</time>
      </trkpt>
      <trkpt lat="46.40454" lon="5.68313">
        <ele>568.9</ele>
        <time>2022-06-09T12:52:57Z</time>
      </trkpt>
      <trkpt lat="46.40449" lon="5.68315">
        <ele>569.6</ele>
        <time>2022-06-09T12:53:01Z</time>
      </trkpt>
      <trkpt lat="46.40444" lon="5.68316">
        <ele>570.2</ele>
        <time>2022-06-09T12:53:06Z</time>
      </trkpt>
      <trkpt lat="46.40441" lon="5.68321">
        <ele>570.3</ele>
        <time>2022-06-09T12:53:13Z</time>
      </trkpt>
      <trkpt lat="46.40438" lon="5.68326">
        <ele>570.2</ele>
        <time>2022-06-09T12:53:18Z</time>
      </trkpt>
      <trkpt lat="46.40435" lon="5.68332">
        <ele>570.2</ele>
        <time>2022-06-09T12:53:22Z</time>
      </trkpt>
      <trkpt lat="46.40432" lon="5.68337">
        <ele>570.8</ele>
        <time>2022-06-09T12:53:26Z</time>
      </trkpt>
      <trkpt lat="46.40428" lon="5.68342">
        <ele>571.2</ele>
        <time>2022-06-09T12:53:30Z</time>
      </trkpt>
      <trkpt lat="46.40427" lon="5.68348">
        <ele>571.9</ele>
        <time>2022-06-09T12:53:34Z</time>
      </trkpt>
      <trkpt lat="46.40422" lon="5.68351">
        <ele>572.4</ele>
        <time>2022-06-09T12:53:42Z</time>
      </trkpt>
      <trkpt lat="46.40417" lon="5.68351">
        <ele>571.9</ele>
        <time>2022-06-09T12:53:45Z</time>
      </trkpt>
      <trkpt lat="46.40412" lon="5.68354">
        <ele>571.7</ele>
        <time>2022-06-09T12:53:48Z</time>
      </trkpt>
      <trkpt lat="46.40408" lon="5.68357">
        <ele>571.7</ele>
        <time>2022-06-09T12:53:51Z</time>
      </trkpt>
      <trkpt lat="46.40406" lon="5.68363">
        <ele>571.4</ele>
        <time>2022-06-09T12:53:57Z</time>
      </trkpt>
      <trkpt lat="46.40404" lon="5.6837">
        <ele>571.7</ele>
        <time>2022-06-09T12:54:03Z</time>
      </trkpt>
      <trkpt lat="46.40402" lon="5.68376">
        <ele>572.5</ele>
        <time>2022-06-09T12:54:07Z</time>
      </trkpt>
      <trkpt lat="46.40397" lon="5.68378">
        <ele>573</ele>
        <time>2022-06-09T12:54:16Z</time>
      </trkpt>
      <trkpt lat="46.40392" lon="5.68378">
        <ele>572.8</ele>
        <time>2022-06-09T12:54:19Z</time>
      </trkpt>
      <trkpt lat="46.40387" lon="5.68378">
        <ele>572.5</ele>
        <time>2022-06-09T12:54:22Z</time>
      </trkpt>
      <trkpt lat="46.40382" lon="5.6838">
        <ele>572.5</ele>
        <time>2022-06-09T12:54:25Z</time>
      </trkpt>
      <trkpt lat="46.40377" lon="5.68381">
        <ele>572.1</ele>
        <time>2022-06-09T12:54:32Z</time>
      </trkpt>
      <trkpt lat="46.40373" lon="5.68379">
        <ele>571.4</ele>
        <time>2022-06-09T12:54:37Z</time>
      </trkpt>
      <trkpt lat="46.40367" lon="5.68379">
        <ele>571.2</ele>
        <time>2022-06-09T12:54:40Z</time>
      </trkpt>
      <trkpt lat="46.40363" lon="5.6838">
        <ele>571.8</ele>
        <time>2022-06-09T12:54:43Z</time>
      </trkpt>
      <trkpt lat="46.40358" lon="5.68381">
        <ele>573.1</ele>
        <time>2022-06-09T12:54:49Z</time>
      </trkpt>
      <trkpt lat="46.40354" lon="5.68385">
        <ele>574.9</ele>
        <time>2022-06-09T12:55:00Z</time>
      </trkpt>
      <trkpt lat="46.40357" lon="5.68379">
        <ele>575.4</ele>
        <time>2022-06-09T12:55:08Z</time>
      </trkpt>
      <trkpt lat="46.4036" lon="5.68374">
        <ele>577.6</ele>
        <time>2022-06-09T12:55:22Z</time>
      </trkpt>
      <trkpt lat="46.4036" lon="5.6838">
        <ele>578.1</ele>
        <time>2022-06-09T12:55:35Z</time>
      </trkpt>
      <trkpt lat="46.40363" lon="5.68376">
        <ele>581.8</ele>
        <time>2022-06-09T12:56:45Z</time>
      </trkpt>
      <trkpt lat="46.40367" lon="5.68381">
        <ele>581.4</ele>
        <time>2022-06-09T12:57:12Z</time>
      </trkpt>
      <trkpt lat="46.40362" lon="5.68379">
        <ele>581.5</ele>
        <time>2022-06-09T12:57:28Z</time>
      </trkpt>
      <trkpt lat="46.40358" lon="5.68384">
        <ele>582.8</ele>
        <time>2022-06-09T12:57:36Z</time>
      </trkpt>
      <trkpt lat="46.40354" lon="5.68387">
        <ele>582.4</ele>
        <time>2022-06-09T12:57:51Z</time>
      </trkpt>
      <trkpt lat="46.4035" lon="5.6839">
        <ele>583.2</ele>
        <time>2022-06-09T12:58:00Z</time>
      </trkpt>
      <trkpt lat="46.40349" lon="5.68397">
        <ele>585.5</ele>
        <time>2022-06-09T12:58:09Z</time>
      </trkpt>
      <trkpt lat="46.40348" lon="5.68403">
        <ele>586.3</ele>
        <time>2022-06-09T12:58:17Z</time>
      </trkpt>
      <trkpt lat="46.40345" lon="5.68409">
        <ele>587.1</ele>
        <time>2022-06-09T12:58:32Z</time>
      </trkpt>
      <trkpt lat="46.4034" lon="5.68411">
        <ele>587.2</ele>
        <time>2022-06-09T12:58:38Z</time>
      </trkpt>
      <trkpt lat="46.40344" lon="5.68415">
        <ele>586.1</ele>
        <time>2022-06-09T12:58:59Z</time>
      </trkpt>
      <trkpt lat="46.40344" lon="5.68423">
        <ele>586.3</ele>
        <time>2022-06-09T12:59:08Z</time>
      </trkpt>
      <trkpt lat="46.40344" lon="5.6843">
        <ele>587.2</ele>
        <time>2022-06-09T12:59:13Z</time>
      </trkpt>
      <trkpt lat="46.40345" lon="5.68436">
        <ele>590</ele>
        <time>2022-06-09T12:59:24Z</time>
      </trkpt>
      <trkpt lat="46.4034" lon="5.68437">
        <ele>591.3</ele>
        <time>2022-06-09T12:59:34Z</time>
      </trkpt>
      <trkpt lat="46.40335" lon="5.68439">
        <ele>590.8</ele>
        <time>2022-06-09T12:59:38Z</time>
      </trkpt>
      <trkpt lat="46.40332" lon="5.68446">
        <ele>590.5</ele>
        <time>2022-06-09T12:59:44Z</time>
      </trkpt>
      <trkpt lat="46.40332" lon="5.68452">
        <ele>590.5</ele>
        <time>2022-06-09T12:59:51Z</time>
      </trkpt>
      <trkpt lat="46.40328" lon="5.68458">
        <ele>590.7</ele>
        <time>2022-06-09T12:59:58Z</time>
      </trkpt>
      <trkpt lat="46.40326" lon="5.68464">
        <ele>591.8</ele>
        <time>2022-06-09T13:00:09Z</time>
      </trkpt>
      <trkpt lat="46.4033" lon="5.68469">
        <ele>592.3</ele>
        <time>2022-06-09T13:00:19Z</time>
      </trkpt>
      <trkpt lat="46.40326" lon="5.68473">
        <ele>595.6</ele>
        <time>2022-06-09T13:00:30Z</time>
      </trkpt>
      <trkpt lat="46.40326" lon="5.6848">
        <ele>600.9</ele>
        <time>2022-06-09T13:00:38Z</time>
      </trkpt>
      <trkpt lat="46.40321" lon="5.6848">
        <ele>609</ele>
        <time>2022-06-09T13:01:02Z</time>
      </trkpt>
      <trkpt lat="46.4032" lon="5.68487">
        <ele>607.3</ele>
        <time>2022-06-09T13:01:19Z</time>
      </trkpt>
      <trkpt lat="46.40323" lon="5.68493">
        <ele>607.5</ele>
        <time>2022-06-09T13:01:25Z</time>
      </trkpt>
      <trkpt lat="46.40323" lon="5.68499">
        <ele>607.8</ele>
        <time>2022-06-09T13:01:33Z</time>
      </trkpt>
      <trkpt lat="46.40321" lon="5.68505">
        <ele>607.8</ele>
        <time>2022-06-09T13:01:42Z</time>
      </trkpt>
      <trkpt lat="46.40316" lon="5.68508">
        <ele>607.9</ele>
        <time>2022-06-09T13:01:48Z</time>
      </trkpt>
      <trkpt lat="46.4031" lon="5.68508">
        <ele>607.6</ele>
        <time>2022-06-09T13:01:52Z</time>
      </trkpt>
      <trkpt lat="46.40306" lon="5.68509">
        <ele>607</ele>
        <time>2022-06-09T13:01:57Z</time>
      </trkpt>
      <trkpt lat="46.40302" lon="5.68513">
        <ele>607.2</ele>
        <time>2022-06-09T13:02:06Z</time>
      </trkpt>
      <trkpt lat="46.40297" lon="5.68516">
        <ele>607.5</ele>
        <time>2022-06-09T13:02:12Z</time>
      </trkpt>
      <trkpt lat="46.40295" lon="5.68522">
        <ele>609.1</ele>
        <time>2022-06-09T13:02:30Z</time>
      </trkpt>
      <trkpt lat="46.4029" lon="5.68524">
        <ele>609.7</ele>
        <time>2022-06-09T13:02:38Z</time>
      </trkpt>
      <trkpt lat="46.40286" lon="5.68528">
        <ele>610.3</ele>
        <time>2022-06-09T13:02:45Z</time>
      </trkpt>
      <trkpt lat="46.40282" lon="5.68533">
        <ele>611.2</ele>
        <time>2022-06-09T13:02:54Z</time>
      </trkpt>
      <trkpt lat="46.40279" lon="5.68538">
        <ele>611.1</ele>
        <time>2022-06-09T13:03:02Z</time>
      </trkpt>
      <trkpt lat="46.40274" lon="5.68541">
        <ele>611.1</ele>
        <time>2022-06-09T13:03:11Z</time>
      </trkpt>
      <trkpt lat="46.40269" lon="5.68539">
        <ele>611.7</ele>
        <time>2022-06-09T13:03:17Z</time>
      </trkpt>
      <trkpt lat="46.40264" lon="5.68538">
        <ele>612.3</ele>
        <time>2022-06-09T13:03:22Z</time>
      </trkpt>
      <trkpt lat="46.40263" lon="5.68545">
        <ele>613.8</ele>
        <time>2022-06-09T13:03:30Z</time>
      </trkpt>
      <trkpt lat="46.40259" lon="5.68548">
        <ele>614.7</ele>
        <time>2022-06-09T13:03:37Z</time>
      </trkpt>
      <trkpt lat="46.40257" lon="5.68554">
        <ele>615.5</ele>
        <time>2022-06-09T13:03:44Z</time>
      </trkpt>
      <trkpt lat="46.40252" lon="5.68557">
        <ele>615.8</ele>
        <time>2022-06-09T13:03:51Z</time>
      </trkpt>
      <trkpt lat="46.40249" lon="5.68563">
        <ele>616.2</ele>
        <time>2022-06-09T13:03:57Z</time>
      </trkpt>
      <trkpt lat="46.40245" lon="5.68568">
        <ele>616.4</ele>
        <time>2022-06-09T13:04:01Z</time>
      </trkpt>
      <trkpt lat="46.4024" lon="5.68572">
        <ele>616.2</ele>
        <time>2022-06-09T13:04:06Z</time>
      </trkpt>
      <trkpt lat="46.40236" lon="5.68574">
        <ele>616.3</ele>
        <time>2022-06-09T13:04:12Z</time>
      </trkpt>
      <trkpt lat="46.40231" lon="5.68576">
        <ele>616.8</ele>
        <time>2022-06-09T13:04:19Z</time>
      </trkpt>
      <trkpt lat="46.40226" lon="5.68574">
        <ele>619.6</ele>
        <time>2022-06-09T13:04:34Z</time>
      </trkpt>
      <trkpt lat="46.40222" lon="5.68577">
        <ele>620.9</ele>
        <time>2022-06-09T13:04:43Z</time>
      </trkpt>
      <trkpt lat="46.40219" lon="5.68584">
        <ele>621.7</ele>
        <time>2022-06-09T13:04:48Z</time>
      </trkpt>
      <trkpt lat="46.40215" lon="5.68588">
        <ele>622.4</ele>
        <time>2022-06-09T13:04:53Z</time>
      </trkpt>
      <trkpt lat="46.40211" lon="5.68592">
        <ele>623.5</ele>
        <time>2022-06-09T13:05:02Z</time>
      </trkpt>
      <trkpt lat="46.40209" lon="5.68598">
        <ele>625.2</ele>
        <time>2022-06-09T13:05:08Z</time>
      </trkpt>
      <trkpt lat="46.40206" lon="5.68604">
        <ele>628.1</ele>
        <time>2022-06-09T13:05:16Z</time>
      </trkpt>
      <trkpt lat="46.40202" lon="5.68606">
        <ele>634</ele>
        <time>2022-06-09T13:06:19Z</time>
      </trkpt>
      <trkpt lat="46.40206" lon="5.68603">
        <ele>631.3</ele>
        <time>2022-06-09T13:07:15Z</time>
      </trkpt>
      <trkpt lat="46.40205" lon="5.6861">
        <ele>629.7</ele>
        <time>2022-06-09T13:07:31Z</time>
      </trkpt>
      <trkpt lat="46.4021" lon="5.68613">
        <ele>631.4</ele>
        <time>2022-06-09T13:08:09Z</time>
      </trkpt>
      <trkpt lat="46.40214" lon="5.68613">
        <ele>631.6</ele>
        <time>2022-06-09T13:08:13Z</time>
      </trkpt>
      <trkpt lat="46.40219" lon="5.68613">
        <ele>631.5</ele>
        <time>2022-06-09T13:08:17Z</time>
      </trkpt>
      <trkpt lat="46.40224" lon="5.68617">
        <ele>630.9</ele>
        <time>2022-06-09T13:08:24Z</time>
      </trkpt>
      <trkpt lat="46.40228" lon="5.68622">
        <ele>630.7</ele>
        <time>2022-06-09T13:08:27Z</time>
      </trkpt>
      <trkpt lat="46.40232" lon="5.68626">
        <ele>630.6</ele>
        <time>2022-06-09T13:08:31Z</time>
      </trkpt>
      <trkpt lat="46.40238" lon="5.68628">
        <ele>630.2</ele>
        <time>2022-06-09T13:08:36Z</time>
      </trkpt>
      <trkpt lat="46.40243" lon="5.6863">
        <ele>629.8</ele>
        <time>2022-06-09T13:08:40Z</time>
      </trkpt>
      <trkpt lat="46.40248" lon="5.68632">
        <ele>630</ele>
        <time>2022-06-09T13:08:43Z</time>
      </trkpt>
      <trkpt lat="46.40252" lon="5.68637">
        <ele>630.9</ele>
        <time>2022-06-09T13:08:48Z</time>
      </trkpt>
      <trkpt lat="46.40257" lon="5.6864">
        <ele>631.4</ele>
        <time>2022-06-09T13:08:54Z</time>
      </trkpt>
      <trkpt lat="46.40262" lon="5.68643">
        <ele>632.2</ele>
        <time>2022-06-09T13:08:59Z</time>
      </trkpt>
      <trkpt lat="46.40266" lon="5.68648">
        <ele>632.8</ele>
        <time>2022-06-09T13:09:04Z</time>
      </trkpt>
      <trkpt lat="46.40269" lon="5.68653">
        <ele>632.7</ele>
        <time>2022-06-09T13:09:11Z</time>
      </trkpt>
      <trkpt lat="46.40273" lon="5.68657">
        <ele>632.3</ele>
        <time>2022-06-09T13:09:16Z</time>
      </trkpt>
      <trkpt lat="46.40278" lon="5.6866">
        <ele>632</ele>
        <time>2022-06-09T13:09:20Z</time>
      </trkpt>
      <trkpt lat="46.40282" lon="5.68663">
        <ele>631.6</ele>
        <time>2022-06-09T13:09:25Z</time>
      </trkpt>
      <trkpt lat="46.40286" lon="5.68667">
        <ele>631.6</ele>
        <time>2022-06-09T13:09:30Z</time>
      </trkpt>
      <trkpt lat="46.4029" lon="5.6867">
        <ele>631.4</ele>
        <time>2022-06-09T13:09:34Z</time>
      </trkpt>
      <trkpt lat="46.40295" lon="5.68674">
        <ele>631.8</ele>
        <time>2022-06-09T13:09:38Z</time>
      </trkpt>
      <trkpt lat="46.40299" lon="5.68678">
        <ele>632.3</ele>
        <time>2022-06-09T13:09:41Z</time>
      </trkpt>
      <trkpt lat="46.40303" lon="5.68682">
        <ele>633.6</ele>
        <time>2022-06-09T13:09:46Z</time>
      </trkpt>
      <trkpt lat="46.40308" lon="5.68685">
        <ele>634.3</ele>
        <time>2022-06-09T13:09:53Z</time>
      </trkpt>
      <trkpt lat="46.40312" lon="5.6869">
        <ele>634.4</ele>
        <time>2022-06-09T13:09:58Z</time>
      </trkpt>
      <trkpt lat="46.40314" lon="5.68696">
        <ele>635.7</ele>
        <time>2022-06-09T13:10:30Z</time>
      </trkpt>
      <trkpt lat="46.40316" lon="5.68703">
        <ele>635.7</ele>
        <time>2022-06-09T13:10:37Z</time>
      </trkpt>
      <trkpt lat="46.40314" lon="5.6871">
        <ele>636</ele>
        <time>2022-06-09T13:10:42Z</time>
      </trkpt>
      <trkpt lat="46.40313" lon="5.68718">
        <ele>637.3</ele>
        <time>2022-06-09T13:10:49Z</time>
      </trkpt>
      <trkpt lat="46.40314" lon="5.68711">
        <ele>639</ele>
        <time>2022-06-09T13:11:30Z</time>
      </trkpt>
      <trkpt lat="46.40319" lon="5.68709">
        <ele>638.1</ele>
        <time>2022-06-09T13:11:37Z</time>
      </trkpt>
      <trkpt lat="46.40324" lon="5.68707">
        <ele>637.5</ele>
        <time>2022-06-09T13:11:42Z</time>
      </trkpt>
      <trkpt lat="46.40329" lon="5.68709">
        <ele>637</ele>
        <time>2022-06-09T13:11:46Z</time>
      </trkpt>
      <trkpt lat="46.40334" lon="5.6871">
        <ele>636.7</ele>
        <time>2022-06-09T13:11:50Z</time>
      </trkpt>
      <trkpt lat="46.40339" lon="5.6871">
        <ele>636.1</ele>
        <time>2022-06-09T13:11:55Z</time>
      </trkpt>
      <trkpt lat="46.40344" lon="5.68707">
        <ele>636.1</ele>
        <time>2022-06-09T13:12:00Z</time>
      </trkpt>
      <trkpt lat="46.40349" lon="5.68708">
        <ele>636</ele>
        <time>2022-06-09T13:12:03Z</time>
      </trkpt>
      <trkpt lat="46.40354" lon="5.68711">
        <ele>635.7</ele>
        <time>2022-06-09T13:12:09Z</time>
      </trkpt>
      <trkpt lat="46.40359" lon="5.68714">
        <ele>635.8</ele>
        <time>2022-06-09T13:12:14Z</time>
      </trkpt>
      <trkpt lat="46.40364" lon="5.68714">
        <ele>636.8</ele>
        <time>2022-06-09T13:12:20Z</time>
      </trkpt>
      <trkpt lat="46.40368" lon="5.68712">
        <ele>637.7</ele>
        <time>2022-06-09T13:12:26Z</time>
      </trkpt>
      <trkpt lat="46.40373" lon="5.68708">
        <ele>638.2</ele>
        <time>2022-06-09T13:12:32Z</time>
      </trkpt>
      <trkpt lat="46.40377" lon="5.68704">
        <ele>638</ele>
        <time>2022-06-09T13:12:37Z</time>
      </trkpt>
      <trkpt lat="46.40381" lon="5.687">
        <ele>637.8</ele>
        <time>2022-06-09T13:12:43Z</time>
      </trkpt>
      <trkpt lat="46.40382" lon="5.68693">
        <ele>637</ele>
        <time>2022-06-09T13:12:53Z</time>
      </trkpt>
      <trkpt lat="46.40383" lon="5.68687">
        <ele>634.1</ele>
        <time>2022-06-09T13:13:05Z</time>
      </trkpt>
      <trkpt lat="46.40387" lon="5.68684">
        <ele>631</ele>
        <time>2022-06-09T13:13:27Z</time>
      </trkpt>
      <trkpt lat="46.40383" lon="5.6868">
        <ele>631.1</ele>
        <time>2022-06-09T13:13:55Z</time>
      </trkpt>
      <trkpt lat="46.4038" lon="5.68675">
        <ele>631.9</ele>
        <time>2022-06-09T13:13:59Z</time>
      </trkpt>
      <trkpt lat="46.4038" lon="5.68681">
        <ele>635.1</ele>
        <time>2022-06-09T13:14:14Z</time>
      </trkpt>
      <trkpt lat="46.40382" lon="5.68688">
        <ele>636.9</ele>
        <time>2022-06-09T13:14:20Z</time>
      </trkpt>
      <trkpt lat="46.40384" lon="5.68694">
        <ele>638</ele>
        <time>2022-06-09T13:14:28Z</time>
      </trkpt>
      <trkpt lat="46.4038" lon="5.68698">
        <ele>637.6</ele>
        <time>2022-06-09T13:14:34Z</time>
      </trkpt>
      <trkpt lat="46.40377" lon="5.68703">
        <ele>636.4</ele>
        <time>2022-06-09T13:14:42Z</time>
      </trkpt>
      <trkpt lat="46.40373" lon="5.68708">
        <ele>635.1</ele>
        <time>2022-06-09T13:14:50Z</time>
      </trkpt>
      <trkpt lat="46.40369" lon="5.68711">
        <ele>633.4</ele>
        <time>2022-06-09T13:14:55Z</time>
      </trkpt>
      <trkpt lat="46.40366" lon="5.68718">
        <ele>631.4</ele>
        <time>2022-06-09T13:15:01Z</time>
      </trkpt>
      <trkpt lat="46.40366" lon="5.68726">
        <ele>630.9</ele>
        <time>2022-06-09T13:15:06Z</time>
      </trkpt>
      <trkpt lat="46.40369" lon="5.68731">
        <ele>630.6</ele>
        <time>2022-06-09T13:15:11Z</time>
      </trkpt>
      <trkpt lat="46.40373" lon="5.68736">
        <ele>632</ele>
        <time>2022-06-09T13:15:20Z</time>
      </trkpt>
      <trkpt lat="46.40376" lon="5.68742">
        <ele>634</ele>
        <time>2022-06-09T13:15:28Z</time>
      </trkpt>
      <trkpt lat="46.40379" lon="5.68746">
        <ele>637.8</ele>
        <time>2022-06-09T13:15:44Z</time>
      </trkpt>
      <trkpt lat="46.40384" lon="5.68746">
        <ele>637.8</ele>
        <time>2022-06-09T13:16:10Z</time>
      </trkpt>
      <trkpt lat="46.4038" lon="5.68749">
        <ele>634.6</ele>
        <time>2022-06-09T13:16:47Z</time>
      </trkpt>
      <trkpt lat="46.40384" lon="5.6875">
        <ele>636</ele>
        <time>2022-06-09T13:19:32Z</time>
      </trkpt>
      <trkpt lat="46.40384" lon="5.68756">
        <ele>639.2</ele>
        <time>2022-06-09T13:20:05Z</time>
      </trkpt>
      <trkpt lat="46.40388" lon="5.68761">
        <ele>637.1</ele>
        <time>2022-06-09T13:20:20Z</time>
      </trkpt>
      <trkpt lat="46.40391" lon="5.68766">
        <ele>636.7</ele>
        <time>2022-06-09T13:20:24Z</time>
      </trkpt>
      <trkpt lat="46.40395" lon="5.68771">
        <ele>636.6</ele>
        <time>2022-06-09T13:20:27Z</time>
      </trkpt>
      <trkpt lat="46.40399" lon="5.68777">
        <ele>636.5</ele>
        <time>2022-06-09T13:20:31Z</time>
      </trkpt>
      <trkpt lat="46.40403" lon="5.68781">
        <ele>636.4</ele>
        <time>2022-06-09T13:20:35Z</time>
      </trkpt>
      <trkpt lat="46.40405" lon="5.68787">
        <ele>636.2</ele>
        <time>2022-06-09T13:20:41Z</time>
      </trkpt>
      <trkpt lat="46.40409" lon="5.6879">
        <ele>636.1</ele>
        <time>2022-06-09T13:20:45Z</time>
      </trkpt>
      <trkpt lat="46.40414" lon="5.68793">
        <ele>635.8</ele>
        <time>2022-06-09T13:20:49Z</time>
      </trkpt>
      <trkpt lat="46.40417" lon="5.68796">
        <ele>635.4</ele>
        <time>2022-06-09T13:20:54Z</time>
      </trkpt>
      <trkpt lat="46.40422" lon="5.68799">
        <ele>635.1</ele>
        <time>2022-06-09T13:20:58Z</time>
      </trkpt>
      <trkpt lat="46.40427" lon="5.68801">
        <ele>634.4</ele>
        <time>2022-06-09T13:21:03Z</time>
      </trkpt>
      <trkpt lat="46.40432" lon="5.68802">
        <ele>634.1</ele>
        <time>2022-06-09T13:21:09Z</time>
      </trkpt>
      <trkpt lat="46.40437" lon="5.68805">
        <ele>634.5</ele>
        <time>2022-06-09T13:21:14Z</time>
      </trkpt>
      <trkpt lat="46.40443" lon="5.68807">
        <ele>634.8</ele>
        <time>2022-06-09T13:21:18Z</time>
      </trkpt>
      <trkpt lat="46.40448" lon="5.68808">
        <ele>635.2</ele>
        <time>2022-06-09T13:21:22Z</time>
      </trkpt>
      <trkpt lat="46.40453" lon="5.68807">
        <ele>636</ele>
        <time>2022-06-09T13:21:26Z</time>
      </trkpt>
      <trkpt lat="46.40458" lon="5.68808">
        <ele>637</ele>
        <time>2022-06-09T13:21:31Z</time>
      </trkpt>
      <trkpt lat="46.40462" lon="5.68808">
        <ele>637.1</ele>
        <time>2022-06-09T13:21:35Z</time>
      </trkpt>
      <trkpt lat="46.40467" lon="5.68807">
        <ele>637.2</ele>
        <time>2022-06-09T13:21:39Z</time>
      </trkpt>
      <trkpt lat="46.40471" lon="5.68805">
        <ele>637.6</ele>
        <time>2022-06-09T13:21:43Z</time>
      </trkpt>
      <trkpt lat="46.40476" lon="5.68802">
        <ele>638.1</ele>
        <time>2022-06-09T13:21:47Z</time>
      </trkpt>
      <trkpt lat="46.40481" lon="5.688">
        <ele>638.4</ele>
        <time>2022-06-09T13:21:51Z</time>
      </trkpt>
      <trkpt lat="46.40486" lon="5.68798">
        <ele>638.7</ele>
        <time>2022-06-09T13:21:56Z</time>
      </trkpt>
      <trkpt lat="46.40491" lon="5.68795">
        <ele>638.9</ele>
        <time>2022-06-09T13:22:02Z</time>
      </trkpt>
      <trkpt lat="46.40495" lon="5.68792">
        <ele>638.7</ele>
        <time>2022-06-09T13:22:06Z</time>
      </trkpt>
      <trkpt lat="46.40501" lon="5.68789">
        <ele>639.1</ele>
        <time>2022-06-09T13:22:10Z</time>
      </trkpt>
      <trkpt lat="46.40506" lon="5.68788">
        <ele>639.9</ele>
        <time>2022-06-09T13:22:14Z</time>
      </trkpt>
      <trkpt lat="46.40511" lon="5.68785">
        <ele>641.1</ele>
        <time>2022-06-09T13:22:20Z</time>
      </trkpt>
      <trkpt lat="46.40516" lon="5.68785">
        <ele>641.7</ele>
        <time>2022-06-09T13:22:24Z</time>
      </trkpt>
      <trkpt lat="46.4052" lon="5.68781">
        <ele>642.3</ele>
        <time>2022-06-09T13:22:30Z</time>
      </trkpt>
      <trkpt lat="46.40524" lon="5.68776">
        <ele>642.2</ele>
        <time>2022-06-09T13:22:36Z</time>
      </trkpt>
      <trkpt lat="46.40529" lon="5.68774">
        <ele>641.4</ele>
        <time>2022-06-09T13:22:40Z</time>
      </trkpt>
      <trkpt lat="46.40534" lon="5.68772">
        <ele>640.8</ele>
        <time>2022-06-09T13:22:44Z</time>
      </trkpt>
      <trkpt lat="46.40538" lon="5.68769">
        <ele>640.4</ele>
        <time>2022-06-09T13:22:47Z</time>
      </trkpt>
      <trkpt lat="46.40543" lon="5.68766">
        <ele>640</ele>
        <time>2022-06-09T13:22:50Z</time>
      </trkpt>
      <trkpt lat="46.40548" lon="5.68766">
        <ele>640</ele>
        <time>2022-06-09T13:22:54Z</time>
      </trkpt>
      <trkpt lat="46.40553" lon="5.68764">
        <ele>640.5</ele>
        <time>2022-06-09T13:23:00Z</time>
      </trkpt>
      <trkpt lat="46.40556" lon="5.6876">
        <ele>641.1</ele>
        <time>2022-06-09T13:23:05Z</time>
      </trkpt>
      <trkpt lat="46.40561" lon="5.68757">
        <ele>641.7</ele>
        <time>2022-06-09T13:23:09Z</time>
      </trkpt>
      <trkpt lat="46.40566" lon="5.68754">
        <ele>642</ele>
        <time>2022-06-09T13:23:13Z</time>
      </trkpt>
      <trkpt lat="46.4057" lon="5.68753">
        <ele>642.3</ele>
        <time>2022-06-09T13:23:17Z</time>
      </trkpt>
      <trkpt lat="46.40575" lon="5.68752">
        <ele>642.4</ele>
        <time>2022-06-09T13:23:21Z</time>
      </trkpt>
      <trkpt lat="46.4058" lon="5.68749">
        <ele>642.6</ele>
        <time>2022-06-09T13:23:31Z</time>
      </trkpt>
      <trkpt lat="46.40586" lon="5.68748">
        <ele>642.6</ele>
        <time>2022-06-09T13:23:34Z</time>
      </trkpt>
      <trkpt lat="46.40591" lon="5.68746">
        <ele>642.7</ele>
        <time>2022-06-09T13:23:37Z</time>
      </trkpt>
      <trkpt lat="46.40596" lon="5.68745">
        <ele>642.9</ele>
        <time>2022-06-09T13:23:40Z</time>
      </trkpt>
      <trkpt lat="46.40602" lon="5.68744">
        <ele>643.4</ele>
        <time>2022-06-09T13:23:45Z</time>
      </trkpt>
      <trkpt lat="46.40607" lon="5.68744">
        <ele>644.3</ele>
        <time>2022-06-09T13:23:55Z</time>
      </trkpt>
      <trkpt lat="46.40612" lon="5.68743">
        <ele>644.5</ele>
        <time>2022-06-09T13:24:00Z</time>
      </trkpt>
      <trkpt lat="46.40616" lon="5.68742">
        <ele>644.4</ele>
        <time>2022-06-09T13:24:04Z</time>
      </trkpt>
      <trkpt lat="46.40621" lon="5.6874">
        <ele>644.2</ele>
        <time>2022-06-09T13:24:08Z</time>
      </trkpt>
      <trkpt lat="46.40626" lon="5.68739">
        <ele>644.2</ele>
        <time>2022-06-09T13:24:13Z</time>
      </trkpt>
      <trkpt lat="46.40631" lon="5.68738">
        <ele>644.4</ele>
        <time>2022-06-09T13:24:16Z</time>
      </trkpt>
      <trkpt lat="46.40636" lon="5.68737">
        <ele>644.6</ele>
        <time>2022-06-09T13:24:19Z</time>
      </trkpt>
      <trkpt lat="46.40641" lon="5.68737">
        <ele>644.7</ele>
        <time>2022-06-09T13:24:22Z</time>
      </trkpt>
      <trkpt lat="46.40646" lon="5.68739">
        <ele>644.7</ele>
        <time>2022-06-09T13:24:26Z</time>
      </trkpt>
      <trkpt lat="46.40651" lon="5.68741">
        <ele>644.3</ele>
        <time>2022-06-09T13:24:29Z</time>
      </trkpt>
      <trkpt lat="46.40656" lon="5.68742">
        <ele>643.7</ele>
        <time>2022-06-09T13:24:33Z</time>
      </trkpt>
      <trkpt lat="46.40661" lon="5.68743">
        <ele>642.7</ele>
        <time>2022-06-09T13:24:37Z</time>
      </trkpt>
      <trkpt lat="46.40667" lon="5.68745">
        <ele>641.5</ele>
        <time>2022-06-09T13:24:41Z</time>
      </trkpt>
      <trkpt lat="46.40671" lon="5.68749">
        <ele>640.4</ele>
        <time>2022-06-09T13:24:45Z</time>
      </trkpt>
      <trkpt lat="46.40676" lon="5.68754">
        <ele>639.2</ele>
        <time>2022-06-09T13:24:49Z</time>
      </trkpt>
      <trkpt lat="46.4068" lon="5.68757">
        <ele>638.2</ele>
        <time>2022-06-09T13:24:52Z</time>
      </trkpt>
      <trkpt lat="46.40685" lon="5.68761">
        <ele>637.2</ele>
        <time>2022-06-09T13:24:56Z</time>
      </trkpt>
      <trkpt lat="46.40689" lon="5.68763">
        <ele>636.6</ele>
        <time>2022-06-09T13:24:59Z</time>
      </trkpt>
      <trkpt lat="46.40694" lon="5.68763">
        <ele>635.4</ele>
        <time>2022-06-09T13:25:04Z</time>
      </trkpt>
      <trkpt lat="46.40698" lon="5.68766">
        <ele>633.4</ele>
        <time>2022-06-09T13:25:13Z</time>
      </trkpt>
      <trkpt lat="46.40704" lon="5.68768">
        <ele>632.7</ele>
        <time>2022-06-09T13:25:18Z</time>
      </trkpt>
      <trkpt lat="46.40709" lon="5.68771">
        <ele>632.3</ele>
        <time>2022-06-09T13:25:22Z</time>
      </trkpt>
      <trkpt lat="46.40714" lon="5.68771">
        <ele>632.1</ele>
        <time>2022-06-09T13:25:25Z</time>
      </trkpt>
      <trkpt lat="46.4072" lon="5.68772">
        <ele>631.2</ele>
        <time>2022-06-09T13:25:30Z</time>
      </trkpt>
      <trkpt lat="46.40725" lon="5.68773">
        <ele>630.3</ele>
        <time>2022-06-09T13:25:34Z</time>
      </trkpt>
      <trkpt lat="46.4073" lon="5.68775">
        <ele>629.4</ele>
        <time>2022-06-09T13:25:38Z</time>
      </trkpt>
      <trkpt lat="46.40735" lon="5.68777">
        <ele>628.3</ele>
        <time>2022-06-09T13:25:42Z</time>
      </trkpt>
      <trkpt lat="46.4074" lon="5.6878">
        <ele>626.6</ele>
        <time>2022-06-09T13:25:48Z</time>
      </trkpt>
      <trkpt lat="46.40745" lon="5.68783">
        <ele>625.5</ele>
        <time>2022-06-09T13:25:53Z</time>
      </trkpt>
      <trkpt lat="46.4075" lon="5.68784">
        <ele>624.3</ele>
        <time>2022-06-09T13:25:58Z</time>
      </trkpt>
      <trkpt lat="46.40755" lon="5.68785">
        <ele>622.9</ele>
        <time>2022-06-09T13:26:04Z</time>
      </trkpt>
      <trkpt lat="46.4076" lon="5.68784">
        <ele>621.9</ele>
        <time>2022-06-09T13:26:08Z</time>
      </trkpt>
      <trkpt lat="46.40764" lon="5.68786">
        <ele>621.9</ele>
        <time>2022-06-09T13:26:12Z</time>
      </trkpt>
      <trkpt lat="46.40769" lon="5.68787">
        <ele>622.7</ele>
        <time>2022-06-09T13:26:16Z</time>
      </trkpt>
      <trkpt lat="46.40774" lon="5.68787">
        <ele>623.5</ele>
        <time>2022-06-09T13:26:20Z</time>
      </trkpt>
      <trkpt lat="46.4078" lon="5.68788">
        <ele>624.4</ele>
        <time>2022-06-09T13:26:25Z</time>
      </trkpt>
      <trkpt lat="46.40786" lon="5.68788">
        <ele>625.2</ele>
        <time>2022-06-09T13:26:29Z</time>
      </trkpt>
      <trkpt lat="46.40791" lon="5.68788">
        <ele>625.9</ele>
        <time>2022-06-09T13:26:32Z</time>
      </trkpt>
      <trkpt lat="46.40796" lon="5.68788">
        <ele>627</ele>
        <time>2022-06-09T13:26:35Z</time>
      </trkpt>
      <trkpt lat="46.40801" lon="5.68788">
        <ele>628</ele>
        <time>2022-06-09T13:26:38Z</time>
      </trkpt>
      <trkpt lat="46.40806" lon="5.68787">
        <ele>629.4</ele>
        <time>2022-06-09T13:26:42Z</time>
      </trkpt>
      <trkpt lat="46.40811" lon="5.68787">
        <ele>630.2</ele>
        <time>2022-06-09T13:26:46Z</time>
      </trkpt>
      <trkpt lat="46.40816" lon="5.68789">
        <ele>629.7</ele>
        <time>2022-06-09T13:26:55Z</time>
      </trkpt>
      <trkpt lat="46.40821" lon="5.6879">
        <ele>628.7</ele>
        <time>2022-06-09T13:27:00Z</time>
      </trkpt>
      <trkpt lat="46.40826" lon="5.68791">
        <ele>627.7</ele>
        <time>2022-06-09T13:27:04Z</time>
      </trkpt>
      <trkpt lat="46.40831" lon="5.68791">
        <ele>627</ele>
        <time>2022-06-09T13:27:08Z</time>
      </trkpt>
      <trkpt lat="46.40836" lon="5.6879">
        <ele>626.7</ele>
        <time>2022-06-09T13:27:13Z</time>
      </trkpt>
      <trkpt lat="46.4084" lon="5.68791">
        <ele>626.7</ele>
        <time>2022-06-09T13:27:17Z</time>
      </trkpt>
      <trkpt lat="46.40845" lon="5.68793">
        <ele>627.2</ele>
        <time>2022-06-09T13:27:22Z</time>
      </trkpt>
      <trkpt lat="46.40849" lon="5.68795">
        <ele>627.1</ele>
        <time>2022-06-09T13:27:27Z</time>
      </trkpt>
      <trkpt lat="46.40853" lon="5.68799">
        <ele>626.7</ele>
        <time>2022-06-09T13:27:31Z</time>
      </trkpt>
      <trkpt lat="46.40856" lon="5.68804">
        <ele>626.4</ele>
        <time>2022-06-09T13:27:35Z</time>
      </trkpt>
      <trkpt lat="46.40861" lon="5.68807">
        <ele>626.5</ele>
        <time>2022-06-09T13:27:40Z</time>
      </trkpt>
      <trkpt lat="46.40866" lon="5.68809">
        <ele>627.1</ele>
        <time>2022-06-09T13:27:45Z</time>
      </trkpt>
      <trkpt lat="46.40871" lon="5.6881">
        <ele>628.2</ele>
        <time>2022-06-09T13:27:49Z</time>
      </trkpt>
      <trkpt lat="46.40876" lon="5.68811">
        <ele>629.1</ele>
        <time>2022-06-09T13:27:55Z</time>
      </trkpt>
      <trkpt lat="46.4088" lon="5.68811">
        <ele>629.3</ele>
        <time>2022-06-09T13:28:01Z</time>
      </trkpt>
      <trkpt lat="46.40884" lon="5.68815">
        <ele>629.6</ele>
        <time>2022-06-09T13:28:21Z</time>
      </trkpt>
      <trkpt lat="46.40888" lon="5.68819">
        <ele>630.3</ele>
        <time>2022-06-09T13:28:27Z</time>
      </trkpt>
      <trkpt lat="46.40892" lon="5.68824">
        <ele>631.2</ele>
        <time>2022-06-09T13:28:32Z</time>
      </trkpt>
      <trkpt lat="46.40894" lon="5.6883">
        <ele>631.9</ele>
        <time>2022-06-09T13:28:36Z</time>
      </trkpt>
      <trkpt lat="46.40895" lon="5.68837">
        <ele>632.5</ele>
        <time>2022-06-09T13:28:41Z</time>
      </trkpt>
      <trkpt lat="46.40896" lon="5.68844">
        <ele>632.6</ele>
        <time>2022-06-09T13:28:46Z</time>
      </trkpt>
      <trkpt lat="46.40899" lon="5.6885">
        <ele>632.9</ele>
        <time>2022-06-09T13:28:51Z</time>
      </trkpt>
      <trkpt lat="46.40899" lon="5.68856">
        <ele>633.1</ele>
        <time>2022-06-09T13:28:57Z</time>
      </trkpt>
      <trkpt lat="46.40903" lon="5.68861">
        <ele>632.1</ele>
        <time>2022-06-09T13:29:02Z</time>
      </trkpt>
      <trkpt lat="46.40908" lon="5.68865">
        <ele>630.8</ele>
        <time>2022-06-09T13:29:07Z</time>
      </trkpt>
      <trkpt lat="46.40912" lon="5.6887">
        <ele>629.4</ele>
        <time>2022-06-09T13:29:13Z</time>
      </trkpt>
      <trkpt lat="46.40916" lon="5.68874">
        <ele>628.9</ele>
        <time>2022-06-09T13:29:17Z</time>
      </trkpt>
      <trkpt lat="46.4092" lon="5.68877">
        <ele>628.9</ele>
        <time>2022-06-09T13:29:22Z</time>
      </trkpt>
      <trkpt lat="46.40924" lon="5.68882">
        <ele>629.4</ele>
        <time>2022-06-09T13:29:27Z</time>
      </trkpt>
      <trkpt lat="46.40927" lon="5.68887">
        <ele>630</ele>
        <time>2022-06-09T13:29:31Z</time>
      </trkpt>
      <trkpt lat="46.40931" lon="5.68893">
        <ele>630.6</ele>
        <time>2022-06-09T13:29:35Z</time>
      </trkpt>
      <trkpt lat="46.40933" lon="5.689">
        <ele>631</ele>
        <time>2022-06-09T13:29:39Z</time>
      </trkpt>
      <trkpt lat="46.40932" lon="5.68907">
        <ele>631.3</ele>
        <time>2022-06-09T13:29:42Z</time>
      </trkpt>
      <trkpt lat="46.40931" lon="5.68914">
        <ele>631.2</ele>
        <time>2022-06-09T13:29:48Z</time>
      </trkpt>
      <trkpt lat="46.40927" lon="5.68918">
        <ele>631.4</ele>
        <time>2022-06-09T13:29:52Z</time>
      </trkpt>
      <trkpt lat="46.40924" lon="5.68923">
        <ele>632.5</ele>
        <time>2022-06-09T13:30:00Z</time>
      </trkpt>
      <trkpt lat="46.40921" lon="5.68929">
        <ele>632.9</ele>
        <time>2022-06-09T13:30:05Z</time>
      </trkpt>
      <trkpt lat="46.40918" lon="5.68935">
        <ele>633.7</ele>
        <time>2022-06-09T13:30:11Z</time>
      </trkpt>
      <trkpt lat="46.40916" lon="5.68941">
        <ele>634.8</ele>
        <time>2022-06-09T13:30:20Z</time>
      </trkpt>
      <trkpt lat="46.40915" lon="5.68948">
        <ele>635</ele>
        <time>2022-06-09T13:30:27Z</time>
      </trkpt>
      <trkpt lat="46.40916" lon="5.68955">
        <ele>635.8</ele>
        <time>2022-06-09T13:30:34Z</time>
      </trkpt>
      <trkpt lat="46.40916" lon="5.68962">
        <ele>636.5</ele>
        <time>2022-06-09T13:30:38Z</time>
      </trkpt>
      <trkpt lat="46.40917" lon="5.68968">
        <ele>637.2</ele>
        <time>2022-06-09T13:30:42Z</time>
      </trkpt>
      <trkpt lat="46.40919" lon="5.68974">
        <ele>638</ele>
        <time>2022-06-09T13:30:47Z</time>
      </trkpt>
      <trkpt lat="46.40924" lon="5.68976">
        <ele>638.4</ele>
        <time>2022-06-09T13:30:51Z</time>
      </trkpt>
      <trkpt lat="46.40928" lon="5.68979">
        <ele>639.7</ele>
        <time>2022-06-09T13:30:57Z</time>
      </trkpt>
      <trkpt lat="46.40931" lon="5.68985">
        <ele>641.2</ele>
        <time>2022-06-09T13:31:02Z</time>
      </trkpt>
      <trkpt lat="46.40932" lon="5.68993">
        <ele>642.3</ele>
        <time>2022-06-09T13:31:07Z</time>
      </trkpt>
      <trkpt lat="46.40933" lon="5.69">
        <ele>642.8</ele>
        <time>2022-06-09T13:31:12Z</time>
      </trkpt>
      <trkpt lat="46.40936" lon="5.69006">
        <ele>642.8</ele>
        <time>2022-06-09T13:31:21Z</time>
      </trkpt>
      <trkpt lat="46.40939" lon="5.69011">
        <ele>643.1</ele>
        <time>2022-06-09T13:31:26Z</time>
      </trkpt>
      <trkpt lat="46.40945" lon="5.69013">
        <ele>643.1</ele>
        <time>2022-06-09T13:31:31Z</time>
      </trkpt>
      <trkpt lat="46.4095" lon="5.69016">
        <ele>644</ele>
        <time>2022-06-09T13:31:35Z</time>
      </trkpt>
      <trkpt lat="46.40955" lon="5.69016">
        <ele>644.8</ele>
        <time>2022-06-09T13:31:38Z</time>
      </trkpt>
      <trkpt lat="46.40962" lon="5.69017">
        <ele>645.7</ele>
        <time>2022-06-09T13:31:41Z</time>
      </trkpt>
      <trkpt lat="46.40967" lon="5.69019">
        <ele>646.5</ele>
        <time>2022-06-09T13:31:44Z</time>
      </trkpt>
      <trkpt lat="46.40971" lon="5.69021">
        <ele>647.2</ele>
        <time>2022-06-09T13:31:48Z</time>
      </trkpt>
      <trkpt lat="46.40975" lon="5.69026">
        <ele>649.7</ele>
        <time>2022-06-09T13:32:01Z</time>
      </trkpt>
      <trkpt lat="46.40982" lon="5.69026">
        <ele>650.3</ele>
        <time>2022-06-09T13:32:04Z</time>
      </trkpt>
      <trkpt lat="46.40986" lon="5.69027">
        <ele>650.7</ele>
        <time>2022-06-09T13:32:07Z</time>
      </trkpt>
      <trkpt lat="46.40993" lon="5.69025">
        <ele>650.9</ele>
        <time>2022-06-09T13:32:10Z</time>
      </trkpt>
      <trkpt lat="46.40998" lon="5.69023">
        <ele>650.9</ele>
        <time>2022-06-09T13:32:13Z</time>
      </trkpt>
      <trkpt lat="46.41003" lon="5.69021">
        <ele>650.6</ele>
        <time>2022-06-09T13:32:16Z</time>
      </trkpt>
      <trkpt lat="46.41007" lon="5.69016">
        <ele>648.6</ele>
        <time>2022-06-09T13:32:22Z</time>
      </trkpt>
      <trkpt lat="46.4101" lon="5.69012">
        <ele>647.2</ele>
        <time>2022-06-09T13:32:26Z</time>
      </trkpt>
      <trkpt lat="46.41015" lon="5.69008">
        <ele>644.6</ele>
        <time>2022-06-09T13:32:37Z</time>
      </trkpt>
      <trkpt lat="46.41021" lon="5.69006">
        <ele>644.8</ele>
        <time>2022-06-09T13:32:41Z</time>
      </trkpt>
      <trkpt lat="46.41026" lon="5.69004">
        <ele>645.2</ele>
        <time>2022-06-09T13:32:45Z</time>
      </trkpt>
      <trkpt lat="46.41031" lon="5.69001">
        <ele>645.7</ele>
        <time>2022-06-09T13:32:50Z</time>
      </trkpt>
      <trkpt lat="46.41036" lon="5.68997">
        <ele>646.4</ele>
        <time>2022-06-09T13:32:54Z</time>
      </trkpt>
      <trkpt lat="46.4104" lon="5.68994">
        <ele>647</ele>
        <time>2022-06-09T13:32:57Z</time>
      </trkpt>
      <trkpt lat="46.41044" lon="5.68992">
        <ele>647.5</ele>
        <time>2022-06-09T13:33:00Z</time>
      </trkpt>
      <trkpt lat="46.4105" lon="5.68989">
        <ele>647.6</ele>
        <time>2022-06-09T13:33:04Z</time>
      </trkpt>
      <trkpt lat="46.41055" lon="5.68987">
        <ele>647.4</ele>
        <time>2022-06-09T13:33:09Z</time>
      </trkpt>
      <trkpt lat="46.4106" lon="5.68989">
        <ele>647.3</ele>
        <time>2022-06-09T13:33:13Z</time>
      </trkpt>
      <trkpt lat="46.41066" lon="5.68988">
        <ele>646.8</ele>
        <time>2022-06-09T13:33:17Z</time>
      </trkpt>
      <trkpt lat="46.4107" lon="5.68984">
        <ele>646.8</ele>
        <time>2022-06-09T13:33:21Z</time>
      </trkpt>
      <trkpt lat="46.41074" lon="5.68979">
        <ele>646.8</ele>
        <time>2022-06-09T13:33:26Z</time>
      </trkpt>
      <trkpt lat="46.41078" lon="5.68974">
        <ele>646.7</ele>
        <time>2022-06-09T13:33:31Z</time>
      </trkpt>
      <trkpt lat="46.41081" lon="5.68968">
        <ele>646.6</ele>
        <time>2022-06-09T13:33:35Z</time>
      </trkpt>
      <trkpt lat="46.41083" lon="5.68962">
        <ele>646.4</ele>
        <time>2022-06-09T13:33:38Z</time>
      </trkpt>
      <trkpt lat="46.41084" lon="5.68955">
        <ele>646</ele>
        <time>2022-06-09T13:33:42Z</time>
      </trkpt>
      <trkpt lat="46.41083" lon="5.68949">
        <ele>645.8</ele>
        <time>2022-06-09T13:33:46Z</time>
      </trkpt>
      <trkpt lat="46.41086" lon="5.68943">
        <ele>645.4</ele>
        <time>2022-06-09T13:33:52Z</time>
      </trkpt>
      <trkpt lat="46.4109" lon="5.68938">
        <ele>645.3</ele>
        <time>2022-06-09T13:33:56Z</time>
      </trkpt>
      <trkpt lat="46.41092" lon="5.6893">
        <ele>644.4</ele>
        <time>2022-06-09T13:34:00Z</time>
      </trkpt>
      <trkpt lat="46.41097" lon="5.68926">
        <ele>642.6</ele>
        <time>2022-06-09T13:34:05Z</time>
      </trkpt>
      <trkpt lat="46.41098" lon="5.68918">
        <ele>639.2</ele>
        <time>2022-06-09T13:34:12Z</time>
      </trkpt>
      <trkpt lat="46.41101" lon="5.68913">
        <ele>634.7</ele>
        <time>2022-06-09T13:34:19Z</time>
      </trkpt>
      <trkpt lat="46.41105" lon="5.6891">
        <ele>632.4</ele>
        <time>2022-06-09T13:34:24Z</time>
      </trkpt>
      <trkpt lat="46.41109" lon="5.68907">
        <ele>630.6</ele>
        <time>2022-06-09T13:34:28Z</time>
      </trkpt>
      <trkpt lat="46.41114" lon="5.68905">
        <ele>629.2</ele>
        <time>2022-06-09T13:34:32Z</time>
      </trkpt>
      <trkpt lat="46.41119" lon="5.68904">
        <ele>628.5</ele>
        <time>2022-06-09T13:34:36Z</time>
      </trkpt>
      <trkpt lat="46.41123" lon="5.68902">
        <ele>628.2</ele>
        <time>2022-06-09T13:34:40Z</time>
      </trkpt>
      <trkpt lat="46.41127" lon="5.68897">
        <ele>628.4</ele>
        <time>2022-06-09T13:34:45Z</time>
      </trkpt>
      <trkpt lat="46.41131" lon="5.68892">
        <ele>629</ele>
        <time>2022-06-09T13:34:50Z</time>
      </trkpt>
      <trkpt lat="46.41135" lon="5.68887">
        <ele>629.8</ele>
        <time>2022-06-09T13:34:54Z</time>
      </trkpt>
      <trkpt lat="46.41139" lon="5.68883">
        <ele>630.4</ele>
        <time>2022-06-09T13:34:57Z</time>
      </trkpt>
      <trkpt lat="46.41143" lon="5.68878">
        <ele>631.3</ele>
        <time>2022-06-09T13:35:00Z</time>
      </trkpt>
      <trkpt lat="46.41147" lon="5.68871">
        <ele>632.6</ele>
        <time>2022-06-09T13:35:04Z</time>
      </trkpt>
      <trkpt lat="46.4115" lon="5.68867">
        <ele>633.7</ele>
        <time>2022-06-09T13:35:07Z</time>
      </trkpt>
      <trkpt lat="46.41155" lon="5.68863">
        <ele>635.1</ele>
        <time>2022-06-09T13:35:10Z</time>
      </trkpt>
      <trkpt lat="46.4116" lon="5.6886">
        <ele>636.3</ele>
        <time>2022-06-09T13:35:13Z</time>
      </trkpt>
      <trkpt lat="46.41164" lon="5.68859">
        <ele>637.7</ele>
        <time>2022-06-09T13:35:17Z</time>
      </trkpt>
      <trkpt lat="46.41169" lon="5.68856">
        <ele>638.6</ele>
        <time>2022-06-09T13:35:20Z</time>
      </trkpt>
      <trkpt lat="46.41173" lon="5.68853">
        <ele>639.6</ele>
        <time>2022-06-09T13:35:23Z</time>
      </trkpt>
      <trkpt lat="46.41178" lon="5.68851">
        <ele>640.9</ele>
        <time>2022-06-09T13:35:27Z</time>
      </trkpt>
      <trkpt lat="46.41182" lon="5.68846">
        <ele>641.9</ele>
        <time>2022-06-09T13:35:31Z</time>
      </trkpt>
      <trkpt lat="46.41186" lon="5.68842">
        <ele>642.9</ele>
        <time>2022-06-09T13:35:35Z</time>
      </trkpt>
      <trkpt lat="46.4119" lon="5.68839">
        <ele>644.6</ele>
        <time>2022-06-09T13:35:40Z</time>
      </trkpt>
      <trkpt lat="46.41195" lon="5.68836">
        <ele>646</ele>
        <time>2022-06-09T13:35:45Z</time>
      </trkpt>
      <trkpt lat="46.41199" lon="5.68833">
        <ele>646.6</ele>
        <time>2022-06-09T13:35:49Z</time>
      </trkpt>
      <trkpt lat="46.41204" lon="5.68831">
        <ele>646.9</ele>
        <time>2022-06-09T13:35:54Z</time>
      </trkpt>
      <trkpt lat="46.41208" lon="5.68829">
        <ele>646.7</ele>
        <time>2022-06-09T13:36:00Z</time>
      </trkpt>
      <trkpt lat="46.41211" lon="5.68823">
        <ele>645.9</ele>
        <time>2022-06-09T13:36:07Z</time>
      </trkpt>
      <trkpt lat="46.41217" lon="5.68823">
        <ele>644.9</ele>
        <time>2022-06-09T13:36:12Z</time>
      </trkpt>
      <trkpt lat="46.41222" lon="5.68824">
        <ele>644.5</ele>
        <time>2022-06-09T13:36:15Z</time>
      </trkpt>
      <trkpt lat="46.41227" lon="5.68826">
        <ele>643.7</ele>
        <time>2022-06-09T13:36:18Z</time>
      </trkpt>
      <trkpt lat="46.41231" lon="5.68828">
        <ele>642.6</ele>
        <time>2022-06-09T13:36:21Z</time>
      </trkpt>
      <trkpt lat="46.41236" lon="5.68832">
        <ele>641.2</ele>
        <time>2022-06-09T13:36:25Z</time>
      </trkpt>
      <trkpt lat="46.4124" lon="5.68835">
        <ele>640.5</ele>
        <time>2022-06-09T13:36:28Z</time>
      </trkpt>
      <trkpt lat="46.41244" lon="5.68839">
        <ele>639.9</ele>
        <time>2022-06-09T13:36:31Z</time>
      </trkpt>
      <trkpt lat="46.41248" lon="5.68843">
        <ele>639.1</ele>
        <time>2022-06-09T13:36:35Z</time>
      </trkpt>
      <trkpt lat="46.41251" lon="5.68849">
        <ele>637.5</ele>
        <time>2022-06-09T13:36:41Z</time>
      </trkpt>
      <trkpt lat="46.41254" lon="5.68855">
        <ele>635.9</ele>
        <time>2022-06-09T13:36:47Z</time>
      </trkpt>
      <trkpt lat="46.41258" lon="5.6886">
        <ele>634.3</ele>
        <time>2022-06-09T13:36:53Z</time>
      </trkpt>
      <trkpt lat="46.41263" lon="5.68861">
        <ele>632.2</ele>
        <time>2022-06-09T13:37:02Z</time>
      </trkpt>
      <trkpt lat="46.41267" lon="5.68862">
        <ele>631.3</ele>
        <time>2022-06-09T13:37:09Z</time>
      </trkpt>
      <trkpt lat="46.41273" lon="5.6886">
        <ele>631.1</ele>
        <time>2022-06-09T13:37:13Z</time>
      </trkpt>
      <trkpt lat="46.41278" lon="5.68857">
        <ele>631.3</ele>
        <time>2022-06-09T13:37:18Z</time>
      </trkpt>
      <trkpt lat="46.41283" lon="5.68855">
        <ele>631.8</ele>
        <time>2022-06-09T13:37:23Z</time>
      </trkpt>
      <trkpt lat="46.41289" lon="5.68857">
        <ele>632.4</ele>
        <time>2022-06-09T13:37:28Z</time>
      </trkpt>
      <trkpt lat="46.41294" lon="5.68859">
        <ele>632.6</ele>
        <time>2022-06-09T13:37:31Z</time>
      </trkpt>
      <trkpt lat="46.41299" lon="5.68863">
        <ele>633.1</ele>
        <time>2022-06-09T13:37:34Z</time>
      </trkpt>
      <trkpt lat="46.41303" lon="5.68867">
        <ele>633.5</ele>
        <time>2022-06-09T13:37:38Z</time>
      </trkpt>
      <trkpt lat="46.41307" lon="5.68872">
        <ele>633.1</ele>
        <time>2022-06-09T13:37:43Z</time>
      </trkpt>
      <trkpt lat="46.4131" lon="5.68878">
        <ele>632.3</ele>
        <time>2022-06-09T13:37:48Z</time>
      </trkpt>
      <trkpt lat="46.41312" lon="5.68885">
        <ele>631.6</ele>
        <time>2022-06-09T13:37:53Z</time>
      </trkpt>
      <trkpt lat="46.41313" lon="5.68892">
        <ele>631.7</ele>
        <time>2022-06-09T13:37:57Z</time>
      </trkpt>
      <trkpt lat="46.41315" lon="5.689">
        <ele>632.5</ele>
        <time>2022-06-09T13:38:01Z</time>
      </trkpt>
      <trkpt lat="46.41318" lon="5.68906">
        <ele>633</ele>
        <time>2022-06-09T13:38:05Z</time>
      </trkpt>
      <trkpt lat="46.41321" lon="5.68912">
        <ele>633.4</ele>
        <time>2022-06-09T13:38:10Z</time>
      </trkpt>
      <trkpt lat="46.41324" lon="5.68918">
        <ele>633.9</ele>
        <time>2022-06-09T13:38:15Z</time>
      </trkpt>
      <trkpt lat="46.41327" lon="5.68923">
        <ele>634.2</ele>
        <time>2022-06-09T13:38:19Z</time>
      </trkpt>
      <trkpt lat="46.4133" lon="5.68928">
        <ele>634.2</ele>
        <time>2022-06-09T13:38:23Z</time>
      </trkpt>
      <trkpt lat="46.41333" lon="5.68934">
        <ele>634.2</ele>
        <time>2022-06-09T13:38:28Z</time>
      </trkpt>
      <trkpt lat="46.41334" lon="5.6894">
        <ele>633.6</ele>
        <time>2022-06-09T13:38:33Z</time>
      </trkpt>
      <trkpt lat="46.41336" lon="5.68948">
        <ele>633.1</ele>
        <time>2022-06-09T13:38:38Z</time>
      </trkpt>
      <trkpt lat="46.41339" lon="5.68956">
        <ele>632.8</ele>
        <time>2022-06-09T13:38:42Z</time>
      </trkpt>
      <trkpt lat="46.41341" lon="5.68962">
        <ele>632.7</ele>
        <time>2022-06-09T13:38:45Z</time>
      </trkpt>
      <trkpt lat="46.41343" lon="5.68969">
        <ele>632.5</ele>
        <time>2022-06-09T13:38:49Z</time>
      </trkpt>
      <trkpt lat="46.41344" lon="5.68977">
        <ele>632.6</ele>
        <time>2022-06-09T13:38:54Z</time>
      </trkpt>
      <trkpt lat="46.41345" lon="5.68985">
        <ele>632.2</ele>
        <time>2022-06-09T13:38:59Z</time>
      </trkpt>
      <trkpt lat="46.41344" lon="5.68992">
        <ele>631.9</ele>
        <time>2022-06-09T13:39:02Z</time>
      </trkpt>
      <trkpt lat="46.41344" lon="5.68999">
        <ele>631.5</ele>
        <time>2022-06-09T13:39:05Z</time>
      </trkpt>
      <trkpt lat="46.41344" lon="5.69006">
        <ele>631.6</ele>
        <time>2022-06-09T13:39:08Z</time>
      </trkpt>
      <trkpt lat="46.41344" lon="5.69013">
        <ele>631.7</ele>
        <time>2022-06-09T13:39:12Z</time>
      </trkpt>
      <trkpt lat="46.41341" lon="5.69019">
        <ele>632</ele>
        <time>2022-06-09T13:39:16Z</time>
      </trkpt>
      <trkpt lat="46.41339" lon="5.69026">
        <ele>632.5</ele>
        <time>2022-06-09T13:39:21Z</time>
      </trkpt>
      <trkpt lat="46.41339" lon="5.69033">
        <ele>632.2</ele>
        <time>2022-06-09T13:39:26Z</time>
      </trkpt>
      <trkpt lat="46.41342" lon="5.69039">
        <ele>631.6</ele>
        <time>2022-06-09T13:39:32Z</time>
      </trkpt>
      <trkpt lat="46.41345" lon="5.69044">
        <ele>631.1</ele>
        <time>2022-06-09T13:39:38Z</time>
      </trkpt>
      <trkpt lat="46.41351" lon="5.69045">
        <ele>630.3</ele>
        <time>2022-06-09T13:39:44Z</time>
      </trkpt>
      <trkpt lat="46.41356" lon="5.69044">
        <ele>630.2</ele>
        <time>2022-06-09T13:39:48Z</time>
      </trkpt>
      <trkpt lat="46.41361" lon="5.69043">
        <ele>630</ele>
        <time>2022-06-09T13:39:51Z</time>
      </trkpt>
      <trkpt lat="46.41366" lon="5.69045">
        <ele>629.7</ele>
        <time>2022-06-09T13:39:54Z</time>
      </trkpt>
      <trkpt lat="46.41371" lon="5.69047">
        <ele>629.7</ele>
        <time>2022-06-09T13:39:57Z</time>
      </trkpt>
      <trkpt lat="46.41375" lon="5.69049">
        <ele>629.6</ele>
        <time>2022-06-09T13:40:00Z</time>
      </trkpt>
      <trkpt lat="46.41378" lon="5.69054">
        <ele>629.4</ele>
        <time>2022-06-09T13:40:03Z</time>
      </trkpt>
      <trkpt lat="46.41381" lon="5.69061">
        <ele>628.4</ele>
        <time>2022-06-09T13:40:07Z</time>
      </trkpt>
      <trkpt lat="46.41382" lon="5.69068">
        <ele>625.4</ele>
        <time>2022-06-09T13:40:17Z</time>
      </trkpt>
      <trkpt lat="46.4138" lon="5.69074">
        <ele>623.5</ele>
        <time>2022-06-09T13:40:24Z</time>
      </trkpt>
      <trkpt lat="46.41378" lon="5.69083">
        <ele>622.7</ele>
        <time>2022-06-09T13:40:29Z</time>
      </trkpt>
      <trkpt lat="46.41379" lon="5.6909">
        <ele>622.5</ele>
        <time>2022-06-09T13:40:32Z</time>
      </trkpt>
      <trkpt lat="46.4138" lon="5.69097">
        <ele>622.2</ele>
        <time>2022-06-09T13:40:35Z</time>
      </trkpt>
      <trkpt lat="46.41383" lon="5.69104">
        <ele>621.6</ele>
        <time>2022-06-09T13:40:40Z</time>
      </trkpt>
      <trkpt lat="46.41384" lon="5.69112">
        <ele>621.6</ele>
        <time>2022-06-09T13:40:43Z</time>
      </trkpt>
      <trkpt lat="46.41385" lon="5.69119">
        <ele>621.4</ele>
        <time>2022-06-09T13:40:46Z</time>
      </trkpt>
      <trkpt lat="46.41386" lon="5.69126">
        <ele>621.2</ele>
        <time>2022-06-09T13:40:49Z</time>
      </trkpt>
      <trkpt lat="46.41389" lon="5.69133">
        <ele>621</ele>
        <time>2022-06-09T13:40:52Z</time>
      </trkpt>
      <trkpt lat="46.41391" lon="5.69139">
        <ele>620.9</ele>
        <time>2022-06-09T13:40:55Z</time>
      </trkpt>
      <trkpt lat="46.41393" lon="5.69146">
        <ele>621.2</ele>
        <time>2022-06-09T13:40:58Z</time>
      </trkpt>
      <trkpt lat="46.41396" lon="5.69152">
        <ele>621.7</ele>
        <time>2022-06-09T13:41:01Z</time>
      </trkpt>
      <trkpt lat="46.414" lon="5.69157">
        <ele>622.3</ele>
        <time>2022-06-09T13:41:04Z</time>
      </trkpt>
      <trkpt lat="46.41402" lon="5.69163">
        <ele>623.2</ele>
        <time>2022-06-09T13:41:09Z</time>
      </trkpt>
      <trkpt lat="46.41397" lon="5.69161">
        <ele>622.2</ele>
        <time>2022-06-09T13:41:21Z</time>
      </trkpt>
      <trkpt lat="46.41395" lon="5.69167">
        <ele>621.4</ele>
        <time>2022-06-09T13:41:25Z</time>
      </trkpt>
      <trkpt lat="46.41396" lon="5.69174">
        <ele>620.2</ele>
        <time>2022-06-09T13:41:29Z</time>
      </trkpt>
      <trkpt lat="46.41398" lon="5.69181">
        <ele>618.8</ele>
        <time>2022-06-09T13:41:33Z</time>
      </trkpt>
      <trkpt lat="46.41401" lon="5.69186">
        <ele>617.3</ele>
        <time>2022-06-09T13:41:37Z</time>
      </trkpt>
      <trkpt lat="46.41405" lon="5.6919">
        <ele>616.6</ele>
        <time>2022-06-09T13:41:40Z</time>
      </trkpt>
      <trkpt lat="46.41409" lon="5.69195">
        <ele>616.3</ele>
        <time>2022-06-09T13:41:43Z</time>
      </trkpt>
      <trkpt lat="46.41413" lon="5.692">
        <ele>616.3</ele>
        <time>2022-06-09T13:41:46Z</time>
      </trkpt>
      <trkpt lat="46.41417" lon="5.69205">
        <ele>616.9</ele>
        <time>2022-06-09T13:41:50Z</time>
      </trkpt>
      <trkpt lat="46.41423" lon="5.69209">
        <ele>618.2</ele>
        <time>2022-06-09T13:41:54Z</time>
      </trkpt>
      <trkpt lat="46.41427" lon="5.69212">
        <ele>619.2</ele>
        <time>2022-06-09T13:41:57Z</time>
      </trkpt>
      <trkpt lat="46.41431" lon="5.69216">
        <ele>620.5</ele>
        <time>2022-06-09T13:42:01Z</time>
      </trkpt>
      <trkpt lat="46.41436" lon="5.69218">
        <ele>622</ele>
        <time>2022-06-09T13:42:05Z</time>
      </trkpt>
      <trkpt lat="46.41442" lon="5.6922">
        <ele>623.2</ele>
        <time>2022-06-09T13:42:09Z</time>
      </trkpt>
      <trkpt lat="46.41446" lon="5.69222">
        <ele>624.2</ele>
        <time>2022-06-09T13:42:14Z</time>
      </trkpt>
      <trkpt lat="46.4145" lon="5.69226">
        <ele>624.9</ele>
        <time>2022-06-09T13:42:20Z</time>
      </trkpt>
      <trkpt lat="46.41454" lon="5.69232">
        <ele>624.7</ele>
        <time>2022-06-09T13:42:24Z</time>
      </trkpt>
      <trkpt lat="46.41457" lon="5.69236">
        <ele>623.7</ele>
        <time>2022-06-09T13:42:28Z</time>
      </trkpt>
      <trkpt lat="46.4146" lon="5.69242">
        <ele>623</ele>
        <time>2022-06-09T13:42:33Z</time>
      </trkpt>
      <trkpt lat="46.41463" lon="5.69247">
        <ele>622.8</ele>
        <time>2022-06-09T13:42:39Z</time>
      </trkpt>
      <trkpt lat="46.41468" lon="5.69249">
        <ele>622.8</ele>
        <time>2022-06-09T13:42:44Z</time>
      </trkpt>
      <trkpt lat="46.41473" lon="5.69251">
        <ele>623.5</ele>
        <time>2022-06-09T13:42:49Z</time>
      </trkpt>
      <trkpt lat="46.41478" lon="5.69251">
        <ele>625.1</ele>
        <time>2022-06-09T13:42:54Z</time>
      </trkpt>
      <trkpt lat="46.41483" lon="5.69249">
        <ele>626.8</ele>
        <time>2022-06-09T13:43:00Z</time>
      </trkpt>
      <trkpt lat="46.41488" lon="5.69245">
        <ele>627.8</ele>
        <time>2022-06-09T13:43:05Z</time>
      </trkpt>
      <trkpt lat="46.41494" lon="5.69245">
        <ele>628.5</ele>
        <time>2022-06-09T13:43:11Z</time>
      </trkpt>
      <trkpt lat="46.41498" lon="5.69244">
        <ele>628.7</ele>
        <time>2022-06-09T13:43:14Z</time>
      </trkpt>
      <trkpt lat="46.41503" lon="5.69243">
        <ele>629</ele>
        <time>2022-06-09T13:43:17Z</time>
      </trkpt>
      <trkpt lat="46.41508" lon="5.69245">
        <ele>629.6</ele>
        <time>2022-06-09T13:43:21Z</time>
      </trkpt>
      <trkpt lat="46.41513" lon="5.69246">
        <ele>628.5</ele>
        <time>2022-06-09T13:43:28Z</time>
      </trkpt>
      <trkpt lat="46.41518" lon="5.69246">
        <ele>628</ele>
        <time>2022-06-09T13:43:31Z</time>
      </trkpt>
      <trkpt lat="46.41522" lon="5.69243">
        <ele>628</ele>
        <time>2022-06-09T13:43:36Z</time>
      </trkpt>
      <trkpt lat="46.41526" lon="5.6924">
        <ele>628</ele>
        <time>2022-06-09T13:43:41Z</time>
      </trkpt>
      <trkpt lat="46.41531" lon="5.69236">
        <ele>626.9</ele>
        <time>2022-06-09T13:43:47Z</time>
      </trkpt>
      <trkpt lat="46.41536" lon="5.69234">
        <ele>626.4</ele>
        <time>2022-06-09T13:43:51Z</time>
      </trkpt>
      <trkpt lat="46.41542" lon="5.69233">
        <ele>626.3</ele>
        <time>2022-06-09T13:43:54Z</time>
      </trkpt>
      <trkpt lat="46.4155" lon="5.69231">
        <ele>626.4</ele>
        <time>2022-06-09T13:43:57Z</time>
      </trkpt>
      <trkpt lat="46.41556" lon="5.6923">
        <ele>626.7</ele>
        <time>2022-06-09T13:44:00Z</time>
      </trkpt>
      <trkpt lat="46.41561" lon="5.69228">
        <ele>627.1</ele>
        <time>2022-06-09T13:44:03Z</time>
      </trkpt>
      <trkpt lat="46.41566" lon="5.69226">
        <ele>627.8</ele>
        <time>2022-06-09T13:44:07Z</time>
      </trkpt>
      <trkpt lat="46.4157" lon="5.69224">
        <ele>629</ele>
        <time>2022-06-09T13:44:11Z</time>
      </trkpt>
      <trkpt lat="46.41575" lon="5.69225">
        <ele>630</ele>
        <time>2022-06-09T13:44:14Z</time>
      </trkpt>
      <trkpt lat="46.4158" lon="5.69225">
        <ele>631.1</ele>
        <time>2022-06-09T13:44:17Z</time>
      </trkpt>
      <trkpt lat="46.41585" lon="5.69226">
        <ele>632.6</ele>
        <time>2022-06-09T13:44:20Z</time>
      </trkpt>
      <trkpt lat="46.4159" lon="5.69226">
        <ele>634.6</ele>
        <time>2022-06-09T13:44:24Z</time>
      </trkpt>
      <trkpt lat="46.41595" lon="5.69228">
        <ele>635.9</ele>
        <time>2022-06-09T13:44:28Z</time>
      </trkpt>
      <trkpt lat="46.416" lon="5.69229">
        <ele>637.1</ele>
        <time>2022-06-09T13:44:34Z</time>
      </trkpt>
      <trkpt lat="46.41604" lon="5.69229">
        <ele>636.7</ele>
        <time>2022-06-09T13:44:47Z</time>
      </trkpt>
      <trkpt lat="46.41609" lon="5.6923">
        <ele>636.7</ele>
        <time>2022-06-09T13:44:51Z</time>
      </trkpt>
      <trkpt lat="46.41615" lon="5.69228">
        <ele>636.7</ele>
        <time>2022-06-09T13:44:54Z</time>
      </trkpt>
      <trkpt lat="46.4162" lon="5.69226">
        <ele>636.5</ele>
        <time>2022-06-09T13:44:57Z</time>
      </trkpt>
      <trkpt lat="46.41624" lon="5.69224">
        <ele>636.3</ele>
        <time>2022-06-09T13:45:00Z</time>
      </trkpt>
      <trkpt lat="46.4163" lon="5.69222">
        <ele>636.5</ele>
        <time>2022-06-09T13:45:05Z</time>
      </trkpt>
      <trkpt lat="46.41635" lon="5.69223">
        <ele>637.3</ele>
        <time>2022-06-09T13:45:09Z</time>
      </trkpt>
      <trkpt lat="46.41641" lon="5.69223">
        <ele>638.2</ele>
        <time>2022-06-09T13:45:13Z</time>
      </trkpt>
      <trkpt lat="46.41646" lon="5.69223">
        <ele>639.2</ele>
        <time>2022-06-09T13:45:17Z</time>
      </trkpt>
      <trkpt lat="46.41651" lon="5.69223">
        <ele>639.9</ele>
        <time>2022-06-09T13:45:20Z</time>
      </trkpt>
      <trkpt lat="46.41657" lon="5.69224">
        <ele>640.6</ele>
        <time>2022-06-09T13:45:23Z</time>
      </trkpt>
      <trkpt lat="46.41662" lon="5.69224">
        <ele>641.3</ele>
        <time>2022-06-09T13:45:27Z</time>
      </trkpt>
      <trkpt lat="46.41667" lon="5.69222">
        <ele>641.8</ele>
        <time>2022-06-09T13:45:31Z</time>
      </trkpt>
      <trkpt lat="46.41673" lon="5.6922">
        <ele>641.9</ele>
        <time>2022-06-09T13:45:35Z</time>
      </trkpt>
      <trkpt lat="46.41678" lon="5.69222">
        <ele>642.3</ele>
        <time>2022-06-09T13:45:40Z</time>
      </trkpt>
      <trkpt lat="46.41682" lon="5.69226">
        <ele>643.1</ele>
        <time>2022-06-09T13:45:44Z</time>
      </trkpt>
      <trkpt lat="46.41687" lon="5.69229">
        <ele>643.8</ele>
        <time>2022-06-09T13:45:48Z</time>
      </trkpt>
      <trkpt lat="46.41691" lon="5.69233">
        <ele>643</ele>
        <time>2022-06-09T13:45:55Z</time>
      </trkpt>
      <trkpt lat="46.41696" lon="5.69234">
        <ele>641.9</ele>
        <time>2022-06-09T13:45:59Z</time>
      </trkpt>
      <trkpt lat="46.41702" lon="5.69234">
        <ele>640.9</ele>
        <time>2022-06-09T13:46:03Z</time>
      </trkpt>
      <trkpt lat="46.41706" lon="5.69232">
        <ele>640.2</ele>
        <time>2022-06-09T13:46:06Z</time>
      </trkpt>
      <trkpt lat="46.41712" lon="5.69233">
        <ele>639.6</ele>
        <time>2022-06-09T13:46:10Z</time>
      </trkpt>
      <trkpt lat="46.41717" lon="5.69236">
        <ele>639.1</ele>
        <time>2022-06-09T13:46:14Z</time>
      </trkpt>
      <trkpt lat="46.41721" lon="5.69237">
        <ele>638.8</ele>
        <time>2022-06-09T13:46:18Z</time>
      </trkpt>
      <trkpt lat="46.41727" lon="5.69234">
        <ele>638.6</ele>
        <time>2022-06-09T13:46:24Z</time>
      </trkpt>
      <trkpt lat="46.41732" lon="5.69233">
        <ele>638.5</ele>
        <time>2022-06-09T13:46:28Z</time>
      </trkpt>
      <trkpt lat="46.41737" lon="5.69233">
        <ele>638.3</ele>
        <time>2022-06-09T13:46:32Z</time>
      </trkpt>
      <trkpt lat="46.41743" lon="5.69234">
        <ele>638.1</ele>
        <time>2022-06-09T13:46:36Z</time>
      </trkpt>
      <trkpt lat="46.41748" lon="5.69234">
        <ele>637.9</ele>
        <time>2022-06-09T13:46:40Z</time>
      </trkpt>
      <trkpt lat="46.41753" lon="5.69235">
        <ele>637.4</ele>
        <time>2022-06-09T13:46:48Z</time>
      </trkpt>
      <trkpt lat="46.41757" lon="5.69236">
        <ele>636.3</ele>
        <time>2022-06-09T13:46:58Z</time>
      </trkpt>
      <trkpt lat="46.41765" lon="5.69231">
        <ele>634.4</ele>
        <time>2022-06-09T13:47:28Z</time>
      </trkpt>
      <trkpt lat="46.4177" lon="5.69231">
        <ele>633.9</ele>
        <time>2022-06-09T13:47:31Z</time>
      </trkpt>
      <trkpt lat="46.41765" lon="5.6923">
        <ele>632.8</ele>
        <time>2022-06-09T13:47:39Z</time>
      </trkpt>
      <trkpt lat="46.41761" lon="5.69227">
        <ele>631.6</ele>
        <time>2022-06-09T13:47:45Z</time>
      </trkpt>
      <trkpt lat="46.4176" lon="5.69234">
        <ele>632.9</ele>
        <time>2022-06-09T13:48:17Z</time>
      </trkpt>
      <trkpt lat="46.41764" lon="5.6924">
        <ele>632.4</ele>
        <time>2022-06-09T13:48:20Z</time>
      </trkpt>
      <trkpt lat="46.41769" lon="5.69246">
        <ele>632.1</ele>
        <time>2022-06-09T13:48:23Z</time>
      </trkpt>
      <trkpt lat="46.41774" lon="5.6925">
        <ele>631.8</ele>
        <time>2022-06-09T13:48:27Z</time>
      </trkpt>
      <trkpt lat="46.41779" lon="5.6925">
        <ele>632</ele>
        <time>2022-06-09T13:48:32Z</time>
      </trkpt>
      <trkpt lat="46.41784" lon="5.69251">
        <ele>632.3</ele>
        <time>2022-06-09T13:48:37Z</time>
      </trkpt>
      <trkpt lat="46.4179" lon="5.69248">
        <ele>632.3</ele>
        <time>2022-06-09T13:48:43Z</time>
      </trkpt>
      <trkpt lat="46.41795" lon="5.69248">
        <ele>632.1</ele>
        <time>2022-06-09T13:48:46Z</time>
      </trkpt>
      <trkpt lat="46.41802" lon="5.69247">
        <ele>631.7</ele>
        <time>2022-06-09T13:48:49Z</time>
      </trkpt>
      <trkpt lat="46.41807" lon="5.69248">
        <ele>631.1</ele>
        <time>2022-06-09T13:48:52Z</time>
      </trkpt>
      <trkpt lat="46.41812" lon="5.69249">
        <ele>630.6</ele>
        <time>2022-06-09T13:48:55Z</time>
      </trkpt>
      <trkpt lat="46.41817" lon="5.69254">
        <ele>630.1</ele>
        <time>2022-06-09T13:48:58Z</time>
      </trkpt>
      <trkpt lat="46.4182" lon="5.69259">
        <ele>629.6</ele>
        <time>2022-06-09T13:49:01Z</time>
      </trkpt>
      <trkpt lat="46.41823" lon="5.69265">
        <ele>629.4</ele>
        <time>2022-06-09T13:49:05Z</time>
      </trkpt>
      <trkpt lat="46.41826" lon="5.69271">
        <ele>628.5</ele>
        <time>2022-06-09T13:49:09Z</time>
      </trkpt>
      <trkpt lat="46.41827" lon="5.69278">
        <ele>626.3</ele>
        <time>2022-06-09T13:49:15Z</time>
      </trkpt>
      <trkpt lat="46.41829" lon="5.69287">
        <ele>625.6</ele>
        <time>2022-06-09T13:49:19Z</time>
      </trkpt>
      <trkpt lat="46.41829" lon="5.69295">
        <ele>624.9</ele>
        <time>2022-06-09T13:49:23Z</time>
      </trkpt>
      <trkpt lat="46.4183" lon="5.69301">
        <ele>623.7</ele>
        <time>2022-06-09T13:49:28Z</time>
      </trkpt>
      <trkpt lat="46.41833" lon="5.69308">
        <ele>622.9</ele>
        <time>2022-06-09T13:49:32Z</time>
      </trkpt>
      <trkpt lat="46.41834" lon="5.69314">
        <ele>621.3</ele>
        <time>2022-06-09T13:49:50Z</time>
      </trkpt>
      <trkpt lat="46.41839" lon="5.69312">
        <ele>621.7</ele>
        <time>2022-06-09T13:49:57Z</time>
      </trkpt>
      <trkpt lat="46.41842" lon="5.69307">
        <ele>622.2</ele>
        <time>2022-06-09T13:50:03Z</time>
      </trkpt>
      <trkpt lat="46.41839" lon="5.69312">
        <ele>623.4</ele>
        <time>2022-06-09T13:50:19Z</time>
      </trkpt>
    </trkseg>
  </trk>
</gpx>